# Wetter Temperatur Luftdruck Luftfeuchtigkeit Sichtweite Windgeschwindigkeit Windrichtung Zeit
1 Snow -16 1018 92 4000 2.57 280 04:29 17.01.2021
2 Clouds -24 1019 84 10000 0.51 290 02:49 17.01.2021
3 Clouds -24 1019 84 10000 2.06 280 00:52 17.01.2021
4 Clear -22 1019 84 10000 1.54 270 00:20 17.01.2021
5 Clear -22 1019 84 10000 1.54 270 23:52 16.01.2021
6 Clear -23 1020 84 10000 1.03 300 23:20 16.01.2021
7 Clear -24 1020 84 10000 1.03 300 22:49 16.01.2021
8 Clear -20 1020 92 10000 1.54 300 21:59 16.01.2021
9 Clear -20 1020 92 10000 1.54 300 21:40 16.01.2021
10 Clear -22 1020 84 10000 1.54 310 21:20 16.01.2021
11 Clear -22 1019 84 10000 2.06 320 20:45 16.01.2021
12 Clear -23 1019 84 10000 2.57 330 20:22 16.01.2021
13 Clear -21 1020 84 10000 2.06 310 19:48 16.01.2021
14 Clear -21 1020 84 10000 2.06 310 19:29 16.01.2021
15 Clear -23 1019 84 10000 1.54 340 18:43 16.01.2021
16 Clear -23 1019 84 10000 1.54 340 18:25 16.01.2021
17 Clear -19 1020 84 10000 1.03 0 17:48 16.01.2021
18 Clear -20 1020 84 10000 1.03 0 17:29 16.01.2021
19 Clear -19 1020 84 10000 2.06 340 16:47 16.01.2021
20 Clear -19 1020 84 10000 2.06 340 16:27 16.01.2021
21 Clear -18 1020 92 10000 1.54 360 15:54 16.01.2021
22 Clear -17 1020 85 10000 1.54 340 15:26 16.01.2021
23 Clear -14 1020 78 10000 2.06 340 14:25 16.01.2021
24 Clear -16 1020 78 10000 2.57 360 13:49 16.01.2021
25 Clear -16 1020 72 10000 2.06 350 13:25 16.01.2021
26 Clear -17 1020 85 10000 2.06 10 12:46 16.01.2021
27 Clear -17 1020 78 10000 2.57 10 12:20 16.01.2021
28 Clear -17 1020 85 10000 2.57 350 11:49 16.01.2021
29 Clear -17 1020 85 10000 2.57 350 11:25 16.01.2021
30 Clear -18 1020 85 10000 2.06 360 10:47 16.01.2021
31 Clear -15 1020 85 10000 2.57 10 10:24 16.01.2021
32 Clear -16 1020 78 10000 3.09 10 09:39 16.01.2021
33 Clear -19 1019 84 10000 2.57 20 09:19 16.01.2021
34 Clear -17 1019 85 10000 3.6 30 07:51 16.01.2021
35 Clouds -16 1018 85 10000 3.09 20 06:44 16.01.2021
36 Snow -14 1017 85 10000 4.12 40 04:40 16.01.2021
37 Snow -13 1016 85 10000 3.6 30 02:56 16.01.2021
38 Snow -12 1016 85 5000 1.54 10 01:44 16.01.2021
39 Snow -13 1016 85 7000 2.57 340 00:38 16.01.2021
40 Snow -13 1016 85 10000 3.09 320 00:19 16.01.2021
41 Snow -13 1017 85 7000 2.06 310 23:24 15.01.2021
42 Snow -14 1017 85 5000 2.57 320 22:26 15.01.2021
43 Snow -14 1018 85 4000 1.54 330 21:47 15.01.2021
44 Snow -14 1018 85 6000 2.06 320 21:25 15.01.2021
45 Snow -14 1018 85 10000 2.06 310 20:42 15.01.2021
46 Snow -15 1018 85 10000 2.06 320 20:23 15.01.2021
47 Snow -15 1018 85 10000 2.06 310 19:42 15.01.2021
48 Snow -15 1018 85 10000 2.06 310 19:24 15.01.2021
49 Snow -14 1019 85 10000 2.57 310 18:45 15.01.2021
50 Snow -15 1019 78 10000 2.57 320 18:20 15.01.2021
51 Snow -14 1019 78 10000 3.6 320 17:53 15.01.2021
52 Snow -17 1019 78 10000 3.6 320 17:27 15.01.2021
53 Clear -17 1019 78 10000 4.12 330 16:58 15.01.2021
54 Clear -17 1019 78 10000 3.6 320 16:26 15.01.2021
55 Clear -17 1020 78 10000 3.09 330 15:56 15.01.2021
56 Clear -17 1020 78 10000 3.09 330 15:37 15.01.2021
57 Clear -17 1020 78 10000 2.57 330 15:18 15.01.2021
58 Clear -17 1020 78 10000 2.57 330 15:18 15.01.2021
59 Clear -18 1020 78 10000 3.6 330 14:37 15.01.2021
60 Clear -18 1020 78 10000 3.09 330 14:18 15.01.2021
61 Clear -18 1020 78 10000 3.6 340 13:40 15.01.2021
62 Clear -19 1020 71 10000 3.09 320 13:19 15.01.2021
63 Clear -20 1020 77 10000 3.6 360 12:40 15.01.2021
64 Clear -20 1020 71 10000 3.09 350 12:21 15.01.2021
65 Clear -17 1020 77 10000 4.12 350 11:42 15.01.2021
66 Clear -17 1020 77 10000 4.12 350 11:42 15.01.2021
67 Clear -22 1020 77 10000 4.12 350 10:59 15.01.2021
68 Clear -22 1020 77 10000 4.12 350 10:41 15.01.2021
69 Clear -22 1021 77 10000 4.12 360 10:21 15.01.2021
70 Clear -23 1020 77 10000 4.63 350 09:48 15.01.2021
71 Clear -23 1020 77 10000 4.12 360 09:28 15.01.2021
72 Clear -23 1020 77 10000 3.6 360 08:28 15.01.2021
73 Clear -23 1020 77 10000 3.6 350 08:28 15.01.2021
74 Clear -23 1020 77 10000 4.12 350 07:44 15.01.2021
75 Clear -23 1020 77 10000 4.63 350 07:23 15.01.2021
76 Clear -23 1020 77 10000 4.12 350 06:35 15.01.2021
77 Clear -22 1020 77 10000 5.14 350 02:43 15.01.2021
78 Clear -22 1020 84 10000 3.6 360 00:41 15.01.2021
79 Clear -22 1020 84 10000 4.12 10 23:30 14.01.2021
80 Clear -22 1020 84 10000 4.12 360 22:56 14.01.2021
81 Clear -20 1020 77 10000 4.12 360 22:37 14.01.2021
82 Clear -20 1020 77 10000 4.12 360 22:37 14.01.2021
83 Clear -21 1020 84 10000 3.6 10 22:18 14.01.2021
84 Clear -21 1020 77 10000 4.12 360 21:39 14.01.2021
85 Clear -21 1020 77 10000 4.12 360 21:20 14.01.2021
86 Clear -20 1020 77 10000 4.12 360 20:44 14.01.2021
87 Clear -21 1020 84 10000 4.63 360 19:59 14.01.2021
88 Clear -21 1020 84 10000 4.12 360 19:38 14.01.2021
89 Clear -20 1020 77 10000 4.63 360 19:18 14.01.2021
90 Clear -19 1020 77 10000 4.63 10 18:42 14.01.2021
91 Clear -18 1020 84 10000 4.63 360 17:59 14.01.2021
92 Clear -18 1020 84 10000 4.63 360 17:59 14.01.2021
93 Clear -18 1020 84 10000 4.63 10 17:33 14.01.2021
94 Clear -17 1020 84 10000 5.66 360 16:56 14.01.2021
95 Clear -17 1020 84 10000 5.66 360 16:35 14.01.2021
96 Clear -17 1020 85 10000 5.66 360 15:55 14.01.2021
97 Clear -16 1020 85 10000 5.66 360 15:32 14.01.2021
98 Clear -15 1019 78 10000 4.63 350 14:48 14.01.2021
99 Clear -15 1019 78 10000 4.63 360 14:30 14.01.2021
100 Clear -14 1019 78 10000 4.63 360 13:56 14.01.2021
101 Clear -14 1019 78 10000 4.63 360 13:24 14.01.2021
102 Clouds -14 1019 78 10000 5.14 360 12:58 14.01.2021
103 Snow -14 1020 85 8000 4.63 360 12:23 14.01.2021
104 Snow -14 1020 85 8000 4.63 360 11:59 14.01.2021
105 Snow -14 1020 85 10000 4.12 360 11:41 14.01.2021
106 Snow -13 1020 78 10000 4.63 10 11:19 14.01.2021
107 Snow -13 1020 85 10000 5.14 10 10:42 14.01.2021
108 Snow -13 1020 85 10000 4.63 10 10:19 14.01.2021
109 Snow -13 1020 78 10000 4.12 360 09:42 14.01.2021
110 Snow -12 1019 78 10000 5.14 20 09:21 14.01.2021
111 Snow -12 1019 85 10000 4.63 20 08:34 14.01.2021
112 Snow -12 1019 85 10000 4.12 20 07:58 14.01.2021
113 Snow -12 1019 85 10000 4.12 20 07:39 14.01.2021
114 Snow -12 1019 85 10000 4.12 10 06:37 14.01.2021
115 Snow -11 1019 85 10000 4.63 20 04:57 14.01.2021
116 Clouds -9 1017 92 10000 5.66 30 00:27 14.01.2021
117 Snow -9 1017 92 8000 5.66 30 23:33 13.01.2021
118 Snow -9 1017 92 9000 6.69 40 22:51 13.01.2021
119 Snow -9 1017 92 4000 6.17 40 22:23 13.01.2021
120 Snow -9 1016 92 7000 6.69 50 21:48 13.01.2021
121 Snow -9 1016 92 8000 7.2 50 21:22 13.01.2021
122 Snow -9 1016 92 7000 7.2 50 20:51 13.01.2021
123 Snow -9 1016 92 9000 7.72 50 20:26 13.01.2021
124 Snow -9 1016 92 9000 7.2 50 19:52 13.01.2021
125 Snow -9 1016 92 9000 7.2 50 19:27 13.01.2021
126 Snow -9 1015 92 10000 7.2 50 18:52 13.01.2021
127 Snow -8 1015 92 10000 7.2 50 18:33 13.01.2021
128 Snow -8 1015 86 5000 7.2 50 17:51 13.01.2021
129 Snow -8 1015 86 4500 7.2 50 17:18 13.01.2021
130 Snow -8 1014 86 6000 7.2 60 16:46 13.01.2021
131 Snow -8 1014 86 8000 7.2 50 16:21 13.01.2021
132 Snow -8 1014 86 10000 7.72 50 15:49 13.01.2021
133 Clouds -8 1014 86 10000 7.72 50 15:31 13.01.2021
134 Snow -8 1013 86 9000 8.75 50 14:33 13.01.2021
135 Snow -7 1013 86 5000 8.23 50 13:49 13.01.2021
136 Snow -7 1013 86 5000 8.23 50 13:25 13.01.2021
137 Snow -7 1013 92 4000 8.23 60 12:46 13.01.2021
138 Snow -7 1013 92 4000 8.23 60 12:27 13.01.2021
139 Snow -6 1012 93 3000 8.75 60 11:53 13.01.2021
140 Snow -6 1012 93 3000 8.75 60 11:34 13.01.2021
141 Snow -6 1012 93 3500 8.75 50 10:50 13.01.2021
142 Snow -6 1011 93 3000 8.23 50 10:29 13.01.2021
143 Snow -6 1011 93 3000 8.23 50 09:49 13.01.2021
144 Snow -5 1010 93 2500 7.72 50 09:28 13.01.2021
145 Snow -5 1010 93 2000 8.75 60 08:48 13.01.2021
146 Snow -5 1009 93 2500 8.75 60 08:25 13.01.2021
147 Snow -5 1009 93 3000 8.75 50 07:30 13.01.2021
148 Snow -3 1008 93 3000 8.23 60 06:26 13.01.2021
149 Snow -2 1007 93 2000 6.69 80 04:19 13.01.2021
150 Snow -2 1007 93 2000 6.69 80 03:44 13.01.2021
151 Snow -2 1006 93 2200 7.2 90 03:23 13.01.2021
152 Snow -1 1005 93 1800 7.72 100 00:54 13.01.2021
153 Snow -1 1005 93 1900 6.69 110 23:44 12.01.2021
154 Snow -1 1004 93 2500 6.17 120 23:19 12.01.2021
155 Snow -1 1004 93 2200 7.72 120 22:39 12.01.2021
156 Snow -1 1004 93 2200 6.69 120 22:20 12.01.2021
157 Snow -1 1004 93 2000 7.72 120 21:44 12.01.2021
158 Snow -1 1003 93 2000 7.72 120 21:26 12.01.2021
159 Snow -1 1003 93 1800 8.75 120 20:48 12.01.2021
160 Snow -1 1003 93 1800 8.75 120 20:27 12.01.2021
161 Snow -1 1002 93 900 8.23 120 19:44 12.01.2021
162 Snow -1 1002 93 1000 8.75 120 18:59 12.01.2021
163 Snow -1 1002 93 1000 8.23 120 18:41 12.01.2021
164 Snow 0 1002 86 3000 8.23 120 18:21 12.01.2021
165 Snow 0 1001 86 7000 9.26 120 17:34 12.01.2021
166 Snow 0 1001 86 7000 8.75 120 16:56 12.01.2021
167 Snow 0 1001 86 7000 8.75 120 16:38 12.01.2021
168 Snow -1 1001 100 1200 9.26 120 16:18 12.01.2021
169 Snow -1 1001 100 1200 9.26 120 16:18 12.01.2021
170 Snow -1 1001 100 1200 9.26 120 15:29 12.01.2021
171 Snow -1 1001 93 1000 10.29 120 14:58 12.01.2021
172 Snow -1 1001 93 1000 10.29 120 14:39 12.01.2021
173 Snow -1 1001 93 600 9.26 120 14:19 12.01.2021
174 Snow -1 1001 93 1200 9.77 120 13:46 12.01.2021
175 Snow -1 1001 93 1000 9.77 120 12:39 12.01.2021
176 Snow -1 1001 93 500 8.75 120 11:55 12.01.2021
177 Snow -1 1001 93 500 8.75 120 11:36 12.01.2021
178 Snow -1 1002 93 400 9.26 120 10:45 12.01.2021
179 Snow -1 1002 93 400 9.26 120 10:20 12.01.2021
180 Snow -1 1002 93 400 9.26 120 10:20 12.01.2021
181 Snow -1 1002 93 500 9.26 110 09:55 12.01.2021
182 Snow -1 1002 93 600 10.29 120 09:24 12.01.2021
183 Snow -1 1002 93 700 9.77 120 08:42 12.01.2021
184 Snow -1 1002 93 700 8.75 120 08:21 12.01.2021
185 Snow -2 1003 93 1200 9.26 110 07:34 12.01.2021
186 Snow -2 1003 93 1500 8.75 110 06:20 12.01.2021
187 Snow -2 1004 93 1500 8.75 120 05:26 12.01.2021
188 Clouds -2 1005 93 10000 9.26 120 03:24 12.01.2021
189 Clouds -2 1007 93 10000 8.23 120 02:18 12.01.2021
190 Clouds -2 1008 93 10000 7.72 130 01:25 12.01.2021
191 Clouds -2 1008 93 10000 7.72 120 23:45 11.01.2021
192 Clouds -1 1008 100 10000 6.17 120 23:20 11.01.2021
193 Clouds -2 1009 100 10000 6.17 120 22:50 11.01.2021
194 Clouds -2 1009 100 10000 6.17 120 22:32 11.01.2021
195 Clouds -2 1009 93 10000 6.69 130 21:55 11.01.2021
196 Clouds -2 1009 93 10000 7.72 120 21:37 11.01.2021
197 Snow -1 1009 93 10000 7.2 130 21:18 11.01.2021
198 Snow -1 1009 93 10000 6.17 140 20:40 11.01.2021
199 Clouds -1 1009 93 10000 6.17 130 20:22 11.01.2021
200 Clouds -1 1009 93 10000 4.63 120 19:52 11.01.2021
201 Clouds -1 1009 93 10000 5.14 120 19:23 11.01.2021
202 Clouds -1 1010 100 9000 4.63 130 18:44 11.01.2021
203 Clouds -1 1010 100 10000 3.6 120 18:24 11.01.2021
204 Clouds 0 1010 100 10000 3.6 120 17:43 11.01.2021
205 Clouds 0 1010 100 8000 3.09 120 17:25 11.01.2021
206 Clouds -1 1010 100 8000 4.12 120 16:50 11.01.2021
207 Clouds -1 1010 100 8000 4.12 120 16:30 11.01.2021
208 Snow -1 1010 100 4500 3.6 130 15:59 11.01.2021
209 Snow -1 1011 100 4500 3.6 140 15:37 11.01.2021
210 Snow 0 1011 100 2200 4.12 150 14:58 11.01.2021
211 Snow 0 1010 100 3500 4.63 150 14:38 11.01.2021
212 Snow 0 1010 100 2500 4.63 150 13:48 11.01.2021
213 Snow 0 1010 100 3500 4.12 150 13:24 11.01.2021
214 Snow 0 1010 100 2200 4.12 160 12:45 11.01.2021
215 Snow 0 1010 100 2200 4.12 160 12:27 11.01.2021
216 Snow 0 1010 93 3500 3.6 170 11:50 11.01.2021
217 Snow 0 1010 100 2800 4.12 170 11:21 11.01.2021
218 Snow 0 1011 93 7000 4.63 170 10:42 11.01.2021
219 Snow 0 1010 93 10000 4.63 160 10:24 11.01.2021
220 Snow 0 1010 93 10000 5.14 160 09:38 11.01.2021
221 Snow 0 1010 93 10000 4.63 170 09:19 11.01.2021
222 Snow 0 1010 93 2000 5.66 170 08:44 11.01.2021
223 Snow 0 1010 93 2800 5.14 180 07:58 11.01.2021
224 Snow 0 1010 93 10000 6.17 180 07:25 11.01.2021
225 Snow 0 1010 93 10000 6.69 170 06:57 11.01.2021
226 Snow 0 1011 100 1200 7.72 160 03:22 11.01.2021
227 Snow 0 1011 93 1500 7.72 160 01:29 11.01.2021
228 Snow 0 1012 93 5000 6.17 150 23:53 10.01.2021
229 Snow 0 1013 93 4500 6.17 150 23:26 10.01.2021
230 Snow 0 1013 93 5000 5.66 160 22:47 10.01.2021
231 Snow 0 1013 100 4000 5.66 140 22:20 10.01.2021
232 Snow -1 1013 93 3000 5.66 140 21:44 10.01.2021
233 Snow -1 1014 93 10000 6.69 140 21:20 10.01.2021
234 Snow -1 1014 93 8000 6.17 130 20:50 10.01.2021
235 Snow -1 1014 93 8000 6.17 130 20:32 10.01.2021
236 Snow -1 1014 93 6000 5.66 130 19:43 10.01.2021
237 Snow -1 1014 93 6000 5.66 130 19:43 10.01.2021
238 Snow -1 1014 100 5000 5.66 130 19:24 10.01.2021
239 Snow -1 1014 93 2500 6.69 130 18:47 10.01.2021
240 Snow -2 1014 93 2500 7.72 140 18:21 10.01.2021
241 Snow -2 1015 93 2500 6.69 130 17:28 10.01.2021
242 Snow -2 1015 93 2000 6.69 130 16:58 10.01.2021
243 Snow -2 1015 93 2000 5.66 140 16:32 10.01.2021
244 Snow -2 1015 93 4000 6.17 140 15:48 10.01.2021
245 Snow -2 1016 93 5000 4.63 150 15:25 10.01.2021
246 Snow -2 1016 93 5000 5.14 140 14:44 10.01.2021
247 Snow -2 1016 93 4000 4.63 150 14:25 10.01.2021
248 Snow -2 1016 93 4000 4.63 150 13:54 10.01.2021
249 Snow -2 1016 93 7000 4.63 150 13:36 10.01.2021
250 Snow -2 1016 93 9000 5.14 140 13:18 10.01.2021
251 Snow -3 1016 93 10000 4.63 150 12:42 10.01.2021
252 Snow -3 1016 86 10000 5.14 140 11:58 10.01.2021
253 Snow -3 1017 93 10000 2.57 130 11:22 10.01.2021
254 Snow -4 1017 100 10000 1.54 130 10:58 10.01.2021
255 Snow -4 1017 100 10000 1.54 130 10:28 10.01.2021
256 Snow -5 1017 93 8000 2.06 100 09:57 10.01.2021
257 Snow -7 1017 93 8000 2.06 90 09:18 10.01.2021
258 Snow -8 1017 92 8000 2.06 90 08:19 10.01.2021
259 Snow -9 1018 92 10000 1.54 70 07:28 10.01.2021
260 Snow -10 1018 92 10000 1.03 100 06:19 10.01.2021
261 Snow -10 1018 85 10000 0.51 0 05:35 10.01.2021
262 Snow -12 1019 92 10000 0.51 0 02:55 10.01.2021
263 Clouds -12 1019 92 10000 1.03 320 00:48 10.01.2021
264 Clouds -11 1019 85 10000 2.06 340 23:43 09.01.2021
265 Clouds -11 1019 85 10000 2.06 340 23:25 09.01.2021
266 Snow -11 1020 92 4500 3.09 310 22:44 09.01.2021
267 Clouds -12 1020 92 10000 2.57 310 22:18 09.01.2021
268 Clouds -12 1020 92 10000 2.06 340 21:55 09.01.2021
269 Clouds -12 1020 92 10000 2.06 340 21:37 09.01.2021
270 Clouds -11 1020 85 10000 1.03 0 21:18 09.01.2021
271 Clear -11 1020 92 10000 1.03 350 20:39 09.01.2021
272 Clear -10 1020 100 10000 1.03 350 19:44 09.01.2021
273 Clear -10 1020 92 10000 1.54 330 19:22 09.01.2021
274 Clear -9 1020 92 10000 2.06 340 18:41 09.01.2021
275 Clear -9 1020 85 10000 2.57 360 18:20 09.01.2021
276 Clear -8 1020 86 10000 2.57 350 17:46 09.01.2021
277 Clear -8 1020 86 10000 2.57 350 17:27 09.01.2021
278 Clouds -8 1021 86 10000 2.06 10 16:33 09.01.2021
279 Clouds -8 1021 86 10000 2.57 20 15:52 09.01.2021
280 Clear -8 1021 86 10000 2.57 20 15:32 09.01.2021
281 Clear -7 1021 86 10000 2.06 40 14:40 09.01.2021
282 Clear -7 1021 86 10000 1.03 30 14:20 09.01.2021
283 Clear -7 1021 86 10000 2.57 10 13:48 09.01.2021
284 Clear -7 1021 86 10000 2.57 10 13:29 09.01.2021
285 Clouds -6 1021 79 10000 2.57 30 12:48 09.01.2021
286 Clouds -6 1021 79 10000 3.6 30 12:22 09.01.2021
287 Clouds -6 1021 79 10000 3.6 30 11:55 09.01.2021
288 Clouds -6 1021 79 10000 3.6 20 11:30 09.01.2021
289 Clouds -7 1021 86 10000 3.6 30 10:52 09.01.2021
290 Clouds -7 1021 86 10000 3.6 30 10:30 09.01.2021
291 Clouds -7 1021 93 10000 2.57 40 09:52 09.01.2021
292 Clouds -7 1021 93 10000 2.57 40 09:28 09.01.2021
293 Clouds -7 1021 93 10000 2.57 40 08:34 09.01.2021
294 Snow -5 1021 86 10000 3.09 30 06:57 09.01.2021
295 Snow -5 1021 86 10000 3.09 30 06:39 09.01.2021
296 Clouds -6 1020 93 10000 1.54 30 04:47 09.01.2021
297 Clouds -7 1020 100 10000 2.06 30 03:21 09.01.2021
298 Clouds -6 1020 93 10000 2.06 20 02:30 09.01.2021
299 Clouds -6 1020 93 10000 2.57 30 01:45 09.01.2021
300 Clouds -6 1020 93 10000 3.09 30 00:35 09.01.2021
301 Clouds -5 1020 93 10000 3.6 40 23:57 08.01.2021
302 Clouds -4 1020 86 10000 3.6 40 22:56 08.01.2021
303 Snow -4 1020 93 10000 3.6 40 22:18 08.01.2021
304 Snow -4 1020 93 10000 3.6 40 21:35 08.01.2021
305 Clouds -4 1020 93 10000 4.12 40 20:42 08.01.2021
306 Clouds -4 1019 93 10000 4.12 40 20:23 08.01.2021
307 Clouds -4 1019 93 10000 4.12 40 19:44 08.01.2021
308 Clouds -4 1019 93 10000 4.63 30 19:21 08.01.2021
309 Clouds -4 1019 93 10000 5.14 30 18:34 08.01.2021
310 Clouds -4 1019 93 10000 5.14 30 18:34 08.01.2021
311 Clouds -4 1019 93 10000 4.63 30 17:55 08.01.2021
312 Clouds -4 1019 93 10000 5.14 30 17:30 08.01.2021
313 Clouds -4 1019 93 10000 4.63 40 16:51 08.01.2021
314 Clouds -4 1019 93 10000 4.63 40 16:51 08.01.2021
315 Snow -4 1018 93 10000 4.63 40 16:20 08.01.2021
316 Snow -4 1018 93 10000 4.12 40 15:40 08.01.2021
317 Snow -4 1018 93 10000 4.12 40 14:42 08.01.2021
318 Snow -4 1018 93 10000 4.63 40 14:23 08.01.2021
319 Clouds -3 1018 93 10000 4.63 40 13:23 08.01.2021
320 Clouds -3 1018 93 10000 4.63 50 12:53 08.01.2021
321 Clouds -4 1018 93 10000 4.63 50 12:26 08.01.2021
322 Clouds -3 1018 93 10000 4.63 40 11:59 08.01.2021
323 Clouds -3 1018 93 10000 4.63 40 11:41 08.01.2021
324 Clouds -3 1018 93 10000 5.14 40 11:20 08.01.2021
325 Clouds -3 1018 100 8000 4.63 40 10:46 08.01.2021
326 Clouds -3 1018 93 10000 4.63 40 10:23 08.01.2021
327 Snow -3 1018 93 10000 4.63 40 09:41 08.01.2021
328 Clouds -3 1018 93 10000 5.14 40 09:20 08.01.2021
329 Clouds -3 1017 93 10000 5.14 50 07:44 08.01.2021
330 Clouds -3 1017 93 10000 5.14 50 07:25 08.01.2021
331 Snow -3 1016 93 10000 5.14 50 04:18 08.01.2021
332 Snow -3 1016 93 10000 6.69 50 23:43 07.01.2021
333 Snow -3 1016 93 10000 6.69 50 23:25 07.01.2021
334 Clouds -3 1016 93 10000 6.17 50 22:36 07.01.2021
335 Clouds -3 1016 93 10000 6.69 50 21:52 07.01.2021
336 Clouds -3 1016 93 10000 6.69 50 21:33 07.01.2021
337 Snow -3 1016 93 10000 6.17 50 20:56 07.01.2021
338 Snow -3 1016 93 10000 6.17 50 20:37 07.01.2021
339 Snow -2 1016 93 10000 6.17 50 19:50 07.01.2021
340 Snow -2 1016 93 10000 6.17 50 19:30 07.01.2021
341 Snow -2 1016 93 10000 6.17 50 18:50 07.01.2021
342 Snow -2 1016 93 10000 6.17 50 18:21 07.01.2021
343 Snow -2 1016 93 10000 6.69 50 17:36 07.01.2021
344 Snow -2 1016 93 10000 6.17 50 17:18 07.01.2021
345 Snow -2 1016 93 7000 6.17 50 16:42 07.01.2021
346 Snow -2 1016 93 7000 5.66 50 16:18 07.01.2021
347 Snow -2 1016 93 4500 5.66 50 15:31 07.01.2021
348 Snow -1 1017 86 6000 6.17 50 14:39 07.01.2021
349 Snow -1 1017 93 2500 5.14 50 14:20 07.01.2021
350 Snow -1 1017 93 2000 5.66 50 13:31 07.01.2021
351 Snow -1 1017 93 1200 5.14 50 12:57 07.01.2021
352 Snow -1 1017 92 1400 5.7 50 12:29 07.01.2021
353 Snow -1 1018 92 1400 6.2 50 11:48 07.01.2021
354 Snow -1 1018 92 1400 6.2 50 11:29 07.01.2021
355 Snow -1 1018 92 2500 6.2 50 10:39 07.01.2021
356 Snow -2 1018 92 3000 5.7 50 10:19 07.01.2021
357 Snow -2 1018 92 6000 6.2 50 09:42 07.01.2021
358 Snow -2 1018 92 8000 5.7 50 08:53 07.01.2021
359 Snow -2 1018 92 10000 6.2 60 08:24 07.01.2021
360 Snow -2 1018 92 10000 6.2 50 07:43 07.01.2021
361 Snow -1 1019 92 10000 5.7 50 06:51 07.01.2021
362 Snow -2 1020 92 10000 6.2 60 03:18 07.01.2021
363 Snow -2 1021 92 10000 4.6 50 00:25 07.01.2021
364 Snow -2 1021 92 10000 4.6 50 23:36 06.01.2021
365 Snow -2 1022 92 10000 6.2 50 22:37 06.01.2021
366 Snow -3 1022 92 10000 4.1 40 21:42 06.01.2021
367 Snow -3 1022 92 10000 4.1 40 21:22 06.01.2021
368 Snow -3 1022 92 10000 4.1 40 20:50 06.01.2021
369 Clouds -3 1023 92 10000 4.1 30 20:22 06.01.2021
370 Clouds -3 1023 92 10000 5.1 30 19:49 06.01.2021
371 Clouds -3 1023 92 10000 5.1 30 19:29 06.01.2021
372 Clouds -3 1023 86 10000 4.6 30 18:52 06.01.2021
373 Clouds -3 1023 86 10000 4.6 30 18:34 06.01.2021
374 Snow -4 1024 92 10000 4.6 30 17:59 06.01.2021
375 Snow -4 1024 92 10000 4.6 30 17:41 06.01.2021
376 Clouds -4 1024 92 10000 4.6 30 17:21 06.01.2021
377 Clouds -4 1024 85 10000 4.1 40 16:38 06.01.2021
378 Snow -4 1024 85 10000 4.1 40 16:38 06.01.2021
379 Snow -4 1024 92 10000 4.6 30 16:18 06.01.2021
380 Snow -4 1024 92 10000 4.6 40 15:46 06.01.2021
381 Clouds -4 1024 92 10000 4.6 40 15:24 06.01.2021
382 Clouds -3 1025 86 10000 5.7 40 14:36 06.01.2021
383 Snow -3 1025 86 10000 5.1 30 13:56 06.01.2021
384 Clouds -3 1025 86 10000 5.1 30 13:36 06.01.2021
385 Clouds -3 1025 100 10000 5.1 30 13:18 06.01.2021
386 Clouds -4 1025 92 10000 5.1 30 12:42 06.01.2021
387 Clouds -4 1026 92 10000 4.6 30 11:46 06.01.2021
388 Clouds -4 1026 92 10000 4.6 30 11:23 06.01.2021
389 Clouds -4 1026 92 10000 4.6 30 10:46 06.01.2021
390 Clouds -4 1026 92 10000 4.1 30 09:53 06.01.2021
391 Clouds -4 1026 92 10000 4.1 30 09:34 06.01.2021
392 Clouds -4 1026 92 10000 4.1 30 08:55 06.01.2021
393 Clouds -4 1026 92 10000 4.1 30 08:21 06.01.2021
394 Clouds -4 1026 92 10000 4.1 30 07:53 06.01.2021
395 Clouds -4 1027 92 10000 3.6 20 06:45 06.01.2021
396 Clouds -4 1027 92 10000 3.6 30 05:31 06.01.2021
397 Clouds -4 1027 92 10000 3.1 20 04:21 06.01.2021
398 Clouds -5 1028 100 10000 3.1 20 02:44 06.01.2021
399 Clouds -5 1028 100 10000 3.1 20 02:21 06.01.2021
400 Clouds -5 1029 92 10000 2.1 30 23:57 05.01.2021
401 Clouds -5 1029 92 10000 3.1 30 22:57 05.01.2021
402 Clouds -5 1029 92 10000 3.1 30 22:39 05.01.2021
403 Clouds -5 1029 92 10000 2.1 30 22:19 05.01.2021
404 Clouds -4 1029 92 10000 2.1 20 21:37 05.01.2021
405 Clouds -4 1029 92 10000 3.1 40 20:37 05.01.2021
406 Clouds -4 1029 92 10000 4.1 30 20:18 05.01.2021
407 Clouds -4 1029 92 10000 4.6 30 19:41 05.01.2021
408 Clouds -4 1029 92 10000 3.6 20 19:21 05.01.2021
409 Clouds -4 1029 92 10000 3.1 20 18:42 05.01.2021
410 Clouds -4 1029 92 10000 3.1 20 18:21 05.01.2021
411 Clouds -4 1029 92 10000 2.1 40 17:47 05.01.2021
412 Clouds -4 1030 92 10000 3.6 30 17:26 05.01.2021
413 Clouds -4 1030 92 10000 3.1 30 16:51 05.01.2021
414 Clouds -4 1030 92 10000 3.1 20 16:21 05.01.2021
415 Clouds -4 1030 92 10000 3.1 30 15:49 05.01.2021
416 Clouds -4 1030 92 10000 3.1 40 14:50 05.01.2021
417 Clouds -4 1030 92 10000 3.1 20 14:25 05.01.2021
418 Clouds -4 1030 92 10000 3.1 20 13:46 05.01.2021
419 Clouds -4 1030 92 10000 4.1 30 13:23 05.01.2021
420 Clouds -4 1031 92 10000 2.6 30 12:48 05.01.2021
421 Clouds -4 1031 92 10000 2.6 30 12:24 05.01.2021
422 Clouds -4 1031 92 10000 3.6 20 11:39 05.01.2021
423 Clouds -4 1031 92 10000 3.6 20 11:39 05.01.2021
424 -273 0 0 0 0 0 11:37 05.01.2021
425 -273 0 0 0 0 0 11:37 05.01.2021
426 -273 0 0 0 0 0 11:37 05.01.2021
427 Clouds -4 1031 92 10000 3.6 30 10:46 05.01.2021
428 Clouds -4 1031 92 10000 3.6 30 10:26 05.01.2021
429 Clouds -4 1031 92 10000 3.6 40 09:48 05.01.2021
430 Clouds -4 1031 92 10000 3.6 40 09:28 05.01.2021
431 Clouds -3 1030 100 10000 3.1 20 08:25 05.01.2021
432 Clouds -3 1030 92 10000 3.1 20 06:46 05.01.2021
433 Clouds -2 1030 86 10000 3.6 30 03:56 05.01.2021
434 Clouds -2 1030 92 10000 4.1 20 00:48 05.01.2021
435 Clouds -2 1030 92 10000 4.6 20 23:45 04.01.2021
436 Clouds -2 1030 92 10000 4.1 20 23:25 04.01.2021
437 Clouds -2 1030 100 10000 3.6 30 22:49 04.01.2021
438 Clouds -2 1030 100 10000 3.6 20 22:27 04.01.2021
439 Clouds -2 1030 100 10000 3.6 30 21:47 04.01.2021
440 Clouds -1 1030 100 10000 3.6 30 21:29 04.01.2021
441 Clouds -1 1030 100 10000 3.6 30 20:43 04.01.2021
442 Clouds -1 1030 92 10000 3.1 30 20:23 04.01.2021
443 Clouds -1 1030 92 10000 3.6 30 19:51 04.01.2021
444 Clouds -2 1030 92 10000 3.6 30 19:24 04.01.2021
445 Clouds -2 1029 92 10000 3.1 20 18:48 04.01.2021
446 Clouds -2 1029 92 10000 3.6 30 18:23 04.01.2021
447 Clouds -2 1029 92 10000 3.1 30 17:42 04.01.2021
448 Clouds -2 1029 92 10000 3.1 30 17:22 04.01.2021
449 Snow -2 1029 92 10000 3.6 20 16:46 04.01.2021
450 Snow -2 1029 92 10000 3.6 20 16:26 04.01.2021
451 Snow -2 1029 92 10000 3.1 20 15:49 04.01.2021
452 Snow -2 1029 92 10000 3.6 10 15:25 04.01.2021
453 Snow -2 1029 92 10000 3.6 10 14:34 04.01.2021
454 Clouds -1 1029 92 10000 3.6 20 13:44 04.01.2021
455 Clouds -1 1028 92 10000 3.6 20 13:22 04.01.2021
456 Clouds -1 1029 92 10000 3.6 20 12:36 04.01.2021
457 Clouds -2 1028 92 10000 3.6 20 11:55 04.01.2021
458 Clouds -2 1028 92 10000 4.1 10 11:21 04.01.2021
459 Clouds -2 1028 92 10000 4.6 10 10:47 04.01.2021
460 Clouds -2 1028 92 10000 3.1 20 10:25 04.01.2021
461 Clouds -2 1028 92 10000 3.1 10 09:51 04.01.2021
462 Clouds -2 1027 92 10000 3.6 360 09:19 04.01.2021
463 Clouds -2 1027 92 10000 3.6 360 08:42 04.01.2021
464 Clouds -2 1027 92 10000 3.1 10 07:54 04.01.2021
465 Clouds -2 1027 92 10000 3.1 10 07:27 04.01.2021
466 Clouds -2 1026 92 10000 2.6 360 05:31 04.01.2021
467 Clouds -2 1025 92 10000 3.1 10 02:35 04.01.2021
468 Clouds -3 1025 92 10000 3.1 350 00:34 04.01.2021
469 Snow -3 1025 92 10000 3.1 350 23:47 03.01.2021
470 Snow -3 1025 92 10000 2.6 350 23:19 03.01.2021
471 Snow -3 1025 92 10000 2.6 350 22:49 03.01.2021
472 Snow -3 1025 92 10000 2.6 350 22:30 03.01.2021
473 Snow -3 1024 92 10000 3.1 340 21:47 03.01.2021
474 Clouds -3 1024 92 10000 3.1 340 21:25 03.01.2021
475 Clouds -3 1024 86 10000 3.6 340 20:43 03.01.2021
476 Clouds -3 1023 86 10000 3.1 340 20:23 03.01.2021
477 Clouds -3 1023 86 10000 3.1 340 19:54 03.01.2021
478 Clouds -3 1023 86 10000 2.6 330 19:34 03.01.2021
479 Snow -4 1023 92 10000 3.1 340 18:52 03.01.2021
480 Snow -4 1023 92 10000 3.1 340 18:34 03.01.2021
481 Snow -4 1022 86 10000 4.6 330 17:53 03.01.2021
482 Snow -3 1022 86 10000 4.6 330 17:30 03.01.2021
483 Snow -3 1022 86 10000 4.1 320 16:57 03.01.2021
484 Snow -3 1022 86 10000 3.6 320 16:39 03.01.2021
485 Snow -3 1022 86 9000 3.6 320 16:19 03.01.2021
486 Snow -3 1022 86 10000 3.1 320 15:45 03.01.2021
487 Snow -3 1022 86 10000 3.6 320 15:19 03.01.2021
488 Snow -3 1022 86 10000 4.1 320 14:43 03.01.2021
489 Snow -3 1021 86 10000 4.1 320 13:57 03.01.2021
490 Snow -3 1021 86 10000 4.6 320 13:37 03.01.2021
491 Snow -3 1021 92 10000 4.1 320 13:19 03.01.2021
492 Snow -3 1021 92 6000 4.1 310 11:46 03.01.2021
493 Snow -3 1020 92 3000 3.6 310 11:27 03.01.2021
494 Snow -3 1020 92 3000 3.6 310 10:57 03.01.2021
495 Snow -3 1020 92 3000 3.6 310 10:32 03.01.2021
496 Snow -3 1019 92 4000 4.6 310 09:49 03.01.2021
497 Snow -3 1019 92 4000 4.6 310 09:25 03.01.2021
498 Snow -3 1019 92 4000 4.6 310 08:29 03.01.2021
499 Snow -3 1018 92 3000 4.6 300 06:54 03.01.2021
500 Snow -3 1017 92 3000 4.1 290 03:20 03.01.2021
501 Snow -2 1016 86 5000 4.6 300 02:23 03.01.2021
502 Snow -2 1015 92 4500 5.1 300 00:25 03.01.2021
503 Snow -2 1015 92 4000 4.6 300 23:42 02.01.2021
504 Snow -2 1015 92 3000 5.1 300 23:18 02.01.2021
505 Snow -2 1015 92 3000 5.1 300 22:45 02.01.2021
506 Snow -2 1015 92 3000 5.1 300 22:27 02.01.2021
507 Snow -2 1014 92 3000 4.6 300 21:38 02.01.2021
508 Snow -2 1014 92 2500 4.1 300 21:20 02.01.2021
509 Snow -2 1014 100 2000 4.6 300 20:41 02.01.2021
510 Snow -2 1014 100 1800 5.1 310 20:21 02.01.2021
511 Snow -2 1014 100 2000 4.6 310 19:43 02.01.2021
512 Snow -2 1014 100 2000 4.6 310 19:43 02.01.2021
513 Snow -2 1014 100 2500 4.6 310 19:19 02.01.2021
514 Snow -2 1014 100 2500 5.1 310 18:43 02.01.2021
515 Snow -2 1014 100 2500 5.1 310 18:25 02.01.2021
516 Snow -1 1014 100 2500 5.1 310 17:46 02.01.2021
517 Snow -1 1013 100 3500 5.1 310 17:25 02.01.2021
518 Snow -1 1013 100 3000 4.6 310 16:38 02.01.2021
519 Snow -1 1013 92 3000 4.6 310 16:19 02.01.2021
520 Snow -1 1013 92 3000 4.6 310 15:42 02.01.2021
521 Snow -1 1013 92 2000 4.1 320 15:24 02.01.2021
522 Snow -1 1013 92 2500 4.1 320 14:37 02.01.2021
523 Snow -1 1012 92 3000 5.1 320 13:59 02.01.2021
524 Snow -1 1012 92 3000 5.1 320 13:38 02.01.2021
525 Snow -1 1012 92 4500 5.1 320 12:54 02.01.2021
526 Snow 0 1012 96 10000 4.6 320 12:32 02.01.2021
527 Snow 0 1012 96 10000 4.1 320 11:48 02.01.2021
528 Snow 0 1012 93 10000 3.6 340 11:22 02.01.2021
529 Snow 0 1012 93 10000 3.6 340 10:52 02.01.2021
530 Clouds 0 1012 91 10000 3.6 340 10:30 02.01.2021
531 Clouds 0 1012 91 10000 4.6 350 09:54 02.01.2021
532 Snow 0 1012 94 10000 4.1 330 09:28 02.01.2021
533 Snow 0 1012 94 10000 3.6 330 08:50 02.01.2021
534 Snow 0 1012 96 10000 3.6 330 08:28 02.01.2021
535 Clouds 0 1012 96 10000 4.1 340 07:47 02.01.2021
536 Clouds 0 1012 95 10000 4.1 340 07:22 02.01.2021
537 Clouds 0 1012 95 10000 3.6 350 06:46 02.01.2021
538 Clouds 0 1012 93 10000 4.1 350 05:45 02.01.2021
539 Clouds 0 1012 94 6000 4.1 360 00:59 02.01.2021
540 Clouds 0 1012 94 6000 2.1 350 00:37 02.01.2021
541 Mist 0 1012 92 4000 3.1 350 23:56 01.01.2021
542 Fog 0 1012 91 1700 3.1 350 23:22 01.01.2021
543 Fog 0 1012 91 1700 3.1 350 22:48 01.01.2021
544 Mist 0 1012 93 3000 2.1 350 22:26 01.01.2021
545 Mist 0 1012 93 4500 1 0 21:44 01.01.2021
546 Clouds 0 1012 94 7000 1 10 21:22 01.01.2021
547 Clouds 0 1012 94 7000 1.5 50 20:54 01.01.2021
548 Clouds 0 1012 94 7000 1.5 20 20:22 01.01.2021
549 Clouds 1 1012 94 7000 1.5 20 19:59 01.01.2021
550 Clouds 1 1012 94 8000 2.1 30 19:40 01.01.2021
551 Clouds 1 1012 94 8000 2.1 30 19:20 01.01.2021
552 Clouds 1 1012 94 10000 2.6 300 18:41 01.01.2021
553 Clouds 1 1012 94 10000 2.6 290 18:20 01.01.2021
554 Clouds 1 1012 94 10000 3.1 230 17:42 01.01.2021
555 Clouds 1 1012 95 10000 3.1 230 17:22 01.01.2021
556 Clouds 2 1012 93 10000 1.5 200 16:45 01.01.2021
557 Clouds 2 1012 93 10000 1.5 190 15:57 01.01.2021
558 Clouds 2 1012 93 10000 1.5 190 15:39 01.01.2021
559 Clouds 2 1012 93 10000 2.6 190 14:42 01.01.2021
560 Clouds 2 1012 93 10000 2.1 200 14:19 01.01.2021
561 Clouds 2 1012 93 10000 2.6 180 13:37 01.01.2021
562 Clouds 2 1012 100 7000 2.1 180 12:51 01.01.2021
563 Clouds 2 1012 100 7000 2.1 180 12:26 01.01.2021
564 Fog 2 1012 100 5000 1.5 140 11:40 01.01.2021
565 Fog 2 1012 92 5000 1 0 11:18 01.01.2021
566 Mist 2 1011 92 4000 3.07 191 10:52 01.01.2021
567 Fog 1 1011 92 800 1 110 10:22 01.01.2021
568 Drizzle 1 1011 92 600 1 130 09:24 01.01.2021
569 Drizzle 1 1011 92 400 0.5 90 08:30 01.01.2021
570 Fog 1 1010 93 700 1.5 80 06:42 01.01.2021
571 Mist 0 1010 93 2000 1 90 04:49 01.01.2021
572 Fog 0 1009 93 600 2.1 230 01:42 01.01.2021
573 Fog 0 1009 92 400 2.1 220 00:32 01.01.2021
574 Fog 0 1008 100 200 1 0 23:40 31.12.2020
575 Mist 0 1008 94 4500 1 0 23:20 31.12.2020
576 Mist 0 1008 94 4500 1 220 22:42 31.12.2020
577 Mist 0 1008 94 2500 1.5 240 22:22 31.12.2020
578 Mist 0 1008 94 2500 1.5 240 21:56 31.12.2020
579 Snow 1 1008 94 1400 1.5 220 21:36 31.12.2020
580 Snow 0 1008 95 1200 1.5 220 20:58 31.12.2020
581 Snow 0 1007 96 2500 2.67 235 20:27 31.12.2020
582 Snow 1 1007 96 2500 2.67 235 19:50 31.12.2020
583 Snow 1 1007 97 2500 2.36 225 19:32 31.12.2020
584 Snow 1 1007 97 4000 0.5 30 18:53 31.12.2020
585 Snow 1 1007 97 4000 0.5 30 18:25 31.12.2020
586 Snow 1 1006 97 3000 0.5 350 17:48 31.12.2020
587 Snow 1 1006 97 3000 0.5 350 17:28 31.12.2020
588 Snow 1 1006 97 3000 1 40 16:55 31.12.2020
589 Snow 1 1006 97 3000 1 40 16:37 31.12.2020
590 Mist 1 1006 100 2000 1.5 40 16:18 31.12.2020
591 Drizzle 1 1006 100 2000 2.1 40 15:42 31.12.2020
592 Mist 1 1006 100 1200 2.1 50 15:19 31.12.2020
593 Snow 1 1006 100 800 2.1 40 14:40 31.12.2020
594 Snow 1 1006 100 2000 2.1 50 14:22 31.12.2020
595 Snow 2 1006 100 2000 2.1 50 13:57 31.12.2020
596 Snow 2 1006 100 3000 2.1 40 13:36 31.12.2020
597 Snow 2 1006 100 10000 1.5 50 13:18 31.12.2020
598 Snow 2 1006 100 8000 2.6 50 12:45 31.12.2020
599 Snow 2 1006 100 8000 2.6 50 12:26 31.12.2020
600 Snow 2 1006 100 8000 2.1 90 11:46 31.12.2020
601 Snow 2 1006 100 5000 2.1 60 11:28 31.12.2020
602 Snow 2 1006 100 5000 2.1 60 11:28 31.12.2020
603 Snow 2 1006 100 5000 2.1 60 11:28 31.12.2020
604 Snow 2 1006 100 5000 2.1 60 11:28 31.12.2020
605 Snow 2 1006 100 5000 2.1 60 11:28 31.12.2020
606 Drizzle 2 1006 100 5000 2.1 60 11:28 31.12.2020
607 Drizzle 2 1006 100 8000 2.1 90 11:28 31.12.2020
608 Drizzle 2 1006 100 5000 2.1 60 11:28 31.12.2020
609 Snow 2 1006 100 5000 2.1 60 11:28 31.12.2020
610 Clouds 2 1007 100 6000 2.6 70 10:41 31.12.2020
611 Snow 2 1006 100 6000 2.1 70 10:22 31.12.2020
612 Snow 2 1006 100 6000 2.1 70 09:47 31.12.2020
613 Rain 2 1006 93 6000 2.6 90 09:23 31.12.2020
614 Rain 2 1006 93 6000 3.1 90 08:46 31.12.2020
615 Rain 2 1006 93 6000 3.1 90 08:28 31.12.2020
616 Rain 2 1006 93 8000 2.1 90 07:54 31.12.2020
617 Drizzle 2 1006 100 8000 2.6 90 06:57 31.12.2020
618 Drizzle 2 1006 100 10000 2.6 110 05:30 31.12.2020
619 Clouds 2 1007 93 10000 1 0 03:25 31.12.2020
620 Clouds 2 1007 92 10000 4.6 170 02:27 31.12.2020
621 Clouds 2 1007 92 10000 4.6 170 01:53 31.12.2020
622 Clouds 2 1007 91 10000 4.6 170 01:33 31.12.2020
623 Clouds 2 1006 90 10000 5.1 170 00:55 31.12.2020
624 Clouds 2 1006 89 10000 5.7 160 00:24 31.12.2020
625 Clouds 2 1006 93 10000 6.7 160 23:21 30.12.2020
626 Clouds 2 1006 86 10000 6.2 160 22:56 30.12.2020
627 Clouds 3 1006 86 10000 6.2 160 22:34 30.12.2020
628 Clouds 3 1005 86 10000 5.1 170 21:50 30.12.2020
629 Clouds 3 1005 86 10000 5.1 170 21:25 30.12.2020
630 Clouds 3 1005 86 10000 7.7 170 20:53 30.12.2020
631 Clouds 3 1004 86 10000 7.2 160 20:27 30.12.2020
632 Clouds 3 1004 86 10000 7.2 160 19:58 30.12.2020
633 Clouds 3 1004 86 10000 7.2 160 19:58 30.12.2020
634 Clouds 3 1004 80 10000 8.2 170 19:58 30.12.2020
635 Clouds 4 1004 80 10000 8.2 170 19:36 30.12.2020
636 Clouds 3 1003 93 10000 7.7 180 19:18 30.12.2020
637 Clouds 4 1003 86 10000 8.2 170 18:38 30.12.2020
638 Clouds 4 1002 86 10000 8.2 170 18:19 30.12.2020
639 Clouds 4 1002 86 10000 8.2 170 17:42 30.12.2020
640 Clouds 4 1002 86 10000 7.2 170 17:21 30.12.2020
641 Clouds 4 1002 86 10000 8.7 180 16:41 30.12.2020
642 Clouds 4 1001 86 10000 8.7 170 15:50 30.12.2020
643 Clouds 4 1001 86 10000 8.7 170 15:29 30.12.2020
644 Clouds 4 1000 93 10000 9.3 170 14:45 30.12.2020
645 Clouds 4 1000 93 10000 9.3 170 14:26 30.12.2020
646 Clouds 3 1000 93 10000 9.3 170 13:53 30.12.2020
647 Rain 3 999 93 10000 9.3 170 12:49 30.12.2020
648 Rain 3 998 93 10000 9.8 180 12:24 30.12.2020
649 Rain 3 998 93 10000 9.8 180 11:39 30.12.2020
650 Rain 3 997 93 5000 8.2 180 11:20 30.12.2020
651 Rain 2 997 100 6000 5.1 160 10:55 30.12.2020
652 Rain 2 997 100 6000 5.1 160 10:36 30.12.2020
653 Snow 2 997 100 5000 5.7 160 09:55 30.12.2020
654 Rain 1 996 100 6000 5.1 160 09:36 30.12.2020
655 Snow 1 996 96 6000 3.1 110 08:35 30.12.2020
656 Snow 1 996 97 4500 2.6 80 07:32 30.12.2020
657 Snow 1 995 97 4500 3.1 70 06:54 30.12.2020
658 Snow 1 995 97 4000 3.1 70 06:35 30.12.2020
659 Snow 1 996 97 7000 4.1 90 05:46 30.12.2020
660 Rain 1 996 96 7000 4.1 90 05:27 30.12.2020
661 Snow 0 997 92 2500 6.2 100 03:29 30.12.2020
662 Snow 0 997 92 2500 6.2 100 02:47 30.12.2020
663 Snow 0 998 94 2500 6.2 100 02:28 30.12.2020
664 Snow 0 998 94 2000 6.7 100 01:34 30.12.2020
665 Snow 0 998 94 2000 6.7 100 01:34 30.12.2020
666 Snow 0 999 96 3000 5.7 100 00:51 30.12.2020
667 Snow 0 999 96 3000 5.7 100 00:32 30.12.2020
668 Snow 0 999 96 2000 6.2 100 23:58 29.12.2020
669 Snow 0 999 94 2500 6.2 100 23:40 29.12.2020
670 Snow 0 999 94 2500 6.2 100 23:21 29.12.2020
671 Snow 0 1000 94 2500 5.7 100 22:43 29.12.2020
672 Rain 0 1000 92 2500 5.7 100 22:23 29.12.2020
673 Snow 0 1000 92 2500 5.7 100 21:50 29.12.2020
674 Snow 0 1000 92 2500 5.7 100 21:32 29.12.2020
675 Snow 0 1000 96 2500 6.2 100 20:54 29.12.2020
676 Snow 0 1000 96 2500 6.2 100 20:36 29.12.2020
677 Snow 0 1001 94 3500 6.2 100 20:18 29.12.2020
678 Snow 0 1001 94 3000 6.2 100 19:37 29.12.2020
679 Snow 0 1001 96 3000 6.2 100 19:19 29.12.2020
680 Drizzle 1 1001 90 8000 6.7 100 18:44 29.12.2020
681 Rain 1 1001 93 8000 6.7 100 18:24 29.12.2020
682 Clouds 1 1002 93 10000 7.2 100 17:44 29.12.2020
683 Rain 1 1002 94 10000 7.2 100 17:20 29.12.2020
684 Rain 1 1002 93 10000 6.7 100 16:37 29.12.2020
685 Drizzle 1 1002 93 6000 7.2 100 15:59 29.12.2020
686 Snow 1 1002 95 6000 7.2 100 15:36 29.12.2020
687 Snow 1 1003 95 10000 6.7 100 14:59 29.12.2020
688 Clouds 1 1003 94 10000 6.7 100 14:36 29.12.2020
689 Clouds 1 1004 94 10000 7.7 110 14:18 29.12.2020
690 Clouds 1 1004 94 10000 7.2 100 13:39 29.12.2020
691 Clouds 1 1004 91 10000 7.2 100 13:18 29.12.2020
692 Clouds 1 1004 91 10000 7.2 100 13:18 29.12.2020
693 Clouds 0 1004 91 10000 6.7 100 12:37 29.12.2020
694 Clouds 1 1005 91 10000 7.7 110 12:19 29.12.2020
695 Clouds 1 1005 91 10000 7.7 110 11:52 29.12.2020
696 Clouds 1 1005 87 10000 7.7 110 11:31 29.12.2020
697 Snow 0 1005 86 3000 6.7 100 10:27 29.12.2020
698 Snow 0 1005 86 2500 6.7 110 09:48 29.12.2020
699 Snow 0 1005 86 3000 6.2 110 09:20 29.12.2020
700 Snow 0 1005 86 3000 6.2 110 09:20 29.12.2020
701 Snow 0 1005 86 4000 6.2 110 08:53 29.12.2020
702 Snow 0 1005 86 3000 7.2 120 08:22 29.12.2020
703 Snow 0 1005 86 7000 7.2 120 07:26 29.12.2020
704 Snow 0 1006 86 3500 7.2 120 06:26 29.12.2020
705 Clouds 1 1006 88 10000 6.7 120 03:45 29.12.2020
706 Snow 0 1007 86 8000 8.2 120 00:47 29.12.2020
707 Snow 1 1007 93 10000 7.7 110 00:20 29.12.2020
708 Rain 1 1007 87 10000 7.7 110 23:34 28.12.2020
709 Rain 1 1007 88 10000 8.2 110 22:28 28.12.2020
710 Rain 1 1007 86 10000 8.7 110 21:45 28.12.2020
711 Snow 1 1007 86 10000 8.2 110 21:24 28.12.2020
712 Snow 1 1008 86 10000 7.2 110 20:42 28.12.2020
713 Clouds 1 1008 86 10000 7.2 110 20:22 28.12.2020
714 Snow 1 1008 86 10000 7.7 120 19:48 28.12.2020
715 Snow 1 1008 80 10000 8.2 120 19:24 28.12.2020
716 Clouds 1 1008 80 10000 8.2 120 18:52 28.12.2020
717 Clouds 1 1008 80 10000 8.2 130 18:28 28.12.2020
718 Clouds 1 1008 80 10000 8.2 130 18:28 28.12.2020
719 Clouds 1 1008 80 10000 8.2 130 17:46 28.12.2020
720 Clouds 1 1009 74 10000 8.7 120 17:26 28.12.2020
721 Clouds 1 1009 74 10000 9.3 120 16:46 28.12.2020
722 Clouds 0 1008 92 10000 7.2 120 16:26 28.12.2020
723 Clouds 0 1008 92 10000 7.2 120 15:53 28.12.2020
724 Clouds 0 1008 94 10000 7.2 120 15:30 28.12.2020
725 Clouds 0 1009 95 10000 6.7 120 14:28 28.12.2020
726 Clouds 0 1009 95 10000 6.7 120 13:38 28.12.2020
727 Clouds 0 1009 95 10000 6.7 120 13:19 28.12.2020
728 Clouds -1 1010 86 10000 8.7 130 12:25 28.12.2020
729 Clouds -1 1010 86 10000 8.7 130 11:48 28.12.2020
730 Clouds -1 1010 86 10000 8.7 130 11:29 28.12.2020
731 Clouds -1 1010 86 10000 7.7 130 10:54 28.12.2020
732 Clouds -1 1010 86 10000 7.7 130 10:28 28.12.2020
733 Clouds -1 1010 86 10000 8.7 130 09:52 28.12.2020
734 Clouds -1 1010 86 10000 9.3 140 09:22 28.12.2020
735 Clouds -1 1010 86 10000 9.3 140 08:58 28.12.2020
736 Clouds -1 1009 86 10000 8.7 130 06:52 28.12.2020
737 Clouds 0 1009 93 10000 8.2 150 04:56 28.12.2020
738 Clouds 0 1009 92 10000 8.2 150 03:21 28.12.2020
739 Clouds 0 1009 92 10000 8.7 150 01:52 28.12.2020
740 Clouds 0 1008 92 10000 7.7 150 23:50 27.12.2020
741 Clouds 0 1008 92 10000 7.7 150 23:20 27.12.2020
742 Clouds 0 1008 92 10000 8.7 150 22:24 27.12.2020
743 Clouds 0 1007 91 10000 9.3 150 21:27 27.12.2020
744 Clouds 0 1008 91 10000 7.2 150 20:56 27.12.2020
745 Clouds 1 1007 80 10000 9.3 160 19:49 27.12.2020
746 Clouds 1 1007 86 10000 8.7 150 19:23 27.12.2020
747 Clouds 1 1007 86 10000 8.7 160 18:49 27.12.2020
748 Clouds 1 1007 86 10000 8.7 160 18:20 27.12.2020
749 Clouds 1 1007 86 10000 8.7 160 17:54 27.12.2020
750 Snow 1 1007 86 10000 8.7 160 17:34 27.12.2020
751 Snow 1 1007 86 10000 7.7 150 16:55 27.12.2020
752 Snow 1 1007 86 10000 8.2 150 16:21 27.12.2020
753 Snow 1 1007 86 10000 8.2 160 15:30 27.12.2020
754 Snow 0 1008 97 10000 7.7 150 14:50 27.12.2020
755 Snow 0 1008 97 10000 8.7 160 14:31 27.12.2020
756 Snow 0 1008 97 3000 7.2 160 13:36 27.12.2020
757 Snow 0 1008 97 3000 7.2 160 13:36 27.12.2020
758 Clouds 0 1008 93 10000 8.2 160 12:55 27.12.2020
759 Snow 0 1008 90 10000 8.2 160 12:24 27.12.2020
760 Snow 0 1007 90 10000 7.2 160 11:42 27.12.2020
761 Snow 0 1007 85 10000 7.7 160 11:18 27.12.2020
762 Snow 0 1007 85 10000 7.7 160 10:40 27.12.2020
763 Snow 0 1007 84 2500 7.2 160 10:19 27.12.2020
764 Snow 0 1007 89 2500 8.2 150 09:19 27.12.2020
765 Snow 1 1007 86 10000 8.7 160 08:28 27.12.2020
766 Snow 1 1007 80 10000 6.7 160 07:28 27.12.2020
767 Clouds 1 1007 80 10000 5.1 160 05:48 27.12.2020
768 Clouds 1 1007 92 10000 5.1 160 05:21 27.12.2020
769 Clouds -1 1008 92 10000 3.1 130 03:24 27.12.2020
770 Clouds -3 1008 92 10000 2.6 110 01:52 27.12.2020
771 Clouds -3 1009 92 10000 1 80 00:26 27.12.2020
772 Clouds -3 1009 100 10000 1 120 23:42 26.12.2020
773 Clouds -2 1009 92 10000 1 200 23:21 26.12.2020
774 Clouds -2 1009 92 10000 1 270 22:40 26.12.2020
775 Clouds -2 1009 92 10000 1.5 240 22:18 26.12.2020
776 Clouds -2 1009 92 10000 3.1 200 21:52 26.12.2020
777 Clouds -2 1009 92 10000 3.1 200 21:24 26.12.2020
778 Clouds -2 1009 86 10000 2.1 210 20:44 26.12.2020
779 Clouds -2 1009 86 10000 1.5 220 20:21 26.12.2020
780 Clouds -2 1009 86 10000 2.1 180 19:30 26.12.2020
781 Clouds -2 1009 86 10000 1.5 220 18:54 26.12.2020
782 Clouds -2 1009 86 10000 0.5 0 18:32 26.12.2020
783 Clouds -2 1009 86 10000 1 0 17:46 26.12.2020
784 Clouds -2 1009 86 10000 1 0 17:28 26.12.2020
785 Snow -2 1009 86 10000 2.1 320 16:38 26.12.2020
786 Clouds -2 1009 86 10000 1.5 340 15:58 26.12.2020
787 Clouds -2 1009 86 10000 3.1 330 15:20 26.12.2020
788 Snow -2 1008 86 10000 3.1 340 14:31 26.12.2020
789 Snow -2 1008 86 10000 3.1 340 13:57 26.12.2020
790 Snow -2 1008 86 10000 3.6 340 13:37 26.12.2020
791 Clouds -2 1008 86 10000 4.6 340 12:57 26.12.2020
792 Snow -2 1008 86 10000 4.1 350 12:39 26.12.2020
793 Snow -2 1008 92 10000 4.1 330 11:59 26.12.2020
794 Snow -2 1008 92 10000 4.1 330 11:41 26.12.2020
795 Snow -2 1008 86 10000 3.1 350 11:20 26.12.2020
796 Snow -2 1008 86 10000 4.1 340 10:45 26.12.2020
797 Snow -2 1008 86 10000 4.6 350 10:24 26.12.2020
798 Snow -2 1008 86 10000 4.6 360 09:47 26.12.2020
799 Snow -2 1007 86 10000 3.6 360 08:55 26.12.2020
800 Clouds -2 1007 86 10000 4.1 350 08:19 26.12.2020
801 Clouds -2 1007 86 10000 5.1 360 07:21 26.12.2020
802 Clouds -2 1007 86 10000 4.6 360 05:37 26.12.2020
803 Clouds -2 1007 92 10000 5.7 360 02:47 26.12.2020
804 Clouds -1 1007 80 10000 5.7 360 00:36 26.12.2020
805 Clouds -1 1007 86 10000 6.7 350 23:49 25.12.2020
806 Clouds -1 1007 86 10000 6.7 350 23:28 25.12.2020
807 Clouds -1 1007 86 10000 6.2 350 22:52 25.12.2020
808 Clouds -1 1007 86 10000 6.2 350 22:26 25.12.2020
809 Clouds 0 1007 86 10000 6.2 10 21:43 25.12.2020
810 Clouds 0 1006 95 10000 5.7 360 21:25 25.12.2020
811 Snow 0 1006 95 10000 6.2 10 20:45 25.12.2020
812 Snow 0 1006 96 10000 6.2 10 20:26 25.12.2020
813 Snow 0 1006 96 10000 6.2 10 19:43 25.12.2020
814 Clouds 0 1006 93 10000 4.6 10 18:47 25.12.2020
815 Clouds 0 1006 92 10000 4.6 10 18:29 25.12.2020
816 Snow 0 1006 86 10000 4.6 10 17:35 25.12.2020
817 Clouds 1 1006 93 10000 5.1 10 16:51 25.12.2020
818 Snow 1 1005 92 10000 5.1 360 16:24 25.12.2020
819 Clouds 1 1005 92 10000 4.1 360 15:49 25.12.2020
820 Clouds 1 1005 96 10000 4.1 360 15:26 25.12.2020
821 Snow 1 1005 96 10000 4.1 10 14:32 25.12.2020
822 Snow 1 1005 96 10000 4.1 10 13:49 25.12.2020
823 Snow 1 1005 96 10000 4.1 10 13:26 25.12.2020
824 Snow 0 1004 96 10000 4.1 360 12:58 25.12.2020
825 Snow 0 1004 95 10000 4.1 360 12:27 25.12.2020
826 Snow 0 1004 95 10000 4.6 360 11:47 25.12.2020
827 Snow 0 1004 98 10000 4.6 360 11:24 25.12.2020
828 Snow 0 1004 98 10000 4.6 10 10:43 25.12.2020
829 Clouds 0 1004 99 10000 4.6 10 09:49 25.12.2020
830 Clouds 0 1003 98 10000 4.6 10 09:26 25.12.2020
831 Snow 0 1003 98 10000 4.6 360 08:37 25.12.2020
832 Snow 0 1003 98 10000 3.1 360 06:52 25.12.2020
833 Snow 0 1002 95 10000 3.1 20 06:21 25.12.2020
834 Clouds 0 1002 98 10000 1.5 20 02:23 25.12.2020
835 Snow 0 1001 98 10000 2.1 40 00:32 25.12.2020
836 Clouds 0 1002 98 10000 1.5 330 23:32 24.12.2020
837 Clouds 0 1002 98 10000 1 310 22:56 24.12.2020
838 Clouds 0 1002 96 10000 1.5 310 22:25 24.12.2020
839 Clouds 0 1002 96 10000 1.5 330 21:52 24.12.2020
840 Clouds 0 1002 93 10000 0.5 0 20:59 24.12.2020
841 Fog 0 1002 100 800 1.5 290 19:56 24.12.2020
842 Clouds 1 1002 90 10000 1.38 301 18:22 24.12.2020
843 Clouds 1 1002 90 10000 1.38 301 17:42 24.12.2020
844 Clouds 1 1002 83 10000 1.25 247 17:21 24.12.2020
845 Clouds 1 1002 82 10000 1 210 16:25 24.12.2020
846 Clouds 1 1002 82 10000 2.1 200 15:49 24.12.2020
847 Clouds 1 1002 82 10000 1.5 210 15:26 24.12.2020
848 Clouds 1 1002 82 10000 1.5 210 14:57 24.12.2020
849 Clouds 2 1002 82 10000 0.5 210 14:38 24.12.2020
850 Clouds 1 1002 83 10000 1.5 270 14:19 24.12.2020
851 Clouds 2 1002 83 10000 2.6 220 13:39 24.12.2020
852 Clouds 2 1002 83 10000 3.1 210 13:18 24.12.2020
853 Clouds 2 1002 93 10000 2.1 220 12:40 24.12.2020
854 Clouds 2 1003 93 10000 2.6 220 12:18 24.12.2020
855 Clouds 2 1003 93 10000 2.6 220 11:38 24.12.2020
856 Clouds 2 1003 93 10000 2.6 230 11:19 24.12.2020
857 Clouds 2 1003 93 10000 2.6 230 10:43 24.12.2020
858 Snow 2 1003 93 10000 2.1 220 10:20 24.12.2020
859 Rain 2 1003 93 10000 2.1 220 09:50 24.12.2020
860 Clouds 2 1002 85 10000 2.6 210 08:50 24.12.2020
861 Clouds 2 1002 84 10000 2.6 230 07:55 24.12.2020
862 Clouds 2 1002 84 10000 3.6 240 07:37 24.12.2020
863 Clouds 2 1002 83 10000 4.1 230 06:27 24.12.2020
864 Clouds 2 1002 93 10000 3.1 270 03:50 24.12.2020
865 Clouds 2 1002 93 10000 2.6 220 01:51 24.12.2020
866 Clouds 2 1002 93 10000 3.1 230 01:20 24.12.2020
867 Clouds 3 1002 93 10000 3.6 240 00:31 24.12.2020
868 Clouds 3 1002 86 10000 4.6 230 23:59 23.12.2020
869 Clouds 3 1002 86 10000 4.6 230 23:39 23.12.2020
870 Clouds 3 1001 86 10000 4.6 230 23:20 23.12.2020
871 Clouds 3 1001 100 10000 2.1 230 22:43 23.12.2020
872 Clouds 3 1001 100 10000 2.1 230 22:23 23.12.2020
873 Clouds 2 1001 100 10000 3.6 220 21:43 23.12.2020
874 Clouds 2 1001 100 10000 3.6 220 21:21 23.12.2020
875 Clouds 3 1001 93 10000 3.6 210 20:45 23.12.2020
876 Clouds 3 1001 93 10000 3.6 210 20:25 23.12.2020
877 Clouds 3 1000 93 10000 2.6 210 19:45 23.12.2020
878 Clouds 3 1000 100 10000 2.6 220 19:23 23.12.2020
879 Clouds 3 1000 100 10000 2.6 220 18:56 23.12.2020
880 Clouds 3 1000 100 10000 2.6 220 18:35 23.12.2020
881 Clouds 4 1000 93 8000 3.6 190 17:44 23.12.2020
882 Clouds 3 1000 100 10000 4.1 170 17:25 23.12.2020
883 Clouds 3 1000 100 10000 4.1 170 16:56 23.12.2020
884 Clouds 3 1000 100 10000 4.1 170 16:37 23.12.2020
885 Clouds 3 1001 100 5000 4.1 160 16:18 23.12.2020
886 Clouds 2 1001 100 5000 4.1 160 15:40 23.12.2020
887 Clouds 2 1001 100 5000 4.1 160 15:40 23.12.2020
888 Clouds 2 1001 93 6000 4.1 150 15:22 23.12.2020
889 Rain 2 1001 100 7000 3.6 170 14:51 23.12.2020
890 Rain 2 1001 100 7000 3.6 170 14:25 23.12.2020
891 Snow 1 1001 100 6000 4.6 160 13:47 23.12.2020
892 Rain 1 1002 95 5000 4.1 160 13:21 23.12.2020
893 Rain 1 1002 95 5000 4.1 160 12:59 23.12.2020
894 Rain 1 1002 95 7000 3.6 170 12:38 23.12.2020
895 Rain 1 1002 96 8000 4.6 160 12:18 23.12.2020
896 Rain 1 1002 96 10000 3.6 150 11:45 23.12.2020
897 Snow 1 1003 97 5000 4.6 150 10:57 23.12.2020
898 Snow 1 1003 97 5000 4.6 150 10:39 23.12.2020
899 Snow 1 1003 97 8000 4.6 140 10:19 23.12.2020
900 Snow 0 1003 97 7000 5.1 150 09:26 23.12.2020
901 Snow 0 1004 97 2500 5.1 150 08:42 23.12.2020
902 Snow 0 1004 97 2000 5.1 150 07:51 23.12.2020
903 Snow 0 1004 97 2000 5.7 150 07:20 23.12.2020
904 Snow 0 1004 97 2000 6.2 150 06:38 23.12.2020
905 Snow 1 1005 97 3000 4.1 130 05:25 23.12.2020
906 Snow 1 1005 97 3000 5.1 130 04:28 23.12.2020
907 Drizzle 2 1008 93 10000 6.2 150 00:34 23.12.2020
908 Drizzle 2 1009 93 7000 6.2 130 23:45 22.12.2020
909 Clouds 2 1009 93 10000 6.7 140 23:26 22.12.2020
910 Clouds 2 1009 100 10000 6.7 140 22:43 22.12.2020
911 Clouds 2 1009 100 10000 6.7 140 22:25 22.12.2020
912 Clouds 3 1010 93 10000 5.7 130 21:55 22.12.2020
913 Clouds 3 1010 93 10000 5.7 140 21:22 22.12.2020
914 Clouds 3 1010 93 10000 5.7 140 20:57 22.12.2020
915 Clouds 3 1010 93 10000 6.2 140 20:38 22.12.2020
916 Clouds 3 1011 93 10000 6.7 150 20:20 22.12.2020
917 Clouds 3 1011 93 10000 6.2 150 19:42 22.12.2020
918 Clouds 3 1011 93 10000 6.7 160 19:20 22.12.2020
919 Clouds 3 1011 93 10000 6.7 160 18:47 22.12.2020
920 Clouds 3 1011 100 10000 5.7 160 18:27 22.12.2020
921 Clouds 3 1011 100 10000 5.7 160 17:45 22.12.2020
922 Clouds 3 1012 100 10000 5.7 160 17:18 22.12.2020
923 Clouds 3 1012 100 10000 5.1 150 16:48 22.12.2020
924 Clouds 3 1013 93 10000 6.2 160 16:22 22.12.2020
925 Clouds 4 1013 93 10000 6.2 160 15:51 22.12.2020
926 Clouds 4 1013 93 10000 4.1 160 15:33 22.12.2020
927 Clouds 4 1013 93 10000 4.6 170 14:59 22.12.2020
928 Clouds 4 1013 93 10000 4.6 170 14:41 22.12.2020
929 Clouds 4 1013 93 10000 4.6 180 14:22 22.12.2020
930 Clouds 4 1013 93 10000 4.6 170 13:47 22.12.2020
931 Clouds 4 1014 93 10000 5.1 180 13:19 22.12.2020
932 Clouds 4 1014 93 10000 5.1 180 12:55 22.12.2020
933 Clouds 4 1014 93 10000 5.1 180 12:36 22.12.2020
934 Clouds 5 1014 93 10000 4.6 190 12:18 22.12.2020
935 Clouds 5 1014 93 10000 4.6 190 11:40 22.12.2020
936 Clouds 5 1014 93 10000 5.1 190 11:21 22.12.2020
937 Clouds 5 1014 93 10000 5.1 190 10:53 22.12.2020
938 Clouds 5 1014 93 10000 5.1 200 10:25 22.12.2020
939 Clouds 5 1014 93 10000 5.1 200 09:57 22.12.2020
940 Clouds 5 1014 93 9000 5.1 190 09:27 22.12.2020
941 Clouds 5 1014 93 10000 5.1 200 08:53 22.12.2020
942 Rain 5 1014 93 10000 5.1 200 08:34 22.12.2020
943 Clouds 5 1014 93 8000 5.1 190 07:56 22.12.2020
944 Clouds 5 1014 93 8000 5.1 190 07:56 22.12.2020
945 Clouds 5 1014 93 9000 5.1 190 07:19 22.12.2020
946 Clouds 5 1014 93 7000 5.7 190 05:48 22.12.2020
947 Drizzle 5 1014 93 7000 5.1 180 03:46 22.12.2020
948 Drizzle 4 1014 100 1200 6.7 190 01:35 22.12.2020
949 Rain 4 1015 93 3500 5.1 190 23:56 21.12.2020
950 Clouds 4 1015 93 3500 5.1 190 23:37 21.12.2020
951 Clouds 4 1015 93 9000 5.1 190 22:59 21.12.2020
952 Clouds 4 1015 93 9000 5.1 190 22:36 21.12.2020
953 Clouds 4 1015 93 4500 5.7 200 22:18 21.12.2020
954 Drizzle 4 1015 100 7000 6.2 200 21:41 21.12.2020
955 Rain 3 1015 100 6000 6.2 190 21:22 21.12.2020
956 Clouds 3 1015 100 4000 6.2 200 20:40 21.12.2020
957 Clouds 3 1015 100 4500 7.2 190 20:19 21.12.2020
958 Clouds 3 1015 100 3500 7.7 190 19:45 21.12.2020
959 Clouds 3 1015 93 7000 7.7 190 19:20 21.12.2020
960 Clouds 4 1015 93 7000 7.7 190 18:53 21.12.2020
961 Clouds 4 1015 93 7000 7.7 190 18:34 21.12.2020
962 Clouds 3 1015 100 10000 9.3 200 17:56 21.12.2020
963 Clouds 3 1016 100 8000 8.2 200 17:37 21.12.2020
964 Clouds 3 1016 100 10000 7.7 190 17:19 21.12.2020
965 Clouds 3 1016 100 10000 7.7 190 16:38 21.12.2020
966 Rain 3 1016 100 8000 7.2 190 16:18 21.12.2020
967 Rain 3 1016 100 8000 7.2 190 15:40 21.12.2020
968 Drizzle 3 1016 93 3000 6.2 190 14:57 21.12.2020
969 Drizzle 3 1016 93 3000 6.2 190 14:22 21.12.2020
970 Clouds 3 1017 93 8000 7.2 180 13:45 21.12.2020
971 Clouds 3 1017 93 8000 7.2 180 13:27 21.12.2020
972 Drizzle 3 1018 93 3500 7.2 190 12:47 21.12.2020
973 Clouds 3 1018 93 6000 6.2 190 12:25 21.12.2020
974 Clouds 3 1018 93 6000 6.2 190 11:59 21.12.2020
975 Clouds 3 1018 100 7000 6.2 190 11:40 21.12.2020
976 Mist 3 1018 100 4500 7.7 190 11:22 21.12.2020
977 Drizzle 3 1019 100 4000 7.2 200 10:49 21.12.2020
978 Drizzle 3 1019 100 4000 7.2 200 10:30 21.12.2020
979 Drizzle 3 1019 100 2500 6.7 190 09:49 21.12.2020
980 Drizzle 3 1019 100 2500 6.7 190 09:26 21.12.2020
981 Drizzle 3 1019 100 1300 6.7 200 08:54 21.12.2020
982 Clouds 3 1019 100 7000 7.2 200 08:18 21.12.2020
983 Rain 3 1020 100 3000 6.7 200 06:47 21.12.2020
984 Drizzle 3 1020 100 1200 6.7 200 04:58 21.12.2020
985 Mist 3 1021 93 1700 6.2 190 02:31 21.12.2020
986 Drizzle 4 1021 100 2400 6.2 190 00:34 21.12.2020
987 Drizzle 4 1021 100 2400 6.7 200 23:37 20.12.2020
988 Drizzle 4 1021 100 2600 6.2 190 23:18 20.12.2020
989 Drizzle 4 1021 100 2600 6.2 190 22:42 20.12.2020
990 Drizzle 4 1021 100 3500 5.7 200 22:22 20.12.2020
991 Drizzle 4 1021 100 2900 5.7 190 21:40 20.12.2020
992 Drizzle 4 1020 100 3000 5.7 190 21:21 20.12.2020
993 Drizzle 4 1020 100 2800 5.7 200 20:52 20.12.2020
994 Drizzle 4 1020 100 2800 5.7 200 20:26 20.12.2020
995 Drizzle 4 1020 100 3000 6.2 200 19:51 20.12.2020
996 Drizzle 4 1020 100 3000 6.2 200 19:33 20.12.2020
997 Mist 4 1020 100 3000 6.2 200 18:59 20.12.2020
998 Drizzle 4 1020 100 3000 5.7 200 18:40 20.12.2020
999 Drizzle 4 1020 100 3000 5.7 190 18:22 20.12.2020
1000 Drizzle 4 1020 100 3500 6.2 190 17:44 20.12.2020
1001 Drizzle 4 1020 100 3500 5.1 200 17:23 20.12.2020
1002 Drizzle 4 1020 100 3500 5.1 200 16:45 20.12.2020
1003 Drizzle 4 1020 93 4000 6.7 200 16:27 20.12.2020
1004 Drizzle 5 1020 93 3000 6.7 200 15:49 20.12.2020
1005 Drizzle 5 1020 93 3000 7.2 200 15:25 20.12.2020
1006 Drizzle 5 1019 93 2500 6.7 200 14:54 20.12.2020
1007 Drizzle 5 1019 93 2500 6.7 200 14:33 20.12.2020
1008 Mist 5 1020 100 3000 6.7 210 13:47 20.12.2020
1009 Drizzle 5 1020 100 3000 6.7 210 13:28 20.12.2020
1010 Drizzle 5 1019 100 2500 7.7 210 12:58 20.12.2020
1011 Drizzle 5 1019 100 2500 7.7 210 12:39 20.12.2020
1012 Mist 5 1019 100 3000 6.2 200 12:20 20.12.2020
1013 Drizzle 5 1019 100 3000 7.2 200 11:43 20.12.2020
1014 Drizzle 5 1019 100 3000 7.2 200 11:18 20.12.2020
1015 Drizzle 5 1019 100 2500 6.7 200 10:45 20.12.2020
1016 Drizzle 5 1019 100 2500 7.2 200 10:20 20.12.2020
1017 Drizzle 5 1019 93 3000 7.2 210 09:46 20.12.2020
1018 Drizzle 5 1019 93 3000 7.2 210 09:27 20.12.2020
1019 Drizzle 5 1018 93 3500 7.7 210 08:56 20.12.2020
1020 Drizzle 5 1018 93 3500 7.7 210 08:37 20.12.2020
1021 Clouds 6 1018 93 10000 6.7 220 07:25 20.12.2020
1022 Clouds 6 1018 87 10000 5.7 220 05:44 20.12.2020
1023 Clouds 6 1017 100 10000 5.1 220 01:46 20.12.2020
1024 Clouds 6 1017 100 10000 5.1 230 00:38 20.12.2020
1025 Mist 6 1017 100 2800 5.1 220 23:20 19.12.2020
1026 Mist 6 1017 100 2800 5.1 220 22:57 19.12.2020
1027 Mist 6 1016 100 2500 5.7 210 22:38 19.12.2020
1028 Mist 6 1016 100 2500 6.2 210 22:19 19.12.2020
1029 Mist 6 1016 100 4000 5.7 210 21:42 19.12.2020
1030 Mist 6 1016 100 3500 5.7 200 21:24 19.12.2020
1031 Drizzle 6 1016 100 2800 4.1 190 20:45 19.12.2020
1032 Mist 6 1016 100 2800 4.1 190 20:21 19.12.2020
1033 Drizzle 6 1016 100 2800 4.1 190 19:53 19.12.2020
1034 Mist 6 1016 100 3500 4.1 190 19:34 19.12.2020
1035 Drizzle 6 1016 100 3000 4.1 180 18:42 19.12.2020
1036 Mist 6 1016 100 1000 4.1 180 18:24 19.12.2020
1037 Fog 6 1016 100 900 4.1 0 17:48 19.12.2020
1038 Fog 6 1016 100 900 4.1 0 17:48 19.12.2020
1039 Fog 6 1016 100 800 4.1 180 17:24 19.12.2020
1040 Fog 6 1016 100 800 4.1 180 16:55 19.12.2020
1041 Rain 6 1016 100 700 3.1 180 16:36 19.12.2020
1042 Fog 6 1017 100 400 2.6 170 16:18 19.12.2020
1043 Fog 5 1017 100 300 3.1 180 15:47 19.12.2020
1044 Fog 5 1017 100 300 2.6 170 14:44 19.12.2020
1045 Fog 5 1017 100 300 2.6 170 14:23 19.12.2020
1046 Fog 5 1017 100 400 2.1 140 13:42 19.12.2020
1047 Fog 4 1017 100 400 3.6 130 13:21 19.12.2020
1048 Fog 3 1017 100 500 2.6 120 12:46 19.12.2020
1049 Fog 3 1017 100 500 2.6 120 12:28 19.12.2020
1050 Mist 3 1017 100 1500 2.6 140 11:58 19.12.2020
1051 Mist 3 1017 100 1000 2.6 140 11:40 19.12.2020
1052 Mist 2 1017 100 1200 2.1 140 10:47 19.12.2020
1053 Mist 2 1017 100 3000 2.6 150 10:27 19.12.2020
1054 Mist 2 1017 100 3000 2.6 150 09:59 19.12.2020
1055 Mist 2 1017 93 4000 1.5 130 09:39 19.12.2020
1056 Clouds 1 1017 100 8000 1 0 08:52 19.12.2020
1057 Clouds 1 1017 100 10000 1.5 210 07:55 19.12.2020
1058 Clouds 1 1016 100 7000 2.1 230 07:18 19.12.2020
1059 Drizzle 1 1016 93 7000 2.6 230 06:39 19.12.2020
1060 Clouds 2 1016 100 7000 3.1 230 05:19 19.12.2020
1061 Fog 3 1016 100 300 3.11 264 03:28 19.12.2020
1062 Fog 3 1015 100 400 1.5 280 00:41 19.12.2020
1063 Fog 3 1015 100 400 1.5 300 00:18 19.12.2020
1064 Fog 3 1014 100 400 2.1 320 23:48 18.12.2020
1065 Fog 3 1014 100 400 2.1 320 23:24 18.12.2020
1066 Fog 3 1013 100 600 1.5 30 22:47 18.12.2020
1067 Fog 3 1013 100 600 1.5 30 22:24 18.12.2020
1068 Mist 3 1013 100 1200 1.5 50 21:51 18.12.2020
1069 Mist 3 1013 100 1200 1.5 50 21:31 18.12.2020
1070 Drizzle 3 1012 100 3500 2.1 90 20:43 18.12.2020
1071 Drizzle 3 1012 100 4500 3.1 80 20:23 18.12.2020
1072 Drizzle 3 1012 100 4500 3.1 80 19:46 18.12.2020
1073 Drizzle 3 1012 100 3500 3.1 80 19:22 18.12.2020
1074 Drizzle 3 1012 100 3000 3.1 90 18:45 18.12.2020
1075 Drizzle 3 1012 100 3000 3.1 90 18:25 18.12.2020
1076 Drizzle 3 1012 93 3500 3.6 100 17:36 18.12.2020
1077 Drizzle 3 1012 93 4000 4.1 110 16:57 18.12.2020
1078 Drizzle 3 1012 93 4000 4.1 110 16:38 18.12.2020
1079 Drizzle 3 1012 100 5000 3.6 110 16:20 18.12.2020
1080 Clouds 2 1012 100 6000 3.1 110 15:43 18.12.2020
1081 Clouds 2 1012 100 6000 3.1 110 15:24 18.12.2020
1082 Clouds 2 1012 100 9000 3.6 110 14:55 18.12.2020
1083 Clouds 2 1013 100 9000 4.6 110 14:23 18.12.2020
1084 Rain 2 1013 100 10000 4.1 110 13:51 18.12.2020
1085 Rain 2 1013 100 10000 4.1 110 13:31 18.12.2020
1086 Rain 2 1013 93 10000 4.6 120 12:56 18.12.2020
1087 Rain 2 1013 93 10000 4.6 120 12:30 18.12.2020
1088 Rain 2 1014 100 4000 5.7 130 11:27 18.12.2020
1089 Rain 2 1014 93 10000 6.2 130 10:40 18.12.2020
1090 Rain 2 1014 100 10000 5.7 130 10:21 18.12.2020
1091 Rain 2 1014 100 10000 5.1 130 09:55 18.12.2020
1092 Rain 2 1014 100 10000 5.1 130 09:36 18.12.2020
1093 Rain 2 1015 100 10000 6.7 140 09:18 18.12.2020
1094 Rain 3 1015 93 7000 6.2 140 08:42 18.12.2020
1095 Clouds 3 1015 93 9000 5.7 130 07:52 18.12.2020
1096 Rain 3 1015 100 10000 4.6 140 07:19 18.12.2020
1097 Rain 3 1015 100 10000 4.6 140 06:58 18.12.2020
1098 Rain 3 1016 93 10000 4.1 140 05:44 18.12.2020
1099 Clouds 3 1017 93 7000 3.1 140 04:51 18.12.2020
1100 Mist 2 1018 100 2500 3.6 70 02:49 18.12.2020
1101 Drizzle 2 1019 100 3500 3.1 80 01:43 18.12.2020
1102 Rain 1 1019 94 3000 3.1 80 00:28 18.12.2020
1103 Mist 1 1019 94 3500 3.1 70 23:51 17.12.2020
1104 Mist 1 1020 93 2500 3.6 80 23:20 17.12.2020
1105 Mist 0 1020 100 2500 3.1 90 22:47 17.12.2020
1106 Mist 0 1020 100 2500 3.1 90 22:27 17.12.2020
1107 Mist 0 1021 100 3500 2.6 80 21:44 17.12.2020
1108 Mist 0 1021 100 3500 2.6 80 21:44 17.12.2020
1109 Mist 0 1021 100 4000 2.6 80 21:20 17.12.2020
1110 Mist -1 1021 100 4000 2.6 80 20:45 17.12.2020
1111 Clouds -1 1021 100 4000 3.1 80 20:19 17.12.2020
1112 Clouds -1 1021 92 9000 2.1 80 19:49 17.12.2020
1113 Clouds -1 1021 92 9000 2.1 80 19:25 17.12.2020
1114 Clouds 0 1021 92 10000 2.1 70 18:47 17.12.2020
1115 Clouds 0 1021 92 10000 1.5 50 18:27 17.12.2020
1116 Clouds 0 1021 92 10000 1.5 50 18:27 17.12.2020
1117 Clouds 0 1021 92 10000 1.5 50 17:58 17.12.2020
1118 Clouds 0 1021 92 10000 1.5 50 17:38 17.12.2020
1119 Clouds 0 1021 86 10000 1.5 90 17:20 17.12.2020
1120 Clouds 0 1021 86 10000 1.5 90 16:37 17.12.2020
1121 Clouds 0 1021 92 10000 1.5 20 16:19 17.12.2020
1122 Clouds 0 1021 92 10000 1.5 20 15:42 17.12.2020
1123 Clouds 0 1021 96 10000 2.1 360 15:23 17.12.2020
1124 Clouds 0 1021 96 10000 2.1 360 14:47 17.12.2020
1125 Clouds 0 1020 96 10000 3.1 340 14:20 17.12.2020
1126 Clouds 0 1020 96 10000 1.5 330 13:42 17.12.2020
1127 Clouds 0 1020 95 10000 2.6 300 13:18 17.12.2020
1128 Clouds 0 1020 95 10000 2.6 300 12:39 17.12.2020
1129 Snow 0 1020 94 7000 2.6 270 12:21 17.12.2020
1130 Drizzle 1 1020 86 7000 2.6 300 11:41 17.12.2020
1131 Clouds 1 1020 86 10000 3.1 310 11:20 17.12.2020
1132 Clouds 1 1019 94 10000 3.1 290 10:40 17.12.2020
1133 Clouds 1 1018 96 10000 4.6 310 09:37 17.12.2020
1134 Clouds 2 1018 97 10000 4.1 310 08:50 17.12.2020
1135 Clouds 2 1017 94 10000 3.6 310 07:42 17.12.2020
1136 Clouds 2 1016 93 10000 4.1 290 07:21 17.12.2020
1137 Clouds 3 1016 86 10000 4.1 280 06:47 17.12.2020
1138 Clouds 3 1016 86 10000 4.1 280 06:29 17.12.2020
1139 Clouds 3 1014 93 10000 4.6 270 03:30 17.12.2020
1140 Clouds 3 1012 93 10000 4.1 280 00:27 17.12.2020
1141 Clouds 3 1012 93 10000 4.1 280 23:40 16.12.2020
1142 Clouds 3 1012 93 10000 3.1 270 23:18 16.12.2020
1143 Drizzle 3 1011 93 10000 5.1 290 22:48 16.12.2020
1144 Drizzle 3 1011 93 10000 5.1 290 22:28 16.12.2020
1145 Drizzle 3 1011 93 10000 5.7 290 21:42 16.12.2020
1146 Clouds 4 1010 86 10000 7.2 290 21:23 16.12.2020
1147 Clouds 4 1010 93 10000 6.2 290 20:52 16.12.2020
1148 Clouds 4 1009 93 10000 7.7 290 20:20 16.12.2020
1149 Clouds 4 1009 93 10000 6.2 280 19:38 16.12.2020
1150 Clouds 4 1008 100 10000 6.2 280 19:18 16.12.2020
1151 Clouds 4 1008 100 10000 5.1 270 18:47 16.12.2020
1152 Clouds 4 1008 100 10000 5.1 270 18:25 16.12.2020
1153 Clouds 4 1007 100 10000 4.6 260 17:36 16.12.2020
1154 Clouds 4 1007 100 7000 3.6 250 16:47 16.12.2020
1155 Mist 4 1007 100 4500 3.1 230 16:29 16.12.2020
1156 Mist 4 1007 100 4500 3.1 230 15:58 16.12.2020
1157 Mist 4 1007 100 4500 3.1 230 15:39 16.12.2020
1158 Drizzle 3 1006 100 3500 3.1 210 15:18 16.12.2020
1159 Clouds 3 1007 100 10000 4.6 200 14:44 16.12.2020
1160 Rain 3 1007 100 10000 4.6 200 14:25 16.12.2020
1161 Rain 3 1007 93 10000 5.7 200 13:41 16.12.2020
1162 Rain 3 1007 93 8000 5.1 190 13:20 16.12.2020
1163 Rain 3 1007 93 10000 5.7 190 12:43 16.12.2020
1164 Rain 3 1007 93 6000 6.2 180 11:51 16.12.2020
1165 Rain 2 1008 100 3000 6.2 180 11:31 16.12.2020
1166 Mist 2 1008 100 3000 6.2 180 10:56 16.12.2020
1167 Drizzle 2 1008 100 2000 5.7 190 10:32 16.12.2020
1168 Clouds 2 1008 93 7000 5.7 190 09:56 16.12.2020
1169 Clouds 2 1008 93 7000 5.7 190 09:29 16.12.2020
1170 Clouds 2 1009 93 10000 5.7 180 08:22 16.12.2020
1171 Rain 2 1009 93 10000 5.1 180 07:45 16.12.2020
1172 Rain 2 1009 93 7000 5.1 180 07:20 16.12.2020
1173 Snow 1 1011 93 5000 4.1 160 03:37 16.12.2020
1174 Snow 1 1012 100 6000 4.1 170 01:59 16.12.2020
1175 Rain 3 1014 93 6000 4.1 180 23:50 15.12.2020
1176 Rain 3 1014 93 6000 4.1 180 23:31 15.12.2020
1177 Rain 3 1014 100 4000 4.1 180 22:41 15.12.2020
1178 Rain 3 1014 100 3000 4.1 170 22:21 15.12.2020
1179 Drizzle 3 1014 93 3000 4.1 170 21:47 15.12.2020
1180 Drizzle 3 1014 100 3000 4.1 180 21:23 15.12.2020
1181 Drizzle 3 1014 100 3000 4.1 180 20:45 15.12.2020
1182 Drizzle 3 1014 93 3000 4.1 170 20:27 15.12.2020
1183 Drizzle 3 1014 93 3000 4.1 170 19:55 15.12.2020
1184 Drizzle 2 1015 100 3000 4.1 170 19:33 15.12.2020
1185 Clouds 2 1015 100 4000 4.6 170 18:42 15.12.2020
1186 Clouds 2 1015 100 6000 4.1 180 18:22 15.12.2020
1187 Clouds 2 1015 100 6000 4.1 180 17:58 15.12.2020
1188 Clouds 2 1016 100 7000 5.7 180 17:40 15.12.2020
1189 Clouds 2 1016 93 10000 4.1 180 17:20 15.12.2020
1190 Clouds 2 1016 93 10000 3.1 170 16:32 15.12.2020
1191 Clouds 2 1016 93 10000 4.1 170 15:52 15.12.2020
1192 Clouds 2 1016 93 10000 4.1 170 15:31 15.12.2020
1193 Clouds 2 1016 93 10000 4.6 180 14:47 15.12.2020
1194 Clouds 2 1016 93 10000 5.1 190 14:21 15.12.2020
1195 Clouds 2 1016 93 10000 5.1 180 13:52 15.12.2020
1196 Clouds 2 1016 93 10000 5.1 180 13:32 15.12.2020
1197 Clouds 2 1016 91 10000 4.1 160 12:47 15.12.2020
1198 Clouds 2 1016 91 10000 4.1 160 12:47 15.12.2020
1199 Clouds 2 1017 93 10000 4.1 180 12:22 15.12.2020
1200 Clouds 2 1017 93 10000 4.1 160 11:56 15.12.2020
1201 Clouds 1 1017 93 10000 4.1 160 11:26 15.12.2020
1202 Clouds 1 1017 93 10000 2.1 170 10:55 15.12.2020
1203 Clouds 1 1017 91 10000 2.1 170 10:32 15.12.2020
1204 Clouds 1 1017 91 10000 2.1 130 09:51 15.12.2020
1205 Clouds 1 1017 91 10000 2.1 130 09:32 15.12.2020
1206 Snow 0 1017 91 6000 1.5 120 08:53 15.12.2020
1207 Snow 0 1017 93 6000 1.5 120 08:26 15.12.2020
1208 Clouds 0 1017 100 8000 1.5 100 07:50 15.12.2020
1209 Snow 0 1017 100 5000 1.5 120 07:26 15.12.2020
1210 Snow 0 1017 92 8000 2.6 90 06:37 15.12.2020
1211 Clouds -1 1018 86 10000 2.1 70 03:29 15.12.2020
1212 Clouds -1 1018 92 10000 2.1 50 00:35 15.12.2020
1213 Clouds -1 1019 92 10000 2.1 80 23:26 14.12.2020
1214 Clouds -1 1019 86 10000 2.1 60 22:56 14.12.2020
1215 Clouds -1 1019 86 10000 2.1 60 22:34 14.12.2020
1216 Clouds -1 1019 92 10000 2.6 60 21:46 14.12.2020
1217 Clouds -1 1019 92 10000 1.5 110 21:23 14.12.2020
1218 Clouds -1 1019 92 10000 1.5 110 20:52 14.12.2020
1219 Clouds -2 1019 92 10000 1.5 110 20:30 14.12.2020
1220 Clouds -2 1019 92 10000 1.5 70 19:54 14.12.2020
1221 Clouds -2 1019 92 10000 2.6 80 19:29 14.12.2020
1222 Clouds -2 1019 92 10000 2.1 80 18:51 14.12.2020
1223 Clouds -2 1019 92 10000 2.1 80 18:51 14.12.2020
1224 Clouds -2 1019 92 10000 2.1 80 18:31 14.12.2020
1225 Clouds -2 1019 92 10000 1.5 60 17:47 14.12.2020
1226 Clouds -2 1019 92 10000 1.5 60 17:24 14.12.2020
1227 Clouds -2 1019 92 10000 1.5 90 16:52 14.12.2020
1228 Clouds -2 1019 92 10000 2.6 70 16:29 14.12.2020
1229 Clouds -2 1019 92 10000 2.6 70 15:44 14.12.2020
1230 Clouds -2 1019 92 10000 3.1 60 15:22 14.12.2020
1231 Clouds -2 1019 92 10000 2.1 70 14:43 14.12.2020
1232 Clouds -2 1019 92 10000 2.1 70 14:24 14.12.2020
1233 Clouds -2 1019 92 10000 1 0 13:44 14.12.2020
1234 Clouds -2 1019 92 10000 1.5 310 13:20 14.12.2020
1235 Clouds -2 1020 92 10000 1 0 12:52 14.12.2020
1236 Clouds -2 1020 92 10000 1 0 12:28 14.12.2020
1237 Clouds -2 1020 86 10000 1.63 124 11:35 14.12.2020
1238 Clouds -2 1019 86 10000 1.5 50 10:40 14.12.2020
1239 Clouds -2 1019 86 10000 2.1 40 10:21 14.12.2020
1240 Clouds -2 1019 86 10000 2.1 50 09:43 14.12.2020
1241 Clouds -2 1019 86 10000 2.1 50 08:47 14.12.2020
1242 Clouds -2 1019 86 10000 2.1 50 08:29 14.12.2020
1243 Clouds -2 1019 86 10000 1.5 60 07:45 14.12.2020
1244 Clouds -2 1019 86 10000 2.1 50 06:48 14.12.2020
1245 Clouds -2 1019 86 10000 2.1 50 06:48 14.12.2020
1246 Clouds -2 1019 92 10000 2.6 40 05:36 14.12.2020
1247 Snow -2 1019 92 10000 1.5 60 02:26 14.12.2020
1248 Snow -2 1019 92 10000 1 60 00:56 14.12.2020
1249 Snow -2 1019 86 10000 2.1 50 00:33 14.12.2020
1250 Snow -2 1019 86 10000 1 70 23:57 13.12.2020
1251 Snow -2 1019 86 10000 1 80 23:36 13.12.2020
1252 Snow -2 1019 86 10000 1.5 120 22:48 13.12.2020
1253 Snow -2 1019 80 10000 1.5 130 22:20 13.12.2020
1254 Snow -2 1019 80 10000 2.1 150 21:47 13.12.2020
1255 Snow -2 1019 80 10000 2.1 150 21:27 13.12.2020
1256 Snow -1 1018 80 10000 2.1 170 20:38 13.12.2020
1257 Snow -1 1018 80 10000 2.1 170 20:20 13.12.2020
1258 Snow -1 1018 86 10000 1.5 90 19:42 13.12.2020
1259 Clouds -2 1018 86 10000 1 0 19:20 13.12.2020
1260 Clouds -2 1018 86 10000 1 120 18:43 13.12.2020
1261 Clouds -1 1018 80 10000 1 0 18:21 13.12.2020
1262 Clouds -1 1018 80 10000 0.5 0 17:47 13.12.2020
1263 Clouds -1 1018 80 10000 0.5 0 17:47 13.12.2020
1264 Clouds -1 1018 80 10000 1.5 150 17:21 13.12.2020
1265 Clouds -1 1018 80 10000 1.5 150 16:58 13.12.2020
1266 Clouds -1 1018 80 10000 2.1 130 16:38 13.12.2020
1267 Clouds -1 1018 80 10000 1.5 110 16:19 13.12.2020
1268 Clouds -1 1018 80 10000 2.1 160 15:40 13.12.2020
1269 Clouds -1 1018 86 10000 2.6 130 15:22 13.12.2020
1270 Clouds -1 1018 86 10000 1.5 130 14:44 13.12.2020
1271 Clouds -1 1018 86 10000 1.5 130 14:21 13.12.2020
1272 Clouds -1 1018 86 10000 2.6 140 13:43 13.12.2020
1273 Clouds -1 1018 86 10000 2.6 140 13:25 13.12.2020
1274 Clouds -1 1018 80 10000 2.6 140 12:49 13.12.2020
1275 Clouds -1 1018 80 10000 2.6 140 12:23 13.12.2020
1276 Clouds -1 1018 80 10000 3.1 130 11:42 13.12.2020
1277 Clouds -2 1019 80 10000 3.1 160 10:56 13.12.2020
1278 Clouds -2 1019 80 10000 3.1 160 10:38 13.12.2020
1279 Clouds -2 1018 79 10000 5.7 150 09:55 13.12.2020
1280 Clouds -2 1018 79 10000 5.7 150 09:55 13.12.2020
1281 Clouds -2 1018 74 10000 6.2 150 09:27 13.12.2020
1282 Clouds -2 1018 79 10000 7.2 140 08:35 13.12.2020
1283 Clouds -2 1018 79 10000 5.7 130 07:47 13.12.2020
1284 Clouds -3 1018 86 10000 5.7 140 04:48 13.12.2020
1285 Clouds -2 1018 86 10000 5.1 120 02:41 13.12.2020
1286 Clouds -2 1018 86 10000 4.1 90 01:58 13.12.2020
1287 Clouds -2 1018 92 10000 4.1 100 00:50 13.12.2020
1288 Clouds -1 1018 92 10000 4.6 90 23:56 12.12.2020
1289 Clouds -1 1018 92 10000 3.6 100 23:31 12.12.2020
1290 Clouds -1 1018 92 10000 3.1 110 22:52 12.12.2020
1291 Clouds -1 1018 92 10000 3.6 100 22:19 12.12.2020
1292 Clouds -1 1018 92 10000 3.1 100 21:34 12.12.2020
1293 Clouds -1 1018 92 10000 3.6 130 20:56 12.12.2020
1294 Clouds -1 1018 92 10000 3.6 130 20:30 12.12.2020
1295 Clouds -1 1017 92 10000 4.1 130 19:58 12.12.2020
1296 Clouds -1 1017 92 10000 4.1 130 19:39 12.12.2020
1297 Clouds -1 1017 92 10000 3.6 120 19:21 12.12.2020
1298 Clouds -1 1017 92 10000 3.6 120 18:44 12.12.2020
1299 Clouds -1 1017 92 10000 3.6 120 18:26 12.12.2020
1300 Clouds 0 1017 93 10000 4.1 120 17:47 12.12.2020
1301 Clouds 0 1017 93 10000 5.1 120 16:57 12.12.2020
1302 Clouds 1 1016 86 10000 5.7 100 16:21 12.12.2020
1303 Clouds 1 1016 86 10000 5.7 100 15:45 12.12.2020
1304 Clouds 1 1016 86 10000 5.7 100 15:27 12.12.2020
1305 Clouds 1 1016 91 10000 4.6 100 14:48 12.12.2020
1306 Clouds 2 1016 87 10000 5.7 100 13:56 12.12.2020
1307 Clouds 2 1016 87 10000 5.7 100 13:37 12.12.2020
1308 Clouds 2 1016 93 10000 4.6 100 12:59 12.12.2020
1309 Clouds 2 1016 93 10000 5.1 100 12:26 12.12.2020
1310 Clouds 2 1016 100 9000 3.1 60 10:54 12.12.2020
1311 Clouds 2 1016 100 9000 2.1 60 09:49 12.12.2020
1312 Drizzle 2 1016 100 8000 3.1 50 08:57 12.12.2020
1313 Rain 1 1016 94 10000 2.6 70 03:31 12.12.2020
1314 Clouds 0 1017 94 10000 2.6 60 23:58 11.12.2020
1315 Clouds 0 1017 91 10000 2.1 90 22:39 11.12.2020
1316 Clouds 0 1017 92 10000 2.6 120 20:50 11.12.2020
1317 Clouds -1 1017 92 10000 3.1 120 18:46 11.12.2020
1318 Snow -1 1017 92 8000 2.1 70 16:34 11.12.2020
1319 Clouds -1 1017 92 6000 3.1 60 14:18 11.12.2020
1320 Snow -1 1017 86 8000 3.1 60 13:25 11.12.2020
1321 Snow -1 1017 86 10000 3.6 70 12:19 11.12.2020
1322 Snow -1 1017 86 10000 3.6 60 11:52 11.12.2020
1323 Clouds -2 1018 79 10000 3.6 60 10:55 11.12.2020
1324 Clouds -2 1018 86 10000 3.1 70 09:41 11.12.2020
1325 Clouds -3 1019 86 10000 5.1 110 05:59 11.12.2020
1326 Clouds -3 1019 79 10000 4.6 120 05:18 11.12.2020
1327 Clouds -2 1020 79 10000 3.1 100 02:28 11.12.2020
1328 Clouds -2 1020 79 10000 2.6 110 00:31 11.12.2020
1329 Clear -2 1021 86 10000 2.6 90 22:55 10.12.2020
1330 Clouds -2 1021 92 10000 2.6 80 21:36 10.12.2020
1331 Clouds -2 1021 86 10000 3.1 70 20:46 10.12.2020
1332 Clouds -2 1022 86 10000 3.1 60 19:44 10.12.2020
1333 Clouds -2 1022 86 10000 3.6 60 19:20 10.12.2020
1334 Clouds -2 1022 79 10000 2.6 60 18:24 10.12.2020
1335 Clouds -2 1023 86 10000 2.6 80 16:40 10.12.2020
1336 Clouds -2 1023 79 10000 2.6 90 15:44 10.12.2020
1337 Clouds -2 1023 79 10000 2.1 70 14:58 10.12.2020
1338 Clouds -2 1023 79 10000 2.6 90 14:37 10.12.2020
1339 Clouds -2 1024 79 10000 3.1 100 13:20 10.12.2020
1340 Clouds -2 1024 74 10000 3.6 100 11:41 10.12.2020
1341 Snow -2 1025 86 10000 2.6 100 08:57 10.12.2020
1342 Clouds -2 1025 86 10000 1.5 110 07:51 10.12.2020
1343 Clouds -2 1025 86 10000 1 100 06:42 10.12.2020
1344 Clouds -5 1025 92 10000 1.5 90 03:36 10.12.2020
1345 Clouds -5 1026 92 10000 1.5 100 02:24 10.12.2020
1346 Clouds -3 1026 79 10000 2.6 130 00:23 10.12.2020
1347 Clear -3 1026 73 10000 1.5 130 22:48 09.12.2020
1348 Clear -2 1026 73 10000 3.1 140 20:30 09.12.2020
1349 Clouds -2 1026 79 10000 3.1 140 19:32 09.12.2020
1350 Clouds -2 1027 86 10000 3.6 150 17:43 09.12.2020
1351 Clouds -2 1026 79 10000 4.1 150 16:44 09.12.2020
1352 Clouds -2 1026 79 10000 4.1 150 16:22 09.12.2020
1353 Clouds -2 1026 79 10000 4.6 150 15:30 09.12.2020
1354 Clouds -2 1026 79 10000 5.7 150 14:27 09.12.2020
1355 Clouds -2 1026 79 10000 5.1 150 13:58 09.12.2020
1356 Clouds -2 1027 79 10000 4.6 130 13:19 09.12.2020
1357 Clouds -2 1027 79 10000 5.7 150 12:44 09.12.2020
1358 Clouds -2 1027 79 10000 5.1 150 11:51 09.12.2020
1359 Clouds -2 1027 79 10000 5.7 150 10:48 09.12.2020
1360 Clouds -3 1027 73 10000 4.1 140 08:49 09.12.2020
1361 Clouds -3 1027 73 10000 4.1 150 07:43 09.12.2020
1362 Clouds -3 1027 73 10000 5.1 160 05:53 09.12.2020
1363 Clouds -3 1026 68 10000 6.7 140 03:29 09.12.2020
1364 Clear -1 1026 68 10000 5.1 130 01:52 09.12.2020
1365 Clear -1 1026 68 10000 4.6 120 23:43 08.12.2020
1366 Clear -1 1027 74 10000 4.1 110 22:56 08.12.2020
1367 Clear -1 1027 79 10000 4.1 120 21:22 08.12.2020
1368 Clear -1 1027 79 10000 3.1 120 19:34 08.12.2020
1369 Clear -1 1027 74 10000 4.1 110 18:59 08.12.2020
1370 Clear -1 1027 74 10000 4.6 120 17:55 08.12.2020
1371 Clouds -1 1026 86 10000 2.1 110 15:45 08.12.2020
1372 Clouds -1 1026 80 10000 6.2 140 14:26 08.12.2020
1373 Clouds 0 1026 88 10000 6.2 140 13:29 08.12.2020
1374 Clouds -1 1026 80 10000 4.6 120 12:27 08.12.2020
1375 Clouds 0 1026 80 10000 5.7 120 11:50 08.12.2020
1376 Clear -1 1026 80 10000 6.2 140 10:45 08.12.2020
1377 Clear -1 1026 74 10000 5.1 130 10:19 08.12.2020
1378 Clear -2 1026 74 10000 5.1 130 08:28 08.12.2020
1379 Clear -1 1025 74 10000 5.1 130 06:52 08.12.2020
1380 Clear -2 1025 74 10000 5.1 150 03:34 08.12.2020
1381 Clear -1 1025 68 10000 6.2 150 00:47 08.12.2020
1382 Clear -1 1024 68 10000 6.7 150 23:52 07.12.2020
1383 Clear 0 1024 68 10000 6.7 150 22:38 07.12.2020
1384 Clear 0 1024 68 10000 6.7 150 21:51 07.12.2020
1385 Clear 0 1024 86 10000 6.7 150 19:52 07.12.2020
1386 Clear 0 1024 87 10000 6.7 140 18:40 07.12.2020
1387 Clear 1 1024 59 10000 6.2 150 17:26 07.12.2020
1388 Clear 1 1024 59 10000 6.7 140 16:53 07.12.2020
1389 Clear 1 1024 59 10000 5.1 140 15:26 07.12.2020
1390 Clear 1 1024 59 10000 5.1 140 15:26 07.12.2020
1391 Clear 1 1024 59 10000 5.1 140 14:48 07.12.2020
1392 Clear 2 1024 55 10000 6.2 140 13:54 07.12.2020
1393 Clear 2 1024 55 10000 6.7 150 13:20 07.12.2020
1394 Clear 2 1024 55 10000 7.2 150 11:43 07.12.2020
1395 Clear 2 1024 55 10000 6.2 150 11:18 07.12.2020
1396 Clear 1 1024 59 10000 6.2 150 09:40 07.12.2020
1397 Clear 1 1024 59 10000 6.7 150 08:21 07.12.2020
1398 Clear 1 1023 59 10000 5.7 160 06:21 07.12.2020
1399 Clear 2 1023 64 10000 6.2 150 04:48 07.12.2020
1400 Clouds 2 1023 79 10000 5.7 150 01:54 07.12.2020
1401 Clouds 3 1023 79 10000 6.2 150 23:50 06.12.2020
1402 Clouds 3 1023 86 10000 5.1 140 22:23 06.12.2020
1403 Clouds 3 1023 86 10000 5.1 160 20:54 06.12.2020
1404 Clouds 3 1023 86 10000 6.2 150 20:34 06.12.2020
1405 Clouds 3 1023 86 10000 5.7 160 19:53 06.12.2020
1406 Clouds 3 1023 86 10000 5.7 140 18:21 06.12.2020
1407 Clouds 3 1022 93 10000 5.7 140 16:47 06.12.2020
1408 Clouds 3 1022 93 10000 4.6 160 14:57 06.12.2020
1409 Clouds 3 1022 93 10000 5.1 150 13:42 06.12.2020
1410 Clouds 4 1021 86 10000 4.6 160 12:42 06.12.2020
1411 Clouds 4 1022 93 10000 5.1 160 11:58 06.12.2020
1412 Clouds 4 1022 93 10000 5.1 160 11:34 06.12.2020
1413 Clouds 4 1021 93 10000 5.7 160 10:45 06.12.2020
1414 Clouds 4 1021 86 10000 5.7 160 09:49 06.12.2020
1415 Clouds 4 1021 86 10000 5.7 160 08:29 06.12.2020
1416 Clouds 3 1020 93 10000 4.6 160 05:51 06.12.2020
1417 Clouds 3 1018 86 10000 5.7 140 00:57 06.12.2020
1418 Clouds 4 1019 86 10000 4.1 160 00:38 06.12.2020
1419 Clouds 4 1019 86 10000 3.6 170 00:20 06.12.2020
1420 Clouds 4 1018 86 10000 6.2 150 22:41 05.12.2020
1421 Clouds 4 1018 86 10000 6.2 150 22:19 05.12.2020
1422 Clouds 4 1017 86 10000 6.2 150 21:47 05.12.2020
1423 Clouds 4 1017 86 10000 6.2 150 21:22 05.12.2020
1424 Clouds 4 1017 93 10000 5.1 150 19:21 05.12.2020
1425 Clouds 4 1017 93 10000 6.2 150 18:38 05.12.2020
1426 Drizzle 4 1017 93 4000 6.2 150 16:51 05.12.2020
1427 Drizzle 4 1017 93 4000 6.2 150 16:29 05.12.2020
1428 Drizzle 4 1016 93 4000 6.7 150 15:36 05.12.2020
1429 Drizzle 4 1016 93 4000 6.2 150 14:24 05.12.2020
1430 Drizzle 3 1016 93 3500 5.7 160 11:51 05.12.2020
1431 Drizzle 3 1015 93 7000 6.7 160 10:48 05.12.2020
1432 Clouds 3 1015 86 10000 6.2 160 10:22 05.12.2020
1433 Clouds 3 1014 93 10000 5.7 160 07:48 05.12.2020
1434 Clouds 3 1014 86 10000 6.2 150 06:22 05.12.2020
1435 Clouds 2 1014 86 10000 5.7 150 03:39 05.12.2020
1436 Rain 2 1014 84 10000 6.7 140 23:48 04.12.2020
1437 Snow 2 1014 81 10000 6.7 130 21:59 04.12.2020
1438 Clouds 1 1014 80 10000 6.2 130 19:57 04.12.2020
1439 Clouds 1 1014 80 10000 7.2 130 18:47 04.12.2020
1440 Clouds 1 1014 86 10000 8.2 130 17:54 04.12.2020
1441 Clouds 1 1014 86 10000 6.7 130 17:24 04.12.2020
1442 Snow 1 1015 86 10000 7.2 130 15:35 04.12.2020
1443 Snow 0 1015 90 1500 6.7 120 13:39 04.12.2020
1444 Snow 0 1016 91 7000 6.7 130 13:21 04.12.2020
1445 Snow 0 1016 91 5000 6.7 130 12:47 04.12.2020
1446 Snow 0 1016 98 3000 6.7 130 10:39 04.12.2020
1447 Snow 1 1016 74 10000 7.7 130 09:41 04.12.2020
1448 Clouds 1 1016 80 10000 7.7 130 06:41 04.12.2020
1449 Clouds 1 1016 74 10000 8.2 140 05:40 04.12.2020
1450 Clouds 1 1017 80 10000 4.6 120 01:54 04.12.2020
1451 Clouds 1 1018 80 10000 4.6 150 22:52 03.12.2020
1452 Snow 0 1018 95 10000 4.6 130 22:22 03.12.2020
1453 Clouds 0 1018 95 10000 3.6 130 20:48 03.12.2020
1454 Clouds 0 1018 94 10000 4.6 130 19:27 03.12.2020
1455 Clouds 0 1019 94 10000 4.6 150 18:49 03.12.2020
1456 Clouds 0 1019 93 10000 5.7 130 17:38 03.12.2020
1457 Clouds 0 1019 93 10000 5.1 140 17:18 03.12.2020
1458 Clouds 0 1020 92 10000 5.1 130 15:45 03.12.2020
1459 Clouds 0 1020 91 10000 5.1 130 15:27 03.12.2020
1460 Clouds 0 1020 90 10000 5.7 140 14:26 03.12.2020
1461 Clouds 0 1020 92 10000 5.1 140 13:36 03.12.2020
1462 Clouds 0 1021 92 10000 6.2 140 12:26 03.12.2020
1463 Clouds -1 1022 80 10000 5.7 130 11:24 03.12.2020
1464 Clouds -1 1022 80 10000 5.1 160 08:56 03.12.2020
1465 Clouds -1 1023 86 10000 3.6 150 05:18 03.12.2020
1466 Clouds 0 1024 96 10000 4.1 150 02:26 03.12.2020
1467 Clouds 0 1025 95 10000 4.6 150 00:48 03.12.2020
1468 Clouds 0 1025 94 10000 5.1 160 22:47 02.12.2020
1469 Clouds 0 1025 93 10000 4.6 150 22:21 02.12.2020
1470 Clouds 1 1025 80 10000 5.1 160 20:55 02.12.2020
1471 Clouds 1 1025 86 10000 5.1 170 20:37 02.12.2020
1472 Clouds 1 1026 86 10000 5.1 170 20:18 02.12.2020
1473 Clouds 2 1026 74 10000 4.6 170 17:56 02.12.2020
1474 Clouds 2 1026 74 10000 4.1 160 17:37 02.12.2020
1475 Clouds 1 1026 74 10000 4.1 160 17:19 02.12.2020
1476 Clouds 2 1027 80 10000 5.1 180 14:49 02.12.2020
1477 Clouds 3 1028 85 10000 5.1 190 11:34 02.12.2020
1478 Clouds 3 1028 86 10000 6.2 180 10:28 02.12.2020
1479 Clouds 2 1028 93 10000 6.2 200 08:36 02.12.2020
1480 Clouds 4 1027 93 10000 5.1 210 03:57 02.12.2020
1481 Rain 4 1024 93 10000 4.6 210 22:21 01.12.2020
1482 Clouds 3 1023 93 10000 3.6 190 20:49 01.12.2020
1483 Clouds 4 1023 93 10000 4.1 190 19:35 01.12.2020
1484 Rain 3 1022 93 10000 3.1 220 17:49 01.12.2020
1485 Rain 4 1020 93 10000 3.6 210 15:44 01.12.2020
1486 Rain 5 1019 86 10000 4.1 220 13:38 01.12.2020
1487 Clouds 5 1018 86 10000 4.6 220 12:25 01.12.2020
1488 Clouds 5 1017 86 10000 5.1 220 11:26 01.12.2020
1489 Clouds 5 1017 93 10000 4.6 210 10:38 01.12.2020
1490 Rain 3 1015 93 10000 5.1 180 08:21 01.12.2020
1491 Clouds 2 1014 93 10000 5.1 190 06:47 01.12.2020
1492 Rain 0 1014 93 6000 3.1 160 01:52 01.12.2020
1493 Snow 0 1014 86 7000 4.1 180 00:56 01.12.2020
1494 Clouds 1 1014 80 10000 3.6 170 23:21 30.11.2020
1495 Snow 0 1014 89 10000 2.6 160 22:44 30.11.2020
1496 Snow 0 1014 87 10000 2.6 160 22:25 30.11.2020
1497 Snow 0 1014 89 10000 2.1 130 20:48 30.11.2020
1498 Snow 0 1014 94 10000 1.5 90 19:42 30.11.2020
1499 Snow 0 1015 95 4500 3.1 130 18:23 30.11.2020
1500 Snow 0 1015 95 4500 2.1 120 17:47 30.11.2020
1501 Snow 0 1015 96 7000 2.1 100 16:55 30.11.2020
1502 Snow 0 1015 96 4000 1 0 15:59 30.11.2020
1503 Snow 0 1016 96 7000 2.1 60 14:46 30.11.2020
1504 Rain 0 1017 93 4500 2.1 70 13:52 30.11.2020
1505 Rain 0 1018 96 2000 2.6 60 12:26 30.11.2020
1506 Snow 0 1018 96 2000 2.6 60 11:58 30.11.2020
1507 Clouds 0 1019 93 2800 3.6 50 10:26 30.11.2020
1508 Clouds 0 1019 93 2800 3.6 50 10:26 30.11.2020
1509 Snow 0 1019 93 4500 3.6 50 09:49 30.11.2020
1510 Snow 0 1020 96 9000 4.1 40 07:18 30.11.2020
1511 Clouds -1 1025 92 6000 4.1 20 00:41 30.11.2020
1512 Clouds -1 1026 92 10000 3.6 30 21:51 29.11.2020
1513 Clouds -1 1026 92 10000 4.1 30 21:31 29.11.2020
1514 Clouds -1 1027 92 10000 5.1 30 19:54 29.11.2020
1515 Clouds -1 1028 90 10000 5.1 50 17:47 29.11.2020
1516 Clouds 0 1028 91 10000 4.6 60 15:25 29.11.2020
1517 Clouds 0 1029 88 8000 4.6 60 13:23 29.11.2020
1518 Clouds 1 1029 89 3000 4.6 60 11:41 29.11.2020
1519 Clouds 1 1029 89 10000 5.1 60 10:22 29.11.2020
1520 Snow 0 1029 90 6000 4.1 50 08:38 29.11.2020
1521 Clouds 1 1029 92 10000 3.6 40 05:19 29.11.2020
1522 Rain 1 1030 90 10000 4.1 50 23:48 28.11.2020
1523 Snow 1 1029 89 10000 4.6 40 22:56 28.11.2020
1524 Rain 1 1029 86 10000 3.6 30 20:47 28.11.2020
1525 Clouds 1 1029 86 10000 3.6 30 19:47 28.11.2020
1526 Clouds 1 1029 86 10000 3.6 30 19:21 28.11.2020
1527 Clouds 1 1028 86 10000 4.1 20 18:27 28.11.2020
1528 Clouds 1 1028 86 10000 4.1 30 17:41 28.11.2020
1529 Clouds 1 1028 86 10000 2.6 20 16:40 28.11.2020
1530 Clouds 1 1027 86 10000 3.6 30 14:31 28.11.2020
1531 Clouds 1 1027 86 10000 3.1 30 11:29 28.11.2020
1532 Clouds 1 1026 80 10000 4.6 10 09:38 28.11.2020
1533 Clouds 0 1023 88 10000 4.1 30 03:56 28.11.2020
1534 Clouds 0 1023 74 10000 4.1 10 03:26 28.11.2020
1535 Clouds 0 1021 80 10000 3.6 350 00:49 28.11.2020
1536 Clouds 1 1020 86 10000 3.6 10 22:55 27.11.2020
1537 Clouds 0 1019 82 10000 4.1 360 21:27 27.11.2020
1538 Clouds 1 1018 80 10000 5.1 20 20:30 27.11.2020
1539 Clouds 1 1018 86 10000 5.7 10 19:25 27.11.2020
1540 Clouds 1 1016 86 10000 5.1 350 17:50 27.11.2020
1541 Clouds 1 1014 86 10000 5.7 330 14:46 27.11.2020
1542 Clouds 1 1013 80 10000 6.2 340 13:24 27.11.2020
1543 Clouds 1 1013 80 10000 5.1 340 12:47 27.11.2020
1544 Clouds 0 1012 89 10000 5.1 330 11:35 27.11.2020
1545 Clouds 0 1012 89 10000 4.6 340 10:50 27.11.2020
1546 Clouds 0 1011 91 10000 5.1 330 09:53 27.11.2020
1547 Clouds 0 1008 89 10000 4.6 320 05:47 27.11.2020
1548 Clear 1 1007 88 10000 3.58 292 22:27 26.11.2020
1549 Clouds 1 1006 80 10000 5.7 320 21:56 26.11.2020
1550 Clouds 1 1006 80 10000 5.1 310 20:50 26.11.2020
1551 Clear 2 1005 93 10000 3.6 290 18:37 26.11.2020
1552 Clouds 3 1006 93 10000 3.6 280 17:41 26.11.2020
1553 Clouds 5 1005 93 10000 3.1 280 14:39 26.11.2020
1554 Clouds 6 1005 93 10000 3.6 250 13:19 26.11.2020
1555 Clouds 6 1005 93 10000 3.1 260 12:41 26.11.2020
1556 Rain 6 1005 93 10000 3.6 240 11:29 26.11.2020
1557 Rain 6 1005 93 10000 3.1 230 10:25 26.11.2020
1558 Rain 7 1005 93 10000 3.1 230 09:39 26.11.2020
1559 Rain 7 1005 93 10000 3.1 240 09:18 26.11.2020
1560 Drizzle 7 1005 100 10000 3.1 240 08:34 26.11.2020
1561 Clouds 7 1006 87 10000 5.7 220 02:19 26.11.2020
1562 Clouds 8 1007 93 10000 5.7 220 22:32 25.11.2020
1563 Clouds 8 1008 93 10000 5.7 230 20:38 25.11.2020
1564 Clouds 7 1008 93 10000 4.6 230 19:29 25.11.2020
1565 Drizzle 7 1008 100 1500 4.1 150 18:23 25.11.2020
1566 Rain 5 1010 100 5000 5.1 150 15:56 25.11.2020
1567 Rain 5 1010 100 5000 4.6 150 15:35 25.11.2020
1568 Rain 4 1012 100 3000 2.6 110 13:47 25.11.2020
1569 Rain 4 1012 93 3000 2.1 100 13:29 25.11.2020
1570 Rain 1 1013 88 10000 2.6 100 11:27 25.11.2020
1571 Clouds 0 1013 100 10000 2.6 80 09:23 25.11.2020
1572 Clouds 1 1013 92 10000 2.6 70 08:51 25.11.2020
1573 Clouds 0 1013 92 10000 2.6 70 08:29 25.11.2020
1574 Clear 0 1012 100 10000 2.6 50 03:58 25.11.2020
1575 Clouds 0 1011 92 10000 1.5 50 01:51 25.11.2020
1576 Clouds -1 1010 100 10000 1.5 60 00:22 25.11.2020
1577 Clouds -1 1010 100 10000 1.5 60 00:22 25.11.2020
1578 Clear 0 1011 92 10000 1.5 50 23:36 24.11.2020
1579 Clear -1 1010 92 10000 1 40 22:52 24.11.2020
1580 Clear -1 1010 92 10000 1 0 21:51 24.11.2020
1581 Clear -1 1010 92 10000 1 0 21:28 24.11.2020
1582 Clear -1 1010 100 10000 0.62 275 20:19 24.11.2020
1583 Clouds -1 1009 100 10000 0.5 0 18:39 24.11.2020
1584 Clouds 0 1009 100 10000 2.32 312 17:29 24.11.2020
1585 Clouds 1 1009 86 10000 2.1 250 16:38 24.11.2020
1586 Clouds 1 1009 86 10000 2.6 280 15:58 24.11.2020
1587 Clouds 3 1009 74 10000 4.1 300 15:40 24.11.2020
1588 Clouds 3 1009 74 10000 4.1 290 15:18 24.11.2020
1589 Clouds 3 1009 84 10000 3.1 290 14:33 24.11.2020
1590 Clouds 4 1008 86 10000 4.6 280 12:44 24.11.2020
1591 Clouds 4 1008 93 10000 4.1 290 12:21 24.11.2020
1592 Clouds 3 1008 86 10000 5.7 290 11:37 24.11.2020
1593 Clouds 3 1007 86 10000 5.1 290 10:30 24.11.2020
1594 Clouds 3 1007 83 10000 4.6 270 09:53 24.11.2020
1595 Clouds 3 1007 84 10000 4.6 270 09:34 24.11.2020
1596 Clouds 2 1005 86 10000 5.1 260 06:50 24.11.2020
1597 Clouds 2 1004 93 10000 4.6 260 04:19 24.11.2020
1598 Clouds 3 1001 93 10000 3.6 290 22:29 23.11.2020
1599 Clouds 4 1000 93 10000 3.6 290 21:36 23.11.2020
1600 Clouds 4 999 93 10000 4.6 270 20:50 23.11.2020
1601 Clouds 4 999 86 10000 4.6 260 20:21 23.11.2020
1602 Rain 4 998 86 10000 3.6 240 18:48 23.11.2020
1603 Rain 4 998 86 10000 4.1 250 17:25 23.11.2020
1604 Clouds 4 997 86 10000 4.1 230 16:22 23.11.2020
1605 Rain 5 997 80 10000 5.7 250 14:47 23.11.2020
1606 Clouds 5 996 75 10000 5.7 240 13:19 23.11.2020
1607 Clouds 5 996 75 10000 5.1 240 12:36 23.11.2020
1608 Clouds 5 996 75 10000 4.1 230 11:48 23.11.2020
1609 Clouds 5 996 75 10000 4.6 240 10:50 23.11.2020
1610 Clear 4 995 86 10000 5.1 210 09:31 23.11.2020
1611 Clear 3 995 86 10000 4.1 220 08:40 23.11.2020
1612 Clear 3 995 86 10000 4.1 230 07:25 23.11.2020
1613 Clear 4 994 93 10000 3.6 230 00:32 23.11.2020
1614 Clear 4 994 86 10000 4.1 220 23:35 22.11.2020
1615 Clouds 5 994 86 10000 4.6 220 22:18 22.11.2020
1616 Clouds 5 994 81 10000 4.1 200 20:53 22.11.2020
1617 Clouds 6 994 81 10000 4.1 210 19:53 22.11.2020
1618 Clouds 6 994 81 10000 5.1 210 18:40 22.11.2020
1619 Clouds 6 994 86 10000 4.6 200 16:54 22.11.2020
1620 Clouds 6 994 80 10000 4.1 200 15:51 22.11.2020
1621 Clouds 6 995 75 10000 3.6 220 14:34 22.11.2020
1622 Clouds 6 996 81 10000 6.2 220 12:50 22.11.2020
1623 Clouds 6 996 81 10000 6.2 220 11:57 22.11.2020
1624 Clouds 6 996 87 10000 5.7 220 11:20 22.11.2020
1625 Clouds 5 996 86 10000 5.1 210 10:45 22.11.2020
1626 Clouds 5 997 81 10000 5.7 220 09:32 22.11.2020
1627 Clouds 6 996 93 10000 5.7 230 01:48 22.11.2020
1628 Rain 6 997 87 8000 6.7 230 23:39 21.11.2020
1629 Rain 6 999 93 6000 12.9 190 21:57 21.11.2020
1630 Rain 5 1000 93 10000 13.4 190 21:24 21.11.2020
1631 Rain 5 1001 93 10000 13.4 190 20:34 21.11.2020
1632 Rain 5 1003 93 7000 12.3 190 19:54 21.11.2020
1633 Rain 5 1003 93 7000 12.3 190 19:33 21.11.2020
1634 Rain 4 1005 86 10000 11.3 180 18:27 21.11.2020
1635 Rain 4 1010 86 10000 10.3 180 16:49 21.11.2020
1636 Rain 4 1010 86 10000 10.3 180 16:49 21.11.2020
1637 Rain 4 1010 86 10000 10.3 180 16:26 21.11.2020
1638 Rain 4 1013 80 10000 8.2 190 15:22 21.11.2020
1639 Clouds 4 1014 80 10000 7.7 190 14:43 21.11.2020
1640 Clouds 4 1014 80 10000 7.7 190 14:20 21.11.2020
1641 Clouds 4 1014 80 10000 8.2 180 14:20 21.11.2020
1642 Clouds 3 1017 71 10000 6.2 200 12:28 21.11.2020
1643 Clouds 2 1017 71 10000 3.6 150 11:58 21.11.2020
1644 Clouds 0 1019 92 10000 7.36 218 10:40 21.11.2020
1645 Clear 0 1020 100 10000 2.6 130 09:58 21.11.2020
1646 Clear -1 1021 92 10000 1 0 08:51 21.11.2020
1647 Fog -3 1021 100 10000 1 200 06:34 21.11.2020
1648 Clear -3 1021 100 10000 1 220 04:33 21.11.2020
1649 Clear -2 1018 100 10000 3.1 270 00:45 21.11.2020
1650 Clouds -1 1018 92 10000 3.6 280 23:44 20.11.2020
1651 Clouds -1 1016 100 10000 3.1 270 22:25 20.11.2020
1652 Clouds -1 1016 85 10000 3.6 270 21:38 20.11.2020
1653 Clouds 0 1015 85 10000 4.1 280 21:20 20.11.2020
1654 Clouds 0 1014 83 10000 5.1 290 19:44 20.11.2020
1655 Clouds 0 1012 82 10000 4.6 280 18:36 20.11.2020
1656 Clouds 1 1011 82 10000 4.6 270 17:47 20.11.2020
1657 Clouds 1 1011 79 10000 4.6 270 17:23 20.11.2020
1658 Clouds 1 1009 79 10000 5.1 280 16:38 20.11.2020
1659 Clouds 1 1009 78 10000 5.1 270 15:56 20.11.2020
1660 Clouds 1 1006 79 8000 5.1 280 14:49 20.11.2020
1661 Clouds 1 1005 81 10000 5.1 270 13:43 20.11.2020
1662 Clouds 0 1004 81 10000 4.6 260 13:18 20.11.2020
1663 Clouds 0 1004 80 10000 4.1 250 12:33 20.11.2020
1664 Clouds 0 1003 80 10000 5.1 260 11:43 20.11.2020
1665 Clouds -1 1002 92 10000 5.7 260 10:45 20.11.2020
1666 Clouds -1 999 86 10000 5.7 260 08:53 20.11.2020
1667 Clouds -1 999 86 10000 5.7 260 08:24 20.11.2020
1668 Rain 0 997 92 10000 4.1 220 05:43 20.11.2020
1669 Clouds 0 996 83 10000 5.1 280 03:43 20.11.2020
1670 Clouds 3 990 93 10000 4.1 290 22:35 19.11.2020
1671 Clouds 4 988 93 10000 6.7 270 21:55 19.11.2020
1672 Clouds 4 987 87 10000 6.7 260 21:19 19.11.2020
1673 Clouds 5 987 93 10000 6.2 220 20:31 19.11.2020
1674 Clouds 7 986 93 10000 7.7 230 19:45 19.11.2020
1675 Rain 7 986 87 10000 11.3 210 19:22 19.11.2020
1676 Clouds 9 986 76 10000 10.8 210 17:39 19.11.2020
1677 Rain 8 987 87 10000 10.3 210 16:48 19.11.2020
1678 Clouds 8 987 70 10000 11.3 220 15:31 19.11.2020
1679 Clouds 9 987 70 10000 10.3 220 14:31 19.11.2020
1680 Clouds 9 986 81 10000 12.3 220 13:44 19.11.2020
1681 Clouds 9 986 87 10000 11.3 210 12:57 19.11.2020
1682 Clouds 9 986 87 10000 13.9 200 12:34 19.11.2020
1683 Clouds 9 987 93 3500 14.4 200 11:42 19.11.2020
1684 Rain 9 987 93 3500 14.4 200 11:22 19.11.2020
1685 Drizzle 9 989 93 3500 13.9 200 10:51 19.11.2020
1686 Rain 9 990 93 5000 15.4 200 09:54 19.11.2020
1687 Rain 9 990 93 5000 15.4 200 09:36 19.11.2020
1688 Rain 9 990 93 4500 13.4 200 09:18 19.11.2020
1689 Rain 9 992 93 9000 13.4 200 07:59 19.11.2020
1690 Rain 10 1000 93 6000 9.8 210 01:50 19.11.2020
1691 Rain 10 1000 87 10000 12.3 210 00:33 19.11.2020
1692 Clouds 10 1001 93 10000 11.3 210 23:47 18.11.2020
1693 Clouds 10 1001 93 10000 11.8 220 23:24 18.11.2020
1694 Clouds 11 1002 93 10000 11.8 220 22:30 18.11.2020
1695 Clouds 11 1002 93 10000 11.8 220 22:30 18.11.2020
1696 Clouds 11 1003 93 10000 9.3 210 21:45 18.11.2020
1697 Clouds 11 1003 93 10000 10.3 210 21:26 18.11.2020
1698 Drizzle 10 1003 93 5000 9.3 210 20:40 18.11.2020
1699 Drizzle 10 1004 93 8000 8.7 210 19:44 18.11.2020
1700 Rain 10 1004 93 6000 8.2 210 19:23 18.11.2020
1701 Drizzle 10 1005 100 5000 7.2 200 18:45 18.11.2020
1702 Drizzle 10 1006 100 4500 5.7 190 17:45 18.11.2020
1703 Clouds 10 1006 93 10000 6.2 210 16:54 18.11.2020
1704 Clouds 9 1007 93 10000 4.6 210 16:19 18.11.2020
1705 Clouds 9 1007 93 10000 4.1 200 14:42 18.11.2020
1706 Clouds 9 1007 93 10000 4.1 210 14:22 18.11.2020
1707 Clouds 9 1007 87 10000 4.1 230 13:26 18.11.2020
1708 Clouds 10 1007 87 10000 4.6 230 12:44 18.11.2020
1709 Clouds 9 1007 87 10000 3.6 260 11:56 18.11.2020
1710 Clouds 9 1006 93 10000 4.6 250 10:57 18.11.2020
1711 Clouds 9 1006 93 10000 4.6 250 10:30 18.11.2020
1712 Clouds 9 1004 87 10000 5.7 260 08:41 18.11.2020
1713 Drizzle 9 1002 100 7000 6.2 210 06:49 18.11.2020
1714 Rain 8 1003 100 5000 10.8 190 04:24 18.11.2020
1715 Rain 8 1009 93 10000 9.3 180 00:20 18.11.2020
1716 Rain 8 1010 93 10000 8.7 190 23:24 17.11.2020
1717 Rain 8 1010 93 10000 7.7 170 22:44 17.11.2020
1718 Clouds 8 1010 93 10000 7.7 170 22:25 17.11.2020
1719 Clouds 7 1011 93 10000 6.7 170 21:46 17.11.2020
1720 Rain 7 1011 100 6000 7.2 170 21:18 17.11.2020
1721 Clouds 7 1012 100 8000 7.2 170 20:42 17.11.2020
1722 Clouds 7 1012 93 10000 6.7 170 20:22 17.11.2020
1723 Clouds 6 1013 100 8000 6.2 170 18:56 17.11.2020
1724 Rain 6 1013 100 8000 6.2 170 18:22 17.11.2020
1725 Clouds 6 1014 93 7000 6.2 160 17:27 17.11.2020
1726 Drizzle 5 1015 100 10000 7.2 170 16:30 17.11.2020
1727 Clouds 5 1015 100 4000 7.2 160 15:51 17.11.2020
1728 Clouds 5 1015 100 4000 7.2 160 15:33 17.11.2020
1729 Clouds 5 1015 100 5000 5.7 160 14:57 17.11.2020
1730 Clouds 5 1015 93 6000 5.7 160 14:28 17.11.2020
1731 Clouds 5 1015 93 10000 6.7 160 13:41 17.11.2020
1732 Clouds 5 1016 93 10000 6.2 170 13:19 17.11.2020
1733 Clouds 5 1016 93 10000 7.2 160 12:40 17.11.2020
1734 Clouds 5 1016 93 10000 7.2 160 11:44 17.11.2020
1735 Clouds 5 1016 93 10000 6.7 160 10:56 17.11.2020
1736 Clouds 5 1016 93 10000 7.2 160 10:29 17.11.2020
1737 Clouds 5 1016 93 10000 6.7 160 09:51 17.11.2020
1738 Rain 5 1016 93 10000 6.7 160 09:29 17.11.2020
1739 Rain 5 1016 93 7000 6.7 160 08:23 17.11.2020
1740 Rain 5 1016 93 7000 6.2 160 07:44 17.11.2020
1741 Rain 5 1016 93 9000 6.2 160 06:34 17.11.2020
1742 Rain 5 1016 93 10000 7.2 160 03:48 17.11.2020
1743 Rain 5 1016 93 10000 6.2 160 02:53 17.11.2020
1744 Clouds 5 1016 100 10000 5.7 160 01:25 17.11.2020
1745 Rain 5 1016 100 10000 5.7 150 00:53 17.11.2020
1746 Rain 5 1017 93 10000 5.7 150 23:48 16.11.2020
1747 Rain 5 1017 93 10000 5.7 150 23:29 16.11.2020
1748 Rain 5 1017 93 10000 5.7 150 22:43 16.11.2020
1749 Clouds 5 1017 93 10000 4.6 160 22:20 16.11.2020
1750 Rain 5 1017 93 10000 5.7 150 21:45 16.11.2020
1751 Rain 5 1017 93 10000 5.1 150 21:24 16.11.2020
1752 Rain 5 1017 86 10000 5.1 150 20:37 16.11.2020
1753 Rain 5 1017 86 10000 5.7 150 20:19 16.11.2020
1754 Rain 5 1017 86 10000 6.2 150 19:38 16.11.2020
1755 Clouds 5 1017 86 10000 6.2 150 19:19 16.11.2020
1756 Clouds 5 1017 86 10000 5.7 140 18:29 16.11.2020
1757 Clouds 5 1017 86 10000 6.7 140 17:42 16.11.2020
1758 Clouds 4 1017 93 10000 6.2 140 17:20 16.11.2020
1759 Clouds 4 1017 86 10000 6.7 140 16:52 16.11.2020
1760 Clouds 4 1017 86 10000 6.7 140 16:27 16.11.2020
1761 Clouds 4 1017 86 10000 6.7 150 15:50 16.11.2020
1762 Clouds 4 1017 86 10000 6.7 150 15:29 16.11.2020
1763 Clouds 4 1017 86 10000 6.7 150 15:29 16.11.2020
1764 Clouds 4 1017 86 10000 6.2 140 14:55 16.11.2020
1765 Clouds 4 1017 86 10000 6.7 150 14:28 16.11.2020
1766 Clouds 4 1017 86 10000 7.2 150 13:30 16.11.2020
1767 Clouds 4 1017 86 10000 6.2 150 12:33 16.11.2020
1768 Clouds 4 1017 93 10000 7.2 150 11:43 16.11.2020
1769 Clouds 4 1017 93 10000 7.2 150 11:24 16.11.2020
1770 Drizzle 4 1017 93 10000 6.7 140 10:46 16.11.2020
1771 Drizzle 4 1017 93 10000 6.7 140 10:26 16.11.2020
1772 Drizzle 4 1017 93 3000 6.2 140 09:53 16.11.2020
1773 Drizzle 4 1017 93 4000 5.7 140 09:34 16.11.2020
1774 Drizzle 4 1017 86 6000 5.1 130 08:48 16.11.2020
1775 Drizzle 4 1017 86 6000 5.1 130 08:22 16.11.2020
1776 Clouds 4 1017 86 10000 6.7 130 07:29 16.11.2020
1777 Clouds 4 1017 86 10000 6.2 130 06:46 16.11.2020
1778 Clouds 4 1017 86 10000 5.1 120 05:48 16.11.2020
1779 Clouds 3 1018 86 10000 5.7 140 03:54 16.11.2020
1780 Clouds 3 1019 86 10000 6.2 120 01:45 16.11.2020
1781 Clouds 3 1019 88 10000 4.6 130 00:33 16.11.2020
1782 Clouds 3 1020 87 10000 5.7 140 23:32 15.11.2020
1783 Clouds 3 1020 87 10000 5.1 140 22:58 15.11.2020
1784 Clouds 3 1020 87 10000 4.6 140 22:25 15.11.2020
1785 Clouds 3 1020 87 10000 4.6 130 21:54 15.11.2020
1786 Clouds 3 1020 87 10000 4.6 140 21:35 15.11.2020
1787 Clouds 3 1020 86 10000 4.6 140 20:58 15.11.2020
1788 Clouds 3 1020 85 10000 5.7 140 20:38 15.11.2020
1789 Clouds 3 1020 85 10000 5.7 140 19:57 15.11.2020
1790 Clouds 3 1020 85 10000 5.1 150 19:38 15.11.2020
1791 Clouds 3 1020 84 10000 4.6 150 19:20 15.11.2020
1792 Clouds 3 1020 84 10000 4.6 150 18:45 15.11.2020
1793 Clouds 3 1020 85 10000 4.1 140 18:25 15.11.2020
1794 Clouds 3 1021 85 10000 2.6 120 17:57 15.11.2020
1795 Clouds 3 1021 85 10000 2.6 120 17:39 15.11.2020
1796 Clouds 3 1021 83 10000 3.1 120 17:19 15.11.2020
1797 Clouds 3 1021 82 10000 3.6 130 16:39 15.11.2020
1798 Clouds 3 1021 82 10000 4.1 140 16:18 15.11.2020
1799 Clouds 3 1021 82 10000 4.6 150 15:43 15.11.2020
1800 Clouds 3 1021 81 10000 4.6 150 15:23 15.11.2020
1801 Clouds 3 1021 81 10000 5.1 160 14:51 15.11.2020
1802 Clouds 3 1021 79 10000 5.1 160 14:25 15.11.2020
1803 Clouds 3 1021 80 10000 5.7 160 13:42 15.11.2020
1804 Clouds 4 1021 78 10000 5.1 160 13:18 15.11.2020
1805 Clouds 4 1021 80 10000 5.7 160 12:46 15.11.2020
1806 Clouds 4 1021 80 10000 5.1 150 12:19 15.11.2020
1807 Clouds 4 1021 80 10000 5.1 160 11:44 15.11.2020
1808 Clouds 4 1021 80 10000 5.7 150 11:18 15.11.2020
1809 Clouds 4 1021 80 10000 5.1 160 10:49 15.11.2020
1810 Clouds 4 1021 80 10000 5.1 160 10:30 15.11.2020
1811 Clouds 4 1021 86 10000 5.1 150 09:46 15.11.2020
1812 Clouds 4 1021 86 10000 4.1 150 09:24 15.11.2020
1813 Clouds 4 1021 86 10000 4.6 150 08:54 15.11.2020
1814 Clouds 4 1021 86 10000 4.6 150 08:54 15.11.2020
1815 Clouds 4 1021 86 10000 4.6 150 08:32 15.11.2020
1816 Clouds 4 1021 86 10000 3.1 150 07:44 15.11.2020
1817 Clouds 4 1021 86 10000 4.1 150 05:37 15.11.2020
1818 Clouds 4 1021 86 10000 3.6 160 04:52 15.11.2020
1819 Clouds 4 1021 86 10000 4.6 140 01:26 15.11.2020
1820 Clouds 4 1021 80 10000 5.1 140 00:29 15.11.2020
1821 Clouds 4 1021 86 10000 4.1 150 23:42 14.11.2020
1822 Clouds 4 1021 86 10000 3.6 140 22:53 14.11.2020
1823 Clouds 4 1021 86 10000 3.6 140 22:33 14.11.2020
1824 Clouds 4 1021 86 10000 4.1 140 21:55 14.11.2020
1825 Clouds 4 1021 86 10000 4.1 140 21:36 14.11.2020
1826 Clouds 4 1021 86 10000 3.6 150 21:18 14.11.2020
1827 Clouds 4 1021 86 10000 4.1 150 20:34 14.11.2020
1828 Clouds 4 1021 86 10000 3.6 140 19:58 14.11.2020
1829 Clouds 4 1021 86 10000 5.1 150 19:36 14.11.2020
1830 Clouds 4 1021 86 10000 4.1 150 18:55 14.11.2020
1831 Clouds 4 1021 86 10000 3.6 160 18:37 14.11.2020
1832 Clouds 4 1021 86 10000 4.1 140 18:19 14.11.2020
1833 Clouds 4 1021 86 10000 3.6 150 17:42 14.11.2020
1834 Clouds 4 1021 86 10000 3.6 150 17:23 14.11.2020
1835 Clouds 4 1021 86 10000 3.6 160 16:45 14.11.2020
1836 Clouds 4 1021 86 10000 3.1 170 16:26 14.11.2020
1837 Clouds 4 1021 86 10000 2.6 180 15:53 14.11.2020
1838 Clouds 4 1021 86 10000 2.6 180 15:30 14.11.2020
1839 Clouds 4 1021 86 10000 4.1 140 14:50 14.11.2020
1840 Clouds 4 1021 86 10000 3.1 150 14:26 14.11.2020
1841 Clouds 4 1021 86 10000 3.1 160 13:49 14.11.2020
1842 Clouds 4 1021 86 10000 3.1 160 13:27 14.11.2020
1843 Clouds 4 1021 86 10000 3.1 140 12:48 14.11.2020
1844 Clouds 4 1021 86 10000 3.1 140 12:30 14.11.2020
1845 Clouds 4 1021 86 10000 3.6 160 11:48 14.11.2020
1846 Clouds 4 1021 86 10000 3.6 160 11:30 14.11.2020
1847 Clouds 4 1021 86 10000 4.1 150 10:50 14.11.2020
1848 Clouds 4 1021 86 10000 4.1 150 10:27 14.11.2020
1849 Clouds 4 1021 86 10000 4.1 150 10:27 14.11.2020
1850 Clouds 4 1021 86 10000 4.1 140 09:56 14.11.2020
1851 Clouds 4 1021 86 10000 3.6 130 09:38 14.11.2020
1852 Clouds 4 1021 86 10000 4.1 140 09:19 14.11.2020
1853 Clouds 4 1021 86 10000 3.1 140 08:39 14.11.2020
1854 Clouds 4 1021 86 10000 2.6 140 07:52 14.11.2020
1855 Clouds 4 1021 86 10000 3.6 140 07:31 14.11.2020
1856 Clouds 4 1021 86 10000 1.5 90 06:36 14.11.2020
1857 Clouds 4 1022 86 10000 2.1 130 05:52 14.11.2020
1858 Clouds 4 1022 80 10000 2.1 140 04:22 14.11.2020
1859 Clouds 4 1022 86 10000 4.6 150 01:21 14.11.2020
1860 Clouds 4 1023 86 10000 4.6 150 23:49 13.11.2020
1861 Clouds 4 1023 86 10000 4.6 150 23:26 13.11.2020
1862 Clouds 4 1023 80 10000 3.1 140 22:55 13.11.2020
1863 Clouds 4 1023 86 10000 3.1 130 22:29 13.11.2020
1864 Clouds 4 1023 93 10000 4.6 140 21:59 13.11.2020
1865 Clouds 4 1023 78 10000 4.1 140 21:39 13.11.2020
1866 Clouds 4 1023 78 10000 4.6 140 21:20 13.11.2020
1867 Clouds 4 1023 78 10000 5.1 150 20:42 13.11.2020
1868 Clouds 4 1023 82 10000 4.6 150 20:22 13.11.2020
1869 Clouds 4 1023 75 10000 3.1 140 19:46 13.11.2020
1870 Clouds 4 1023 75 10000 3.1 140 19:46 13.11.2020
1871 Clouds 4 1023 75 10000 3.1 140 19:23 13.11.2020
1872 Clouds 4 1023 80 10000 3.6 140 18:56 13.11.2020
1873 Clouds 4 1023 80 10000 4.6 150 18:25 13.11.2020
1874 Clouds 4 1023 80 10000 4.1 150 17:43 13.11.2020
1875 Clouds 5 1023 80 10000 4.1 150 17:43 13.11.2020
1876 Clouds 5 1024 75 10000 3.6 140 17:19 13.11.2020
1877 Clouds 5 1024 80 10000 3.6 150 16:50 13.11.2020
1878 Clouds 5 1024 80 10000 4.1 140 16:24 13.11.2020
1879 Clouds 5 1024 80 10000 4.1 140 15:50 13.11.2020
1880 Clouds 5 1024 80 10000 4.1 150 15:27 13.11.2020
1881 Clouds 5 1024 80 10000 2.6 120 14:50 13.11.2020
1882 Clouds 5 1024 80 10000 2.6 120 14:25 13.11.2020
1883 Clouds 5 1024 80 10000 3.6 150 13:53 13.11.2020
1884 Clouds 5 1024 80 10000 4.6 160 13:27 13.11.2020
1885 Clouds 5 1025 75 10000 4.1 150 12:48 13.11.2020
1886 Clouds 5 1025 75 10000 4.1 150 12:25 13.11.2020
1887 Clouds 5 1025 75 10000 3.1 140 11:50 13.11.2020
1888 Clouds 5 1025 77 10000 2.6 140 11:32 13.11.2020
1889 Clouds 5 1025 65 10000 3.6 130 10:58 13.11.2020
1890 Clouds 5 1025 65 10000 4.1 140 10:39 13.11.2020
1891 Clouds 5 1025 65 10000 4.1 140 10:21 13.11.2020
1892 Clouds 5 1025 79 10000 3.6 160 09:43 13.11.2020
1893 Clouds 5 1025 80 10000 3.6 160 09:23 13.11.2020
1894 Clouds 5 1025 80 10000 4.6 150 08:52 13.11.2020
1895 Clouds 5 1025 81 10000 4.6 150 08:21 13.11.2020
1896 Clouds 5 1025 81 10000 4.6 160 07:45 13.11.2020
1897 Clouds 5 1025 81 10000 4.6 160 07:26 13.11.2020
1898 Clouds 5 1025 81 10000 3.6 150 06:49 13.11.2020
1899 Clouds 5 1025 81 10000 4.1 160 05:58 13.11.2020
1900 Clouds 5 1026 81 10000 4.1 160 05:30 13.11.2020
1901 Clouds 5 1027 75 10000 4.1 160 01:46 13.11.2020
1902 Clouds 5 1027 75 10000 4.1 170 00:53 13.11.2020
1903 Clouds 5 1027 74 10000 3.6 160 00:32 13.11.2020
1904 Clouds 5 1027 74 10000 2.6 170 23:38 12.11.2020
1905 Clouds 5 1027 76 10000 3.1 170 23:19 12.11.2020
1906 Clouds 5 1027 76 10000 3.1 170 23:19 12.11.2020
1907 Clouds 6 1027 70 10000 3.1 160 22:50 12.11.2020
1908 Clouds 6 1027 70 10000 3.1 160 22:32 12.11.2020
1909 Clouds 6 1027 77 10000 3.6 160 21:56 12.11.2020
1910 Clouds 6 1027 70 10000 4.6 170 21:36 12.11.2020
1911 Clouds 6 1027 70 10000 3.1 160 21:18 12.11.2020
1912 Clouds 6 1027 75 10000 3.6 160 20:39 12.11.2020
1913 Clouds 5 1027 80 10000 3.6 160 20:21 12.11.2020
1914 Clouds 5 1027 80 10000 2.6 140 19:47 12.11.2020
1915 Clouds 5 1027 80 10000 2.6 140 19:29 12.11.2020
1916 Clouds 5 1027 75 10000 3.6 150 18:52 12.11.2020
1917 Clouds 5 1027 75 10000 3.6 150 18:24 12.11.2020
1918 Clouds 5 1027 75 10000 3.6 150 17:48 12.11.2020
1919 Clouds 5 1027 75 10000 3.6 150 17:29 12.11.2020
1920 Clouds 5 1027 70 10000 4.1 150 16:47 12.11.2020
1921 Clouds 5 1027 70 10000 3.6 160 16:27 12.11.2020
1922 Clouds 5 1027 70 10000 3.6 160 15:59 12.11.2020
1923 Clouds 5 1027 75 10000 3.1 170 15:41 12.11.2020
1924 Clouds 5 1027 70 10000 3.1 180 15:21 12.11.2020
1925 Clouds 6 1027 70 10000 4.1 180 14:46 12.11.2020
1926 Clouds 6 1027 70 10000 4.1 190 14:25 12.11.2020
1927 Clouds 6 1027 70 10000 4.1 190 13:55 12.11.2020
1928 Clouds 6 1027 70 10000 4.6 190 13:36 12.11.2020
1929 Clouds 6 1027 70 10000 4.1 190 13:18 12.11.2020
1930 Clouds 7 1027 70 10000 4.1 190 12:42 12.11.2020
1931 Clouds 7 1027 70 10000 4.6 190 12:19 12.11.2020
1932 Clouds 7 1027 81 10000 4.1 190 11:46 12.11.2020
1933 Clouds 7 1027 81 10000 4.1 190 11:27 12.11.2020
1934 Clouds 7 1027 81 10000 2.1 190 10:41 12.11.2020
1935 Clouds 7 1027 75 10000 2.6 190 10:23 12.11.2020
1936 Clouds 7 1027 81 10000 2.6 190 09:47 12.11.2020
1937 Clouds 6 1027 75 10000 3.1 190 09:23 12.11.2020
1938 Clouds 6 1027 75 10000 3.1 190 08:57 12.11.2020
1939 Clouds 6 1027 75 10000 3.6 190 08:39 12.11.2020
1940 Clouds 6 1027 75 10000 3.6 190 08:39 12.11.2020
1941 Clouds 6 1027 87 10000 3.6 200 08:19 12.11.2020
1942 Clouds 6 1027 81 10000 4.1 200 07:42 12.11.2020
1943 Clouds 6 1027 81 10000 4.6 190 07:22 12.11.2020
1944 Clouds 6 1027 87 10000 3.6 190 06:49 12.11.2020
1945 Clouds 6 1027 87 10000 2.6 190 05:31 12.11.2020
1946 Clouds 6 1027 93 10000 3.6 190 03:22 12.11.2020
1947 Clouds 7 1027 100 8000 4.1 200 02:24 12.11.2020
1948 Clouds 6 1027 100 8000 3.1 190 23:59 11.11.2020
1949 Clouds 6 1028 100 10000 1 0 23:25 11.11.2020
1950 Clouds 6 1028 100 8000 2.1 180 22:58 11.11.2020
1951 Clouds 6 1028 100 8000 2.1 180 22:39 11.11.2020
1952 Clouds 6 1028 100 8000 2.1 180 22:20 11.11.2020
1953 Clouds 6 1028 100 6000 4.21 229 21:43 11.11.2020
1954 Mist 6 1028 100 4500 1 0 21:25 11.11.2020
1955 Mist 6 1028 100 4500 1 0 20:58 11.11.2020
1956 Clouds 6 1028 100 7000 1 0 20:40 11.11.2020
1957 Clouds 6 1028 100 7000 1.5 150 20:21 11.11.2020
1958 Clouds 6 1028 93 7000 1 150 19:49 11.11.2020
1959 Clouds 6 1028 93 7000 1 150 19:30 11.11.2020
1960 Clouds 6 1028 100 8000 1 230 18:53 11.11.2020
1961 Clouds 5 1028 100 8000 1 230 18:33 11.11.2020
1962 Clouds 6 1028 100 8000 1.5 230 17:42 11.11.2020
1963 Clouds 5 1028 100 7000 1.5 210 17:23 11.11.2020
1964 Clouds 6 1028 93 7000 1.5 230 16:54 11.11.2020
1965 Clouds 6 1028 93 7000 1.5 230 16:33 11.11.2020
1966 Rain 5 1028 100 6000 1.5 220 15:50 11.11.2020
1967 Rain 5 1028 100 6000 1 230 15:27 11.11.2020
1968 Rain 5 1028 100 6000 1 230 14:56 11.11.2020
1969 Rain 5 1028 100 5000 1.5 220 14:37 11.11.2020
1970 Rain 5 1028 100 5000 1.5 210 13:57 11.11.2020
1971 Rain 5 1029 93 5000 1.5 210 13:35 11.11.2020
1972 Rain 5 1029 100 5000 1.5 310 12:50 11.11.2020
1973 Rain 5 1029 100 6000 1.5 290 12:21 11.11.2020
1974 Clouds 5 1029 100 7000 0.5 0 11:50 11.11.2020
1975 Rain 5 1029 100 7000 0.5 0 11:30 11.11.2020
1976 Clouds 5 1029 100 8000 1 0 10:43 11.11.2020
1977 Clouds 4 1029 93 7000 1 0 10:24 11.11.2020
1978 Clouds 4 1029 100 7000 1 80 09:49 11.11.2020
1979 Clouds 4 1029 100 7000 1 80 09:28 11.11.2020
1980 Clouds 3 1029 100 8000 1.5 60 08:51 11.11.2020
1981 Clouds 2 1029 100 8000 1.5 90 08:30 11.11.2020
1982 Clouds 2 1029 100 8000 1.5 90 07:58 11.11.2020
1983 Clouds 2 1029 100 8000 1.5 100 07:39 11.11.2020
1984 Drizzle 2 1030 100 6000 1 0 06:30 11.11.2020
1985 Clouds 2 1031 100 10000 1.5 50 04:47 11.11.2020
1986 Clouds 1 1031 81 10000 0.64 148 01:35 11.11.2020
1987 Clouds 0 1031 81 10000 1.5 60 00:54 11.11.2020
1988 Fog 0 1032 100 10000 1 50 23:57 10.11.2020
1989 Mist -1 1032 100 4000 1 0 23:25 10.11.2020
1990 Mist -1 1032 100 4000 1 0 22:58 10.11.2020
1991 Mist -1 1032 100 1400 1.5 250 22:36 10.11.2020
1992 Fog -1 1032 100 10000 0.56 357 22:18 10.11.2020
1993 Fog -2 1032 100 10000 1 290 21:39 10.11.2020
1994 Mist -1 1032 100 4000 0.5 0 21:19 10.11.2020
1995 Fog -1 1032 100 10000 1 0 20:43 10.11.2020
1996 Clouds 0 1032 100 10000 1 0 20:23 10.11.2020
1997 Clouds 0 1032 100 10000 1 0 19:56 10.11.2020
1998 Clouds 1 1032 84 10000 0.5 0 19:38 10.11.2020
1999 Fog 1 1032 84 10000 0.5 0 19:20 10.11.2020
2000 Fog 0 1032 83 10000 0.82 339 18:41 10.11.2020
2001 Fog 0 1032 83 4000 0.5 0 18:20 10.11.2020
2002 Fog 0 1032 83 800 0.5 0 17:44 10.11.2020
2003 Fog 0 1032 84 800 0.5 0 17:26 10.11.2020
2004 Fog 1 1032 84 200 1 0 16:58 10.11.2020
2005 Fog 1 1032 84 500 0.5 0 16:38 10.11.2020
2006 Fog 1 1032 100 300 1 0 16:20 10.11.2020
2007 Fog 1 1032 84 300 1.5 320 15:46 10.11.2020
2008 Fog 1 1032 84 300 1.5 320 15:25 10.11.2020
2009 Fog 2 1032 100 300 1.5 300 14:42 10.11.2020
2010 Fog 2 1032 100 300 1 0 14:23 10.11.2020
2011 Fog 2 1032 100 300 1 0 13:57 10.11.2020
2012 Fog 2 1032 100 300 1 0 13:36 10.11.2020
2013 Fog 2 1032 100 300 1.5 290 13:18 10.11.2020
2014 Fog 2 1032 82 600 1.5 270 12:44 10.11.2020
2015 Fog 1 1032 81 300 2.1 280 12:24 10.11.2020
2016 Fog 1 1032 81 300 1.5 260 11:40 10.11.2020
2017 Fog 1 1031 83 200 1.5 270 11:21 10.11.2020
2018 Fog 1 1031 83 200 2.1 220 10:46 10.11.2020
2019 Fog 1 1031 85 200 2.1 220 10:27 10.11.2020
2020 Fog 1 1031 85 300 1.5 240 09:55 10.11.2020
2021 Fog 0 1031 85 300 1.5 220 09:37 10.11.2020
2022 Fog 0 1030 88 500 2.1 250 09:19 10.11.2020
2023 Fog 0 1030 88 500 2.1 250 08:45 10.11.2020
2024 Fog 0 1030 90 500 2.1 250 08:24 10.11.2020
2025 Fog 0 1030 90 400 2.1 0 07:42 10.11.2020
2026 Fog 0 1029 89 300 1 320 07:20 10.11.2020
2027 Fog 0 1029 89 200 1.5 310 06:39 10.11.2020
2028 Fog 1 1029 88 400 2.6 320 05:34 10.11.2020
2029 Fog 1 1029 88 600 3.6 310 04:36 10.11.2020
2030 Fog 1 1028 100 300 3.6 290 01:41 10.11.2020
2031 Fog 1 1028 100 200 4.1 300 00:55 10.11.2020
2032 Clear 1 1027 86 10000 3.1 290 23:51 09.11.2020
2033 Clear 2 1027 86 10000 3.1 290 23:23 09.11.2020
2034 Clear 2 1027 100 10000 3.6 280 22:42 09.11.2020
2035 Clear 2 1027 93 10000 2.6 290 22:23 09.11.2020
2036 Clear 2 1027 100 10000 2.6 290 21:45 09.11.2020
2037 Clear 2 1027 100 10000 2.6 290 21:45 09.11.2020
2038 Clear 2 1027 93 10000 3.1 290 21:27 09.11.2020
2039 Clear 2 1026 100 10000 3.1 280 20:44 09.11.2020
2040 Clear 3 1026 93 10000 4.1 280 20:22 09.11.2020
2041 Clear 3 1026 100 10000 3.1 270 19:49 09.11.2020
2042 Clear 3 1026 100 10000 3.1 270 19:24 09.11.2020
2043 Clear 2 1026 100 10000 3.1 270 18:59 09.11.2020
2044 Clear 3 1026 93 10000 3.1 270 18:40 09.11.2020
2045 Clear 3 1025 93 10000 3.1 270 18:19 09.11.2020
2046 Clear 3 1025 93 10000 3.1 270 17:44 09.11.2020
2047 Clear 4 1025 93 10000 3.1 270 17:26 09.11.2020
2048 Clear 4 1024 86 10000 3.6 270 16:44 09.11.2020
2049 Clear 5 1024 86 10000 3.6 270 16:24 09.11.2020
2050 Clouds 5 1024 81 10000 5.7 280 15:47 09.11.2020
2051 Clouds 6 1024 81 10000 5.7 280 15:28 09.11.2020
2052 Clouds 6 1023 81 10000 6.2 280 14:51 09.11.2020
2053 Clouds 6 1023 81 10000 6.2 280 14:29 09.11.2020
2054 Clouds 6 1023 75 10000 5.7 290 13:57 09.11.2020
2055 Clouds 7 1023 70 10000 6.2 280 13:37 09.11.2020
2056 Clear 6 1023 75 10000 5.7 270 13:18 09.11.2020
2057 Clouds 6 1023 75 10000 5.7 280 12:41 09.11.2020
2058 Clouds 6 1023 75 10000 6.2 280 12:21 09.11.2020
2059 Clouds 6 1023 81 10000 5.7 290 11:43 09.11.2020
2060 Clouds 6 1023 87 10000 6.2 290 11:24 09.11.2020
2061 Clouds 6 1023 87 10000 6.2 290 10:57 09.11.2020
2062 Clouds 6 1023 93 10000 4.1 270 10:39 09.11.2020
2063 Clouds 6 1023 93 10000 4.1 260 10:21 09.11.2020
2064 Clouds 5 1023 100 10000 3.6 260 09:30 09.11.2020
2065 Clouds 5 1023 93 10000 5.1 240 08:50 09.11.2020
2066 Clouds 5 1023 93 10000 5.1 240 08:27 09.11.2020
2067 Clouds 4 1023 93 10000 4.1 240 07:55 09.11.2020
2068 Clouds 4 1023 93 10000 3.1 240 07:23 09.11.2020
2069 Clouds 4 1023 93 10000 3.1 240 06:52 09.11.2020
2070 Clear 2 1024 82 10000 2.6 220 04:30 09.11.2020
2071 Clouds 0 1024 78 10000 3.6 270 01:57 09.11.2020
2072 Clear -1 1024 100 10000 3.1 250 01:39 09.11.2020
2073 Clear -1 1025 100 10000 3.1 270 00:40 09.11.2020
2074 Clear -1 1025 80 10000 3.1 250 23:40 08.11.2020
2075 Clear 0 1025 81 10000 3.6 260 23:22 08.11.2020
2076 Clear 0 1025 81 10000 3.6 250 22:43 08.11.2020
2077 Clear 0 1024 92 10000 3.1 250 22:21 08.11.2020
2078 Clear -1 1024 92 10000 3.1 240 21:46 08.11.2020
2079 Clear -1 1024 92 10000 2.6 240 21:21 08.11.2020
2080 Clear -1 1024 92 10000 2.6 240 20:57 08.11.2020
2081 Clear 0 1024 82 10000 2.1 270 20:38 08.11.2020
2082 Clear 0 1024 83 10000 2.1 280 20:19 08.11.2020
2083 Clear 0 1023 83 10000 2.6 280 19:45 08.11.2020
2084 Clear 0 1023 82 10000 2.6 280 19:21 08.11.2020
2085 Clear 1 1023 86 10000 2.6 270 18:55 08.11.2020
2086 Clear 1 1023 80 10000 3.1 270 18:37 08.11.2020
2087 Clear 1 1023 80 10000 3.6 280 18:19 08.11.2020
2088 Clear 2 1023 74 10000 3.6 280 17:41 08.11.2020
2089 Clear 2 1023 74 10000 3.6 280 17:20 08.11.2020
2090 Clear 2 1022 80 10000 4.1 280 16:57 08.11.2020
2091 Clear 2 1022 74 10000 3.6 280 16:37 08.11.2020
2092 Clear 3 1022 69 10000 3.6 290 16:18 08.11.2020
2093 Clear 3 1022 64 10000 3.6 280 15:44 08.11.2020
2094 Clear 4 1022 69 10000 3.6 300 15:25 08.11.2020
2095 Clear 4 1021 65 10000 3.6 290 14:42 08.11.2020
2096 Clear 5 1021 65 10000 3.6 290 14:23 08.11.2020
2097 Clear 5 1021 65 10000 4.6 310 13:47 08.11.2020
2098 Clear 5 1021 65 10000 4.6 310 13:24 08.11.2020
2099 Clear 5 1020 68 10000 4.1 310 12:47 08.11.2020
2100 Clear 5 1020 68 10000 4.1 310 12:29 08.11.2020
2101 Clear 5 1020 68 10000 4.1 310 11:58 08.11.2020
2102 Clear 5 1020 68 10000 3.6 320 11:40 08.11.2020
2103 Clear 4 1019 69 10000 4.6 310 11:21 08.11.2020
2104 Clear 4 1019 69 10000 4.1 320 10:50 08.11.2020
2105 Clear 4 1019 70 10000 4.1 310 10:20 08.11.2020
2106 Clear 4 1019 70 10000 4.1 310 09:58 08.11.2020
2107 Clear 3 1018 70 10000 4.1 320 09:39 08.11.2020
2108 Clear 3 1018 71 10000 4.1 310 09:18 08.11.2020
2109 Clear 3 1017 71 10000 4.1 310 08:40 08.11.2020
2110 Clear 3 1017 72 10000 3.6 310 08:20 08.11.2020
2111 Clear 3 1016 72 10000 4.1 320 07:52 08.11.2020
2112 Clear 3 1016 71 10000 4.1 320 07:28 08.11.2020
2113 Clear 5 1015 80 10000 3.1 330 06:23 08.11.2020
2114 Clear 5 1015 75 10000 5.1 350 05:52 08.11.2020
2115 Clouds 6 1014 75 10000 4.6 350 04:50 08.11.2020
2116 Clear 7 1013 93 10000 3.1 300 01:53 08.11.2020
2117 Clear 8 1013 87 10000 3.1 290 01:19 08.11.2020
2118 Clouds 8 1013 87 10000 3.1 270 00:28 08.11.2020
2119 Clouds 8 1013 87 10000 3.6 280 23:47 07.11.2020
2120 Clouds 8 1013 87 10000 3.6 280 23:29 07.11.2020
2121 Rain 8 1013 87 10000 4.6 280 22:46 07.11.2020
2122 Rain 8 1013 87 10000 4.6 280 22:26 07.11.2020
2123 Clouds 8 1013 81 10000 5.7 270 21:55 07.11.2020
2124 Clouds 8 1013 81 10000 5.7 270 21:36 07.11.2020
2125 Clouds 8 1013 81 10000 5.1 270 21:18 07.11.2020
2126 Clouds 9 1013 81 10000 5.1 250 20:40 07.11.2020
2127 Clouds 9 1013 81 10000 5.1 250 20:22 07.11.2020
2128 Clouds 8 1013 81 10000 4.6 250 19:43 07.11.2020
2129 Clouds 8 1013 81 10000 4.6 250 19:24 07.11.2020
2130 Clouds 8 1014 87 10000 5.7 260 18:40 07.11.2020
2131 Clouds 8 1014 87 10000 5.7 260 18:21 07.11.2020
2132 Clouds 8 1014 81 10000 7.7 270 17:46 07.11.2020
2133 Clouds 8 1014 81 10000 7.7 270 17:26 07.11.2020
2134 Clouds 8 1014 81 10000 6.7 250 16:44 07.11.2020
2135 Clouds 8 1014 81 10000 6.7 250 16:24 07.11.2020
2136 Clouds 9 1014 87 10000 5.1 230 15:48 07.11.2020
2137 Clouds 9 1014 81 10000 7.2 230 15:25 07.11.2020
2138 Clouds 9 1014 81 10000 7.2 230 14:59 07.11.2020
2139 Clouds 9 1015 87 10000 6.7 220 14:40 07.11.2020
2140 Clouds 9 1015 87 10000 6.7 200 14:20 07.11.2020
2141 Clouds 10 1015 71 10000 6.7 220 13:42 07.11.2020
2142 Clouds 10 1015 71 10000 6.7 220 13:22 07.11.2020
2143 Clear 11 1016 66 10000 4.1 210 12:35 07.11.2020
2144 Clear 11 1017 76 10000 2.6 220 11:47 07.11.2020
2145 Clear 10 1018 81 10000 2.1 240 11:25 07.11.2020
2146 Clear 10 1018 81 10000 2.1 240 10:59 07.11.2020
2147 Clear 9 1018 81 10000 3.1 240 10:40 07.11.2020
2148 Clear 9 1019 87 10000 3.1 240 10:22 07.11.2020
2149 Clear 8 1019 87 10000 3.1 240 09:48 07.11.2020
2150 Clear 6 1019 93 10000 2.6 230 09:21 07.11.2020
2151 Clear 6 1019 93 10000 3.1 230 08:47 07.11.2020
2152 Clear 5 1019 93 10000 3.1 230 08:29 07.11.2020
2153 Clear 5 1019 87 10000 2.6 260 07:48 07.11.2020
2154 Clear 5 1019 93 10000 2.6 260 06:54 07.11.2020
2155 Clear 6 1019 87 10000 3.1 270 05:54 07.11.2020
2156 Clear 6 1018 93 10000 2.6 250 04:22 07.11.2020
2157 Clear 8 1019 81 10000 4.1 280 02:46 07.11.2020
2158 Clear 9 1018 81 10000 5.1 270 01:27 07.11.2020
2159 Clear 9 1018 81 10000 5.7 280 00:38 07.11.2020
2160 Clear 9 1018 76 10000 6.7 290 23:40 06.11.2020
2161 Clear 9 1017 76 10000 7.7 290 23:18 06.11.2020
2162 Clear 10 1017 81 10000 7.2 270 22:40 06.11.2020
2163 Clear 9 1016 81 10000 6.7 270 22:18 06.11.2020
2164 Clear 9 1016 81 10000 7.2 270 21:43 06.11.2020
2165 Clear 9 1016 81 10000 7.2 270 21:43 06.11.2020
2166 Clear 9 1016 81 10000 8.2 280 21:20 06.11.2020
2167 Clear 10 1016 81 10000 8.2 280 20:47 06.11.2020
2168 Clear 9 1016 81 10000 8.2 280 20:20 06.11.2020
2169 Clear 9 1015 87 10000 4.6 250 19:46 06.11.2020
2170 Clear 9 1015 87 10000 4.6 250 19:28 06.11.2020
2171 Clear 8 1015 93 10000 4.1 250 18:57 06.11.2020
2172 Clear 8 1015 93 10000 4.1 250 18:39 06.11.2020
2173 Clear 8 1015 93 10000 3.6 250 18:19 06.11.2020
2174 Clear 8 1015 93 10000 3.6 250 18:19 06.11.2020
2175 Clear 8 1015 87 10000 3.1 250 17:47 06.11.2020
2176 Clear 9 1015 87 10000 4.6 230 17:24 06.11.2020
2177 Clear 8 1015 87 10000 3.1 220 16:45 06.11.2020
2178 Clear 8 1015 87 10000 3.1 220 16:22 06.11.2020
2179 Clear 8 1015 87 10000 2.6 240 15:47 06.11.2020
2180 Clear 9 1015 81 10000 3.1 260 15:26 06.11.2020
2181 Clear 9 1015 81 10000 3.1 260 14:50 06.11.2020
2182 Clouds 10 1015 76 10000 4.1 260 14:23 06.11.2020
2183 Clouds 10 1015 71 10000 4.1 280 13:44 06.11.2020
2184 Clouds 10 1015 71 10000 5.1 280 13:21 06.11.2020
2185 Clear 10 1014 66 10000 4.6 280 12:44 06.11.2020
2186 Clear 9 1014 66 10000 4.6 280 12:23 06.11.2020
2187 Clear 9 1014 66 10000 4.1 270 11:43 06.11.2020
2188 Clear 9 1014 61 10000 5.1 270 11:24 06.11.2020
2189 Clear 8 1013 65 10000 3.6 270 10:39 06.11.2020
2190 Clear 7 1013 70 10000 4.1 270 10:19 06.11.2020
2191 Clear 7 1013 75 10000 3.6 250 09:48 06.11.2020
2192 Clear 7 1012 75 10000 4.1 250 09:21 06.11.2020
2193 Clear 5 1012 86 10000 3.6 240 08:49 06.11.2020
2194 Clear 4 1012 86 10000 3.6 240 08:28 06.11.2020
2195 Clear 5 1011 86 10000 3.6 260 07:48 06.11.2020
2196 Clear 5 1011 86 10000 3.6 260 07:29 06.11.2020
2197 Clear 5 1010 80 10000 3.1 280 06:51 06.11.2020
2198 Clear 5 1010 80 10000 3.1 280 06:51 06.11.2020
2199 Clear 5 1010 80 10000 3.6 270 05:42 06.11.2020
2200 Clear 6 1009 81 10000 6.2 290 03:18 06.11.2020
2201 Clear 6 1008 75 10000 4.6 250 00:48 06.11.2020
2202 Clear 6 1008 75 10000 4.6 250 00:19 06.11.2020
2203 Clear 7 1008 75 10000 4.1 240 23:29 05.11.2020
2204 Clear 6 1008 81 10000 4.1 240 22:57 05.11.2020
2205 Clear 6 1008 81 10000 4.1 240 22:37 05.11.2020
2206 Clear 6 1008 81 10000 3.6 220 22:18 05.11.2020
2207 Clear 6 1008 81 10000 4.1 230 21:42 05.11.2020
2208 Clear 7 1008 81 10000 2.6 230 21:21 05.11.2020
2209 Clear 7 1008 70 10000 4.6 260 20:45 05.11.2020
2210 Clear 7 1008 70 10000 4.6 260 20:26 05.11.2020
2211 Clear 8 1007 70 10000 6.2 260 19:59 05.11.2020
2212 Clear 8 1007 70 10000 7.2 270 19:40 05.11.2020
2213 Clear 7 1007 70 10000 7.2 270 19:22 05.11.2020
2214 Clear 7 1007 70 10000 6.2 270 18:42 05.11.2020
2215 Clear 7 1007 70 10000 6.2 270 18:24 05.11.2020
2216 Clear 7 1007 75 10000 7.7 280 17:52 05.11.2020
2217 Clear 7 1006 75 10000 6.2 270 17:27 05.11.2020
2218 Clouds 8 1006 75 10000 8.2 260 16:54 05.11.2020
2219 Clouds 8 1006 75 10000 8.2 260 16:29 05.11.2020
2220 Clouds 8 1005 75 10000 6.7 260 15:59 05.11.2020
2221 Clouds 8 1005 75 10000 6.7 250 15:40 05.11.2020
2222 Clouds 8 1005 75 10000 7.2 250 15:21 05.11.2020
2223 Clouds 8 1004 75 10000 7.7 250 14:44 05.11.2020
2224 Clouds 8 1005 81 10000 8.7 250 14:24 05.11.2020
2225 Clouds 8 1005 70 10000 8.7 250 13:42 05.11.2020
2226 Clouds 8 1005 76 10000 8.2 240 13:23 05.11.2020
2227 Clouds 8 1005 76 10000 8.2 240 13:23 05.11.2020
2228 Clouds 9 1005 76 10000 9.3 240 12:45 05.11.2020
2229 Clouds 9 1005 76 10000 9.3 240 12:23 05.11.2020
2230 Clouds 8 1005 81 10000 8.2 230 11:46 05.11.2020
2231 Clouds 8 1006 81 10000 7.7 220 11:25 05.11.2020
2232 Clouds 8 1006 81 10000 7.7 220 10:52 05.11.2020
2233 Clouds 8 1007 87 10000 7.2 220 10:30 05.11.2020
2234 Clouds 7 1007 93 10000 5.7 220 09:55 05.11.2020
2235 Clouds 7 1007 93 10000 5.7 220 09:37 05.11.2020
2236 Clouds 7 1008 93 10000 5.7 230 09:18 05.11.2020
2237 Clouds 6 1008 87 10000 6.2 220 08:43 05.11.2020
2238 Clouds 6 1009 93 10000 5.1 220 08:23 05.11.2020
2239 Clouds 5 1009 93 10000 4.6 230 07:29 05.11.2020
2240 Clouds 4 1010 100 10000 3.1 220 06:52 05.11.2020
2241 Clouds 5 1010 100 10000 3.1 220 06:33 05.11.2020
2242 Clouds 5 1011 93 10000 3.1 230 03:47 05.11.2020
2243 Clouds 3 1012 100 10000 3.6 210 00:59 05.11.2020
2244 Clouds 3 1013 93 10000 3.6 220 00:26 05.11.2020
2245 Clouds 3 1013 100 10000 3.6 210 23:43 04.11.2020
2246 Clouds 3 1013 100 10000 3.6 210 23:25 04.11.2020
2247 Clouds 3 1013 100 10000 2.6 200 22:45 04.11.2020
2248 Clouds 3 1013 93 10000 3.1 190 22:23 04.11.2020
2249 Clouds 3 1012 100 10000 2.1 210 21:48 04.11.2020
2250 Clouds 3 1012 100 10000 2.1 210 21:29 04.11.2020
2251 Clouds 3 1012 100 10000 3.1 210 20:56 04.11.2020
2252 Clouds 4 1012 93 10000 3.1 210 20:37 04.11.2020
2253 Clouds 4 1012 93 10000 2.6 270 20:18 04.11.2020
2254 Clouds 5 1013 93 10000 4.1 290 19:42 04.11.2020
2255 Clouds 5 1013 93 10000 4.1 290 19:42 04.11.2020
2256 Clouds 5 1013 93 10000 4.1 290 19:42 04.11.2020
2257 Clouds 5 1013 93 10000 4.1 290 19:24 04.11.2020
2258 Clouds 6 1012 87 10000 5.1 240 18:43 04.11.2020
2259 Clouds 6 1012 93 10000 4.6 230 18:24 04.11.2020
2260 Clouds 6 1012 100 10000 2.6 210 17:54 04.11.2020
2261 Clouds 6 1012 100 10000 2.6 210 17:36 04.11.2020
2262 Clouds 6 1012 100 10000 2.1 220 17:18 04.11.2020
2263 Clouds 6 1012 93 10000 4.1 220 16:37 04.11.2020
2264 Clouds 7 1012 93 10000 3.6 200 16:18 04.11.2020
2265 Clouds 7 1012 93 10000 6.7 190 15:42 04.11.2020
2266 Clouds 7 1012 93 10000 4.6 190 15:23 04.11.2020
2267 Rain 8 1013 87 10000 3.6 180 14:47 04.11.2020
2268 Rain 8 1013 87 10000 3.6 180 14:26 04.11.2020
2269 Rain 8 1013 87 10000 3.6 170 13:56 04.11.2020
2270 Rain 8 1014 93 10000 4.1 190 13:37 04.11.2020
2271 Rain 8 1014 87 10000 4.1 180 13:18 04.11.2020
2272 Clouds 9 1015 93 10000 4.6 190 12:42 04.11.2020
2273 Clouds 9 1015 87 10000 4.6 180 12:24 04.11.2020
2274 Clouds 9 1015 87 10000 4.6 190 11:46 04.11.2020
2275 Clouds 9 1015 87 10000 4.6 190 11:24 04.11.2020
2276 Clouds 9 1016 93 10000 5.1 190 10:51 04.11.2020
2277 Clouds 9 1016 93 10000 5.1 190 10:24 04.11.2020
2278 Clouds 9 1016 93 10000 5.1 190 09:56 04.11.2020
2279 Clouds 8 1016 93 10000 3.1 180 09:29 04.11.2020
2280 Clouds 8 1016 93 10000 3.1 180 08:58 04.11.2020
2281 Clouds 7 1016 93 10000 3.6 200 08:39 04.11.2020
2282 Clouds 7 1016 100 10000 4.1 210 08:18 04.11.2020
2283 Clouds 7 1016 100 10000 4.1 210 08:18 04.11.2020
2284 Clouds 7 1016 93 10000 5.1 190 07:40 04.11.2020
2285 Clouds 6 1016 100 10000 3.6 180 07:21 04.11.2020
2286 Clear 5 1016 100 10000 3.1 180 06:40 04.11.2020
2287 Clouds 4 1016 100 10000 2.6 210 05:24 04.11.2020
2288 Clouds 6 1016 93 10000 3.1 200 02:31 04.11.2020
2289 Clear 7 1015 93 10000 3.6 210 01:38 04.11.2020
2290 Clouds 8 1014 93 10000 3.1 220 00:25 04.11.2020
2291 Clouds 8 1014 93 10000 4.1 210 23:28 03.11.2020
2292 Clear 8 1013 93 10000 4.1 210 22:57 03.11.2020
2293 Clear 8 1013 93 10000 4.1 210 22:38 03.11.2020
2294 Clear 8 1013 93 10000 4.1 210 22:19 03.11.2020
2295 Clouds 8 1012 93 10000 5.1 210 21:43 03.11.2020
2296 Clouds 9 1012 93 10000 5.1 210 21:24 03.11.2020
2297 Clouds 9 1012 87 10000 5.1 210 21:24 03.11.2020
2298 Clouds 9 1012 87 10000 4.6 210 20:49 03.11.2020
2299 Clouds 9 1012 87 10000 4.6 210 20:27 03.11.2020
2300 Clouds 9 1011 87 10000 5.1 210 19:55 03.11.2020
2301 Clouds 9 1011 87 10000 5.1 210 19:37 03.11.2020
2302 Clouds 9 1010 87 10000 4.1 220 19:19 03.11.2020
2303 Clouds 9 1010 81 10000 4.6 220 18:41 03.11.2020
2304 Clouds 9 1010 81 10000 4.6 220 18:19 03.11.2020
2305 Clouds 9 1010 87 10000 5.7 220 17:46 03.11.2020
2306 Clouds 10 1010 87 10000 5.7 220 17:27 03.11.2020
2307 Clouds 10 1009 81 10000 6.7 220 16:51 03.11.2020
2308 Clouds 10 1009 81 10000 6.7 220 16:31 03.11.2020
2309 Clouds 10 1009 71 10000 5.1 220 15:55 03.11.2020
2310 Clouds 10 1008 76 10000 5.1 230 15:37 03.11.2020
2311 Clouds 11 1008 71 10000 6.2 220 15:18 03.11.2020
2312 Clouds 11 1008 71 10000 7.2 230 14:42 03.11.2020
2313 Clouds 11 1007 71 10000 7.2 240 14:23 03.11.2020
2314 Clouds 11 1007 76 10000 8.7 220 13:41 03.11.2020
2315 Clouds 11 1006 71 10000 6.7 220 13:21 03.11.2020
2316 Clouds 11 1006 76 10000 7.7 210 12:45 03.11.2020
2317 Clouds 11 1006 76 10000 7.7 210 12:24 03.11.2020
2318 Clouds 11 1005 71 10000 7.7 220 11:47 03.11.2020
2319 Clouds 11 1005 71 10000 7.7 220 11:25 03.11.2020
2320 Clouds 11 1005 76 10000 7.2 220 10:56 03.11.2020
2321 Clouds 11 1004 76 10000 7.2 220 10:37 03.11.2020
2322 Clouds 11 1004 76 10000 7.7 230 10:18 03.11.2020
2323 Clouds 11 1003 81 10000 7.7 220 09:45 03.11.2020
2324 Clouds 10 1003 81 10000 7.7 220 09:22 03.11.2020
2325 Clouds 10 1002 81 10000 7.7 230 08:49 03.11.2020
2326 Clouds 11 1002 81 10000 7.7 230 08:29 03.11.2020
2327 Clouds 12 1000 93 10000 7.7 200 07:41 03.11.2020
2328 Clouds 12 1000 93 10000 7.7 200 07:19 03.11.2020
2329 Clouds 12 999 93 10000 9.8 220 06:21 03.11.2020
2330 Clouds 11 999 100 4000 10.8 190 04:34 03.11.2020
2331 Clouds 10 1000 100 8000 10.3 180 00:45 03.11.2020
2332 Clouds 10 1000 93 10000 10.3 190 00:24 03.11.2020
2333 Rain 10 1000 93 10000 10.8 180 23:43 02.11.2020
2334 Rain 10 1000 93 3500 10.8 180 23:22 02.11.2020
2335 Drizzle 9 1000 100 4500 9.8 180 22:43 02.11.2020
2336 Rain 9 1001 100 10000 10.8 180 22:24 02.11.2020
2337 Rain 9 1001 93 10000 10.3 180 21:39 02.11.2020
2338 Clouds 9 1001 93 4000 9.8 170 21:21 02.11.2020
2339 Clouds 9 1001 93 4000 9.8 170 20:55 02.11.2020
2340 Clouds 9 1001 93 10000 9.8 170 20:37 02.11.2020
2341 Clouds 9 1002 93 6000 9.3 170 20:18 02.11.2020
2342 Clouds 9 1002 93 6000 9.3 170 20:18 02.11.2020
2343 Clouds 8 1002 93 8000 10.3 170 19:42 02.11.2020
2344 Rain 8 1002 93 8000 10.3 170 19:22 02.11.2020
2345 Clouds 8 1003 93 4000 9.3 160 18:42 02.11.2020
2346 Clouds 8 1003 87 6000 9.8 160 18:21 02.11.2020
2347 Clouds 8 1003 87 6000 9.8 160 17:56 02.11.2020
2348 Clouds 8 1003 87 6000 9.8 160 17:56 02.11.2020
2349 Clouds 8 1004 93 5000 8.7 160 17:38 02.11.2020
2350 Clouds 8 1004 81 10000 10.3 150 17:19 02.11.2020
2351 Clouds 8 1005 87 5000 10.3 150 16:40 02.11.2020
2352 Clouds 8 1005 87 5000 10.3 150 16:40 02.11.2020
2353 Clouds 8 1005 87 10000 9.8 150 16:22 02.11.2020
2354 Clouds 7 1006 81 10000 9.3 150 15:40 02.11.2020
2355 Clouds 7 1006 87 10000 9.8 150 15:21 02.11.2020
2356 Clouds 7 1007 81 10000 10.3 150 14:53 02.11.2020
2357 Rain 7 1007 81 10000 9.3 150 14:20 02.11.2020
2358 Rain 7 1007 81 10000 11.3 150 13:53 02.11.2020
2359 Rain 7 1007 81 10000 11.3 150 13:23 02.11.2020
2360 Clouds 7 1007 75 10000 9.3 150 12:55 02.11.2020
2361 Clouds 7 1008 81 10000 10.3 150 12:30 02.11.2020
2362 Clouds 7 1009 81 10000 9.8 150 11:56 02.11.2020
2363 Clouds 7 1009 75 10000 10.3 160 11:37 02.11.2020
2364 Clouds 7 1010 75 10000 10.3 150 11:18 02.11.2020
2365 Clouds 7 1010 75 10000 10.3 150 11:18 02.11.2020
2366 Clouds 7 1010 81 10000 9.8 150 10:41 02.11.2020
2367 Clouds 7 1010 75 10000 8.7 150 10:18 02.11.2020
2368 Clouds 7 1011 81 10000 9.3 150 09:48 02.11.2020
2369 Clouds 7 1011 81 10000 9.3 150 09:23 02.11.2020
2370 Clouds 7 1011 81 10000 10.3 140 08:40 02.11.2020
2371 Clouds 6 1012 81 10000 9.3 140 08:20 02.11.2020
2372 Clouds 7 1012 75 10000 8.7 140 07:49 02.11.2020
2373 Clouds 7 1013 75 10000 8.7 140 06:49 02.11.2020
2374 Clouds 7 1013 75 10000 8.7 140 06:24 02.11.2020
2375 Clouds 8 1016 75 10000 7.2 160 01:40 02.11.2020
2376 Clouds 8 1016 81 10000 7.2 160 00:44 02.11.2020
2377 Clouds 8 1017 81 10000 7.2 160 00:25 02.11.2020
2378 Clouds 8 1017 81 10000 6.7 170 23:41 01.11.2020
2379 Clouds 8 1017 81 10000 6.7 170 23:23 01.11.2020
2380 Clouds 8 1017 75 10000 7.7 160 22:45 01.11.2020
2381 Clouds 8 1017 75 10000 7.7 160 22:25 01.11.2020
2382 Clouds 8 1017 87 10000 6.7 150 21:46 01.11.2020
2383 Clouds 8 1017 87 10000 6.7 150 21:28 01.11.2020
2384 Clouds 8 1017 87 10000 7.2 150 20:59 01.11.2020
2385 Clouds 8 1018 87 10000 6.7 150 20:40 01.11.2020
2386 Clouds 8 1018 87 10000 7.2 150 20:20 01.11.2020
2387 Clouds 8 1018 87 10000 6.7 150 19:41 01.11.2020
2388 Clouds 8 1018 87 10000 6.7 150 19:22 01.11.2020
2389 Clouds 8 1018 87 10000 6.7 150 18:42 01.11.2020
2390 Clouds 8 1018 87 10000 6.7 150 18:42 01.11.2020
2391 Clouds 8 1019 87 10000 6.7 140 18:20 01.11.2020
2392 Clouds 8 1019 87 10000 6.7 140 18:20 01.11.2020
2393 Clouds 8 1019 87 10000 6.2 140 17:57 01.11.2020
2394 Clouds 8 1019 87 10000 6.2 140 17:37 01.11.2020
2395 Clouds 8 1019 87 10000 6.2 140 17:19 01.11.2020
2396 Clouds 8 1019 87 10000 6.7 150 16:40 01.11.2020
2397 Clouds 8 1020 87 10000 6.2 150 16:19 01.11.2020
2398 Clouds 8 1020 87 10000 5.7 140 15:41 01.11.2020
2399 Clouds 8 1020 87 10000 5.7 150 15:21 01.11.2020
2400 Clouds 8 1020 87 10000 5.7 150 14:57 01.11.2020
2401 Clouds 8 1020 87 10000 5.7 150 14:57 01.11.2020
2402 Clouds 8 1021 81 10000 5.7 150 14:39 01.11.2020
2403 Clouds 8 1021 81 10000 5.7 160 14:18 01.11.2020
2404 Clouds 8 1021 87 10000 6.2 150 13:46 01.11.2020
2405 Clouds 8 1021 87 10000 6.2 150 13:28 01.11.2020
2406 Clouds 8 1021 87 10000 6.2 160 12:43 01.11.2020
2407 Clouds 8 1021 87 10000 6.2 160 12:23 01.11.2020
2408 Clouds 8 1022 93 10000 5.1 150 11:51 01.11.2020
2409 Clouds 8 1022 93 10000 5.1 150 11:19 01.11.2020
2410 Clouds 8 1022 87 10000 5.1 150 10:43 01.11.2020
2411 Clouds 8 1022 87 10000 5.7 150 10:24 01.11.2020
2412 Clouds 8 1022 87 10000 5.7 150 09:55 01.11.2020
2413 Clouds 8 1022 87 10000 4.6 140 09:35 01.11.2020
2414 Clouds 8 1023 87 10000 4.1 140 08:46 01.11.2020
2415 Clouds 8 1023 87 10000 4.1 140 08:20 01.11.2020
2416 Clouds 8 1023 87 10000 4.1 150 07:39 01.11.2020
2417 Clouds 7 1023 87 10000 3.1 160 04:31 01.11.2020
2418 Clouds 7 1024 100 10000 3.1 160 01:49 01.11.2020
2419 Clouds 7 1024 100 10000 3.1 140 00:26 01.11.2020
2420 Clouds 7 1025 100 7000 3.1 150 23:25 31.10.2020
2421 Clouds 7 1025 100 7000 3.1 150 22:57 31.10.2020
2422 Mist 7 1025 93 5000 2.1 130 22:37 31.10.2020
2423 Mist 6 1025 100 4000 1.5 100 22:19 31.10.2020
2424 Mist 6 1025 100 3500 1 50 21:43 31.10.2020
2425 Mist 6 1025 100 3000 1 120 21:19 31.10.2020
2426 Mist 6 1025 93 3000 0.5 110 20:38 31.10.2020
2427 Mist 6 1025 100 3000 0.5 110 20:18 31.10.2020
2428 Mist 6 1025 100 2500 1.5 90 19:41 31.10.2020
2429 Mist 6 1025 100 3000 0.5 60 19:22 31.10.2020
2430 Fog 6 1025 100 900 1 40 18:47 31.10.2020
2431 Mist 6 1025 100 3500 1.5 50 18:24 31.10.2020
2432 Clouds 7 1025 100 9000 1 0 17:40 31.10.2020
2433 Clouds 7 1025 100 9000 1 0 17:22 31.10.2020
2434 Clouds 7 1025 100 10000 1 50 16:44 31.10.2020
2435 Clouds 7 1025 100 10000 1 50 16:25 31.10.2020
2436 Drizzle 7 1025 93 9000 1 90 15:45 31.10.2020
2437 Drizzle 7 1025 93 9000 1 90 15:25 31.10.2020
2438 Clouds 7 1024 93 10000 1.5 70 14:51 31.10.2020
2439 Clouds 7 1024 93 10000 1 70 14:31 31.10.2020
2440 Clouds 7 1024 100 10000 1.5 340 13:50 31.10.2020
2441 Clouds 7 1024 100 10000 1 0 13:27 31.10.2020
2442 Clouds 6 1024 100 10000 1 0 12:43 31.10.2020
2443 Clouds 7 1024 100 10000 1 0 12:18 31.10.2020
2444 Clouds 7 1024 93 10000 1.5 10 11:39 31.10.2020
2445 Clouds 6 1024 100 10000 1.5 10 11:20 31.10.2020
2446 Clouds 5 1024 100 10000 1 0 10:37 31.10.2020
2447 Clouds 6 1023 100 10000 1 0 09:48 31.10.2020
2448 Clouds 5 1023 100 10000 1 0 09:29 31.10.2020
2449 Clouds 5 1022 100 10000 1 0 08:52 31.10.2020
2450 Clouds 5 1022 100 10000 1 50 08:18 31.10.2020
2451 Clouds 4 1022 100 10000 1 50 07:28 31.10.2020
2452 Clouds 5 1022 100 10000 1 340 06:47 31.10.2020
2453 Clouds 5 1022 100 10000 1 320 06:29 31.10.2020
2454 Mist 6 1020 93 2000 1.5 10 03:47 31.10.2020
2455 Fog 6 1019 100 800 1.5 350 02:20 31.10.2020
2456 Fog 7 1019 100 800 1 0 00:49 31.10.2020
2457 Fog 7 1018 100 800 2.1 310 23:53 30.10.2020
2458 Fog 7 1018 100 800 2.1 310 23:28 30.10.2020
2459 Fog 7 1018 100 600 2.1 310 22:56 30.10.2020
2460 Fog 7 1018 100 200 1.5 340 22:37 30.10.2020
2461 Fog 7 1017 100 200 1 330 22:18 30.10.2020
2462 Fog 7 1017 100 200 1.18 166 21:41 30.10.2020
2463 Fog 7 1017 100 200 0.5 0 21:22 30.10.2020
2464 Fog 7 1017 100 200 1 360 20:44 30.10.2020
2465 Fog 7 1016 100 200 1 60 20:25 30.10.2020
2466 Fog 7 1016 100 200 1 60 19:53 30.10.2020
2467 Fog 6 1016 100 200 1 160 19:21 30.10.2020
2468 Fog 7 1015 100 500 1 0 18:52 30.10.2020
2469 Fog 7 1015 100 500 1 0 18:34 30.10.2020
2470 Fog 7 1015 100 900 1.5 300 17:57 30.10.2020
2471 Fog 7 1015 100 900 1.5 300 17:39 30.10.2020
2472 Fog 7 1015 100 600 0.5 340 17:20 30.10.2020
2473 Mist 8 1014 93 5000 1.08 89 16:49 30.10.2020
2474 Mist 8 1014 100 3500 1.5 320 16:19 30.10.2020
2475 Mist 9 1014 100 4000 1.5 40 15:41 30.10.2020
2476 Mist 9 1014 100 3000 2.1 0 15:20 30.10.2020
2477 Mist 9 1013 100 3000 2.1 190 14:45 30.10.2020
2478 Mist 9 1013 100 3000 2.1 190 14:26 30.10.2020
2479 Mist 9 1013 93 3000 2.1 190 13:55 30.10.2020
2480 Clouds 9 1013 93 7000 1 250 13:37 30.10.2020
2481 Clouds 9 1013 93 8000 1.5 260 13:18 30.10.2020
2482 Clouds 9 1013 93 9000 1.5 200 12:24 30.10.2020
2483 Clouds 9 1013 93 9000 1.5 200 11:59 30.10.2020
2484 Clouds 9 1012 93 8000 1.5 200 11:40 30.10.2020
2485 Clouds 9 1012 93 6000 1.5 190 11:18 30.10.2020
2486 Mist 9 1012 100 5000 1.5 200 10:40 30.10.2020
2487 Mist 9 1012 100 5000 1 220 10:21 30.10.2020
2488 Mist 8 1012 100 4500 1 0 09:44 30.10.2020
2489 Mist 8 1012 100 4500 0.5 0 09:22 30.10.2020
2490 Mist 8 1011 100 5000 1 0 08:41 30.10.2020
2491 Mist 7 1011 100 5000 1 0 08:23 30.10.2020
2492 Fog 6 1011 100 8000 1.39 214 07:49 30.10.2020
2493 Fog 6 1011 100 8000 1.78 215 07:30 30.10.2020
2494 Fog 6 1010 100 10000 1.5 130 06:38 30.10.2020
2495 Fog 6 1010 100 10000 2.6 150 04:47 30.10.2020
2496 Clouds 7 1010 100 10000 1.5 210 02:26 30.10.2020
2497 Clouds 6 1010 100 10000 2.1 160 00:39 30.10.2020
2498 Clouds 6 1010 100 10000 2.6 250 23:49 29.10.2020
2499 Clouds 7 1010 100 10000 2.6 250 23:30 29.10.2020
2500 Fog 7 1009 100 6000 1.5 210 22:57 29.10.2020
2501 Fog 5 1009 100 6000 1 0 22:38 29.10.2020
2502 Fog 6 1009 100 9000 2.6 160 22:20 29.10.2020
2503 Fog 8 1009 100 9000 1.5 160 21:36 29.10.2020
2504 Fog 7 1009 100 9000 1 0 21:18 29.10.2020
2505 Clouds 6 1009 100 10000 2.1 180 20:41 29.10.2020
2506 Clouds 7 1009 100 10000 1.5 180 20:19 29.10.2020
2507 Clouds 8 1009 93 10000 2.1 200 19:42 29.10.2020
2508 Clouds 8 1009 93 10000 3.1 200 19:22 29.10.2020
2509 Clouds 9 1009 93 10000 3.1 190 18:49 29.10.2020
2510 Clouds 9 1009 93 10000 3.1 190 18:29 29.10.2020
2511 Clouds 9 1009 93 10000 3.6 180 17:56 29.10.2020
2512 Clouds 9 1009 93 10000 3.6 180 17:37 29.10.2020
2513 Clouds 9 1009 93 10000 3.1 180 17:18 29.10.2020
2514 Clouds 10 1009 93 10000 3.1 180 16:43 29.10.2020
2515 Rain 10 1008 93 10000 4.1 190 16:19 29.10.2020
2516 Rain 10 1008 93 10000 4.1 190 15:55 29.10.2020
2517 Clouds 10 1008 93 10000 4.1 190 15:37 29.10.2020
2518 Clouds 10 1008 87 10000 4.6 190 15:18 29.10.2020
2519 Clouds 10 1008 87 10000 4.6 190 14:41 29.10.2020
2520 Clouds 10 1008 93 10000 5.1 190 14:21 29.10.2020
2521 Clouds 11 1008 87 10000 5.7 180 13:46 29.10.2020
2522 Clouds 11 1008 81 10000 5.7 190 13:27 29.10.2020
2523 Clouds 11 1008 87 10000 5.7 180 12:43 29.10.2020
2524 Clouds 11 1008 87 10000 5.7 180 12:20 29.10.2020
2525 Clouds 11 1008 87 10000 5.7 180 12:20 29.10.2020
2526 Clouds 11 1008 87 10000 5.7 180 11:51 29.10.2020
2527 Clouds 11 1008 87 10000 4.6 190 11:27 29.10.2020
2528 Clouds 11 1008 87 10000 4.6 190 10:59 29.10.2020
2529 Clouds 10 1008 87 10000 5.7 200 10:37 29.10.2020
2530 Clouds 10 1008 93 10000 4.6 190 10:18 29.10.2020
2531 Clouds 10 1008 87 10000 4.6 190 09:46 29.10.2020
2532 Clouds 10 1007 87 10000 4.6 200 09:24 29.10.2020
2533 Clouds 9 1007 93 10000 4.1 190 08:40 29.10.2020
2534 Clouds 9 1007 93 10000 4.1 190 08:22 29.10.2020
2535 Clouds 9 1007 87 10000 5.1 190 07:49 29.10.2020
2536 Clouds 9 1007 93 10000 5.1 200 06:59 29.10.2020
2537 Clouds 9 1007 93 10000 4.1 200 06:24 29.10.2020
2538 Clouds 9 1006 93 10000 5.7 200 04:48 29.10.2020
2539 Clouds 9 1007 94 10000 2.68 213 02:18 29.10.2020
2540 Clouds 9 1007 94 10000 3.13 226 00:38 29.10.2020
2541 Rain 9 1007 94 10000 3.58 211 00:19 29.10.2020
2542 Clouds 9 1007 94 10000 2.24 232 23:40 28.10.2020
2543 Rain 9 1007 93 10000 3.58 228 23:19 28.10.2020
2544 Rain 9 1007 93 10000 7.2 180 22:42 28.10.2020
2545 Rain 9 1007 93 10000 7.2 180 22:23 28.10.2020
2546 Rain 9 1007 81 10000 8.7 180 21:45 28.10.2020
2547 Rain 9 1007 81 10000 7.2 180 21:25 28.10.2020
2548 Rain 9 1007 81 10000 7.7 170 20:44 28.10.2020
2549 Clouds 9 1007 81 10000 7.7 180 20:23 28.10.2020
2550 Clouds 9 1007 81 10000 7.7 180 19:55 28.10.2020
2551 Clouds 9 1008 81 10000 7.2 170 19:36 28.10.2020
2552 Clouds 9 1008 81 10000 6.7 170 19:18 28.10.2020
2553 Clouds 9 1008 81 10000 7.2 170 18:42 28.10.2020
2554 Clouds 10 1008 81 10000 6.2 170 18:18 28.10.2020
2555 Clouds 10 1008 87 10000 6.7 170 17:41 28.10.2020
2556 Clouds 10 1008 87 10000 5.7 170 17:21 28.10.2020
2557 Clouds 10 1008 87 10000 5.7 170 16:47 28.10.2020
2558 Clouds 10 1008 87 10000 7.7 180 16:28 28.10.2020
2559 Clouds 10 1008 87 10000 7.7 190 15:42 28.10.2020
2560 Clouds 10 1009 86 10000 1.79 234 15:19 28.10.2020
2561 Clouds 11 1008 81 10000 6.2 190 14:46 28.10.2020
2562 Clouds 10 1008 81 10000 6.2 190 14:27 28.10.2020
2563 Clear 10 1009 85 10000 2.68 223 12:59 28.10.2020
2564 Clear 10 1009 85 10000 2.68 237 12:36 28.10.2020
2565 Clear 10 1009 85 10000 2.24 331 12:18 28.10.2020
2566 Clear 10 1009 85 10000 3.13 236 11:42 28.10.2020
2567 Clear 10 1009 86 10000 4.02 233 11:21 28.10.2020
2568 Clouds 10 1006 93 10000 5.1 210 10:53 28.10.2020
2569 Clouds 10 1006 93 10000 5.1 210 10:33 28.10.2020
2570 Clouds 10 1006 87 10000 5.1 210 09:48 28.10.2020
2571 Clouds 9 1006 93 10000 5.7 210 09:25 28.10.2020
2572 Clouds 9 1006 93 10000 5.7 210 08:56 28.10.2020
2573 Rain 9 1005 93 10000 5.1 210 08:37 28.10.2020
2574 Clouds 9 1005 93 10000 5.1 200 08:18 28.10.2020
2575 Clouds 9 1005 93 10000 4.6 210 07:41 28.10.2020
2576 Clouds 8 1004 81 10000 7.2 210 07:19 28.10.2020
2577 Clouds 9 1004 93 10000 5.7 220 06:39 28.10.2020
2578 Clouds 9 1004 93 10000 7.7 190 05:48 28.10.2020
2579 Clouds 9 1004 93 10000 5.7 190 04:52 28.10.2020
2580 Clouds 8 1004 100 10000 5.7 190 04:23 28.10.2020
2581 Rain 8 1004 93 8000 3.6 200 02:25 28.10.2020
2582 Rain 9 1005 93 8000 2.6 230 00:39 28.10.2020
2583 Rain 9 1005 93 8000 3.1 240 23:51 27.10.2020
2584 Rain 10 1005 93 8000 2.6 230 23:22 27.10.2020
2585 Rain 10 1005 93 8000 2.6 230 22:52 27.10.2020
2586 Rain 10 1005 93 8000 2.1 220 22:25 27.10.2020
2587 Rain 10 1005 100 9000 2.1 220 21:57 27.10.2020
2588 Rain 10 1005 100 7000 3.1 200 21:39 27.10.2020
2589 Rain 10 1005 100 8000 3.1 200 21:20 27.10.2020
2590 Clouds 10 1005 100 8000 3.1 200 20:54 27.10.2020
2591 Drizzle 11 1005 93 6000 3.6 200 20:36 27.10.2020
2592 Clouds 11 1005 93 5000 4.1 200 20:18 27.10.2020
2593 Clouds 11 1005 93 5000 4.1 200 20:18 27.10.2020
2594 Drizzle 11 1005 93 5000 4.1 200 19:39 27.10.2020
2595 Rain 11 1005 93 6000 4.1 200 19:20 27.10.2020
2596 Rain 11 1005 93 6000 4.1 200 18:55 27.10.2020
2597 Rain 11 1005 93 7000 4.6 200 18:37 27.10.2020
2598 Rain 11 1005 100 7000 4.6 200 18:18 27.10.2020
2599 Drizzle 11 1005 100 6000 5.7 190 17:40 27.10.2020
2600 Rain 11 1005 93 6000 5.1 190 17:20 27.10.2020
2601 Clouds 12 1005 93 7000 6.2 190 16:46 27.10.2020
2602 Rain 12 1005 93 6000 6.7 190 16:24 27.10.2020
2603 Drizzle 12 1005 93 6000 6.7 190 15:43 27.10.2020
2604 Clouds 12 1005 93 4000 7.2 190 15:25 27.10.2020
2605 Clouds 12 1005 93 4000 7.2 190 14:52 27.10.2020
2606 Clouds 12 1005 93 5000 7.7 190 14:33 27.10.2020
2607 Clouds 12 1005 93 6000 7.7 190 13:59 27.10.2020
2608 Clouds 12 1005 93 4000 7.7 190 13:32 27.10.2020
2609 Mist 12 1005 93 4000 6.2 180 12:54 27.10.2020
2610 Mist 12 1005 93 4000 6.2 170 12:36 27.10.2020
2611 Mist 12 1005 93 4500 7.7 180 12:18 27.10.2020
2612 Mist 12 1005 93 2900 7.2 180 11:42 27.10.2020
2613 Mist 11 1005 100 4000 7.2 180 11:21 27.10.2020
2614 Clouds 11 1005 100 2900 7.2 170 10:46 27.10.2020
2615 Clouds 11 1005 100 2900 7.2 170 10:22 27.10.2020
2616 Clouds 11 1005 100 6000 7.2 160 09:42 27.10.2020
2617 Clouds 11 1005 93 6000 6.7 160 09:23 27.10.2020
2618 Rain 10 1005 93 4000 5.7 150 08:33 27.10.2020
2619 Clouds 11 1006 93 5000 5.7 160 07:58 27.10.2020
2620 Rain 11 1006 93 6000 6.7 160 07:40 27.10.2020
2621 Rain 11 1006 93 7000 7.2 160 07:21 27.10.2020
2622 Drizzle 10 1006 100 8000 6.2 150 06:21 27.10.2020
2623 Drizzle 10 1006 100 6000 6.2 160 05:47 27.10.2020
2624 Drizzle 10 1006 100 6000 6.2 160 05:28 27.10.2020
2625 Drizzle 10 1007 100 4000 4.6 150 03:38 27.10.2020
2626 Clouds 10 1008 93 10000 5.1 160 01:24 27.10.2020
2627 Clouds 10 1008 93 10000 4.6 160 00:44 27.10.2020
2628 Clouds 10 1008 93 10000 4.6 170 23:39 26.10.2020
2629 Clouds 10 1009 93 10000 4.6 170 23:18 26.10.2020
2630 Drizzle 10 1009 93 10000 5.1 170 22:44 26.10.2020
2631 Drizzle 9 1009 93 10000 5.7 160 22:19 26.10.2020
2632 Clouds 9 1009 93 10000 5.7 170 21:41 26.10.2020
2633 Clouds 9 1009 93 10000 5.1 170 21:19 26.10.2020
2634 Clouds 9 1009 93 10000 4.6 170 20:49 26.10.2020
2635 Clouds 10 1009 93 10000 4.6 170 20:27 26.10.2020
2636 Clouds 9 1008 100 10000 6.2 160 20:27 26.10.2020
2637 Clouds 9 1008 100 10000 6.2 160 19:58 26.10.2020
2638 Drizzle 9 1008 100 8000 5.7 160 19:40 26.10.2020
2639 Drizzle 9 1008 100 6000 5.7 170 19:20 26.10.2020
2640 Drizzle 9 1009 100 5000 5.7 160 18:42 26.10.2020
2641 Drizzle 9 1009 100 4500 5.1 160 18:22 26.10.2020
2642 Drizzle 9 1009 100 2900 5.1 170 17:45 26.10.2020
2643 Drizzle 9 1009 100 3000 4.6 170 17:24 26.10.2020
2644 Drizzle 9 1009 100 3000 4.6 170 16:57 26.10.2020
2645 Drizzle 9 1009 100 2800 6.2 180 16:38 26.10.2020
2646 Drizzle 9 1009 100 2500 5.1 170 16:19 26.10.2020
2647 Drizzle 9 1009 100 2900 5.1 180 15:39 26.10.2020
2648 Drizzle 10 1008 93 2800 5.7 180 15:19 26.10.2020
2649 Drizzle 9 1008 100 2500 5.1 170 14:46 26.10.2020
2650 Drizzle 9 1008 100 2900 5.1 160 14:21 26.10.2020
2651 Drizzle 9 1008 100 2900 5.7 160 13:42 26.10.2020
2652 Drizzle 9 1008 93 4000 6.2 170 13:23 26.10.2020
2653 Clouds 10 1009 87 10000 5.7 170 12:47 26.10.2020
2654 Clouds 10 1009 87 10000 5.7 170 12:27 26.10.2020
2655 Clouds 10 1009 87 10000 6.2 180 11:55 26.10.2020
2656 Clouds 10 1009 87 10000 7.7 180 11:37 26.10.2020
2657 Clouds 10 1009 87 10000 6.7 180 11:18 26.10.2020
2658 Clouds 10 1008 87 10000 6.2 170 10:42 26.10.2020
2659 Clouds 10 1008 93 10000 6.7 170 10:24 26.10.2020
2660 Clouds 10 1008 93 10000 7.2 170 09:44 26.10.2020
2661 Clouds 10 1008 93 10000 7.7 170 09:23 26.10.2020
2662 Clouds 10 1008 93 10000 7.2 170 08:30 26.10.2020
2663 Clouds 10 1008 87 10000 7.2 170 07:56 26.10.2020
2664 Clouds 10 1008 93 10000 6.7 170 07:37 26.10.2020
2665 Clouds 10 1007 93 10000 6.2 160 06:38 26.10.2020
2666 Clouds 10 1008 93 10000 6.2 160 04:44 26.10.2020
2667 Clouds 10 1008 93 10000 6.2 170 04:18 26.10.2020
2668 Clouds 10 1008 93 10000 5.1 160 01:52 26.10.2020
2669 Clouds 10 1009 93 10000 5.7 170 01:23 26.10.2020
2670 Clouds 9 1009 93 10000 4.6 170 00:32 26.10.2020
2671 Drizzle 9 1009 93 10000 5.1 150 23:41 25.10.2020
2672 Drizzle 9 1009 93 10000 5.1 150 23:21 25.10.2020
2673 Clouds 8 1009 100 7000 5.1 140 22:41 25.10.2020
2674 Clouds 9 1010 93 8000 5.7 150 22:21 25.10.2020
2675 Clouds 9 1010 93 8000 5.7 150 22:21 25.10.2020
2676 Clouds 9 1010 87 10000 5.7 140 21:43 25.10.2020
2677 Clouds 8 1010 87 10000 5.7 150 21:24 25.10.2020
2678 Clouds 8 1010 87 10000 5.7 150 20:56 25.10.2020
2679 Clouds 8 1010 87 10000 5.7 150 20:37 25.10.2020
2680 Clouds 8 1010 87 10000 5.7 140 20:18 25.10.2020
2681 Clouds 8 1011 87 10000 5.1 150 19:48 25.10.2020
2682 Clouds 8 1011 87 10000 5.1 150 19:22 25.10.2020
2683 Clouds 7 1011 93 10000 3.1 130 18:55 25.10.2020
2684 Clouds 7 1011 93 10000 3.1 130 18:37 25.10.2020
2685 Clouds 7 1011 93 10000 2.1 110 18:18 25.10.2020
2686 Clouds 6 1011 93 10000 2.6 110 17:39 25.10.2020
2687 Clouds 7 1011 93 10000 2.1 100 17:21 25.10.2020
2688 Clouds 7 1011 93 10000 2.1 100 16:58 25.10.2020
2689 Clouds 6 1011 87 10000 1.5 110 16:38 25.10.2020
2690 Clouds 7 1011 87 10000 1.5 110 16:18 25.10.2020
2691 Clouds 6 1011 87 10000 3.1 120 15:45 25.10.2020
2692 Clouds 6 1011 87 10000 3.6 110 15:25 25.10.2020
2693 Clouds 6 1011 87 10000 3.1 110 14:43 25.10.2020
2694 Clouds 6 1011 87 10000 1.5 160 14:24 25.10.2020
2695 Clouds 6 1011 87 10000 1 190 13:43 25.10.2020
2696 Clouds 6 1011 93 10000 2.1 150 13:20 25.10.2020
2697 Clouds 6 1011 93 10000 2.1 170 12:47 25.10.2020
2698 Clouds 5 1011 93 10000 2.1 170 12:26 25.10.2020
2699 Clouds 5 1011 86 10000 1.5 170 11:55 25.10.2020
2700 Clouds 5 1011 86 10000 1 0 11:36 25.10.2020
2701 Clouds 5 1011 80 10000 1.5 0 11:18 25.10.2020
2702 Clouds 5 1010 86 10000 1.5 200 10:44 25.10.2020
2703 Clouds 5 1010 86 10000 1.5 200 10:24 25.10.2020
2704 Clouds 5 1010 86 10000 1 0 09:46 25.10.2020
2705 Clouds 4 1010 86 10000 0.5 0 09:19 25.10.2020
2706 Clouds 4 1010 86 10000 0.95 39 08:47 25.10.2020
2707 Clouds 4 1010 86 10000 1.24 351 08:29 25.10.2020
2708 Clouds 3 1009 93 10000 1.5 330 07:48 25.10.2020
2709 Clouds 3 1009 93 10000 1.5 330 07:27 25.10.2020
2710 Clouds 3 1008 93 10000 2.1 320 06:48 25.10.2020
2711 Clouds 3 1008 100 10000 1.5 320 05:43 25.10.2020
2712 Clouds 3 1007 93 10000 1.5 350 04:52 25.10.2020
2713 Clouds 3 1005 93 10000 3.1 20 02:58 25.10.2020
2714 Clouds 3 1004 93 10000 3.6 40 01:20 25.10.2020
2715 Clouds 3 1004 100 5000 3.6 40 00:42 25.10.2020
2716 Clouds 4 1004 100 6000 4.1 40 00:18 25.10.2020
2717 Clouds 4 1004 100 8000 3.1 20 23:43 24.10.2020
2718 Clouds 4 1004 100 8000 3.1 20 23:24 24.10.2020
2719 Clouds 4 1004 86 10000 4.1 30 22:42 24.10.2020
2720 Clouds 4 1004 86 10000 3.6 20 22:23 24.10.2020
2721 Clouds 4 1004 86 10000 3.6 20 21:57 24.10.2020
2722 Clouds 4 1003 86 10000 2.6 40 21:38 24.10.2020
2723 Clouds 4 1003 86 10000 2.6 40 21:19 24.10.2020
2724 Clouds 4 1003 93 10000 2.6 60 20:45 24.10.2020
2725 Clouds 4 1003 93 10000 2.1 40 20:22 24.10.2020
2726 Rain 4 1003 86 10000 1.5 80 19:45 24.10.2020
2727 Rain 4 1004 86 10000 1.5 110 19:25 24.10.2020
2728 Rain 4 1003 86 10000 1 90 18:55 24.10.2020
2729 Rain 4 1003 86 10000 1 90 18:36 24.10.2020
2730 Rain 4 1004 93 10000 1.5 70 17:56 24.10.2020
2731 Rain 4 1004 86 10000 1.5 100 17:37 24.10.2020
2732 Clouds 5 1004 80 10000 1 90 17:19 24.10.2020
2733 Clouds 5 1004 75 10000 1 0 16:41 24.10.2020
2734 Rain 5 1004 73 10000 0.5 0 16:18 24.10.2020
2735 Clouds 5 1004 71 10000 2.54 278 15:38 24.10.2020
2736 Clouds 5 1004 65 10000 1 0 15:19 24.10.2020
2737 Clouds 5 1004 72 10000 1 0 14:43 24.10.2020
2738 Clouds 5 1004 68 10000 1 0 14:23 24.10.2020
2739 Clouds 5 1005 68 10000 1.5 230 13:44 24.10.2020
2740 Clouds 5 1005 75 10000 1.5 230 13:20 24.10.2020
2741 Clouds 5 1004 80 10000 1.5 230 12:41 24.10.2020
2742 Clouds 5 1004 68 10000 2.1 240 12:21 24.10.2020
2743 Clouds 4 1004 68 10000 2.1 240 11:51 24.10.2020
2744 Clouds 4 1004 80 10000 2.6 230 11:24 24.10.2020
2745 Clouds 3 1004 71 10000 1 0 10:51 24.10.2020
2746 Clouds 2 1004 73 10000 1 0 10:32 24.10.2020
2747 Clouds 2 1004 86 10000 1.5 250 09:50 24.10.2020
2748 Clouds 0 1004 86 10000 1.5 250 09:27 24.10.2020
2749 Clouds 0 1004 75 10000 1.5 220 08:58 24.10.2020
2750 Clouds 0 1004 79 10000 2.1 220 08:19 24.10.2020
2751 Clouds 0 1004 86 10000 2.1 250 07:51 24.10.2020
2752 Clouds 1 1004 86 10000 2.1 250 07:21 24.10.2020
2753 Clouds 0 1004 80 10000 1.5 230 06:51 24.10.2020
2754 Clouds -1 1004 100 10000 2.6 230 05:47 24.10.2020
2755 Clouds 0 1004 81 10000 3.6 240 02:26 24.10.2020
2756 Clouds 1 1004 81 10000 3.1 240 00:59 24.10.2020
2757 Clouds 1 1004 81 10000 3.1 250 00:37 24.10.2020
2758 Clouds 1 1004 81 10000 3.1 250 00:37 24.10.2020
2759 Clouds 1 1003 86 10000 3.1 260 00:19 24.10.2020
2760 Clouds 1 1003 81 10000 2.6 270 23:43 23.10.2020
2761 Clouds 1 1003 81 10000 3.1 290 23:22 23.10.2020
2762 Clouds 2 1002 86 10000 4.1 300 22:42 23.10.2020
2763 Clouds 3 1002 86 10000 4.1 300 22:22 23.10.2020
2764 Clouds 3 1002 86 10000 4.1 280 21:59 23.10.2020
2765 Clouds 3 1002 93 10000 3.1 290 21:39 23.10.2020
2766 Clouds 3 1001 86 10000 3.6 300 21:21 23.10.2020
2767 Clouds 4 1001 93 10000 3.6 310 20:39 23.10.2020
2768 Clouds 4 1001 93 10000 3.6 310 20:20 23.10.2020
2769 Clouds 5 1000 86 10000 4.6 310 19:48 23.10.2020
2770 Clouds 5 1000 86 10000 4.6 310 19:29 23.10.2020
2771 Clouds 5 999 81 10000 4.6 300 18:49 23.10.2020
2772 Clouds 6 999 81 10000 4.6 300 18:30 23.10.2020
2773 Clouds 6 998 87 10000 4.1 290 17:47 23.10.2020
2774 Clouds 6 998 87 10000 4.1 290 17:23 23.10.2020
2775 Clouds 6 997 87 10000 6.7 300 16:56 23.10.2020
2776 Clouds 6 997 87 10000 6.7 300 16:56 23.10.2020
2777 Clouds 6 998 87 10000 5.7 300 16:56 23.10.2020
2778 Clouds 7 997 87 10000 6.7 300 16:35 23.10.2020
2779 Clouds 7 997 81 10000 7.2 290 15:59 23.10.2020
2780 Clouds 7 996 87 10000 7.2 300 15:40 23.10.2020
2781 Clouds 8 995 81 10000 6.7 300 15:20 23.10.2020
2782 Clouds 8 995 81 10000 6.7 300 14:49 23.10.2020
2783 Clouds 8 994 87 10000 7.7 290 14:30 23.10.2020
2784 Clouds 8 994 81 10000 6.7 290 13:43 23.10.2020
2785 Clouds 9 993 81 10000 6.7 270 13:24 23.10.2020
2786 Clouds 10 993 81 10000 6.7 270 12:51 23.10.2020
2787 Clouds 10 993 81 10000 6.7 280 12:31 23.10.2020
2788 Rain 10 992 87 10000 5.7 270 11:56 23.10.2020
2789 Clouds 11 992 87 10000 6.7 240 11:38 23.10.2020
2790 Rain 11 992 87 10000 5.1 230 11:19 23.10.2020
2791 Clouds 11 992 87 10000 5.7 230 10:39 23.10.2020
2792 Clouds 11 992 87 10000 6.2 230 10:20 23.10.2020
2793 Clouds 11 992 87 10000 5.7 230 09:43 23.10.2020
2794 Clouds 11 992 87 10000 5.7 230 09:23 23.10.2020
2795 Clouds 11 992 87 10000 5.1 230 08:51 23.10.2020
2796 Clouds 11 992 87 10000 5.1 230 08:26 23.10.2020
2797 Clouds 11 992 93 10000 5.7 220 07:27 23.10.2020
2798 Clouds 11 992 93 10000 5.7 210 06:49 23.10.2020
2799 Clouds 11 993 93 6000 5.1 210 06:20 23.10.2020
2800 Rain 9 995 93 7000 3.1 200 03:44 23.10.2020
2801 Rain 10 996 93 10000 2.6 210 02:27 23.10.2020
2802 Clouds 10 996 93 10000 4.1 250 00:52 23.10.2020
2803 Clouds 10 996 93 10000 4.1 250 00:32 23.10.2020
2804 Drizzle 10 995 100 10000 4.6 250 23:37 22.10.2020
2805 Clouds 9 995 93 10000 5.1 280 23:19 22.10.2020
2806 Clouds 9 994 100 10000 5.7 280 22:45 22.10.2020
2807 Clouds 9 994 93 10000 6.2 290 22:23 22.10.2020
2808 Clouds 10 994 93 10000 6.2 290 21:54 22.10.2020
2809 Clouds 10 993 93 10000 7.2 290 21:32 22.10.2020
2810 Clouds 10 992 93 10000 6.7 290 20:59 22.10.2020
2811 Clouds 11 991 93 10000 6.7 280 20:41 22.10.2020
2812 Mist 11 991 100 3500 3.1 240 20:23 22.10.2020
2813 Mist 11 991 100 3000 3.1 220 19:43 22.10.2020
2814 Mist 11 990 100 2500 2.6 210 19:20 22.10.2020
2815 Rain 11 990 100 600 3.1 200 18:44 22.10.2020
2816 Rain 11 990 100 1100 3.1 180 18:22 22.10.2020
2817 Rain 10 990 100 3500 3.1 130 17:48 22.10.2020
2818 Mist 10 990 100 3500 3.1 130 17:26 22.10.2020
2819 Mist 10 990 100 2500 3.6 130 16:59 22.10.2020
2820 Mist 10 991 100 2500 4.1 130 16:41 22.10.2020
2821 Clouds 10 991 100 7000 4.6 130 16:23 22.10.2020
2822 Mist 10 991 93 4500 4.6 140 15:48 22.10.2020
2823 Clouds 10 992 93 5000 4.6 130 15:26 22.10.2020
2824 Rain 10 992 93 5000 5.1 130 14:50 22.10.2020
2825 Rain 10 992 93 5000 5.1 130 14:27 22.10.2020
2826 Clouds 9 993 100 10000 5.1 130 13:50 22.10.2020
2827 Rain 9 994 100 10000 5.1 130 13:24 22.10.2020
2828 Rain 9 994 100 10000 5.1 130 12:57 22.10.2020
2829 Rain 9 995 100 10000 5.1 130 12:27 22.10.2020
2830 Rain 9 995 100 10000 4.6 130 11:50 22.10.2020
2831 Rain 9 996 94 10000 2.24 149 11:21 22.10.2020
2832 Rain 9 997 93 8000 5.1 130 10:52 22.10.2020
2833 Rain 9 997 93 8000 5.1 130 10:30 22.10.2020
2834 Rain 9 997 93 7000 4.6 140 09:59 22.10.2020
2835 Rain 9 998 93 3500 4.6 140 09:41 22.10.2020
2836 Rain 9 998 100 7000 4.1 140 08:57 22.10.2020
2837 Rain 9 998 100 4000 5.7 150 08:38 22.10.2020
2838 Mist 9 999 100 5000 5.7 160 08:18 22.10.2020
2839 Rain 9 999 100 4000 5.1 150 07:43 22.10.2020
2840 Mist 9 1000 100 4000 5.7 160 06:59 22.10.2020
2841 Mist 9 1000 100 2800 5.7 160 06:36 22.10.2020
2842 Rain 9 1001 100 600 5.7 160 05:42 22.10.2020
2843 Rain 9 1002 93 1800 4.6 160 05:20 22.10.2020
2844 Mist 9 1004 93 3000 4.1 150 01:57 22.10.2020
2845 Drizzle 8 1005 100 5000 4.6 150 00:27 22.10.2020
2846 Drizzle 8 1005 100 3000 4.1 140 23:57 21.10.2020
2847 Rain 8 1005 100 3000 4.1 140 23:35 21.10.2020
2848 Clouds 7 1006 100 4000 4.6 150 22:54 21.10.2020
2849 Clouds 7 1006 100 4000 4.6 150 22:36 21.10.2020
2850 Rain 7 1006 100 2800 5.1 140 22:18 21.10.2020
2851 Clouds 7 1006 100 2900 4.6 140 21:42 21.10.2020
2852 Clouds 7 1007 100 3000 5.1 150 21:19 21.10.2020
2853 Drizzle 7 1007 93 7000 5.1 150 20:48 21.10.2020
2854 Clouds 7 1007 93 7000 5.7 150 20:19 21.10.2020
2855 Rain 7 1007 93 7000 5.7 150 19:57 21.10.2020
2856 Clouds 7 1007 93 7000 5.7 130 19:37 21.10.2020
2857 Clouds 6 1007 100 9000 5.1 130 19:18 21.10.2020
2858 Drizzle 6 1008 100 9000 5.7 140 18:46 21.10.2020
2859 Drizzle 6 1008 100 8000 5.7 140 18:21 21.10.2020
2860 Drizzle 6 1008 100 5000 5.7 130 17:43 21.10.2020
2861 Clouds 6 1008 87 5000 5.7 140 17:20 21.10.2020
2862 Rain 6 1008 87 5000 5.7 140 16:55 21.10.2020
2863 Rain 6 1008 87 10000 6.2 130 16:36 21.10.2020
2864 Rain 6 1008 87 10000 6.2 130 16:18 21.10.2020
2865 Rain 6 1009 87 10000 5.1 140 15:42 21.10.2020
2866 Clouds 6 1008 87 10000 6.2 130 15:20 21.10.2020
2867 Clouds 6 1009 87 10000 4.6 140 14:44 21.10.2020
2868 Clouds 6 1009 93 10000 5.7 130 14:26 21.10.2020
2869 Clouds 7 1009 93 10000 5.7 140 13:45 21.10.2020
2870 Rain 7 1009 87 10000 6.2 140 13:26 21.10.2020
2871 Rain 6 1010 87 10000 5.1 140 12:48 21.10.2020
2872 Rain 6 1010 87 10000 6.7 140 12:24 21.10.2020
2873 Clouds 6 1010 87 10000 7.2 140 11:59 21.10.2020
2874 Clouds 6 1010 87 10000 7.2 140 11:40 21.10.2020
2875 Clouds 6 1010 87 10000 7.2 140 11:40 21.10.2020
2876 Clouds 6 1010 87 10000 6.2 150 11:19 21.10.2020
2877 Clouds 6 1010 87 10000 6.2 140 10:43 21.10.2020
2878 Clouds 6 1010 87 10000 4.6 140 10:23 21.10.2020
2879 Clouds 5 1010 93 10000 4.6 130 09:52 21.10.2020
2880 Clouds 4 1011 100 10000 3.1 110 09:30 21.10.2020
2881 Clouds 4 1011 100 10000 2.6 80 08:43 21.10.2020
2882 Clouds 3 1011 93 10000 2.6 80 08:25 21.10.2020
2883 Clouds 3 1011 100 9000 2.1 70 07:58 21.10.2020
2884 Clouds 3 1011 100 9000 3.1 80 07:31 21.10.2020
2885 Rain 2 1012 100 9000 3.6 60 06:50 21.10.2020
2886 Rain 1 1012 100 9000 2.6 70 06:26 21.10.2020
2887 Rain 1 1013 100 9000 3.6 70 04:46 21.10.2020
2888 Clouds 0 1016 80 10000 2.6 70 00:51 21.10.2020
2889 Clouds -1 1017 92 10000 2.1 60 23:49 20.10.2020
2890 Clouds -1 1017 100 10000 1.5 70 22:52 20.10.2020
2891 Clouds -1 1018 92 10000 1 0 22:28 20.10.2020
2892 Clouds -1 1018 92 10000 1.5 70 21:49 20.10.2020
2893 Clouds -1 1018 92 10000 1.5 40 21:20 20.10.2020
2894 Clouds -1 1018 92 10000 1.5 40 20:45 20.10.2020
2895 Clouds -1 1018 86 10000 1.5 40 20:26 20.10.2020
2896 Clouds 0 1018 82 10000 2.1 10 19:58 20.10.2020
2897 Clouds 0 1018 82 10000 2.1 10 19:40 20.10.2020
2898 Clouds 0 1018 82 10000 1.5 360 19:21 20.10.2020
2899 Clouds 1 1018 82 10000 1 0 18:47 20.10.2020
2900 Clouds 1 1019 74 10000 1.5 350 18:27 20.10.2020
2901 Clouds 1 1019 80 10000 1 0 17:43 20.10.2020
2902 Clouds 1 1019 80 10000 2.1 320 17:24 20.10.2020
2903 Clouds 2 1019 80 10000 2.1 230 16:48 20.10.2020
2904 Clouds 2 1019 80 10000 2.1 250 16:27 20.10.2020
2905 Clouds 2 1019 80 10000 1.5 250 15:51 20.10.2020
2906 Clouds 2 1019 80 10000 3.1 320 15:33 20.10.2020
2907 Clouds 2 1019 80 10000 2.1 320 14:59 20.10.2020
2908 Clouds 2 1019 74 10000 3.6 250 14:39 20.10.2020
2909 Clouds 2 1019 74 10000 3.6 250 14:21 20.10.2020
2910 Clouds 2 1018 80 10000 2.1 250 13:44 20.10.2020
2911 Clouds 2 1018 74 10000 3.6 290 13:23 20.10.2020
2912 Clouds 2 1018 74 10000 2.6 250 12:56 20.10.2020
2913 Clouds 2 1018 74 10000 4.1 280 12:38 20.10.2020
2914 Clouds 2 1018 74 10000 4.1 280 12:19 20.10.2020
2915 Clouds 2 1018 74 10000 3.6 320 11:37 20.10.2020
2916 Clouds 2 1017 74 10000 4.1 320 11:18 20.10.2020
2917 Clear 1 1016 80 10000 3.6 330 10:29 20.10.2020
2918 Clear 1 1016 80 10000 3.1 320 09:51 20.10.2020
2919 Clouds 0 1016 87 10000 3.6 320 09:21 20.10.2020
2920 Clouds 0 1015 92 10000 2.6 320 08:58 20.10.2020
2921 Clouds 0 1015 92 10000 2.6 320 08:36 20.10.2020
2922 Clouds 0 1015 92 10000 2.6 290 07:52 20.10.2020
2923 Clouds 0 1014 92 10000 3.6 290 07:25 20.10.2020
2924 Clouds 0 1014 100 10000 3.1 300 06:30 20.10.2020
2925 Clouds 0 1013 92 10000 3.6 290 05:43 20.10.2020
2926 Clouds 1 1011 87 10000 4.1 300 03:55 20.10.2020
2927 Clouds 1 1010 85 10000 5.1 310 02:18 20.10.2020
2928 Clouds 1 1009 84 10000 4.1 310 00:58 20.10.2020
2929 Clouds 1 1008 84 10000 3.6 310 00:39 20.10.2020
2930 Clouds 1 1008 84 10000 3.6 310 00:19 20.10.2020
2931 Rain 1 1008 84 10000 4.1 300 23:40 19.10.2020
2932 Rain 1 1007 81 10000 3.6 290 23:19 19.10.2020
2933 Rain 1 1007 81 10000 4.1 320 22:43 19.10.2020
2934 Rain 1 1007 79 10000 4.1 300 22:21 19.10.2020
2935 Rain 1 1006 79 10000 4.1 290 21:43 19.10.2020
2936 Rain 1 1006 86 10000 3.6 290 21:21 19.10.2020
2937 Rain 1 1005 86 10000 3.6 280 20:46 19.10.2020
2938 Clouds 1 1005 87 10000 4.1 290 20:27 19.10.2020
2939 Clouds 1 1005 85 10000 3.6 280 19:48 19.10.2020
2940 Clouds 1 1004 81 10000 3.6 300 19:22 19.10.2020
2941 Clouds 1 1004 81 10000 4.1 320 18:54 19.10.2020
2942 Clouds 1 1004 81 10000 4.1 320 18:35 19.10.2020
2943 Clouds 1 1004 80 10000 4.1 300 17:58 19.10.2020
2944 Clouds 2 1004 80 10000 4.1 300 17:40 19.10.2020
2945 Clouds 2 1003 79 10000 4.1 310 17:21 19.10.2020
2946 Clouds 2 1003 79 10000 4.6 300 16:43 19.10.2020
2947 Clouds 2 1002 76 10000 3.6 320 16:22 19.10.2020
2948 Clouds 3 1003 81 10000 2.68 301 15:41 19.10.2020
2949 Clouds 2 1003 81 10000 2.24 322 15:23 19.10.2020
2950 Clouds 2 1002 77 10000 3.58 294 14:51 19.10.2020
2951 Clouds 2 1002 76 10000 3.58 292 14:24 19.10.2020
2952 Clouds 3 1002 77 10000 4.02 293 13:52 19.10.2020
2953 Clouds 3 1001 80 10000 4.47 288 13:31 19.10.2020
2954 Clouds 3 1001 83 10000 4.92 305 12:50 19.10.2020
2955 Clouds 3 1000 87 10000 4.02 323 12:32 19.10.2020
2956 Clouds 2 997 79 10000 4.6 290 11:51 19.10.2020
2957 Clouds 2 997 89 10000 4.6 290 11:25 19.10.2020
2958 Clouds 2 997 89 10000 4.6 290 10:56 19.10.2020
2959 Clouds 2 997 89 10000 4.6 290 10:37 19.10.2020
2960 Clouds 2 997 89 10000 4.1 280 10:18 19.10.2020
2961 Clouds 1 996 89 10000 3.6 270 09:42 19.10.2020
2962 Clouds 1 996 88 10000 4.1 270 09:19 19.10.2020
2963 Rain 1 996 88 10000 3.6 260 08:47 19.10.2020
2964 Clouds 1 996 88 8000 3.1 240 08:22 19.10.2020
2965 Clouds 1 996 88 4500 3.1 230 07:37 19.10.2020
2966 Rain 1 996 86 6000 2.6 220 07:18 19.10.2020
2967 Rain 2 996 83 10000 3.1 250 06:18 19.10.2020
2968 Clouds 2 996 80 10000 4.6 270 03:47 19.10.2020
2969 Clouds 2 995 86 10000 3.6 270 02:23 19.10.2020
2970 Clouds 2 995 80 10000 5.7 270 00:46 19.10.2020
2971 Clouds 2 995 80 10000 5.7 270 00:19 19.10.2020
2972 Clouds 2 995 80 10000 4.1 260 23:43 18.10.2020
2973 Clouds 2 995 80 10000 4.1 260 23:21 18.10.2020
2974 Clouds 2 994 80 10000 4.6 270 22:46 18.10.2020
2975 Clouds 2 994 80 10000 5.7 280 22:21 18.10.2020
2976 Clouds 2 994 82 10000 3.6 270 21:50 18.10.2020
2977 Clouds 1 994 82 10000 3.6 270 21:30 18.10.2020
2978 Clouds 1 994 82 10000 3.6 260 20:56 18.10.2020
2979 Clouds 1 994 80 10000 3.6 260 20:38 18.10.2020
2980 Clouds 1 994 79 10000 3.1 250 20:19 18.10.2020
2981 Clouds 2 994 86 10000 2.6 260 19:41 18.10.2020
2982 Clouds 2 994 80 10000 3.1 260 19:19 18.10.2020
2983 Clouds 3 993 78 10000 3.6 260 18:46 18.10.2020
2984 Clouds 3 993 74 10000 3.6 260 18:24 18.10.2020
2985 Clouds 4 993 69 10000 4.6 260 17:43 18.10.2020
2986 Clouds 4 993 69 10000 4.6 260 17:24 18.10.2020
2987 Rain 5 993 69 10000 3.6 270 16:44 18.10.2020
2988 Clouds 5 993 69 10000 3.6 270 16:26 18.10.2020
2989 Clouds 5 993 60 10000 3.6 260 15:57 18.10.2020
2990 Clouds 6 993 65 10000 4.1 260 15:38 18.10.2020
2991 Clouds 6 993 63 10000 3.6 270 15:18 18.10.2020
2992 Clouds 6 993 63 10000 5.1 270 14:47 18.10.2020
2993 Clouds 6 993 70 10000 4.1 260 14:27 18.10.2020
2994 Clouds 6 993 70 10000 4.1 260 13:47 18.10.2020
2995 Clouds 6 993 70 10000 4.6 280 13:27 18.10.2020
2996 Clouds 5 993 80 10000 4.1 270 12:59 18.10.2020
2997 Clouds 5 993 80 10000 3.6 260 12:40 18.10.2020
2998 Clouds 5 993 86 10000 3.6 270 12:20 18.10.2020
2999 Clouds 5 994 86 10000 3.6 270 11:40 18.10.2020
3000 Clouds 5 994 86 10000 3.6 270 11:40 18.10.2020
3001 Clouds 4 994 86 10000 3.1 260 11:22 18.10.2020
3002 Clouds 4 994 93 10000 3.1 260 10:40 18.10.2020
3003 Clouds 4 994 93 10000 3.1 250 10:20 18.10.2020
3004 Clouds 4 994 93 10000 3.1 240 09:49 18.10.2020
3005 Clouds 4 994 93 10000 2.1 220 09:21 18.10.2020
3006 Clouds 4 994 93 10000 2.1 220 08:56 18.10.2020
3007 Clouds 4 994 93 10000 1 200 08:37 18.10.2020
3008 Clouds 4 994 93 10000 1.5 270 08:19 18.10.2020
3009 Rain 5 995 93 10000 4.6 330 06:51 18.10.2020
3010 Clouds 7 997 93 10000 3.1 210 03:59 18.10.2020
3011 Rain 8 999 93 10000 3.1 190 02:54 18.10.2020
3012 Clouds 8 1000 93 10000 4.1 180 01:36 18.10.2020
3013 Clouds 8 1002 93 10000 4.1 200 00:46 18.10.2020
3014 Clouds 8 1002 93 10000 3.1 190 00:24 18.10.2020
3015 Clouds 8 1003 87 10000 3.6 210 23:42 17.10.2020
3016 Clouds 8 1004 87 10000 5.1 200 23:21 17.10.2020
3017 Clouds 8 1004 87 10000 5.1 200 22:57 17.10.2020
3018 Clouds 8 1004 81 10000 6.2 210 22:39 17.10.2020
3019 Clouds 8 1005 81 10000 6.2 210 22:18 17.10.2020
3020 Clouds 8 1005 81 10000 4.1 210 21:43 17.10.2020
3021 Rain 8 1005 81 10000 4.1 210 21:21 17.10.2020
3022 Clouds 8 1006 75 10000 4.1 200 20:46 17.10.2020
3023 Clouds 8 1007 70 10000 4.6 210 20:21 17.10.2020
3024 Clouds 8 1007 70 10000 4.6 210 19:45 17.10.2020
3025 Clouds 8 1007 70 10000 4.6 210 19:24 17.10.2020
3026 Clouds 8 1008 70 10000 5.1 210 18:47 17.10.2020
3027 Clouds 8 1008 70 10000 5.1 210 18:28 17.10.2020
3028 Clouds 8 1009 70 10000 5.7 220 17:58 17.10.2020
3029 Clouds 8 1009 70 10000 5.1 230 17:39 17.10.2020
3030 Clouds 8 1009 70 10000 4.6 220 17:20 17.10.2020
3031 Clouds 8 1010 70 10000 4.6 220 16:47 17.10.2020
3032 Clouds 8 1010 75 10000 5.1 240 16:22 17.10.2020
3033 Clouds 9 1011 76 10000 5.1 230 15:43 17.10.2020
3034 Clouds 9 1011 76 10000 5.1 230 15:23 17.10.2020
3035 Clouds 8 1011 81 10000 4.6 220 14:59 17.10.2020
3036 Clouds 8 1012 81 10000 6.2 230 14:38 17.10.2020
3037 Clouds 8 1012 81 10000 6.2 230 14:19 17.10.2020
3038 Rain 9 1013 66 10000 5.1 220 13:44 17.10.2020
3039 Clouds 9 1013 66 10000 5.1 220 13:25 17.10.2020
3040 Clouds 9 1013 66 10000 6.2 230 12:57 17.10.2020
3041 Clouds 8 1014 75 10000 5.1 230 12:37 17.10.2020
3042 Clouds 9 1014 75 10000 5.7 230 12:18 17.10.2020
3043 Clouds 9 1014 81 10000 5.7 220 11:33 17.10.2020
3044 Clouds 6 1015 81 10000 4.1 220 10:50 17.10.2020
3045 Clouds 6 1015 81 10000 4.1 220 10:31 17.10.2020
3046 Clouds 3 1016 68 10000 2.1 220 09:50 17.10.2020
3047 Clouds 2 1016 72 10000 2.1 220 09:32 17.10.2020
3048 Clouds 2 1016 72 10000 1.5 220 08:54 17.10.2020
3049 Clear 0 1017 100 10000 2.1 220 08:24 17.10.2020
3050 Clear 0 1017 100 10000 1.5 220 07:44 17.10.2020
3051 Clear 0 1018 100 10000 1 230 06:56 17.10.2020
3052 Clear 0 1018 92 10000 1 0 05:31 17.10.2020
3053 Clouds 1 1020 85 10000 1 250 02:30 17.10.2020
3054 Clouds -1 1020 92 10000 1.5 260 01:56 17.10.2020
3055 Clear 0 1020 100 10000 1 270 00:47 17.10.2020
3056 Clear -1 1020 100 10000 0.5 0 23:54 16.10.2020
3057 Clear 0 1020 80 10000 1 0 23:23 16.10.2020
3058 Clouds 0 1020 92 10000 1.5 270 22:44 16.10.2020
3059 Clouds 0 1020 92 10000 1.5 270 22:24 16.10.2020
3060 Clouds -1 1020 100 10000 1.5 240 21:55 16.10.2020
3061 Clouds 0 1021 75 10000 1 250 21:36 16.10.2020
3062 Clouds 0 1020 75 10000 1.5 260 21:18 16.10.2020
3063 Clouds 1 1020 75 10000 2.1 250 20:40 16.10.2020
3064 Clouds 2 1020 93 10000 1 270 20:22 16.10.2020
3065 Clouds 1 1020 76 10000 2.6 300 19:41 16.10.2020
3066 Clouds 1 1020 74 10000 2.6 300 19:23 16.10.2020
3067 Clouds 2 1020 74 10000 2.1 280 18:51 16.10.2020
3068 Clouds 4 1020 86 10000 2.1 280 18:32 16.10.2020
3069 Clouds 5 1020 75 10000 2.1 300 17:46 16.10.2020
3070 Clouds 5 1020 75 10000 2.1 300 17:28 16.10.2020
3071 Clouds 6 1020 71 10000 4.6 320 16:49 16.10.2020
3072 Clouds 6 1020 71 10000 4.6 320 16:31 16.10.2020
3073 Clouds 6 1020 71 10000 4.1 330 15:46 16.10.2020
3074 Clouds 6 1020 70 10000 4.6 340 15:24 16.10.2020
3075 Clouds 6 1020 70 10000 5.7 320 14:43 16.10.2020
3076 Clouds 6 1020 69 10000 5.7 330 14:20 16.10.2020
3077 Clouds 6 1020 69 10000 5.7 330 13:57 16.10.2020
3078 Clouds 6 1020 67 10000 4.6 340 13:57 16.10.2020
3079 Clouds 6 1020 68 10000 4.6 340 13:38 16.10.2020
3080 Clouds 6 1019 68 10000 5.1 360 13:19 16.10.2020
3081 Clouds 6 1019 68 10000 4.6 360 12:41 16.10.2020
3082 Clouds 5 1019 71 10000 5.1 20 12:19 16.10.2020
3083 Clouds 5 1019 75 10000 4.6 340 11:43 16.10.2020
3084 Clouds 5 1019 80 10000 4.1 340 11:22 16.10.2020
3085 Clouds 4 1019 80 10000 4.1 340 10:52 16.10.2020
3086 Clouds 4 1019 80 10000 4.1 340 10:30 16.10.2020
3087 Clouds 3 1019 93 10000 2.6 330 09:44 16.10.2020
3088 Clouds 2 1018 82 10000 2.6 320 09:25 16.10.2020
3089 Clouds 2 1018 82 10000 2.6 320 08:59 16.10.2020
3090 Clouds 1 1018 82 10000 2.6 320 08:36 16.10.2020
3091 Clouds 1 1017 85 10000 3.6 320 07:52 16.10.2020
3092 Clouds 1 1017 84 10000 3.6 320 07:31 16.10.2020
3093 Clouds 1 1017 84 10000 2.6 310 06:40 16.10.2020
3094 Clouds 3 1017 83 10000 2.6 310 04:37 16.10.2020
3095 Clouds 3 1017 86 10000 2.1 320 03:48 16.10.2020
3096 Clouds 4 1016 86 10000 3.1 310 01:26 16.10.2020
3097 Clouds 4 1016 86 10000 2.6 310 00:28 16.10.2020
3098 Clouds 4 1016 86 10000 2.6 310 23:41 15.10.2020
3099 Clouds 4 1016 86 10000 2.6 320 23:20 15.10.2020
3100 Clouds 4 1016 86 10000 2.6 320 22:51 15.10.2020
3101 Clouds 4 1016 86 10000 2.6 330 22:28 15.10.2020
3102 Clouds 4 1016 86 10000 2.6 320 21:56 15.10.2020
3103 Clouds 4 1016 86 10000 2.6 310 21:38 15.10.2020
3104 Clouds 4 1016 86 10000 2.6 310 21:19 15.10.2020
3105 Clouds 4 1016 86 10000 3.6 310 20:46 15.10.2020
3106 Clouds 4 1016 86 10000 4.6 310 20:21 15.10.2020
3107 Clouds 4 1016 93 10000 4.1 290 19:46 15.10.2020
3108 Clouds 4 1016 93 10000 4.1 290 19:23 15.10.2020
3109 Clouds 4 1016 93 10000 2.6 310 18:45 15.10.2020
3110 Clouds 4 1016 93 10000 2.6 310 18:26 15.10.2020
3111 Clouds 5 1017 86 10000 2.6 340 17:58 15.10.2020
3112 Clouds 5 1016 80 10000 3.6 340 17:39 15.10.2020
3113 Clouds 5 1016 80 10000 3.6 340 17:20 15.10.2020
3114 Clouds 5 1016 80 10000 4.6 330 17:20 15.10.2020
3115 Clouds 6 1016 70 10000 5.7 330 16:44 15.10.2020
3116 Clouds 6 1016 75 10000 5.7 340 16:21 15.10.2020
3117 Clouds 7 1016 65 10000 5.1 350 15:44 15.10.2020
3118 Clouds 7 1016 65 10000 5.1 350 15:25 15.10.2020
3119 Clouds 7 1017 65 10000 4.6 340 14:50 15.10.2020
3120 Clouds 7 1017 65 10000 5.7 350 14:24 15.10.2020
3121 Clouds 7 1017 65 10000 5.7 350 13:57 15.10.2020
3122 Clouds 7 1017 65 10000 5.7 350 13:57 15.10.2020
3123 Clouds 6 1017 70 10000 5.7 340 13:38 15.10.2020
3124 Clouds 6 1017 66 10000 5.1 330 13:18 15.10.2020
3125 Clouds 6 1017 70 10000 4.1 360 12:40 15.10.2020
3126 Clouds 5 1017 75 10000 4.6 10 12:21 15.10.2020
3127 Clouds 5 1017 67 10000 5.1 350 11:43 15.10.2020
3128 Clouds 5 1017 75 10000 5.1 350 11:20 15.10.2020
3129 Clouds 4 1018 86 10000 4.1 360 10:46 15.10.2020
3130 Clouds 4 1018 86 10000 4.1 350 10:27 15.10.2020
3131 Clouds 3 1018 93 10000 4.1 350 09:41 15.10.2020
3132 Clouds 3 1018 93 10000 4.1 350 09:21 15.10.2020
3133 Clouds 3 1018 93 10000 4.1 350 08:54 15.10.2020
3134 Clouds 3 1018 93 10000 4.6 350 08:33 15.10.2020
3135 Clouds 4 1018 93 10000 3.1 340 07:41 15.10.2020
3136 Clouds 4 1018 93 10000 4.6 350 06:33 15.10.2020
3137 Clouds 4 1019 86 10000 5.7 360 04:19 15.10.2020
3138 Clouds 5 1020 87 10000 3.6 360 01:46 15.10.2020
3139 Clouds 5 1020 87 10000 4.1 10 01:20 15.10.2020
3140 Clouds 6 1020 87 10000 4.6 360 00:22 15.10.2020
3141 Clouds 6 1021 87 10000 4.6 10 23:43 14.10.2020
3142 Clouds 6 1021 87 10000 4.6 360 23:22 14.10.2020
3143 Clouds 6 1021 87 10000 4.6 360 22:59 14.10.2020
3144 Clouds 6 1021 87 10000 5.1 10 22:40 14.10.2020
3145 Clouds 6 1021 87 10000 4.6 360 22:21 14.10.2020
3146 Clouds 6 1021 87 10000 3.6 360 21:44 14.10.2020
3147 Clouds 6 1021 87 10000 3.6 360 21:23 14.10.2020
3148 Clouds 7 1021 87 10000 5.1 10 20:44 14.10.2020
3149 Clouds 7 1021 87 10000 5.1 360 20:20 14.10.2020
3150 Clouds 7 1022 87 10000 5.1 360 19:51 14.10.2020
3151 Clouds 7 1022 87 10000 5.1 360 19:27 14.10.2020
3152 Clouds 7 1022 87 10000 4.1 10 18:55 14.10.2020
3153 Clouds 7 1022 87 10000 4.1 10 18:37 14.10.2020
3154 Clouds 7 1022 81 10000 3.6 10 18:18 14.10.2020
3155 Clouds 7 1022 81 10000 3.6 10 18:18 14.10.2020
3156 Clouds 8 1022 81 10000 4.1 10 17:42 14.10.2020
3157 Clouds 8 1022 81 10000 4.6 10 17:20 14.10.2020
3158 Clouds 9 1022 76 10000 5.7 20 16:43 14.10.2020
3159 Clouds 9 1022 76 10000 6.2 10 16:22 14.10.2020
3160 Clouds 9 1022 76 10000 5.1 10 15:46 14.10.2020
3161 Clouds 9 1022 76 10000 5.1 10 15:27 14.10.2020
3162 Clouds 9 1023 81 10000 6.2 10 14:46 14.10.2020
3163 Clouds 9 1023 71 10000 5.7 10 14:21 14.10.2020
3164 Clouds 9 1023 81 10000 6.2 40 13:50 14.10.2020
3165 Clouds 9 1023 81 10000 6.2 40 13:27 14.10.2020
3166 Clouds 8 1023 76 10000 5.1 50 12:56 14.10.2020
3167 Clouds 8 1023 81 10000 4.6 40 12:37 14.10.2020
3168 Clouds 8 1023 87 10000 4.1 40 12:18 14.10.2020
3169 Clouds 7 1023 93 10000 4.6 40 11:45 14.10.2020
3170 Clouds 7 1023 93 10000 4.6 20 11:26 14.10.2020
3171 Clouds 6 1023 93 10000 4.6 20 10:55 14.10.2020
3172 Clouds 6 1023 93 10000 4.6 360 10:29 14.10.2020
3173 Clouds 6 1023 93 10000 4.1 10 09:53 14.10.2020
3174 Clouds 6 1023 93 10000 4.1 360 09:34 14.10.2020
3175 Clouds 5 1023 100 10000 3.1 360 08:42 14.10.2020
3176 Clouds 5 1022 100 7000 4.1 360 08:24 14.10.2020
3177 Clouds 4 1022 100 10000 3.6 360 07:23 14.10.2020
3178 Clouds 4 1022 100 10000 3.6 360 06:59 14.10.2020
3179 Clouds 4 1022 93 10000 3.1 360 06:41 14.10.2020
3180 Clouds 4 1022 93 10000 3.1 360 06:23 14.10.2020
3181 Clouds 4 1021 93 10000 3.6 340 02:34 14.10.2020
3182 Clouds 3 1020 100 10000 3.6 340 01:58 14.10.2020
3183 Clear 3 1020 100 10000 2.6 330 00:50 14.10.2020
3184 Clear 4 1020 100 10000 2.6 330 00:25 14.10.2020
3185 Clear 4 1020 100 10000 2.6 330 23:42 13.10.2020
3186 Clear 4 1020 100 10000 2.6 330 23:23 13.10.2020
3187 Clear 5 1019 100 10000 4.1 340 22:41 13.10.2020
3188 Clear 5 1019 93 10000 3.1 330 22:23 13.10.2020
3189 Clear 5 1018 100 10000 3.1 330 21:43 13.10.2020
3190 Clouds 5 1018 100 10000 3.1 310 21:22 13.10.2020
3191 Clouds 6 1018 100 10000 3.1 310 20:58 13.10.2020
3192 Clouds 6 1017 100 10000 2.6 330 20:38 13.10.2020
3193 Clouds 6 1017 100 10000 2.1 300 20:20 13.10.2020
3194 Clouds 7 1017 93 10000 1.5 310 19:43 13.10.2020
3195 Clouds 7 1017 93 10000 2.1 310 19:24 13.10.2020
3196 Clouds 7 1017 93 10000 2.1 310 18:58 13.10.2020
3197 Clouds 7 1016 93 10000 1.5 350 18:40 13.10.2020
3198 Clouds 8 1016 87 10000 2.6 340 18:20 13.10.2020
3199 Clouds 9 1016 81 10000 4.1 310 17:46 13.10.2020
3200 Clouds 9 1016 81 10000 4.1 310 17:27 13.10.2020
3201 Clouds 10 1015 62 10000 3.1 240 16:42 13.10.2020
3202 Clouds 10 1015 61 10000 1.5 230 16:20 13.10.2020
3203 Clouds 10 1014 57 10000 2.6 220 15:46 13.10.2020
3204 Clouds 11 1014 66 10000 3.1 230 15:23 13.10.2020
3205 Clouds 10 1014 71 10000 2.6 250 14:51 13.10.2020
3206 Clouds 10 1014 71 10000 2.6 250 14:28 13.10.2020
3207 Clouds 11 1014 62 10000 2.1 260 13:50 13.10.2020
3208 Clouds 10 1014 66 10000 2.6 240 13:23 13.10.2020
3209 Clouds 10 1014 71 10000 2.1 230 12:53 13.10.2020
3210 Clouds 10 1014 71 10000 2.1 230 12:34 13.10.2020
3211 Clouds 10 1013 66 10000 2.6 260 11:59 13.10.2020
3212 Clouds 10 1013 76 10000 1.5 240 11:40 13.10.2020
3213 Clouds 10 1013 76 10000 1 0 11:20 13.10.2020
3214 Clouds 10 1013 76 10000 1 0 10:55 13.10.2020
3215 Clouds 10 1013 81 10000 1.5 220 10:37 13.10.2020
3216 Clouds 9 1013 81 10000 1.5 210 10:18 13.10.2020
3217 Clouds 8 1012 100 10000 2.35 258 09:41 13.10.2020
3218 Clouds 7 1012 100 10000 0.5 0 09:21 13.10.2020
3219 Clouds 7 1012 100 10000 0.5 0 08:51 13.10.2020
3220 Clouds 7 1012 100 10000 2.35 263 08:27 13.10.2020
3221 Clouds 6 1012 100 10000 2.31 260 07:55 13.10.2020
3222 Clouds 6 1012 100 10000 1.5 110 07:26 13.10.2020
3223 Clouds 6 1011 100 10000 0.5 50 06:34 13.10.2020
3224 Clouds 6 1011 93 10000 2.2 255 05:22 13.10.2020
3225 Clouds 7 1012 93 10000 2.1 220 03:53 13.10.2020
3226 Clouds 7 1011 100 10000 2.1 180 02:51 13.10.2020
3227 Rain 8 1011 87 10000 2.6 200 00:48 13.10.2020
3228 Clouds 8 1011 87 10000 3.1 200 00:25 13.10.2020
3229 Rain 8 1011 87 10000 3.1 190 23:43 12.10.2020
3230 Rain 8 1011 100 10000 3.1 170 23:24 12.10.2020
3231 Rain 8 1011 93 10000 2.6 180 22:49 12.10.2020
3232 Clouds 8 1011 93 10000 2.6 180 22:30 12.10.2020
3233 Rain 8 1011 93 10000 3.6 190 21:48 12.10.2020
3234 Rain 9 1011 93 10000 3.6 190 21:24 12.10.2020
3235 Rain 9 1011 93 10000 2.6 170 20:47 12.10.2020
3236 Rain 9 1011 93 10000 2.6 170 20:28 12.10.2020
3237 Rain 9 1011 93 10000 2.1 160 19:59 12.10.2020
3238 Clouds 9 1011 93 10000 3.1 170 19:41 12.10.2020
3239 Rain 9 1011 87 10000 3.6 170 19:20 12.10.2020
3240 Rain 9 1011 81 10000 4.1 180 18:47 12.10.2020
3241 Rain 9 1011 81 10000 4.6 200 18:22 12.10.2020
3242 Rain 9 1011 71 10000 5.7 190 17:45 12.10.2020
3243 Rain 10 1011 76 10000 6.2 190 17:21 12.10.2020
3244 Clouds 11 1011 76 10000 6.7 190 16:44 12.10.2020
3245 Rain 11 1011 81 10000 6.2 190 16:25 12.10.2020
3246 Clouds 11 1011 81 10000 6.2 190 15:56 12.10.2020
3247 Rain 11 1011 76 10000 5.7 190 15:37 12.10.2020
3248 Clouds 12 1011 76 10000 6.2 190 15:18 12.10.2020
3249 Clouds 12 1011 76 10000 6.2 180 14:42 12.10.2020
3250 Rain 12 1011 71 10000 6.2 180 14:19 12.10.2020
3251 Clouds 12 1011 71 10000 5.7 180 13:24 12.10.2020
3252 Clouds 12 1011 71 10000 5.1 180 12:57 12.10.2020
3253 Clouds 11 1011 76 10000 5.1 180 12:39 12.10.2020
3254 Clouds 12 1012 76 10000 6.2 190 12:18 12.10.2020
3255 Clouds 12 1012 76 10000 6.2 190 12:18 12.10.2020
3256 Clouds 11 1012 76 10000 5.1 180 11:39 12.10.2020
3257 Clouds 11 1012 87 10000 3.6 180 11:18 12.10.2020
3258 Clouds 11 1012 87 10000 3.6 180 11:18 12.10.2020
3259 Clouds 11 1012 87 10000 3.6 180 11:18 12.10.2020
3260 Clouds 11 1012 93 10000 3.1 170 10:44 12.10.2020
3261 Clouds 10 1012 93 10000 2.6 150 10:20 12.10.2020
3262 Clouds 9 1012 93 10000 3.1 140 09:45 12.10.2020
3263 Clouds 9 1012 93 10000 2.1 130 09:23 12.10.2020
3264 Clouds 8 1012 100 10000 1.5 90 08:35 12.10.2020
3265 Clouds 7 1013 100 10000 2.1 90 07:50 12.10.2020
3266 Clouds 7 1013 100 10000 2.1 90 07:31 12.10.2020
3267 Clouds 7 1013 100 10000 1.5 90 06:22 12.10.2020
3268 Clouds 6 1015 100 10000 0.5 40 02:45 12.10.2020
3269 Clouds 6 1015 100 10000 0.5 0 00:30 12.10.2020
3270 Clouds 6 1015 100 10000 0.49 224 23:44 11.10.2020
3271 Clouds 6 1015 100 10000 0.49 224 23:44 11.10.2020
3272 Clouds 7 1016 93 10000 0.5 0 23:24 11.10.2020
3273 Clouds 7 1015 93 10000 0.66 261 22:44 11.10.2020
3274 Clouds 7 1015 93 10000 1.54 274 22:22 11.10.2020
3275 Clouds 7 1016 100 10000 1 230 21:38 11.10.2020
3276 Clouds 7 1016 100 10000 1 230 21:20 11.10.2020
3277 Clouds 8 1015 93 10000 2.03 271 20:42 11.10.2020
3278 Clouds 8 1016 100 10000 2.55 272 20:20 11.10.2020
3279 Clouds 8 1016 93 10000 2.6 210 19:46 11.10.2020
3280 Clouds 9 1016 87 10000 2.6 210 19:27 11.10.2020
3281 Clouds 9 1015 93 10000 1.5 220 18:54 11.10.2020
3282 Clouds 9 1015 93 10000 1.5 220 18:35 11.10.2020
3283 Clouds 10 1015 76 10000 1.5 220 17:59 11.10.2020
3284 Clouds 10 1015 76 10000 2.1 230 17:39 11.10.2020
3285 Clouds 11 1015 76 10000 2.6 220 17:20 11.10.2020
3286 Clouds 12 1015 66 10000 3.1 250 16:46 11.10.2020
3287 Clouds 12 1015 66 10000 4.1 240 16:27 11.10.2020
3288 Clouds 12 1015 76 10000 3.1 230 15:51 11.10.2020
3289 Clouds 13 1015 76 10000 3.1 230 15:32 11.10.2020
3290 Clouds 13 1015 76 10000 3.1 230 14:46 11.10.2020
3291 Clouds 13 1014 82 10000 3.6 240 14:28 11.10.2020
3292 Clouds 12 1014 93 10000 2.6 220 13:46 11.10.2020
3293 Clouds 12 1014 87 10000 2.6 200 13:26 11.10.2020
3294 Clouds 12 1014 87 10000 2.6 200 12:57 11.10.2020
3295 Clouds 11 1014 93 10000 3.6 200 12:37 11.10.2020
3296 Clouds 11 1014 93 10000 2.6 190 12:18 11.10.2020
3297 Clouds 11 1014 93 10000 4.1 190 11:43 11.10.2020
3298 Clouds 11 1014 100 10000 2.6 180 11:21 11.10.2020
3299 Clouds 11 1014 93 10000 2.6 190 10:44 11.10.2020
3300 Rain 11 1014 100 10000 2.6 190 10:25 11.10.2020
3301 Rain 11 1014 100 10000 2.1 190 09:44 11.10.2020
3302 Rain 11 1014 100 10000 2.1 190 09:24 11.10.2020
3303 Rain 10 1014 93 10000 2.6 200 08:50 11.10.2020
3304 Rain 10 1013 93 10000 2.6 180 08:25 11.10.2020
3305 Rain 10 1013 100 7000 3.1 140 07:45 11.10.2020
3306 Rain 10 1013 100 10000 3.6 110 05:50 11.10.2020
3307 Clouds 10 1015 93 10000 2.6 100 02:50 11.10.2020
3308 Clouds 10 1015 93 10000 3.6 90 02:24 11.10.2020
3309 Clouds 10 1015 93 10000 2.1 70 00:59 11.10.2020
3310 Clouds 10 1015 93 10000 2.6 80 00:31 11.10.2020
3311 Clouds 10 1016 93 10000 3.1 130 23:42 10.10.2020
3312 Clouds 10 1016 93 10000 2.6 120 23:21 10.10.2020
3313 Clouds 10 1016 93 10000 3.6 140 22:40 10.10.2020
3314 Clouds 10 1016 93 10000 4.1 160 22:20 10.10.2020
3315 Clouds 10 1016 93 10000 3.6 160 21:48 10.10.2020
3316 Clouds 10 1016 93 10000 3.6 160 21:29 10.10.2020
3317 Rain 10 1016 93 10000 3.6 160 20:55 10.10.2020
3318 Clouds 10 1016 87 10000 3.1 130 20:37 10.10.2020
3319 Clouds 10 1016 87 10000 3.1 130 20:37 10.10.2020
3320 Rain 10 1016 87 10000 3.1 140 20:18 10.10.2020
3321 Rain 10 1016 87 10000 2.6 130 19:42 10.10.2020
3322 Clouds 10 1016 87 10000 2.6 150 19:22 10.10.2020
3323 Clouds 10 1016 87 10000 2.6 150 18:47 10.10.2020
3324 Clouds 10 1016 81 10000 3.1 170 18:24 10.10.2020
3325 Clouds 11 1016 76 10000 3.6 190 17:44 10.10.2020
3326 Clouds 12 1016 76 10000 4.6 190 17:25 10.10.2020
3327 Clouds 12 1016 76 10000 4.6 190 16:50 10.10.2020
3328 Clouds 12 1016 76 10000 5.1 190 16:26 10.10.2020
3329 Clouds 13 1016 71 10000 5.1 200 15:44 10.10.2020
3330 Clouds 13 1016 71 10000 5.1 200 15:21 10.10.2020
3331 Clouds 13 1016 71 10000 3.6 200 14:58 10.10.2020
3332 Clouds 13 1016 71 10000 4.6 200 14:35 10.10.2020
3333 Clouds 13 1016 71 10000 4.6 210 13:59 10.10.2020
3334 Clouds 13 1016 71 10000 4.1 220 13:40 10.10.2020
3335 Clouds 13 1016 71 10000 4.6 230 13:21 10.10.2020
3336 Clouds 13 1016 71 10000 4.6 230 12:53 10.10.2020
3337 Clouds 13 1016 66 10000 5.7 220 12:34 10.10.2020
3338 Clouds 13 1015 71 10000 5.7 220 11:50 10.10.2020
3339 Clouds 12 1015 76 10000 5.1 220 11:24 10.10.2020
3340 Clouds 12 1015 76 10000 5.1 220 10:57 10.10.2020
3341 Clouds 12 1015 76 10000 4.1 220 10:38 10.10.2020
3342 Clouds 12 1015 81 10000 3.6 230 10:20 10.10.2020
3343 Clouds 11 1014 87 10000 3.6 220 09:43 10.10.2020
3344 Clouds 10 1014 87 10000 3.1 220 09:19 10.10.2020
3345 Clouds 9 1014 87 10000 3.6 200 08:40 10.10.2020
3346 Clouds 9 1013 87 10000 2.1 220 08:22 10.10.2020
3347 Clouds 9 1013 93 10000 3.1 210 07:40 10.10.2020
3348 Clouds 9 1012 81 10000 4.1 200 06:18 10.10.2020
3349 Clouds 10 1011 87 10000 4.1 200 02:29 10.10.2020
3350 Clouds 10 1011 87 10000 4.1 190 00:47 10.10.2020
3351 Clouds 10 1011 87 10000 4.1 190 00:24 10.10.2020
3352 Clouds 9 1010 93 10000 3.6 200 23:42 09.10.2020
3353 Clouds 9 1010 93 10000 3.6 210 23:22 09.10.2020
3354 Clouds 9 1010 93 10000 4.1 210 22:44 09.10.2020
3355 Clouds 9 1010 93 10000 3.6 210 22:23 09.10.2020
3356 Clouds 9 1009 93 10000 3.1 210 21:44 09.10.2020
3357 Clouds 10 1009 93 10000 3.6 210 21:21 09.10.2020
3358 Clouds 10 1009 93 10000 4.1 210 20:50 09.10.2020
3359 Clouds 10 1009 93 10000 4.1 210 20:29 09.10.2020
3360 Clouds 11 1009 93 10000 4.1 210 19:56 09.10.2020
3361 Clouds 11 1008 93 10000 5.7 200 19:37 09.10.2020
3362 Clouds 12 1008 93 10000 6.2 200 19:18 09.10.2020
3363 Clouds 12 1008 93 10000 8.7 190 18:47 09.10.2020
3364 Clouds 12 1007 93 4000 9.3 190 18:21 09.10.2020
3365 Clouds 12 1007 93 4000 9.3 190 17:52 09.10.2020
3366 Clouds 12 1007 93 4000 7.2 170 17:18 09.10.2020
3367 Rain 12 1007 87 3000 5.7 130 16:42 09.10.2020
3368 Rain 12 1008 100 10000 6.2 130 16:24 09.10.2020
3369 Rain 12 1008 93 6000 5.7 130 15:45 09.10.2020
3370 Clouds 12 1008 93 6000 5.7 130 15:25 09.10.2020
3371 Rain 12 1008 87 10000 7.2 140 14:42 09.10.2020
3372 Rain 12 1009 87 10000 5.7 150 14:20 09.10.2020
3373 Rain 12 1009 81 10000 5.7 150 13:42 09.10.2020
3374 Rain 12 1009 82 10000 6.7 160 13:22 09.10.2020
3375 Clouds 12 1010 87 10000 5.7 160 12:40 09.10.2020
3376 Clouds 12 1010 87 10000 5.1 170 12:20 09.10.2020
3377 Clouds 12 1010 87 10000 5.1 170 11:56 09.10.2020
3378 Clouds 12 1010 87 10000 5.1 170 11:38 09.10.2020
3379 Clouds 12 1010 87 10000 5.7 170 11:19 09.10.2020
3380 Clouds 12 1010 87 10000 5.7 170 10:33 09.10.2020
3381 Clouds 12 1010 87 10000 5.1 170 09:57 09.10.2020
3382 Clouds 12 1010 87 10000 4.6 170 09:23 09.10.2020
3383 Clouds 12 1010 87 10000 4.6 170 08:57 09.10.2020
3384 Clouds 12 1010 87 10000 5.1 160 08:28 09.10.2020
3385 Clouds 11 1010 87 10000 5.1 180 07:57 09.10.2020
3386 Clouds 11 1010 93 10000 5.1 170 07:22 09.10.2020
3387 Clouds 11 1010 93 10000 5.1 170 06:49 09.10.2020
3388 Clouds 12 1010 93 10000 5.1 180 06:24 09.10.2020
3389 Clouds 12 1011 93 10000 4.6 160 04:29 09.10.2020
3390 Clouds 12 1012 87 10000 4.6 180 02:18 09.10.2020
3391 Clouds 12 1012 87 10000 4.1 180 00:52 09.10.2020
3392 Clouds 12 1012 87 10000 4.1 170 00:29 09.10.2020
3393 Clouds 12 1013 87 10000 4.1 180 23:44 08.10.2020
3394 Clouds 12 1013 87 10000 4.1 180 23:24 08.10.2020
3395 Clouds 12 1013 87 10000 5.7 190 22:44 08.10.2020
3396 Clouds 12 1013 87 10000 6.2 190 22:26 08.10.2020
3397 Clouds 12 1013 87 10000 6.2 190 21:55 08.10.2020
3398 Clouds 12 1012 93 10000 6.2 180 21:31 08.10.2020
3399 Clouds 12 1012 93 10000 6.2 180 20:59 08.10.2020
3400 Clouds 12 1012 87 10000 6.7 180 20:41 08.10.2020
3401 Clouds 12 1012 87 10000 3.6 180 20:22 08.10.2020
3402 Clouds 12 1012 87 10000 3.6 180 19:54 08.10.2020
3403 Clouds 12 1012 100 10000 2.6 150 19:34 08.10.2020
3404 Rain 12 1012 93 10000 3.1 170 18:49 08.10.2020
3405 Clouds 13 1012 93 10000 3.1 190 18:22 08.10.2020
3406 Clouds 13 1012 93 10000 3.1 190 17:58 08.10.2020
3407 Rain 14 1012 82 10000 4.1 150 17:23 08.10.2020
3408 Rain 14 1012 82 10000 4.1 150 16:57 08.10.2020
3409 Clouds 13 1012 82 10000 5.1 170 16:39 08.10.2020
3410 Clouds 14 1012 77 10000 5.1 180 16:21 08.10.2020
3411 Clouds 14 1012 82 10000 4.6 170 15:44 08.10.2020
3412 Clouds 14 1012 82 10000 4.6 170 15:22 08.10.2020
3413 Clouds 14 1012 87 10000 5.1 170 14:46 08.10.2020
3414 Clouds 14 1012 87 10000 5.1 170 14:46 08.10.2020
3415 Clouds 14 1013 93 10000 4.1 160 14:19 08.10.2020
3416 Clouds 13 1013 87 10000 4.1 180 13:46 08.10.2020
3417 Clouds 13 1013 93 10000 4.1 170 13:23 08.10.2020
3418 Clouds 13 1013 93 10000 4.1 170 12:58 08.10.2020
3419 Clouds 13 1013 87 10000 4.1 160 12:39 08.10.2020
3420 Clouds 13 1013 93 10000 4.1 180 12:19 08.10.2020
3421 Clouds 12 1012 93 10000 6.2 190 11:50 08.10.2020
3422 Clouds 12 1012 93 10000 6.2 190 11:26 08.10.2020
3423 Clouds 12 1012 93 10000 3.1 190 10:48 08.10.2020
3424 Clouds 12 1012 93 10000 3.1 190 10:29 08.10.2020
3425 Clouds 13 1012 93 10000 4.1 160 09:52 08.10.2020
3426 Clouds 12 1012 100 10000 4.6 150 09:34 08.10.2020
3427 Clouds 12 1012 93 8000 3.1 170 08:48 08.10.2020
3428 Clouds 12 1012 93 8000 3.1 170 08:25 08.10.2020
3429 Clouds 12 1011 100 8000 3.1 160 07:55 08.10.2020
3430 Clouds 12 1011 100 8000 3.1 160 07:37 08.10.2020
3431 Rain 12 1011 100 8000 3.6 160 07:18 08.10.2020
3432 Rain 12 1011 100 5000 3.1 150 05:24 08.10.2020
3433 Rain 12 1011 93 10000 3.6 150 04:37 08.10.2020
3434 Clouds 12 1011 100 10000 3.6 140 02:51 08.10.2020
3435 Rain 13 1011 87 10000 4.1 130 00:32 08.10.2020
3436 Clouds 13 1011 87 10000 3.6 120 23:40 07.10.2020
3437 Clouds 12 1011 87 10000 3.1 110 23:21 07.10.2020
3438 Clouds 12 1011 93 10000 3.1 110 22:50 07.10.2020
3439 Clouds 12 1011 93 10000 3.1 110 22:29 07.10.2020
3440 Clouds 12 1011 93 10000 2.6 110 21:57 07.10.2020
3441 Clouds 12 1011 93 10000 3.1 110 21:39 07.10.2020
3442 Clouds 12 1011 93 10000 2.6 110 21:20 07.10.2020
3443 Rain 12 1011 87 10000 2.6 100 20:42 07.10.2020
3444 Clouds 13 1011 87 10000 2.1 100 20:23 07.10.2020
3445 Clouds 13 1011 87 10000 1.5 110 19:46 07.10.2020
3446 Clouds 13 1011 87 10000 2.6 100 19:20 07.10.2020
3447 Clouds 13 1011 87 10000 2.1 110 18:45 07.10.2020
3448 Clouds 13 1011 87 10000 2.1 100 18:21 07.10.2020
3449 Clouds 13 1011 87 10000 2.1 100 17:59 07.10.2020
3450 Clouds 13 1011 87 10000 2.1 110 17:40 07.10.2020
3451 Clouds 13 1011 87 10000 2.1 110 17:22 07.10.2020
3452 Clouds 13 1011 82 10000 3.6 140 16:46 07.10.2020
3453 Clouds 14 1011 82 10000 3.6 140 16:20 07.10.2020
3454 Clouds 14 1011 87 10000 4.6 140 15:41 07.10.2020
3455 Clouds 13 1011 82 10000 6.2 140 15:20 07.10.2020
3456 Clouds 13 1010 82 10000 5.1 120 14:50 07.10.2020
3457 Clouds 13 1010 82 10000 5.1 120 14:31 07.10.2020
3458 Clouds 13 1010 82 10000 4.6 110 13:55 07.10.2020
3459 Clouds 13 1010 82 10000 3.6 130 13:37 07.10.2020
3460 Clouds 14 1010 82 10000 4.1 130 13:18 07.10.2020
3461 Clouds 14 1010 82 10000 4.1 130 13:18 07.10.2020
3462 Clouds 13 1010 87 10000 4.6 130 12:45 07.10.2020
3463 Clouds 13 1010 87 10000 4.6 120 12:22 07.10.2020
3464 Clouds 13 1010 87 10000 4.1 130 11:45 07.10.2020
3465 Clouds 12 1010 82 10000 5.1 130 11:25 07.10.2020
3466 Clouds 12 1010 82 10000 4.6 140 10:40 07.10.2020
3467 Clouds 12 1010 87 10000 4.1 140 09:59 07.10.2020
3468 Clouds 12 1010 93 10000 4.1 140 09:32 07.10.2020
3469 Clouds 11 1009 93 10000 3.1 110 08:52 07.10.2020
3470 Clouds 11 1009 93 10000 3.1 110 08:30 07.10.2020
3471 Clouds 11 1009 93 10000 3.1 110 08:30 07.10.2020
3472 Clouds 10 1009 93 10000 3.6 120 07:42 07.10.2020
3473 Clouds 11 1009 93 10000 3.1 110 06:38 07.10.2020
3474 Clear 12 1008 87 10000 4.1 140 05:39 07.10.2020
3475 Clear 12 1008 87 10000 4.6 140 04:34 07.10.2020
3476 Clouds 12 1008 87 10000 4.6 160 02:25 07.10.2020
3477 Clouds 12 1007 93 10000 4.6 160 00:53 07.10.2020
3478 Clouds 12 1007 93 10000 5.1 160 23:53 06.10.2020
3479 Clouds 12 1007 93 10000 5.1 160 23:23 06.10.2020
3480 Clouds 13 1007 87 10000 5.7 170 22:45 06.10.2020
3481 Clouds 12 1007 87 10000 5.7 170 22:45 06.10.2020
3482 Clouds 13 1007 87 10000 5.1 170 22:26 06.10.2020
3483 Clouds 14 1007 87 10000 5.7 170 21:46 06.10.2020
3484 Clouds 14 1007 87 10000 5.7 170 21:27 06.10.2020
3485 Clouds 13 1006 100 10000 5.7 170 20:49 06.10.2020
3486 Clouds 13 1006 100 10000 5.7 170 20:27 06.10.2020
3487 Clouds 13 1006 100 10000 5.7 160 19:59 06.10.2020
3488 Clouds 13 1006 100 10000 5.7 160 19:39 06.10.2020
3489 Clouds 13 1006 100 8000 6.2 160 19:19 06.10.2020
3490 Clouds 14 1006 93 10000 6.2 160 18:45 06.10.2020
3491 Clouds 13 1006 93 10000 6.2 160 18:23 06.10.2020
3492 Rain 14 1005 82 10000 6.2 150 17:48 06.10.2020
3493 Clouds 15 1005 82 10000 6.2 140 17:22 06.10.2020
3494 Rain 15 1005 82 10000 6.7 150 16:45 06.10.2020
3495 Rain 15 1005 82 10000 5.7 140 16:23 06.10.2020
3496 Clouds 15 1005 82 10000 5.7 140 15:55 06.10.2020
3497 Clouds 15 1005 82 10000 5.7 140 15:36 06.10.2020
3498 Clouds 15 1005 82 10000 6.7 140 15:18 06.10.2020
3499 Clouds 15 1005 82 10000 7.7 140 14:39 06.10.2020
3500 Clouds 15 1005 77 10000 6.7 130 14:19 06.10.2020
3501 Clouds 15 1005 77 10000 7.7 130 13:46 06.10.2020
3502 Clouds 15 1005 77 10000 7.7 130 13:27 06.10.2020
3503 Clouds 15 1005 77 10000 7.7 130 12:49 06.10.2020
3504 Clouds 14 1005 77 10000 6.2 120 12:29 06.10.2020
3505 Clouds 14 1005 82 10000 6.2 110 11:47 06.10.2020
3506 Clouds 14 1005 82 10000 6.2 110 11:27 06.10.2020
3507 Clouds 13 1005 82 10000 6.7 110 10:48 06.10.2020
3508 Clouds 13 1005 82 10000 6.7 110 10:30 06.10.2020
3509 Clouds 13 1005 87 10000 5.7 100 09:49 06.10.2020
3510 Clouds 13 1005 87 10000 6.2 80 09:22 06.10.2020
3511 Clouds 13 1006 93 10000 5.7 90 08:54 06.10.2020
3512 Clouds 13 1006 93 10000 5.7 90 08:35 06.10.2020
3513 Clouds 13 1006 93 10000 5.1 100 07:40 06.10.2020
3514 Clouds 13 1006 93 10000 5.1 100 07:40 06.10.2020
3515 Clouds 13 1007 93 10000 6.2 100 07:22 06.10.2020
3516 Clouds 13 1007 100 10000 6.2 100 06:25 06.10.2020
3517 Clouds 14 1010 93 4000 3.6 80 02:41 06.10.2020
3518 Rain 14 1012 100 6000 3.1 80 00:46 06.10.2020
3519 Rain 13 1012 100 6000 3.1 80 00:26 06.10.2020
3520 Clouds 13 1012 93 6000 3.1 60 23:59 05.10.2020
3521 Clouds 13 1012 93 6000 3.1 60 23:59 05.10.2020
3522 Clouds 13 1013 100 7000 3.1 70 23:31 05.10.2020
3523 Clouds 13 1013 100 9000 3.1 80 22:59 05.10.2020
3524 Clouds 13 1013 93 10000 3.6 70 22:25 05.10.2020
3525 Clouds 12 1014 100 10000 3.1 70 21:51 05.10.2020
3526 Clouds 12 1014 100 10000 3.1 70 21:32 05.10.2020
3527 Clouds 13 1014 93 10000 3.1 70 20:56 05.10.2020
3528 Clouds 13 1014 93 10000 3.1 70 20:56 05.10.2020
3529 Clouds 13 1014 93 10000 3.6 70 20:38 05.10.2020
3530 Clear 13 1014 87 10000 3.6 70 20:20 05.10.2020
3531 Clear 13 1014 87 10000 3.6 70 19:38 05.10.2020
3532 Clear 13 1015 87 10000 2.6 70 19:19 05.10.2020
3533 Clear 13 1015 87 10000 3.1 100 18:42 05.10.2020
3534 Clear 14 1015 77 10000 2.6 90 18:21 05.10.2020
3535 Clear 15 1015 77 10000 3.6 130 17:42 05.10.2020
3536 Clear 15 1015 72 10000 3.6 150 17:23 05.10.2020
3537 Clouds 16 1015 67 10000 3.6 170 16:48 05.10.2020
3538 Clouds 16 1015 67 10000 3.6 170 16:30 05.10.2020
3539 Clouds 16 1015 67 10000 4.1 180 15:50 05.10.2020
3540 Clouds 16 1015 67 10000 5.1 170 15:26 05.10.2020
3541 Clouds 16 1015 67 10000 5.1 170 15:26 05.10.2020
3542 Clouds 16 1015 67 10000 5.1 170 14:57 05.10.2020
3543 Clouds 16 1015 72 10000 5.1 220 14:37 05.10.2020
3544 Clouds 16 1015 72 10000 5.1 220 14:37 05.10.2020
3545 Clouds 17 1015 63 10000 5.1 190 14:19 05.10.2020
3546 Clouds 16 1015 72 10000 4.6 170 13:44 05.10.2020
3547 Clouds 16 1015 82 10000 4.6 180 13:22 05.10.2020
3548 Clouds 16 1015 82 10000 3.1 190 12:46 05.10.2020
3549 Clouds 16 1015 82 10000 5.7 190 12:24 05.10.2020
3550 Clouds 15 1015 82 10000 5.7 190 11:55 05.10.2020
3551 Clouds 15 1015 82 10000 6.2 180 11:34 05.10.2020
3552 Clouds 15 1014 82 10000 5.7 180 10:58 05.10.2020
3553 Clouds 15 1014 87 10000 5.7 190 10:40 05.10.2020
3554 Clouds 15 1014 82 10000 7.2 190 10:21 05.10.2020
3555 Clouds 15 1013 82 10000 7.7 190 09:51 05.10.2020
3556 Clouds 15 1013 82 10000 6.7 180 09:21 05.10.2020
3557 Clouds 14 1013 87 10000 5.1 180 08:38 05.10.2020
3558 Clouds 14 1012 87 10000 5.1 180 08:20 05.10.2020
3559 Clouds 13 1011 93 10000 5.1 170 07:27 05.10.2020
3560 Clouds 13 1011 93 10000 4.1 110 05:26 05.10.2020
3561 Clouds 13 1011 87 10000 5.1 90 02:23 05.10.2020
3562 Clouds 12 1011 93 10000 5.7 90 00:35 05.10.2020
3563 Clouds 12 1012 93 10000 5.7 110 23:43 04.10.2020
3564 Clouds 12 1012 93 10000 6.7 90 23:19 04.10.2020
3565 Clouds 12 1012 93 10000 6.7 90 22:42 04.10.2020
3566 Clouds 12 1012 93 10000 7.2 100 22:21 04.10.2020
3567 Clouds 12 1012 93 10000 7.2 90 21:47 04.10.2020
3568 Clouds 12 1012 93 10000 6.7 90 21:21 04.10.2020
3569 Clouds 12 1012 93 10000 6.7 90 20:57 04.10.2020
3570 Clouds 12 1012 93 10000 7.7 100 20:38 04.10.2020
3571 Rain 12 1012 93 10000 7.7 100 20:38 04.10.2020
3572 Rain 12 1012 93 10000 7.7 100 20:19 04.10.2020
3573 Clouds 12 1013 93 10000 7.7 90 19:47 04.10.2020
3574 Clouds 12 1013 93 10000 7.7 90 19:29 04.10.2020
3575 Clouds 12 1013 93 10000 6.7 80 18:47 04.10.2020
3576 Rain 12 1013 93 10000 6.7 80 18:23 04.10.2020
3577 Rain 12 1014 87 10000 6.7 80 17:42 04.10.2020
3578 Clouds 12 1014 87 10000 7.2 80 17:24 04.10.2020
3579 Rain 12 1014 87 10000 7.2 80 16:57 04.10.2020
3580 Rain 12 1014 87 10000 6.7 90 16:38 04.10.2020
3581 Rain 12 1014 87 10000 8.2 80 16:19 04.10.2020
3582 Rain 13 1014 82 10000 8.2 80 15:47 04.10.2020
3583 Rain 13 1015 82 10000 8.2 80 15:19 04.10.2020
3584 Rain 13 1015 82 10000 7.7 90 14:51 04.10.2020
3585 Rain 13 1015 79 5178 7.15 84 14:28 04.10.2020
3586 Rain 13 1016 78 10000 9.39 121 13:58 04.10.2020
3587 Rain 13 1016 79 10000 8.49 114 13:40 04.10.2020
3588 Rain 13 1016 80 8391 8.49 106 13:18 04.10.2020
3589 Rain 13 1016 81 8391 11.18 110 12:40 04.10.2020
3590 Rain 13 1016 83 9496 9.39 109 12:21 04.10.2020
3591 Rain 13 1016 87 10000 6.7 90 11:42 04.10.2020
3592 Rain 13 1016 87 10000 6.7 90 11:24 04.10.2020
3593 Rain 13 1017 93 10000 7.2 80 10:51 04.10.2020
3594 Clouds 12 1017 93 10000 7.2 80 10:32 04.10.2020
3595 Rain 12 1017 93 10000 7.2 90 09:47 04.10.2020
3596 Rain 12 1017 93 10000 7.2 90 09:47 04.10.2020
3597 Clouds 12 1017 93 10000 7.2 90 09:26 04.10.2020
3598 Rain 12 1017 93 10000 6.7 80 08:55 04.10.2020
3599 Rain 12 1017 93 10000 7.2 90 08:36 04.10.2020
3600 Rain 12 1017 93 10000 7.2 80 08:18 04.10.2020
3601 Rain 13 1017 87 10000 7.7 90 07:42 04.10.2020
3602 Drizzle 13 1017 93 10000 7.2 100 07:21 04.10.2020
3603 Drizzle 13 1017 93 10000 6.7 90 06:36 04.10.2020
3604 Clouds 13 1018 93 10000 5.7 100 05:56 04.10.2020
3605 Clouds 13 1019 87 10000 5.1 90 02:53 04.10.2020
3606 Clouds 13 1019 87 10000 4.6 90 01:28 04.10.2020
3607 Clouds 13 1019 76 10000 4.6 90 00:48 04.10.2020
3608 Clouds 14 1019 76 10000 4.6 90 23:41 03.10.2020
3609 Clouds 14 1020 76 10000 4.6 100 23:21 03.10.2020
3610 Clouds 14 1020 76 10000 4.6 100 22:41 03.10.2020
3611 Clouds 14 1020 76 10000 4.6 100 22:20 03.10.2020
3612 Clouds 14 1020 76 10000 4.1 90 21:48 03.10.2020
3613 Clouds 14 1020 76 10000 4.1 90 21:27 03.10.2020
3614 Clouds 14 1020 76 10000 4.1 90 20:57 03.10.2020
3615 Clouds 14 1020 76 10000 4.6 90 20:38 03.10.2020
3616 Clouds 14 1020 76 10000 4.6 90 20:38 03.10.2020
3617 Clouds 14 1020 76 10000 4.6 80 20:18 03.10.2020
3618 Clouds 13 1020 82 10000 4.1 80 19:39 03.10.2020
3619 Clouds 13 1020 76 10000 4.6 70 19:19 03.10.2020
3620 Clouds 14 1020 71 10000 4.6 80 18:49 03.10.2020
3621 Clouds 14 1020 71 10000 4.6 80 18:25 03.10.2020
3622 Clouds 14 1020 71 10000 5.7 80 17:50 03.10.2020
3623 Clouds 14 1020 76 10000 6.2 80 17:30 03.10.2020
3624 Clouds 14 1020 76 10000 5.1 90 16:57 03.10.2020
3625 Clouds 14 1020 76 10000 5.1 90 16:39 03.10.2020
3626 Clouds 15 1021 72 10000 6.2 90 16:21 03.10.2020
3627 Clouds 14 1021 67 10000 5.7 100 15:42 03.10.2020
3628 Clouds 14 1021 67 10000 5.7 100 15:20 03.10.2020
3629 Clouds 14 1021 67 10000 5.7 100 14:57 03.10.2020
3630 Clouds 14 1021 67 10000 6.7 80 14:38 03.10.2020
3631 Clouds 15 1021 67 10000 6.7 80 14:19 03.10.2020
3632 Clouds 14 1022 72 10000 6.2 80 13:42 03.10.2020
3633 Clouds 14 1022 72 10000 6.2 80 13:42 03.10.2020
3634 Clouds 14 1022 72 10000 6.2 80 13:23 03.10.2020
3635 Clouds 14 1022 76 10000 5.7 80 12:45 03.10.2020
3636 Clouds 14 1022 76 10000 6.7 90 12:21 03.10.2020
3637 Clouds 14 1022 82 10000 5.7 80 11:51 03.10.2020
3638 Clouds 13 1022 82 10000 5.7 80 11:23 03.10.2020
3639 Clouds 13 1022 87 10000 4.6 70 10:56 03.10.2020
3640 Clouds 13 1022 87 10000 4.6 70 10:38 03.10.2020
3641 Clouds 13 1022 87 10000 5.1 70 10:20 03.10.2020
3642 Clouds 13 1022 93 10000 5.1 70 09:43 03.10.2020
3643 Clouds 12 1022 93 10000 5.1 70 09:19 03.10.2020
3644 Clouds 11 1022 93 10000 5.1 70 08:45 03.10.2020
3645 Clouds 11 1022 93 10000 5.1 70 08:27 03.10.2020
3646 Clouds 11 1022 100 10000 5.1 60 07:44 03.10.2020
3647 Clouds 10 1022 93 10000 4.6 60 07:22 03.10.2020
3648 Clouds 10 1023 93 10000 5.1 70 06:22 03.10.2020
3649 Clear 10 1022 93 10000 4.6 60 05:41 03.10.2020
3650 Clear 10 1023 93 10000 4.1 60 03:47 03.10.2020
3651 Clear 10 1023 93 10000 4.1 60 03:21 03.10.2020
3652 Clear 12 1023 87 10000 3.6 60 00:37 03.10.2020
3653 Clear 12 1023 87 10000 3.6 60 00:18 03.10.2020
3654 Clear 12 1023 87 10000 3.6 50 23:41 02.10.2020
3655 Clear 12 1023 87 10000 3.1 60 23:19 02.10.2020
3656 Clear 12 1023 81 10000 3.6 60 22:45 02.10.2020
3657 Clear 13 1023 81 10000 3.6 70 22:22 02.10.2020
3658 Clear 13 1023 76 10000 4.6 70 21:49 02.10.2020
3659 Clear 12 1023 76 10000 4.6 70 21:27 02.10.2020
3660 Clear 13 1023 76 10000 4.1 70 20:55 02.10.2020
3661 Clear 12 1023 76 10000 4.1 70 20:32 02.10.2020
3662 Clear 12 1023 76 10000 4.6 70 19:54 02.10.2020
3663 Clear 12 1023 71 10000 4.6 70 19:36 02.10.2020
3664 Clear 12 1022 71 10000 4.6 70 19:18 02.10.2020
3665 Clear 13 1022 71 10000 4.1 70 18:42 02.10.2020
3666 Clear 13 1022 67 10000 3.6 70 18:21 02.10.2020
3667 Clear 14 1022 62 10000 3.6 70 17:47 02.10.2020
3668 Clear 14 1022 62 10000 3.6 70 17:29 02.10.2020
3669 Clear 14 1022 58 10000 4.1 80 16:53 02.10.2020
3670 Clear 15 1022 55 10000 4.6 80 16:23 02.10.2020
3671 Clear 15 1022 55 10000 4.6 90 15:52 02.10.2020
3672 Clear 15 1022 55 10000 4.6 90 15:33 02.10.2020
3673 Clear 15 1022 51 10000 5.1 90 14:44 02.10.2020
3674 Clouds 16 1022 51 10000 5.1 90 14:26 02.10.2020
3675 Clouds 15 1022 59 10000 5.7 90 13:53 02.10.2020
3676 Clouds 15 1022 77 10000 4.1 90 13:20 02.10.2020
3677 Clouds 15 1022 77 10000 4.1 90 12:59 02.10.2020
3678 Clouds 15 1022 82 10000 3.6 70 12:41 02.10.2020
3679 Clouds 14 1022 82 10000 3.6 70 12:20 02.10.2020
3680 Clouds 14 1022 82 10000 3.1 80 11:45 02.10.2020
3681 Clouds 14 1022 82 10000 3.1 80 11:22 02.10.2020
3682 Clouds 13 1022 93 10000 3.6 60 11:22 02.10.2020
3683 Clouds 13 1022 87 10000 4.1 70 10:46 02.10.2020
3684 Clouds 13 1022 87 10000 4.1 70 10:27 02.10.2020
3685 Clouds 13 1022 87 10000 4.1 70 10:27 02.10.2020
3686 Clouds 11 1021 100 10000 3.6 70 09:41 02.10.2020
3687 Clouds 11 1021 100 8000 3.6 70 09:20 02.10.2020
3688 Mist 10 1021 100 4500 4.1 60 08:47 02.10.2020
3689 Mist 10 1021 100 4500 4.1 60 08:28 02.10.2020
3690 Clouds 10 1021 100 7000 4.1 60 07:45 02.10.2020
3691 Clouds 10 1020 100 10000 3.6 70 06:41 02.10.2020
3692 Clouds 9 1020 100 10000 4.1 60 05:38 02.10.2020
3693 Clouds 11 1020 93 10000 3.1 70 02:23 02.10.2020
3694 Clouds 10 1020 93 10000 3.6 60 00:48 02.10.2020
3695 Clouds 10 1020 93 10000 4.1 60 00:19 02.10.2020
3696 Clouds 10 1020 87 10000 3.6 60 23:55 01.10.2020
3697 Clouds 10 1020 87 10000 3.6 60 23:37 01.10.2020
3698 Clouds 10 1020 87 10000 4.1 60 23:18 01.10.2020
3699 Clouds 11 1020 81 10000 4.1 60 22:40 01.10.2020
3700 Clouds 11 1020 81 10000 4.1 60 22:19 01.10.2020
3701 Clouds 11 1020 81 10000 3.6 50 21:40 01.10.2020
3702 Clouds 12 1019 76 10000 4.1 60 21:20 01.10.2020
3703 Clouds 12 1019 76 10000 3.6 60 20:42 01.10.2020
3704 Clouds 12 1019 76 10000 3.6 60 20:21 01.10.2020
3705 Clouds 12 1019 71 10000 4.6 60 19:45 01.10.2020
3706 Clouds 12 1019 71 10000 4.6 60 19:26 01.10.2020
3707 Clouds 13 1019 66 10000 4.6 70 18:59 01.10.2020
3708 Clouds 13 1019 66 10000 5.1 70 18:31 01.10.2020
3709 Clouds 14 1019 58 10000 4.1 70 17:54 01.10.2020
3710 Clouds 14 1019 58 10000 4.1 70 17:30 01.10.2020
3711 Clouds 15 1019 67 10000 3.1 70 16:58 01.10.2020
3712 Clouds 15 1019 59 10000 3.6 70 16:39 01.10.2020
3713 Clouds 15 1019 59 10000 3.6 70 16:39 01.10.2020
3714 Clouds 15 1019 63 10000 4.6 60 16:19 01.10.2020
3715 Clouds 16 1019 59 10000 5.1 70 15:41 01.10.2020
3716 Clouds 16 1019 63 10000 4.1 60 15:19 01.10.2020
3717 Clouds 16 1019 63 10000 4.1 60 15:19 01.10.2020
3718 Clouds 15 1019 67 10000 3.1 50 14:44 01.10.2020
3719 Clouds 15 1019 67 10000 3.1 50 14:25 01.10.2020
3720 Clouds 14 1019 71 10000 3.6 60 13:40 01.10.2020
3721 Clouds 13 1019 76 10000 3.6 50 12:49 01.10.2020
3722 Clouds 13 1019 76 10000 3.6 50 12:22 01.10.2020
3723 Clouds 12 1020 87 10000 3.1 70 11:46 01.10.2020
3724 Clouds 11 1020 87 10000 3.6 60 11:25 01.10.2020
3725 Clouds 11 1020 100 10000 3.6 50 10:50 01.10.2020
3726 Clouds 11 1020 100 10000 4.1 50 10:29 01.10.2020
3727 Clouds 10 1020 100 10000 4.1 50 09:59 01.10.2020
3728 Clouds 10 1020 100 8000 3.6 70 09:40 01.10.2020
3729 Mist 10 1020 100 2500 3.6 50 09:22 01.10.2020
3730 Mist 10 1020 100 2000 3.6 50 08:48 01.10.2020
3731 Mist 10 1020 100 2000 3.1 40 08:23 01.10.2020
3732 Mist 10 1020 100 1300 4.1 40 07:50 01.10.2020
3733 Fog 10 1020 100 800 3.6 40 07:24 01.10.2020
3734 Fog 10 1020 100 800 4.6 40 06:19 01.10.2020
3735 Clouds 9 1021 100 10000 3.1 30 01:49 01.10.2020
3736 Clear 11 1021 100 10000 2.6 30 23:48 30.09.2020
3737 Clouds 10 1021 100 10000 2.1 40 23:29 30.09.2020
3738 Clouds 11 1021 100 10000 1 50 22:45 30.09.2020
3739 Clouds 11 1022 100 10000 1 60 22:23 30.09.2020
3740 Clouds 11 1021 100 10000 2.1 70 21:45 30.09.2020
3741 Clouds 10 1021 93 10000 2.6 70 21:23 30.09.2020
3742 Clouds 11 1021 93 10000 2.6 60 20:45 30.09.2020
3743 Clouds 11 1021 93 10000 2.6 60 20:27 30.09.2020
3744 Clouds 11 1021 93 10000 2.1 70 19:45 30.09.2020
3745 Clouds 12 1021 93 10000 2.1 60 19:24 30.09.2020
3746 Clouds 12 1021 93 10000 2.1 60 18:58 30.09.2020
3747 Clouds 13 1021 87 10000 2.1 90 18:40 30.09.2020
3748 Clouds 13 1021 87 10000 2.1 90 18:20 30.09.2020
3749 Clouds 13 1021 87 10000 2.1 90 18:20 30.09.2020
3750 Clouds 14 1021 82 10000 2.1 120 17:47 30.09.2020
3751 Clouds 14 1021 82 10000 2.1 120 17:47 30.09.2020
3752 Clouds 14 1021 82 10000 4.1 130 17:23 30.09.2020
3753 Clouds 15 1021 82 10000 4.6 150 16:49 30.09.2020
3754 Clouds 15 1021 72 10000 4.1 140 16:25 30.09.2020
3755 Clouds 15 1021 67 10000 3.1 140 15:47 30.09.2020
3756 Clouds 15 1021 67 10000 3.1 150 15:24 30.09.2020
3757 Clouds 15 1021 67 10000 3.1 150 14:44 30.09.2020
3758 Clouds 15 1021 72 10000 3.6 140 14:22 30.09.2020
3759 Clouds 15 1021 72 10000 3.6 140 13:58 30.09.2020
3760 Clouds 15 1021 77 10000 5.1 130 13:38 30.09.2020
3761 Clouds 14 1021 82 10000 4.6 100 12:49 30.09.2020
3762 Clouds 14 1021 82 10000 4.6 100 12:27 30.09.2020
3763 Clouds 14 1021 82 10000 3.1 110 11:59 30.09.2020
3764 Clouds 14 1021 82 10000 3.1 100 11:38 30.09.2020
3765 Clouds 14 1021 82 10000 3.1 100 11:38 30.09.2020
3766 Clouds 14 1021 82 10000 3.6 120 11:20 30.09.2020
3767 Clouds 13 1021 87 10000 2.6 100 10:46 30.09.2020
3768 Clouds 13 1021 93 10000 2.6 90 10:20 30.09.2020
3769 Clouds 13 1021 93 10000 2.6 90 09:43 30.09.2020
3770 Clouds 13 1021 93 10000 2.6 90 09:23 30.09.2020
3771 Clouds 12 1021 100 10000 2.1 80 08:43 30.09.2020
3772 Clouds 12 1021 100 10000 2.1 80 08:25 30.09.2020
3773 Clouds 12 1020 93 10000 2.6 80 07:37 30.09.2020
3774 Clouds 12 1020 100 10000 2.1 70 06:46 30.09.2020
3775 Clouds 12 1020 100 10000 1.5 80 06:22 30.09.2020
3776 Clouds 12 1020 93 10000 3.1 80 04:43 30.09.2020
3777 Clouds 12 1020 93 10000 2.1 70 03:34 30.09.2020
3778 Clouds 12 1020 100 10000 2.1 80 00:54 30.09.2020
3779 Clouds 13 1020 93 10000 3.1 90 00:26 30.09.2020
3780 Clouds 13 1020 87 10000 3.1 90 23:48 29.09.2020
3781 Clouds 13 1020 93 10000 3.1 90 23:22 29.09.2020
3782 Clouds 13 1020 93 10000 3.1 90 22:49 29.09.2020
3783 Clouds 13 1021 87 10000 3.1 90 22:22 29.09.2020
3784 Clouds 13 1020 87 10000 3.1 90 21:42 29.09.2020
3785 Clouds 13 1020 87 10000 3.1 90 21:23 29.09.2020
3786 Clouds 13 1020 93 10000 3.6 90 20:59 29.09.2020
3787 Clouds 13 1020 93 10000 3.1 90 20:41 29.09.2020
3788 Clouds 13 1020 93 10000 2.6 100 20:22 29.09.2020
3789 Drizzle 13 1020 93 5000 2.6 100 19:40 29.09.2020
3790 Drizzle 13 1020 93 6000 2.6 90 19:20 29.09.2020
3791 Clouds 13 1020 93 10000 3.1 110 18:43 29.09.2020
3792 Clouds 13 1020 93 10000 3.1 110 18:19 29.09.2020
3793 Clouds 13 1020 93 10000 3.1 110 17:51 29.09.2020
3794 Clouds 14 1019 93 10000 3.6 100 17:23 29.09.2020
3795 Clouds 14 1019 100 10000 3.1 100 16:43 29.09.2020
3796 Clouds 14 1019 93 10000 4.1 110 16:24 29.09.2020
3797 Clouds 14 1019 93 10000 4.1 110 15:50 29.09.2020
3798 Clouds 14 1020 87 10000 4.1 120 15:29 29.09.2020
3799 Clouds 14 1020 87 10000 3.6 110 14:43 29.09.2020
3800 Clouds 14 1020 87 10000 3.6 110 14:25 29.09.2020
3801 Clouds 14 1020 93 10000 3.6 100 13:58 29.09.2020
3802 Clouds 14 1020 93 10000 3.1 100 13:37 29.09.2020
3803 Clouds 13 1020 100 10000 2.1 100 13:18 29.09.2020
3804 Clouds 13 1020 100 10000 2.6 120 12:43 29.09.2020
3805 Clouds 13 1020 100 10000 2.6 120 12:21 29.09.2020
3806 Clouds 13 1020 93 4000 2.6 150 11:37 29.09.2020
3807 Drizzle 13 1019 93 10000 1.5 100 10:55 29.09.2020
3808 Drizzle 13 1019 93 10000 1.5 100 10:37 29.09.2020
3809 Clouds 13 1019 93 10000 1.5 80 09:49 29.09.2020
3810 Clouds 13 1019 93 10000 1.5 80 09:30 29.09.2020
3811 Clouds 12 1019 93 10000 1.5 80 08:57 29.09.2020
3812 Clouds 12 1019 100 10000 2.1 70 08:38 29.09.2020
3813 Clouds 12 1019 100 10000 2.1 90 07:58 29.09.2020
3814 Clouds 12 1019 100 10000 1.5 80 07:40 29.09.2020
3815 Clouds 12 1018 93 10000 1.5 60 05:56 29.09.2020
3816 Clouds 12 1018 93 10000 2.1 80 05:30 29.09.2020
3817 Clouds 12 1018 93 10000 2.1 80 02:49 29.09.2020
3818 Clouds 12 1018 93 10000 2.6 60 02:19 29.09.2020
3819 Clouds 12 1018 93 10000 2.6 60 02:19 29.09.2020
3820 Clouds 12 1019 93 10000 2.6 70 23:46 28.09.2020
3821 Clouds 12 1019 93 10000 2.6 70 23:27 28.09.2020
3822 Clouds 13 1019 76 10000 2.6 70 22:45 28.09.2020
3823 Clouds 13 1019 76 10000 3.1 70 22:22 28.09.2020
3824 Clouds 13 1019 76 10000 3.1 70 21:56 28.09.2020
3825 Clouds 13 1019 71 10000 3.1 80 21:38 28.09.2020
3826 Clouds 14 1019 71 10000 3.1 80 21:19 28.09.2020
3827 Clouds 14 1019 71 10000 3.1 60 20:54 28.09.2020
3828 Clouds 14 1019 71 10000 3.1 60 20:36 28.09.2020
3829 Clouds 14 1019 76 10000 3.1 80 20:18 28.09.2020
3830 Clouds 14 1019 76 10000 3.1 60 19:37 28.09.2020
3831 Clouds 14 1019 71 10000 3.1 50 19:18 28.09.2020
3832 Clouds 14 1019 67 10000 3.6 70 18:45 28.09.2020
3833 Clouds 15 1019 67 10000 4.6 80 18:27 28.09.2020
3834 Clouds 15 1018 67 10000 4.1 80 17:46 28.09.2020
3835 Clouds 15 1018 67 10000 4.1 80 17:28 28.09.2020
3836 Clouds 16 1018 63 10000 3.6 80 16:55 28.09.2020
3837 Clouds 16 1018 63 10000 3.1 70 16:36 28.09.2020
3838 Clouds 17 1019 55 10000 4.1 80 16:18 28.09.2020
3839 Clear 17 1019 55 10000 3.6 90 15:36 28.09.2020
3840 Clear 17 1019 52 10000 3.6 100 15:18 28.09.2020
3841 Clear 17 1019 55 10000 3.6 110 14:41 28.09.2020
3842 Clear 17 1019 55 10000 4.1 120 14:22 28.09.2020
3843 Clear 17 1019 55 10000 4.1 120 13:50 28.09.2020
3844 Clear 17 1019 67 10000 3.1 100 13:24 28.09.2020
3845 Clear 16 1019 67 10000 4.6 90 12:43 28.09.2020
3846 Clouds 15 1020 77 10000 5.1 120 12:25 28.09.2020
3847 Clouds 15 1020 77 10000 5.1 120 11:45 28.09.2020
3848 Clouds 14 1019 72 10000 5.1 110 11:27 28.09.2020
3849 Clouds 14 1019 82 10000 4.1 110 10:45 28.09.2020
3850 Clouds 14 1019 82 10000 4.1 110 10:45 28.09.2020
3851 Clouds 14 1019 82 10000 4.1 110 10:45 28.09.2020
3852 Clouds 14 1019 82 10000 3.6 90 10:27 28.09.2020
3853 Clouds 14 1019 82 10000 3.6 90 09:59 28.09.2020
3854 Clear 13 1019 87 10000 3.6 80 09:26 28.09.2020
3855 Clear 13 1019 93 10000 3.6 70 08:49 28.09.2020
3856 Clear 12 1019 93 10000 3.6 70 08:26 28.09.2020
3857 Clear 11 1018 100 10000 3.1 60 07:45 28.09.2020
3858 Clear 11 1018 93 10000 3.1 70 07:20 28.09.2020
3859 Clear 11 1018 100 10000 2.6 60 05:46 28.09.2020
3860 Clear 11 1018 93 10000 3.1 60 03:28 28.09.2020
3861 Clear 13 1019 87 10000 3.6 60 00:48 28.09.2020
3862 Clear 13 1019 87 10000 3.1 60 00:18 28.09.2020
3863 Clear 13 1019 87 10000 2.6 60 23:41 27.09.2020
3864 Clear 14 1018 87 10000 3.1 60 23:18 27.09.2020
3865 Clear 13 1018 82 10000 3.6 60 22:43 27.09.2020
3866 Clear 14 1018 82 10000 4.1 60 22:23 27.09.2020
3867 Clear 14 1018 82 10000 3.6 60 21:43 27.09.2020
3868 Clear 14 1018 77 10000 3.6 60 21:24 27.09.2020
3869 Clear 14 1018 77 10000 4.1 60 20:45 27.09.2020
3870 Clear 14 1018 77 10000 4.1 60 20:45 27.09.2020
3871 Clear 15 1018 77 10000 4.1 60 20:25 27.09.2020
3872 Clear 15 1018 67 10000 4.1 70 19:49 27.09.2020
3873 Clear 15 1018 67 10000 3.6 70 19:19 27.09.2020
3874 Clear 16 1018 63 10000 3.6 60 18:49 27.09.2020
3875 Clear 16 1018 63 10000 3.6 60 18:27 27.09.2020
3876 Clear 17 1018 63 10000 4.1 70 17:59 27.09.2020
3877 Clear 17 1018 59 10000 5.1 70 17:40 27.09.2020
3878 Clear 18 1018 59 10000 5.1 70 17:21 27.09.2020
3879 Clear 19 1017 52 10000 4.6 100 16:45 27.09.2020
3880 Clear 19 1017 52 10000 4.6 100 16:26 27.09.2020
3881 Clear 20 1017 49 10000 5.7 90 15:40 27.09.2020
3882 Clear 19 1017 49 10000 5.7 90 15:22 27.09.2020
3883 Clear 20 1018 49 10000 4.6 70 14:41 27.09.2020
3884 Clouds 20 1018 52 10000 5.1 70 14:22 27.09.2020
3885 Clouds 20 1018 56 10000 4.6 80 13:46 27.09.2020
3886 Clear 20 1018 56 10000 4.6 80 13:25 27.09.2020
3887 Clear 19 1018 56 10000 5.1 80 12:55 27.09.2020
3888 Clouds 19 1018 60 10000 5.1 90 12:36 27.09.2020
3889 Clouds 19 1018 63 10000 4.6 80 12:18 27.09.2020
3890 Clouds 17 1018 68 10000 4.1 90 11:41 27.09.2020
3891 Clouds 17 1018 68 10000 4.1 90 11:22 27.09.2020
3892 Clouds 17 1018 68 10000 4.1 90 11:22 27.09.2020
3893 Clouds 16 1018 77 10000 3.1 90 10:37 27.09.2020
3894 Clouds 16 1017 82 10000 2.6 70 10:19 27.09.2020
3895 Clouds 15 1017 87 10000 3.1 80 09:39 27.09.2020
3896 Clear 15 1017 87 10000 3.1 80 09:21 27.09.2020
3897 Clear 14 1017 93 10000 3.1 70 08:43 27.09.2020
3898 Clouds 13 1017 93 10000 2.6 60 08:23 27.09.2020
3899 Clouds 12 1017 93 10000 2.6 60 07:39 27.09.2020
3900 Clouds 12 1016 93 10000 2.6 60 06:47 27.09.2020
3901 Clouds 12 1016 93 10000 2.1 60 04:55 27.09.2020
3902 Clouds 13 1015 100 10000 3.1 50 02:37 27.09.2020
3903 Clouds 14 1015 93 10000 2.6 50 01:37 27.09.2020
3904 Clouds 14 1014 87 10000 1.5 70 00:56 27.09.2020
3905 Clouds 14 1014 87 10000 2.1 80 00:32 27.09.2020
3906 Clouds 14 1014 87 10000 3.6 80 23:41 26.09.2020
3907 Clouds 14 1013 87 10000 3.6 70 23:22 26.09.2020
3908 Clouds 15 1013 87 10000 4.1 70 22:41 26.09.2020
3909 Clouds 15 1013 87 10000 4.1 70 22:21 26.09.2020
3910 Clouds 15 1013 87 10000 3.1 60 21:50 26.09.2020
3911 Clouds 15 1013 87 10000 3.6 70 21:25 26.09.2020
3912 Clouds 15 1013 87 10000 3.6 70 20:56 26.09.2020
3913 Clouds 15 1012 87 10000 3.1 70 20:37 26.09.2020
3914 Clouds 15 1012 87 10000 3.1 70 20:19 26.09.2020
3915 Clouds 15 1012 87 10000 3.1 70 19:47 26.09.2020
3916 Clouds 15 1012 87 10000 3.6 70 19:23 26.09.2020
3917 Clouds 16 1011 82 10000 4.1 70 18:52 26.09.2020
3918 Clouds 16 1011 82 10000 4.1 70 18:32 26.09.2020
3919 Clouds 17 1012 74 10000 1.79 140 17:54 26.09.2020
3920 Clouds 17 1011 77 10000 5.1 70 17:35 26.09.2020
3921 Clouds 17 1010 72 10000 4.6 80 16:45 26.09.2020
3922 Clouds 17 1010 72 10000 4.6 80 16:25 26.09.2020
3923 Clouds 17 1010 72 10000 3.6 80 15:55 26.09.2020
3924 Clouds 17 1010 72 10000 5.1 80 15:27 26.09.2020
3925 Clouds 18 1010 68 10000 4.6 90 14:55 26.09.2020
3926 Clouds 17 1010 68 10000 4.6 110 14:21 26.09.2020
3927 Clouds 17 1010 68 10000 4.6 110 13:56 26.09.2020
3928 Clouds 17 1010 68 10000 5.7 110 13:35 26.09.2020
3929 Clouds 16 1010 68 10000 5.1 110 12:59 26.09.2020
3930 Clouds 17 1010 63 10000 5.7 110 12:38 26.09.2020
3931 Clouds 16 1009 63 10000 5.1 100 12:19 26.09.2020
3932 Clouds 16 1009 68 10000 4.6 110 11:52 26.09.2020
3933 Clouds 16 1009 68 10000 4.6 110 11:23 26.09.2020
3934 Clouds 16 1009 72 10000 4.6 110 10:49 26.09.2020
3935 Clouds 16 1009 72 10000 4.6 110 10:25 26.09.2020
3936 Clouds 15 1009 82 10000 4.6 110 09:51 26.09.2020
3937 Clouds 14 1009 82 10000 4.6 110 09:23 26.09.2020
3938 Clouds 14 1008 87 10000 5.1 100 08:57 26.09.2020
3939 Clouds 13 1008 93 10000 4.6 90 08:28 26.09.2020
3940 Clouds 12 1008 93 10000 3.1 90 07:24 26.09.2020
3941 Clear 13 1008 93 10000 2.6 80 03:21 26.09.2020
3942 Clouds 13 1008 87 10000 2.1 100 02:18 26.09.2020
3943 Clouds 14 1008 82 10000 3.1 90 00:43 26.09.2020
3944 Clouds 14 1008 82 10000 2.6 100 23:40 25.09.2020
3945 Clouds 14 1008 82 10000 3.1 100 23:20 25.09.2020
3946 Clouds 14 1008 82 10000 2.6 90 22:57 25.09.2020
3947 Clouds 14 1008 82 10000 2.6 90 22:39 25.09.2020
3948 Clouds 14 1008 87 10000 1.5 100 22:18 25.09.2020
3949 Clouds 14 1008 87 10000 3.6 80 21:27 25.09.2020
3950 Clouds 15 1008 87 10000 3.6 80 20:52 25.09.2020
3951 Clouds 15 1008 87 10000 4.1 70 20:34 25.09.2020
3952 Clouds 15 1008 87 10000 4.1 80 19:48 25.09.2020
3953 Clouds 15 1008 87 10000 4.1 80 19:25 25.09.2020
3954 Clouds 16 1008 87 10000 3.1 80 18:46 25.09.2020
3955 Clouds 16 1008 87 10000 3.1 80 18:20 25.09.2020
3956 Clouds 16 1008 88 10000 2.6 80 17:40 25.09.2020
3957 Clouds 17 1008 88 10000 2.6 90 17:20 25.09.2020
3958 Clouds 17 1008 82 10000 3.1 110 16:39 25.09.2020
3959 Clouds 17 1008 82 10000 3.1 80 16:20 25.09.2020
3960 Clouds 17 1008 88 10000 2.6 100 15:22 25.09.2020
3961 Clouds 17 1008 88 10000 1.5 100 14:43 25.09.2020
3962 Clouds 16 1008 88 10000 1.5 100 14:43 25.09.2020
3963 Clouds 17 1008 88 10000 1.5 100 14:21 25.09.2020
3964 Clouds 16 1008 93 10000 1.5 110 13:27 25.09.2020
3965 Clouds 16 1008 93 10000 1.5 70 12:56 25.09.2020
3966 Clouds 16 1008 87 10000 2.1 140 12:35 25.09.2020
3967 Rain 16 1008 87 10000 2.1 160 11:52 25.09.2020
3968 Clouds 16 1008 93 10000 2.1 210 11:33 25.09.2020
3969 Clouds 15 1007 93 9000 3.6 190 10:41 25.09.2020
3970 Clouds 15 1007 93 9000 4.1 190 10:22 25.09.2020
3971 Clouds 15 1007 93 9000 4.1 180 09:49 25.09.2020
3972 Clouds 15 1007 93 9000 3.1 170 09:23 25.09.2020
3973 Clouds 15 1006 93 10000 4.1 190 08:48 25.09.2020
3974 Clouds 14 1006 93 10000 4.1 190 08:24 25.09.2020
3975 Clouds 14 1006 100 7000 3.1 180 07:36 25.09.2020
3976 Clouds 14 1006 93 9000 4.1 180 06:41 25.09.2020
3977 Clouds 14 1005 93 10000 2.6 170 03:53 25.09.2020
3978 Clouds 14 1005 87 10000 3.6 150 00:47 25.09.2020
3979 Clouds 14 1005 87 10000 3.6 130 23:35 24.09.2020
3980 Clouds 14 1005 87 10000 3.6 140 22:58 24.09.2020
3981 Clouds 14 1005 82 10000 4.1 130 22:37 24.09.2020
3982 Clouds 15 1005 82 10000 3.6 140 22:18 24.09.2020
3983 Clouds 15 1005 87 10000 3.1 150 21:45 24.09.2020
3984 Clouds 15 1005 87 10000 3.1 140 21:19 24.09.2020
3985 Clouds 15 1005 82 10000 3.6 130 20:43 24.09.2020
3986 Clouds 15 1005 82 10000 3.6 130 20:24 24.09.2020
3987 Clouds 16 1005 82 10000 3.1 130 19:37 24.09.2020
3988 Clouds 16 1005 82 10000 3.1 130 19:18 24.09.2020
3989 Clouds 17 1005 77 10000 4.6 140 18:39 24.09.2020
3990 Clouds 18 1005 72 10000 4.1 140 18:18 24.09.2020
3991 Clouds 19 1005 68 10000 3.6 140 17:37 24.09.2020
3992 Clouds 20 1005 64 10000 4.1 150 16:46 24.09.2020
3993 Clouds 20 1005 64 10000 4.1 150 16:28 24.09.2020
3994 Clouds 20 1006 64 10000 5.1 140 15:21 24.09.2020
3995 Clouds 20 1006 68 10000 4.6 150 14:54 24.09.2020
3996 Clouds 19 1006 68 10000 4.6 150 14:36 24.09.2020
3997 Clouds 19 1006 72 10000 5.7 150 13:47 24.09.2020
3998 Clouds 18 1006 72 10000 5.1 140 13:21 24.09.2020
3999 Clouds 18 1006 72 10000 5.7 140 12:48 24.09.2020
4000 Clouds 17 1006 72 10000 4.1 140 12:28 24.09.2020
4001 Clouds 17 1006 88 10000 3.1 120 11:43 24.09.2020
4002 Clouds 16 1006 93 10000 2.6 120 11:19 24.09.2020
4003 Clouds 16 1006 93 10000 3.1 130 10:44 24.09.2020
4004 Clouds 16 1006 93 10000 3.1 130 10:24 24.09.2020
4005 Clouds 15 1006 100 8000 2.1 140 09:36 24.09.2020
4006 Mist 14 1006 100 4500 2.6 130 09:18 24.09.2020
4007 Mist 14 1006 100 1500 2.6 130 08:38 24.09.2020
4008 Fog 12 1006 100 200 2.6 130 07:44 24.09.2020
4009 Fog 12 1006 100 200 2.1 130 06:36 24.09.2020
4010 Clear 12 1005 93 5000 3.1 180 02:33 24.09.2020
4011 Clear 11 1005 100 7000 1.5 120 00:22 24.09.2020
4012 Clear 11 1005 100 9000 1.5 130 23:48 23.09.2020
4013 Clear 12 1005 100 10000 1.5 120 23:22 23.09.2020
4014 Clear 12 1005 100 10000 1.5 120 22:50 23.09.2020
4015 Clear 12 1005 100 10000 1 140 22:24 23.09.2020
4016 Clear 13 1005 100 10000 1 200 21:53 23.09.2020
4017 Clear 13 1005 100 10000 1.5 200 21:30 23.09.2020
4018 Clouds 14 1005 93 10000 2.1 220 20:53 23.09.2020
4019 Clouds 14 1005 87 10000 2.1 130 20:27 23.09.2020
4020 Clouds 15 1004 87 10000 2.1 120 19:42 23.09.2020
4021 Clouds 15 1004 87 10000 2.1 120 19:21 23.09.2020
4022 Clear 16 1004 82 10000 1.5 120 18:28 23.09.2020
4023 Clear 16 1005 82 10000 3.1 160 17:51 23.09.2020
4024 Clear 16 1005 82 10000 3.1 160 17:32 23.09.2020
4025 Clear 17 1005 72 10000 3.6 160 16:42 23.09.2020
4026 Clear 17 1005 72 10000 4.6 180 16:24 23.09.2020
4027 Clear 17 1005 72 10000 4.1 170 15:24 23.09.2020
4028 Clear 17 1005 68 10000 4.6 170 14:59 23.09.2020
4029 Clear 17 1005 68 10000 4.6 180 14:38 23.09.2020
4030 Clouds 17 1005 72 10000 5.1 160 13:43 23.09.2020
4031 Clouds 17 1005 72 10000 4.6 170 13:24 23.09.2020
4032 Clouds 17 1005 72 10000 4.6 170 12:43 23.09.2020
4033 Clouds 16 1006 77 10000 5.1 160 12:20 23.09.2020
4034 Clouds 15 1006 82 10000 4.1 190 11:29 23.09.2020
4035 Clouds 15 1006 87 10000 5.1 180 10:59 23.09.2020
4036 Clouds 14 1006 87 10000 4.6 190 10:38 23.09.2020
4037 Clouds 13 1006 93 10000 4.6 190 09:55 23.09.2020
4038 Clouds 13 1006 93 10000 3.6 180 09:27 23.09.2020
4039 Clouds 12 1006 93 10000 4.6 180 08:46 23.09.2020
4040 Clouds 11 1006 93 10000 4.1 180 08:19 23.09.2020
4041 Clouds 11 1006 93 10000 4.6 190 07:22 23.09.2020
4042 Mist 11 1007 100 2500 4.1 180 05:46 23.09.2020
4043 Clouds 10 1007 100 10000 1 0 02:19 23.09.2020
4044 Clouds 10 1008 100 10000 1 100 00:59 23.09.2020
4045 Fog 9 1008 100 10000 1 0 23:42 22.09.2020
4046 Clouds 9 1008 100 10000 1.5 210 23:22 22.09.2020
4047 Clouds 10 1008 100 10000 1.5 240 22:34 22.09.2020
4048 Clouds 10 1008 93 10000 3.1 210 21:51 22.09.2020
4049 Clouds 11 1008 93 10000 3.1 210 21:29 22.09.2020
4050 Clouds 11 1008 93 10000 3.1 220 20:58 22.09.2020
4051 Clouds 11 1008 87 10000 3.1 230 20:39 22.09.2020
4052 Clouds 11 1008 87 10000 2.6 230 20:21 22.09.2020
4053 Clouds 12 1007 93 10000 4.1 210 19:46 22.09.2020
4054 Clouds 12 1007 93 10000 4.1 210 19:24 22.09.2020
4055 Clouds 13 1007 82 10000 5.1 200 18:45 22.09.2020
4056 Clouds 13 1007 82 10000 5.1 200 18:25 22.09.2020
4057 Clouds 14 1007 82 10000 5.7 210 17:30 22.09.2020
4058 Clouds 13 1007 82 10000 5.7 210 17:30 22.09.2020
4059 Clouds 14 1007 67 10000 4.6 230 16:43 22.09.2020
4060 Clouds 15 1007 63 10000 4.1 260 16:25 22.09.2020
4061 Clouds 16 1007 67 10000 3.6 290 15:43 22.09.2020
4062 Clouds 15 1006 67 10000 5.7 260 14:43 22.09.2020
4063 Clouds 15 1006 72 10000 4.6 260 14:18 22.09.2020
4064 Clouds 15 1006 77 10000 4.6 250 13:46 22.09.2020
4065 Clouds 14 1005 72 10000 5.7 230 12:58 22.09.2020
4066 Clouds 14 1005 76 10000 4.6 240 12:37 22.09.2020
4067 Clouds 13 1005 82 10000 5.7 240 11:57 22.09.2020
4068 Clouds 13 1005 82 10000 5.7 240 11:24 22.09.2020
4069 Clouds 13 1004 82 10000 4.6 240 10:57 22.09.2020
4070 Clouds 13 1004 82 10000 4.6 240 10:31 22.09.2020
4071 Clouds 12 1004 87 10000 5.1 240 09:47 22.09.2020
4072 Clouds 12 1004 93 10000 5.1 240 09:22 22.09.2020
4073 Clouds 12 1004 87 10000 4.6 240 08:33 22.09.2020
4074 Clouds 12 1004 87 10000 3.6 240 07:54 22.09.2020
4075 Clouds 12 1004 87 10000 3.6 240 07:36 22.09.2020
4076 Clouds 12 1004 93 10000 3.6 250 06:57 22.09.2020
4077 Clouds 12 1003 93 10000 3.1 240 05:33 22.09.2020
4078 Clouds 12 1003 93 10000 3.6 240 04:37 22.09.2020
4079 Clouds 13 1004 87 10000 5.7 230 01:39 22.09.2020
4080 Clouds 13 1004 87 10000 5.7 230 01:39 22.09.2020
4081 Clouds 13 1004 87 10000 5.1 230 00:56 22.09.2020
4082 Clouds 13 1004 82 10000 6.2 230 23:34 21.09.2020
4083 Clouds 13 1005 82 10000 6.7 230 22:48 21.09.2020
4084 Clouds 13 1005 82 10000 6.7 230 22:29 21.09.2020
4085 Clouds 13 1005 82 10000 7.7 230 21:57 21.09.2020
4086 Clouds 13 1005 87 10000 7.2 230 21:36 21.09.2020
4087 Clouds 13 1005 87 10000 6.2 230 21:18 21.09.2020
4088 Clouds 13 1005 87 10000 7.2 220 20:37 21.09.2020
4089 Clouds 13 1005 87 10000 8.2 220 20:19 21.09.2020
4090 Clouds 13 1005 87 10000 8.2 220 20:19 21.09.2020
4091 Clouds 13 1006 87 10000 6.7 220 19:41 21.09.2020
4092 Clouds 14 1006 87 10000 6.7 220 19:19 21.09.2020
4093 Clouds 14 1006 87 10000 6.7 210 18:43 21.09.2020
4094 Clouds 14 1007 82 10000 7.7 210 18:20 21.09.2020
4095 Clouds 14 1007 82 10000 6.7 210 17:32 21.09.2020
4096 Clouds 14 1008 82 10000 7.2 220 16:33 21.09.2020
4097 Clouds 14 1009 87 10000 7.2 220 15:50 21.09.2020
4098 Clouds 14 1009 82 10000 7.7 210 15:26 21.09.2020
4099 Clouds 14 1010 71 10000 6.7 210 14:45 21.09.2020
4100 Clouds 14 1010 62 10000 6.2 200 14:23 21.09.2020
4101 Clouds 15 1010 62 10000 6.2 210 13:23 21.09.2020
4102 Clouds 14 1011 58 10000 5.7 220 12:49 21.09.2020
4103 Clouds 14 1012 58 10000 4.1 240 12:23 21.09.2020
4104 Clouds 14 1011 62 10000 4.1 240 11:50 21.09.2020
4105 Clouds 14 1012 62 10000 4.1 250 11:20 21.09.2020
4106 Clouds 13 1012 71 10000 3.6 240 10:29 21.09.2020
4107 Clouds 12 1012 71 10000 3.6 240 09:59 21.09.2020
4108 Clouds 12 1012 76 10000 4.1 230 09:38 21.09.2020
4109 Clouds 11 1012 93 10000 2.6 230 08:53 21.09.2020
4110 Clouds 10 1012 100 10000 3.6 240 07:51 21.09.2020
4111 Clouds 10 1012 100 10000 3.6 240 07:32 21.09.2020
4112 Clouds 10 1012 93 10000 3.1 240 06:41 21.09.2020
4113 Clouds 12 1012 93 10000 3.1 260 03:29 21.09.2020
4114 Clouds 12 1012 93 10000 3.1 230 00:49 21.09.2020
4115 Clouds 12 1012 93 10000 3.1 230 23:28 20.09.2020
4116 Clouds 12 1013 93 10000 4.1 220 22:37 20.09.2020
4117 Clouds 12 1013 93 10000 3.6 230 22:19 20.09.2020
4118 Clouds 12 1013 87 10000 3.6 220 21:35 20.09.2020
4119 Clouds 12 1013 93 10000 4.1 220 20:51 20.09.2020
4120 Clouds 12 1014 81 10000 5.1 230 20:22 20.09.2020
4121 Clouds 12 1014 81 10000 5.1 230 19:45 20.09.2020
4122 Clouds 12 1014 76 10000 5.7 220 19:20 20.09.2020
4123 Clouds 13 1014 71 10000 5.7 230 18:47 20.09.2020
4124 Clouds 13 1014 71 10000 5.7 230 18:25 20.09.2020
4125 Clouds 13 1015 71 10000 6.2 240 17:57 20.09.2020
4126 Clouds 14 1015 62 10000 6.7 240 17:31 20.09.2020
4127 Clouds 14 1015 62 10000 6.7 240 17:31 20.09.2020
4128 Clouds 14 1016 62 10000 6.7 240 16:34 20.09.2020
4129 Clouds 14 1016 58 10000 5.7 240 15:53 20.09.2020
4130 Clouds 15 1016 51 10000 7.2 240 14:54 20.09.2020
4131 Clouds 15 1017 51 10000 7.7 240 14:22 20.09.2020
4132 Clouds 15 1017 51 10000 7.7 240 13:51 20.09.2020
4133 Clouds 15 1018 54 10000 4.6 250 12:54 20.09.2020
4134 Clouds 15 1018 54 10000 4.6 250 12:36 20.09.2020
4135 Clouds 14 1019 58 10000 7.2 240 11:58 20.09.2020
4136 Clouds 14 1019 58 10000 6.2 250 11:32 20.09.2020
4137 Clouds 13 1019 62 10000 4.6 250 10:56 20.09.2020
4138 Clouds 13 1019 76 10000 4.1 250 10:31 20.09.2020
4139 Clouds 12 1019 81 10000 3.1 260 09:58 20.09.2020
4140 Clouds 9 1020 93 10000 2.1 240 08:54 20.09.2020
4141 Clear 7 1020 100 10000 2.1 260 07:45 20.09.2020
4142 Clear 5 1020 100 10000 1 0 06:22 20.09.2020
4143 Clear 7 1020 87 10000 2.1 270 00:53 20.09.2020
4144 Clear 7 1020 87 10000 2.1 270 00:30 20.09.2020
4145 Clear 7 1020 87 10000 3.6 300 23:28 19.09.2020
4146 Clear 8 1019 81 10000 4.6 310 22:44 19.09.2020
4147 Clear 8 1019 81 10000 4.6 310 22:25 19.09.2020
4148 Clear 9 1019 76 10000 5.7 300 21:38 19.09.2020
4149 Clear 10 1019 76 10000 4.6 280 20:56 19.09.2020
4150 Clouds 10 1019 71 10000 4.1 280 20:20 19.09.2020
4151 Clouds 11 1018 66 10000 4.6 290 19:26 19.09.2020
4152 Clouds 12 1018 58 10000 5.1 290 18:40 19.09.2020
4153 Clouds 13 1018 58 10000 5.1 290 18:19 19.09.2020
4154 Clouds 14 1018 50 10000 6.2 300 17:39 19.09.2020
4155 Clouds 14 1018 50 10000 6.2 300 17:19 19.09.2020
4156 Clouds 14 1017 54 10000 5.7 300 16:25 19.09.2020
4157 Clouds 14 1017 58 10000 5.7 290 16:25 19.09.2020
4158 Clouds 14 1017 54 10000 5.7 290 15:44 19.09.2020
4159 Clouds 14 1017 58 10000 6.7 310 14:37 19.09.2020
4160 Clouds 14 1017 58 10000 6.7 310 14:37 19.09.2020
4161 Clouds 13 1017 62 10000 7.2 280 12:44 19.09.2020
4162 Clouds 12 1017 66 10000 5.7 290 11:38 19.09.2020
4163 Clouds 12 1017 76 10000 5.7 300 10:44 19.09.2020
4164 Clouds 11 1017 76 10000 5.7 300 10:25 19.09.2020
4165 Clouds 10 1017 81 10000 5.1 280 09:32 19.09.2020
4166 Clear 9 1017 87 10000 5.7 290 08:58 19.09.2020
4167 Clear 8 1017 93 10000 4.6 290 08:27 19.09.2020
4168 Clear 7 1017 87 10000 5.1 280 07:27 19.09.2020
4169 Clear 6 1016 93 10000 3.1 290 05:54 19.09.2020
4170 Clear 7 1016 87 10000 3.6 280 04:22 19.09.2020
4171 Clear 9 1016 87 10000 4.1 280 01:53 19.09.2020
4172 Clear 9 1016 87 10000 3.6 280 00:43 19.09.2020
4173 Clouds 11 1015 87 10000 5.1 280 23:21 18.09.2020
4174 Clouds 11 1015 87 10000 5.1 280 22:49 18.09.2020
4175 Clouds 12 1015 78 10000 3.13 292 21:52 18.09.2020
4176 Clouds 12 1014 76 10000 5.1 270 21:34 18.09.2020
4177 Clouds 12 1014 76 10000 5.7 260 20:50 18.09.2020
4178 Clouds 12 1014 76 10000 5.1 260 19:58 18.09.2020
4179 Clouds 12 1014 76 10000 4.6 250 19:34 18.09.2020
4180 Clouds 13 1014 62 10000 5.1 250 18:48 18.09.2020
4181 Clouds 14 1014 51 10000 5.7 250 17:33 18.09.2020
4182 Clouds 14 1015 51 10000 6.2 250 16:54 18.09.2020
4183 Clouds 15 1015 48 10000 5.7 250 16:31 18.09.2020
4184 Clouds 15 1015 47 10000 6.2 240 15:53 18.09.2020
4185 Clouds 14 1015 47 10000 6.2 240 15:31 18.09.2020
4186 Clouds 14 1016 47 10000 5.1 220 14:24 18.09.2020
4187 Clouds 14 1017 44 10000 5.1 260 13:51 18.09.2020
4188 Clouds 12 1017 62 10000 4.6 270 12:41 18.09.2020
4189 Clouds 11 1018 62 10000 4.6 290 11:43 18.09.2020
4190 Clouds 10 1018 70 10000 3.6 310 10:45 18.09.2020
4191 Clouds 9 1018 75 10000 4.1 310 10:25 18.09.2020
4192 Clouds 8 1018 81 10000 4.1 310 09:29 18.09.2020
4193 Clouds 7 1018 87 10000 4.6 320 08:48 18.09.2020
4194 Clouds 6 1018 87 10000 5.1 310 07:47 18.09.2020
4195 Clouds 6 1018 93 10000 5.1 310 06:48 18.09.2020
4196 Clouds 8 1017 70 10000 6.7 320 02:22 18.09.2020
4197 Clouds 8 1016 70 10000 7.2 320 01:42 18.09.2020
4198 Clouds 9 1015 66 10000 6.7 320 23:55 17.09.2020
4199 Clouds 9 1015 66 10000 6.7 320 23:36 17.09.2020
4200 Clouds 9 1015 66 10000 7.2 330 22:39 17.09.2020
4201 Clouds 9 1014 66 10000 10.8 340 21:58 17.09.2020
4202 Clouds 9 1013 66 10000 9.8 330 21:27 17.09.2020
4203 Clouds 10 1013 61 10000 10.8 330 20:54 17.09.2020
4204 Clouds 10 1012 70 10000 8.7 340 20:26 17.09.2020
4205 Clouds 10 1011 76 10000 9.8 340 19:21 17.09.2020
4206 Clouds 9 1010 81 10000 9.8 330 18:50 17.09.2020
4207 Clouds 9 1010 81 10000 9.3 330 17:51 17.09.2020
4208 Rain 10 1009 81 10000 10.8 330 17:27 17.09.2020
4209 Rain 10 1008 81 10000 11.3 330 16:44 17.09.2020
4210 Clouds 10 1007 87 10000 10.3 330 15:47 17.09.2020
4211 Clouds 10 1006 87 10000 10.3 330 14:48 17.09.2020
4212 Rain 10 1006 87 10000 10.3 330 14:29 17.09.2020
4213 Clouds 9 1004 81 10000 11.8 330 13:54 17.09.2020
4214 Clouds 10 1004 81 10000 11.3 320 13:23 17.09.2020
4215 Clouds 10 1003 81 10000 10.8 330 12:32 17.09.2020
4216 Clouds 9 1003 81 10000 10.8 320 11:42 17.09.2020
4217 Rain 9 1003 87 10000 10.8 320 10:50 17.09.2020
4218 Clouds 8 1002 81 10000 10.3 320 10:31 17.09.2020
4219 Clouds 8 1002 87 10000 9.3 320 09:53 17.09.2020
4220 Clouds 8 1002 87 10000 9.3 310 09:23 17.09.2020
4221 Clouds 8 1001 93 10000 8.7 310 08:40 17.09.2020
4222 Clouds 8 1001 93 10000 8.7 300 08:22 17.09.2020
4223 Clouds 8 1001 87 10000 9.8 300 07:26 17.09.2020
4224 Clouds 8 1001 87 10000 8.2 300 06:48 17.09.2020
4225 Rain 9 1001 81 10000 7.2 280 05:22 17.09.2020
4226 Clouds 9 1003 81 10000 6.7 280 01:47 17.09.2020
4227 Clouds 9 1004 81 10000 6.2 270 01:28 17.09.2020
4228 Clouds 10 1004 87 10000 7.2 270 00:34 17.09.2020
4229 Clouds 11 1004 81 10000 7.7 280 23:32 16.09.2020
4230 Clouds 11 1004 81 10000 7.7 270 22:44 16.09.2020
4231 Clouds 11 1004 81 10000 7.7 270 22:20 16.09.2020
4232 Clouds 12 1004 87 10000 7.2 280 21:33 16.09.2020
4233 Clouds 13 1003 93 10000 7.2 270 20:46 16.09.2020
4234 Rain 14 1003 93 10000 7.2 270 20:27 16.09.2020
4235 Rain 15 1003 93 10000 4.1 240 19:35 16.09.2020
4236 Rain 17 1004 88 10000 4.1 190 17:25 16.09.2020
4237 Clouds 17 1005 88 10000 4.6 190 16:39 16.09.2020
4238 Clouds 17 1005 88 10000 4.6 180 15:53 16.09.2020
4239 Clouds 16 1006 93 10000 3.6 180 14:59 16.09.2020
4240 Clouds 16 1007 93 10000 3.6 170 14:29 16.09.2020
4241 Clouds 16 1007 93 10000 3.6 170 14:29 16.09.2020
4242 Clouds 15 1007 100 8000 3.6 160 13:50 16.09.2020
4243 Mist 15 1008 93 4000 4.1 160 12:55 16.09.2020
4244 Fog 14 1010 100 300 5.1 160 11:45 16.09.2020
4245 Mist 14 1011 100 3000 4.6 160 10:39 16.09.2020
4246 Clouds 14 1012 100 7000 5.1 140 09:48 16.09.2020
4247 Clouds 13 1012 100 4000 4.6 150 09:30 16.09.2020
4248 Clouds 13 1012 100 4000 4.6 150 08:56 16.09.2020
4249 Fog 13 1014 100 700 5.1 150 07:48 16.09.2020
4250 Clouds 13 1016 93 4500 4.6 120 06:23 16.09.2020
4251 Clouds 11 1021 100 10000 1 110 00:26 16.09.2020
4252 Rain 12 1021 93 10000 1 0 23:40 15.09.2020
4253 Clouds 12 1021 93 10000 1.5 70 22:52 15.09.2020
4254 Clouds 12 1021 93 10000 1 0 22:23 15.09.2020
4255 Clouds 12 1021 93 10000 0.5 0 21:42 15.09.2020
4256 Rain 12 1021 93 10000 0.5 0 20:55 15.09.2020
4257 Rain 13 1021 93 10000 1.5 60 20:23 15.09.2020
4258 Rain 13 1021 93 10000 1.5 60 20:23 15.09.2020
4259 Clouds 13 1021 87 10000 1 50 19:53 15.09.2020
4260 Clouds 14 1021 82 10000 1.5 350 18:55 15.09.2020
4261 Clouds 15 1021 51 10000 2.6 350 17:43 15.09.2020
4262 Clouds 17 1021 48 10000 2.6 340 16:53 15.09.2020
4263 Clouds 17 1021 48 10000 2.6 340 16:33 15.09.2020
4264 Clouds 17 1021 48 10000 3.6 320 15:27 15.09.2020
4265 Clouds 17 1021 55 10000 5.7 300 14:49 15.09.2020
4266 Clouds 16 1021 63 10000 4.1 280 13:37 15.09.2020
4267 Clouds 13 1021 76 10000 2.6 320 11:40 15.09.2020
4268 Clouds 12 1020 76 10000 3.1 270 09:23 15.09.2020
4269 Clouds 10 1020 87 10000 2.6 270 08:50 15.09.2020
4270 Clouds 10 1020 93 10000 2.1 250 07:53 15.09.2020
4271 Rain 9 1019 100 10000 2.6 270 07:21 15.09.2020
4272 Clouds 8 1019 100 10000 2.1 250 03:31 15.09.2020
4273 Clear 10 1018 93 10000 3.6 280 23:30 14.09.2020
4274 Clear 11 1017 87 10000 2.6 280 22:27 14.09.2020
4275 Clear 13 1016 76 10000 2.6 260 20:45 14.09.2020
4276 Clouds 15 1016 76 10000 3.6 250 19:24 14.09.2020
4277 Clouds 15 1016 72 10000 5.1 240 19:24 14.09.2020
4278 Clouds 17 1015 59 10000 4.1 250 18:29 14.09.2020
4279 Clouds 17 1015 59 10000 4.6 260 16:23 14.09.2020
4280 Clouds 17 1015 55 10000 5.7 260 15:52 14.09.2020
4281 Clouds 18 1015 55 10000 6.7 260 14:23 14.09.2020
4282 Clouds 17 1015 59 10000 5.7 270 13:47 14.09.2020
4283 Clouds 16 1014 67 10000 5.7 280 11:29 14.09.2020
4284 Clouds 13 1013 93 10000 3.1 260 09:19 14.09.2020
4285 Clouds 13 1013 93 10000 3.1 250 08:42 14.09.2020
4286 Clouds 10 1010 93 10000 1 250 00:26 14.09.2020
4287 Clear 11 1010 87 10000 3.1 220 21:53 13.09.2020
4288 Clouds 12 1009 71 10000 4.6 230 19:44 13.09.2020
4289 Clouds 16 1008 51 10000 7.2 260 16:26 13.09.2020
4290 Clouds 15 1006 62 10000 7.2 250 12:45 13.09.2020
4291 Clouds 13 1005 71 10000 8.7 250 10:37 13.09.2020
4292 Clouds 13 1004 71 10000 8.2 250 10:18 13.09.2020
4293 Clouds 11 1001 93 10000 5.7 220 06:54 13.09.2020
4294 Rain 14 1001 93 6000 6.2 210 22:43 12.09.2020
4295 Rain 14 1003 93 10000 6.7 200 21:19 12.09.2020
4296 Rain 14 1005 93 5000 6.2 200 19:44 12.09.2020
4297 Rain 14 1006 93 7000 8.2 200 18:24 12.09.2020
4298 Rain 14 1006 93 4500 5.7 200 17:48 12.09.2020
4299 Rain 13 1007 93 8000 7.2 210 16:55 12.09.2020
4300 Rain 14 1008 93 10000 8.7 210 15:29 12.09.2020
4301 Rain 14 1008 87 10000 9.3 210 14:34 12.09.2020
4302 Rain 15 1009 87 10000 6.2 190 11:40 12.09.2020
4303 Rain 13 1009 87 10000 7.2 190 08:33 12.09.2020
4304 Rain 12 1010 87 10000 5.1 200 05:21 12.09.2020
4305 Rain 12 1010 87 10000 5.1 200 04:58 12.09.2020
4306 Clouds 10 1012 81 10000 3.1 210 22:49 11.09.2020
4307 Clouds 11 1012 76 10000 3.1 190 21:37 11.09.2020
4308 Clear 11 1012 81 10000 2.6 200 20:42 11.09.2020
4309 Clouds 14 1013 58 10000 1.34 227 17:57 11.09.2020
4310 Clouds 15 1013 57 10000 2.24 241 17:29 11.09.2020
4311 Clouds 15 1012 44 10000 5.7 240 15:33 11.09.2020
4312 Rain 15 1012 51 10000 4.6 250 13:19 11.09.2020
4313 Clouds 12 1012 76 10000 3.6 240 10:49 11.09.2020
4314 Clouds 8 1011 93 10000 3.1 230 07:35 11.09.2020
4315 Clouds 8 1011 87 10000 2.6 240 06:49 11.09.2020
4316 Clear 10 1004 76 10000 5.7 270 21:29 10.09.2020
4317 Clouds 12 1003 66 10000 8.7 280 19:31 10.09.2020
4318 Clouds 14 998 58 10000 12.3 280 15:55 10.09.2020
4319 Clouds 14 999 63 10000 7.15 305 14:46 10.09.2020
4320 Clouds 13 994 71 10000 9.8 290 11:59 10.09.2020
4321 Clouds 13 994 71 10000 9.8 290 11:26 10.09.2020
4322 Clouds 11 991 87 10000 7.7 270 07:53 10.09.2020
4323 Clouds 11 990 87 10000 8.7 270 07:35 10.09.2020
4324 Rain 15 994 92 10000 1.34 276 22:50 09.09.2020
4325 Clouds 13 999 90 10000 2.68 217 19:58 09.09.2020
4326 Rain 13 1004 87 10000 3.6 220 17:23 09.09.2020
4327 Clouds 14 1004 87 10000 3.6 220 16:29 09.09.2020
4328 Clouds 15 1008 77 10000 3.1 190 11:22 09.09.2020
4329 Clouds 15 1008 82 10000 2.1 200 10:33 09.09.2020
4330 Clouds 15 1008 93 10000 1 0 09:35 09.09.2020
4331 Clear 10 1008 93 10000 1 250 07:38 09.09.2020
4332 Clear 9 1007 100 10000 2.6 270 04:41 09.09.2020
4333 Clear 9 1007 100 10000 2.6 270 04:41 09.09.2020
4334 Clear 9 1007 100 10000 2.6 270 04:41 09.09.2020
4335 Clouds 9 1007 100 10000 2.6 290 03:48 09.09.2020
4336 Clouds 11 1004 100 10000 4.6 290 23:36 08.09.2020
4337 Clouds 11 1004 100 10000 4.6 290 23:36 08.09.2020
4338 Clouds 12 1002 93 10000 4.6 290 21:46 08.09.2020
4339 Clouds 12 1002 93 10000 4.6 290 21:22 08.09.2020
4340 Clouds 13 1001 93 10000 2.1 260 19:45 08.09.2020
4341 Rain 12 1002 93 7000 4.6 180 16:42 08.09.2020
4342 Clouds 14 1006 87 10000 6.2 180 12:27 08.09.2020
4343 Rain 14 1007 82 10000 5.1 210 11:24 08.09.2020
4344 Rain 14 1007 82 10000 6.2 180 10:53 08.09.2020
4345 Clouds 14 1008 77 10000 6.2 180 09:40 08.09.2020
4346 Clouds 12 1009 93 10000 3.1 180 07:46 08.09.2020
4347 Clouds 8 1013 100 10000 0.5 230 01:37 08.09.2020
4348 Clear 10 1013 93 10000 1 0 22:47 07.09.2020
4349 Clear 12 1014 81 10000 3.1 200 21:24 07.09.2020
4350 Clouds 15 1013 63 10000 4.6 190 18:47 07.09.2020
4351 Clouds 17 1013 59 10000 4.6 230 15:45 07.09.2020
4352 Rain 16 1013 67 10000 2.6 180 13:31 07.09.2020
4353 Rain 15 1013 67 10000 4.6 240 12:19 07.09.2020
4354 Rain 15 1013 67 10000 4.6 210 11:41 07.09.2020
4355 Clouds 15 1013 72 10000 3.1 240 10:49 07.09.2020
4356 Fog 10 1011 100 10000 1 140 07:25 07.09.2020
4357 Clouds 11 1010 93 10000 2.1 150 23:37 06.09.2020
4358 Rain 12 1009 87 10000 3.1 200 21:36 06.09.2020
4359 Clouds 13 1009 82 10000 3.6 200 20:38 06.09.2020
4360 Clouds 14 1009 76 10000 4.6 200 19:27 06.09.2020
4361 Clouds 16 1008 63 10000 5.1 210 17:43 06.09.2020
4362 Rain 15 1008 82 10000 6.2 230 15:27 06.09.2020
4363 Clouds 16 1008 72 10000 4.6 190 13:56 06.09.2020
4364 Rain 14 1008 87 10000 4.1 210 12:24 06.09.2020
4365 Clouds 14 1007 87 10000 3.6 180 08:59 06.09.2020
4366 Clouds 12 1007 93 10000 4.6 250 05:19 06.09.2020
4367 Clouds 13 1006 93 10000 4.1 200 22:40 05.09.2020
4368 Rain 14 1006 93 6000 5.7 210 20:23 05.09.2020
4369 Rain 16 1007 72 10000 4.1 170 16:18 05.09.2020
4370 Clouds 18 1008 63 10000 8.7 190 14:20 05.09.2020
4371 Clouds 17 1008 77 10000 6.7 190 12:43 05.09.2020
4372 Clouds 17 1008 82 10000 5.7 190 11:59 05.09.2020
4373 Clouds 16 1008 87 10000 5.1 190 10:44 05.09.2020
4374 Rain 15 1008 93 10000 5.1 190 09:35 05.09.2020
4375 Rain 16 1008 93 10000 6.2 190 07:46 05.09.2020
4376 Clouds 16 1010 93 10000 5.7 180 23:59 04.09.2020
4377 Clouds 16 1011 93 10000 6.2 150 19:56 04.09.2020
4378 Clouds 15 1012 93 5000 6.7 180 19:27 04.09.2020
4379 Clouds 17 1012 77 10000 6.2 190 18:25 04.09.2020
4380 Clouds 18 1012 72 10000 6.2 210 16:18 04.09.2020
4381 Rain 17 1012 88 10000 5.1 210 14:51 04.09.2020
4382 Clouds 15 1012 93 10000 4.6 170 11:18 04.09.2020
4383 Clouds 15 1012 93 10000 4.6 170 08:48 04.09.2020
4384 Rain 14 1013 93 10000 3.6 150 05:58 04.09.2020
4385 Drizzle 16 1015 93 10000 3.6 180 22:51 03.09.2020
4386 Drizzle 16 1015 93 10000 3.6 180 22:32 03.09.2020
4387 Rain 16 1015 93 10000 4.6 140 21:18 03.09.2020
4388 Clouds 16 1015 100 10000 4.6 130 20:27 03.09.2020
4389 Clouds 17 1015 88 10000 5.1 100 18:24 03.09.2020
4390 Clouds 17 1015 88 10000 4.1 90 16:34 03.09.2020
4391 Clouds 17 1016 88 10000 5.7 110 15:20 03.09.2020
4392 Rain 17 1017 93 10000 6.2 110 12:29 03.09.2020
4393 Clouds 16 1017 87 10000 3.6 80 10:51 03.09.2020
4394 Clouds 15 1017 93 10000 4.1 40 08:59 03.09.2020
4395 Clouds 14 1022 82 10000 3.6 50 00:22 03.09.2020
4396 Clouds 14 1023 82 10000 4.6 60 21:48 02.09.2020
4397 Clouds 14 1023 82 10000 4.6 60 20:30 02.09.2020
4398 Clouds 15 1023 77 10000 6.2 60 18:18 02.09.2020
4399 Clouds 16 1023 77 10000 6.7 60 17:25 02.09.2020
4400 Clouds 15 1026 72 10000 6.2 70 12:28 02.09.2020
4401 Clouds 14 1026 76 10000 3.1 50 08:54 02.09.2020
4402 Clouds 10 1026 87 10000 3.1 50 07:46 02.09.2020
4403 Clear 9 1025 100 10000 1.5 350 00:24 02.09.2020
4404 Clear 10 1024 93 10000 1 0 22:27 01.09.2020
4405 Clear 13 1023 82 10000 1.5 30 20:21 01.09.2020
4406 Clear 17 1022 59 10000 2.1 40 18:48 01.09.2020
4407 Clear 17 1022 52 10000 3.1 30 18:20 01.09.2020
4408 Clear 18 1022 52 10000 4.6 360 16:40 01.09.2020
4409 Clear 18 1021 55 10000 4.6 10 15:57 01.09.2020
4410 Clouds 18 1021 45 10000 3.1 20 14:36 01.09.2020
4411 Clouds 16 1020 59 10000 4.6 10 12:24 01.09.2020
4412 Clear 14 1019 76 10000 4.1 360 09:46 01.09.2020
4413 Clear 12 1018 81 10000 4.1 350 08:41 01.09.2020
4414 Clouds 11 1012 87 10000 3.6 340 23:39 31.08.2020
4415 Clouds 12 1011 93 10000 3.6 360 21:45 31.08.2020
4416 Rain 13 1009 93 10000 4.1 10 18:37 31.08.2020
4417 Rain 13 1008 100 5000 4.1 360 17:23 31.08.2020
4418 Clouds 14 1008 100 3000 2.6 360 15:35 31.08.2020
4419 Clouds 14 1007 93 10000 3.1 10 12:29 31.08.2020
4420 Drizzle 14 1006 100 9000 3.1 340 09:40 31.08.2020
4421 Clouds 13 1006 100 10000 3.1 320 07:19 31.08.2020
4422 Clouds 13 1007 100 10000 2.6 320 02:30 31.08.2020
4423 Clouds 13 1007 100 10000 3.6 300 23:21 30.08.2020
4424 Clouds 13 1007 100 8000 3.6 310 21:51 30.08.2020
4425 Rain 13 1006 100 10000 3.6 330 19:24 30.08.2020
4426 Clouds 13 1006 100 10000 4.1 340 18:43 30.08.2020
4427 Rain 14 1006 93 10000 3.6 350 17:34 30.08.2020
4428 Rain 14 1005 93 10000 4.6 30 15:25 30.08.2020
4429 Rain 14 1005 93 10000 4.6 30 14:53 30.08.2020
4430 Clouds 14 1005 93 10000 4.6 50 13:22 30.08.2020
4431 Clouds 13 1004 93 10000 5.1 50 11:40 30.08.2020
4432 Clouds 13 1004 100 10000 4.6 50 10:21 30.08.2020
4433 Rain 12 1003 100 7000 5.7 30 08:58 30.08.2020
4434 Rain 12 1006 93 10000 2.6 40 00:27 30.08.2020
4435 Rain 14 1007 82 10000 4.1 70 21:40 29.08.2020
4436 Clouds 15 1009 82 10000 2.1 90 20:27 29.08.2020
4437 Clouds 16 1009 72 10000 3.1 100 18:49 29.08.2020
4438 Clouds 16 1009 67 10000 4.6 110 17:54 29.08.2020
4439 Clouds 17 1010 59 10000 5.1 110 16:50 29.08.2020
4440 Clouds 17 1010 59 10000 5.7 110 15:55 29.08.2020
4441 Clouds 16 1011 63 10000 4.1 120 11:58 29.08.2020
4442 Clouds 14 1011 82 10000 3.6 60 08:59 29.08.2020
4443 Clouds 13 1011 93 10000 1.5 40 08:18 29.08.2020
4444 Clouds 11 1010 93 10000 2.6 330 22:42 28.08.2020
4445 Clouds 12 1010 93 10000 1 0 21:31 28.08.2020
4446 Rain 15 1009 71 10000 4.6 50 19:22 28.08.2020
4447 Clouds 16 1009 76 10000 2.1 330 18:33 28.08.2020
4448 Clouds 17 1009 55 10000 2.1 360 17:29 28.08.2020
4449 Clouds 18 1009 52 10000 1.5 280 16:24 28.08.2020
4450 Clouds 18 1009 55 10000 4.1 70 14:45 28.08.2020
4451 Clouds 18 1009 45 10000 3.1 100 14:24 28.08.2020
4452 Clouds 17 1009 59 10000 2.6 360 13:46 28.08.2020
4453 Clouds 17 1009 55 10000 4.6 30 11:32 28.08.2020
4454 Clear 14 1009 71 10000 2.1 360 09:28 28.08.2020
4455 Clear 11 1009 87 10000 2.1 350 08:22 28.08.2020
4456 Clear 7 1009 93 10000 1 0 05:39 28.08.2020
4457 Clear 10 1008 93 10000 3.1 340 23:53 27.08.2020
4458 Clear 10 1008 93 10000 3.1 340 23:34 27.08.2020
4459 Clear 11 1007 93 10000 2.1 350 21:23 27.08.2020
4460 Clouds 14 1007 87 10000 1.5 340 20:30 27.08.2020
4461 Clouds 15 1006 58 10000 2.6 350 19:45 27.08.2020
4462 Clouds 17 1006 48 10000 3.6 340 17:26 27.08.2020
4463 Clouds 18 1005 48 10000 5.1 350 16:47 27.08.2020
4464 Clouds 18 1005 45 10000 4.1 340 15:45 27.08.2020
4465 Clouds 17 1004 51 10000 5.1 350 13:34 27.08.2020
4466 Clouds 16 1004 62 10000 3.1 350 11:41 27.08.2020
4467 Clear 13 1004 87 10000 1 0 09:54 27.08.2020
4468 Clouds 11 1004 81 10000 1 0 09:25 27.08.2020
4469 Clouds 10 1003 93 10000 2.1 340 06:38 27.08.2020
4470 Clouds 10 1002 93 10000 2.1 310 01:19 27.08.2020
4471 Clouds 11 1002 93 10000 3.16 323 22:39 26.08.2020
4472 Clouds 13 1002 93 10000 1 280 21:50 26.08.2020
4473 Clouds 16 1002 76 10000 1.5 240 19:59 26.08.2020
4474 Clouds 16 1002 51 10000 0.89 292 18:43 26.08.2020
4475 Clouds 19 1001 42 10000 5.7 220 17:22 26.08.2020
4476 Clouds 18 1001 55 10000 6.7 190 14:58 26.08.2020
4477 Rain 18 1002 45 10000 3.1 250 12:24 26.08.2020
4478 Rain 15 1002 67 10000 2.6 260 09:27 26.08.2020
4479 Clear 7 1002 100 10000 1.26 293 05:45 26.08.2020
4480 Clouds 13 1003 82 10000 2.1 250 22:41 25.08.2020
4481 Clouds 14 1003 76 10000 2.6 220 21:28 25.08.2020
4482 Clouds 16 1003 63 10000 3.6 210 20:49 25.08.2020
4483 Clouds 16 1003 67 10000 4.1 210 20:21 25.08.2020
4484 Clouds 16 1003 59 10000 4.1 220 19:43 25.08.2020
4485 Clouds 17 1003 59 10000 4.6 220 18:36 25.08.2020
4486 Clouds 18 1004 52 10000 5.1 180 16:59 25.08.2020
4487 Clouds 19 1004 52 10000 4.6 200 15:51 25.08.2020
4488 Rain 18 1005 63 10000 4.1 190 14:42 25.08.2020
4489 Clouds 18 1005 68 10000 4.1 190 13:27 25.08.2020
4490 Rain 17 1006 72 10000 1.34 190 11:39 25.08.2020
4491 Rain 14 1005 82 10000 2.1 60 08:57 25.08.2020
4492 Clouds 13 1006 87 10000 3.1 50 07:50 25.08.2020
4493 Clouds 12 1006 100 10000 1.5 0 07:21 25.08.2020
4494 Fog 11 1006 100 10000 2.6 340 06:43 25.08.2020
4495 Fog 10 1006 100 10000 1 10 05:56 25.08.2020
4496 Fog 10 1006 100 10000 1 0 05:36 25.08.2020
4497 Clouds 11 1006 100 10000 1.71 49 03:52 25.08.2020
4498 Clouds 11 1006 100 10000 1.6 43 03:33 25.08.2020
4499 Rain 12 1005 100 10000 1.5 340 02:48 25.08.2020
4500 Clouds 12 1005 100 10000 1 300 01:59 25.08.2020
4501 Clouds 14 1004 93 10000 2.6 210 21:51 24.08.2020
4502 Clouds 15 1004 87 10000 1.5 220 21:18 24.08.2020
4503 Rain 16 1004 82 10000 2.1 240 20:21 24.08.2020
4504 Rain 16 1004 82 10000 2.1 220 19:32 24.08.2020
4505 Rain 18 1003 72 10000 4.6 310 17:36 24.08.2020
4506 Rain 19 1002 68 10000 5.7 230 16:35 24.08.2020
4507 Rain 19 1002 72 10000 6.2 240 15:24 24.08.2020
4508 Rain 19 1002 68 10000 6.7 230 14:32 24.08.2020
4509 Rain 18 1002 77 10000 7.2 220 13:55 24.08.2020
4510 Rain 19 1001 68 10000 7.2 240 12:20 24.08.2020
4511 Rain 19 1001 68 10000 7.2 240 11:54 24.08.2020
4512 Rain 19 1001 72 10000 7.7 230 11:33 24.08.2020
4513 Rain 19 1001 77 10000 7.2 230 10:39 24.08.2020
4514 Clouds 18 1001 77 10000 6.2 220 09:58 24.08.2020
4515 Clouds 17 1000 88 10000 5.7 220 08:26 24.08.2020
4516 Rain 14 1001 93 10000 3.6 160 05:26 24.08.2020
4517 Rain 16 1001 87 10000 3.1 210 00:30 24.08.2020
4518 Thunderstorm 16 1002 87 6000 6.2 230 23:54 23.08.2020
4519 Thunderstorm 17 1002 87 6000 6.2 230 23:34 23.08.2020
4520 Rain 18 1003 77 10000 5.1 210 20:49 23.08.2020
4521 Clouds 19 1003 72 10000 6.7 210 19:18 23.08.2020
4522 Clouds 20 1003 64 10000 7.2 220 18:19 23.08.2020
4523 Clouds 20 1003 72 10000 4.6 220 17:23 23.08.2020
4524 Clouds 20 1003 68 10000 5.7 220 17:23 23.08.2020
4525 Rain 21 1003 72 10000 5.1 220 16:20 23.08.2020
4526 Clouds 21 1004 60 10000 7.7 210 14:51 23.08.2020
4527 Clouds 21 1003 53 10000 8.2 230 13:34 23.08.2020
4528 Clouds 21 1003 64 10000 6.2 230 12:29 23.08.2020
4529 Clouds 21 1003 64 10000 7.7 220 10:38 23.08.2020
4530 Clouds 20 1003 82 10000 5.7 230 09:45 23.08.2020
4531 Clouds 18 1002 100 10000 3.6 190 06:42 23.08.2020
4532 Clouds 18 1004 100 10000 5.7 190 00:50 23.08.2020
4533 Clouds 18 1004 100 10000 5.7 190 00:31 23.08.2020
4534 Clouds 18 1004 93 10000 5.7 190 23:56 22.08.2020
4535 Clouds 18 1005 93 10000 8.2 180 23:19 22.08.2020
4536 Rain 18 1006 93 8000 6.7 170 21:23 22.08.2020
4537 Rain 18 1007 93 10000 6.2 150 19:44 22.08.2020
4538 Rain 18 1009 93 10000 5.1 150 17:55 22.08.2020
4539 Clouds 18 1009 93 10000 5.7 140 17:37 22.08.2020
4540 Rain 18 1010 93 4500 6.2 150 16:21 22.08.2020
4541 Clouds 18 1012 88 10000 6.2 150 13:41 22.08.2020
4542 Rain 17 1012 93 10000 5.1 150 11:58 22.08.2020
4543 Clouds 17 1013 88 10000 5.7 160 10:46 22.08.2020
4544 Clouds 18 1013 88 10000 5.7 160 10:26 22.08.2020
4545 Rain 17 1014 93 10000 4.1 160 07:39 22.08.2020
4546 Clouds 18 1016 82 10000 4.1 160 01:33 22.08.2020
4547 Clouds 18 1016 82 10000 2.6 110 22:26 21.08.2020
4548 Clouds 19 1016 77 10000 2.6 100 20:51 21.08.2020
4549 Clouds 23 1016 56 10000 4.6 110 17:41 21.08.2020
4550 Clouds 24 1017 47 10000 5.1 140 14:48 21.08.2020
4551 Clouds 24 1017 47 10000 5.1 150 13:55 21.08.2020
4552 Clouds 22 1017 53 10000 4.1 160 11:47 21.08.2020
4553 Clear 22 1017 49 10000 4.1 140 11:21 21.08.2020
4554 Clouds 18 1016 82 10000 2.1 110 08:19 21.08.2020
4555 Clouds 14 1015 93 10000 1 80 00:20 21.08.2020
4556 Clouds 15 1015 93 10000 1.5 80 23:18 20.08.2020
4557 Clouds 19 1014 68 10000 3.1 120 20:42 20.08.2020
4558 Clouds 21 1014 56 10000 4.1 130 18:47 20.08.2020
4559 Clouds 22 1014 46 10000 3.6 150 17:53 20.08.2020
4560 Clouds 23 1014 46 10000 4.6 130 14:56 20.08.2020
4561 Clouds 24 1014 49 10000 4.1 140 13:55 20.08.2020
4562 Clouds 23 1014 53 10000 3.1 180 12:18 20.08.2020
4563 Clouds 23 1014 53 10000 3.1 170 11:37 20.08.2020
4564 Clear 21 1014 53 10000 2.1 140 10:18 20.08.2020
4565 Clear 20 1013 82 10000 2.1 130 08:50 20.08.2020
4566 Clear 16 1013 93 10000 1 60 07:44 20.08.2020
4567 Fog 12 1013 100 10000 2.1 60 04:54 20.08.2020
4568 Clouds 12 1013 100 10000 2.1 50 04:28 20.08.2020
4569 Clouds 13 1013 100 10000 1 10 00:43 20.08.2020
4570 Clear 14 1012 93 10000 1 80 22:47 19.08.2020
4571 Clear 17 1012 82 10000 1.5 90 20:52 19.08.2020
4572 Clear 20 1012 52 10000 3.1 100 19:24 19.08.2020
4573 Clouds 21 1012 56 10000 3.6 100 17:54 19.08.2020
4574 Clouds 22 1012 52 10000 3.6 130 17:33 19.08.2020
4575 Clouds 23 1012 46 10000 4.1 150 15:38 19.08.2020
4576 Clouds 23 1012 53 10000 3.6 130 13:52 19.08.2020
4577 Clouds 23 1012 49 10000 3.6 140 12:36 19.08.2020
4578 Clouds 22 1012 64 10000 3.1 140 10:37 19.08.2020
4579 Clouds 20 1011 72 10000 2.1 140 09:50 19.08.2020
4580 Clouds 20 1011 72 10000 2.1 140 09:26 19.08.2020
4581 Clouds 14 1011 93 10000 1 150 02:47 19.08.2020
4582 Clear 17 1011 88 10000 3.6 140 22:19 18.08.2020
4583 Clear 17 1010 82 10000 3.6 130 21:47 18.08.2020
4584 Clear 18 1010 77 10000 3.1 130 20:58 18.08.2020
4585 Clouds 19 1010 72 10000 4.1 130 20:24 18.08.2020
4586 Clouds 19 1010 68 10000 4.1 130 19:46 18.08.2020
4587 Clouds 23 1010 60 10000 4.1 180 17:48 18.08.2020
4588 Clouds 23 1010 60 10000 4.6 170 17:19 18.08.2020
4589 Clouds 23 1011 49 10000 4.6 190 15:45 18.08.2020
4590 Clear 23 1011 49 10000 2.1 180 14:37 18.08.2020
4591 Clear 23 1012 40 10000 1.5 0 13:20 18.08.2020
4592 Clear 21 1012 40 10000 2.6 0 12:19 18.08.2020
4593 Clear 19 1013 85 10000 0.45 139 09:52 18.08.2020
4594 Clear 13 1013 82 10000 1 40 07:57 18.08.2020
4595 Clear 10 1013 93 10000 0.5 0 07:27 18.08.2020
4596 Clouds 10 1014 93 10000 1 330 01:33 18.08.2020
4597 Clouds 12 1013 87 10000 0.5 0 23:25 17.08.2020
4598 Clouds 12 1013 93 10000 2.07 20 22:38 17.08.2020
4599 Clouds 15 1013 87 10000 1.5 10 21:33 17.08.2020
4600 Clear 18 1013 72 10000 2.1 330 20:27 17.08.2020
4601 Clear 23 1013 37 10000 4.1 310 18:40 17.08.2020
4602 Clear 23 1013 43 10000 6.2 310 16:43 17.08.2020
4603 Clear 23 1013 43 10000 5.7 310 15:36 17.08.2020
4604 Clear 22 1013 46 10000 5.1 290 14:55 17.08.2020
4605 Clouds 22 1014 49 10000 5.1 290 13:30 17.08.2020
4606 Clouds 22 1014 49 10000 5.1 290 13:30 17.08.2020
4607 Clear 20 1014 55 10000 5.1 270 11:44 17.08.2020
4608 Clear 20 1014 55 10000 5.1 270 11:25 17.08.2020
4609 Clear 19 1015 55 10000 3.6 270 10:21 17.08.2020
4610 Clear 18 1015 55 10000 3.6 270 09:58 17.08.2020
4611 Clear 10 1015 87 10000 1.5 320 06:48 17.08.2020
4612 Clear 13 1013 71 10000 4.1 310 00:34 17.08.2020
4613 Clear 15 1013 51 10000 4.6 300 22:39 16.08.2020
4614 Clear 17 1012 48 10000 4.6 300 22:18 16.08.2020
4615 Clear 23 1011 33 10000 4.6 310 18:59 16.08.2020
4616 Clear 24 1011 32 10000 1.79 274 18:27 16.08.2020
4617 Clear 25 1011 39 10000 3.58 272 16:37 16.08.2020
4618 Clear 25 1011 24 10000 1.79 308 15:59 16.08.2020
4619 Clear 26 1011 29 10000 1.79 315 15:20 16.08.2020
4620 Clouds 25 1011 31 10000 1.79 311 13:44 16.08.2020
4621 Clouds 24 1011 31 10000 1.79 308 12:30 16.08.2020
4622 Clouds 24 1011 31 10000 0.89 324 11:46 16.08.2020
4623 Clouds 24 1012 66 10000 0.89 283 11:19 16.08.2020
4624 Clouds 23 1012 32 10000 1.79 297 10:40 16.08.2020
4625 Clouds 21 1012 77 10000 3.6 300 09:26 16.08.2020
4626 Clouds 20 1012 77 10000 3.6 310 07:59 16.08.2020
4627 Clouds 18 1012 88 10000 4.1 300 07:20 16.08.2020
4628 Clear 19 1012 88 10000 2.6 240 22:50 15.08.2020
4629 Clear 20 1013 82 10000 2.6 240 21:39 15.08.2020
4630 Clouds 21 1013 73 10000 4.1 230 20:33 15.08.2020
4631 Clouds 23 1013 53 10000 3.6 260 19:20 15.08.2020
4632 Clouds 25 1013 53 10000 4.1 260 18:18 15.08.2020
4633 Clouds 24 1013 50 10000 4.6 280 16:46 15.08.2020
4634 Clouds 25 1013 53 10000 3.1 260 15:19 15.08.2020
4635 Clouds 25 1013 53 10000 3.1 260 15:19 15.08.2020
4636 Clouds 23 1014 57 10000 3.6 280 14:28 15.08.2020
4637 Clouds 21 1014 68 10000 1 0 12:36 15.08.2020
4638 Clouds 21 1014 73 10000 1 0 11:41 15.08.2020
4639 Clouds 20 1014 82 10000 1.5 280 11:20 15.08.2020
4640 Clouds 19 1014 82 10000 2.1 260 10:41 15.08.2020
4641 Clouds 17 1014 88 10000 2.1 240 09:45 15.08.2020
4642 Clouds 17 1014 88 10000 2.1 310 09:27 15.08.2020
4643 Clouds 17 1014 93 10000 2.6 290 08:23 15.08.2020
4644 Clouds 14 1014 93 10000 2.1 240 02:51 15.08.2020
4645 Clouds 15 1014 82 10000 1.5 230 23:58 14.08.2020
4646 Clouds 17 1014 77 10000 2.6 230 22:50 14.08.2020
4647 Clear 18 1014 72 10000 3.1 210 20:41 14.08.2020
4648 Clouds 19 1014 68 10000 4.1 230 19:45 14.08.2020
4649 Clouds 21 1014 68 10000 3.6 180 16:55 14.08.2020
4650 Clouds 20 1015 72 10000 4.6 170 14:53 14.08.2020
4651 Clouds 20 1015 72 10000 4.1 150 14:28 14.08.2020
4652 Clouds 19 1015 72 10000 3.1 170 13:55 14.08.2020
4653 Clouds 19 1016 72 10000 2.1 110 11:34 14.08.2020
4654 Clouds 17 1016 82 10000 1.5 130 09:32 14.08.2020
4655 Clouds 14 1016 87 10000 1.5 70 07:43 14.08.2020
4656 Clouds 10 1018 100 10000 2.1 40 01:19 14.08.2020
4657 Clouds 10 1017 93 10000 2.6 40 00:42 14.08.2020
4658 Clear 11 1018 100 10000 1 0 22:53 13.08.2020
4659 Clear 10 1018 100 10000 2.1 50 21:57 13.08.2020
4660 Clouds 13 1018 93 10000 1.5 70 21:19 13.08.2020
4661 Clouds 15 1018 72 10000 1.5 90 20:27 13.08.2020
4662 Clouds 17 1017 67 10000 4.6 110 18:31 13.08.2020
4663 Clouds 16 1017 72 10000 4.6 130 17:30 13.08.2020
4664 Clouds 17 1017 67 10000 4.6 120 15:28 13.08.2020
4665 Clouds 17 1018 77 10000 4.6 110 13:21 13.08.2020
4666 Clouds 16 1018 77 10000 4.6 100 12:43 13.08.2020
4667 Clouds 15 1018 82 10000 4.6 90 11:28 13.08.2020
4668 Clouds 15 1018 93 10000 3.6 70 08:43 13.08.2020
4669 Clouds 14 1018 100 10000 3.1 90 07:36 13.08.2020
4670 Rain 14 1020 100 10000 3.1 40 23:40 12.08.2020
4671 Rain 14 1020 93 10000 2.6 80 22:46 12.08.2020
4672 Rain 15 1020 87 10000 2.6 150 22:18 12.08.2020
4673 Rain 15 1020 72 10000 3.1 180 21:29 12.08.2020
4674 Clouds 16 1020 67 10000 3.1 180 20:55 12.08.2020
4675 Clouds 16 1020 67 10000 3.1 180 20:36 12.08.2020
4676 Clouds 16 1020 67 10000 3.1 190 20:18 12.08.2020
4677 Clouds 18 1021 59 10000 4.1 190 18:27 12.08.2020
4678 Clouds 17 1021 59 10000 5.1 190 17:31 12.08.2020
4679 Clouds 17 1022 59 10000 1.5 350 15:21 12.08.2020
4680 Clouds 17 1023 55 10000 2.1 300 14:51 12.08.2020
4681 Clouds 17 1023 51 10000 1.5 360 13:27 12.08.2020
4682 Clouds 17 1024 51 10000 1.5 340 12:26 12.08.2020
4683 Clouds 17 1024 51 10000 1 0 10:52 12.08.2020
4684 Clear 15 1024 58 10000 1.5 50 09:38 12.08.2020
4685 Clouds 9 1025 87 10000 1.5 350 01:55 12.08.2020
4686 Clouds 11 1024 87 10000 2.1 330 22:24 11.08.2020
4687 Clouds 13 1024 87 10000 2.6 340 21:54 11.08.2020
4688 Clouds 14 1024 66 10000 1.5 30 21:23 11.08.2020
4689 Clouds 15 1024 54 10000 2.6 20 20:51 11.08.2020
4690 Clouds 17 1024 55 10000 3.6 360 19:31 11.08.2020
4691 Clouds 17 1024 48 10000 4.6 360 18:37 11.08.2020
4692 Clouds 18 1024 51 10000 4.1 360 17:24 11.08.2020
4693 Clouds 18 1024 51 10000 5.1 10 16:26 11.08.2020
4694 Clouds 19 1024 45 10000 4.1 350 14:51 11.08.2020
4695 Clouds 19 1024 42 10000 5.1 360 14:30 11.08.2020
4696 Clouds 18 1024 45 10000 5.7 360 12:51 11.08.2020
4697 Clouds 18 1024 51 10000 5.1 10 12:30 11.08.2020
4698 Clouds 18 1024 48 10000 5.7 360 11:29 11.08.2020
4699 Clouds 17 1024 52 10000 5.7 350 10:31 11.08.2020
4700 Clouds 14 1024 82 10000 3.6 340 07:55 11.08.2020
4701 Clouds 12 1024 81 10000 4.1 340 07:21 11.08.2020
4702 Clear 10 1024 87 10000 4.1 340 05:42 11.08.2020
4703 Clear 11 1023 87 10000 3.1 340 03:18 11.08.2020
4704 Clear 11 1023 87 10000 3.1 340 02:39 11.08.2020
4705 Clear 11 1023 87 10000 3.1 330 02:18 11.08.2020
4706 Clear 13 1023 93 10000 3.1 340 00:33 11.08.2020
4707 Clear 15 1022 67 10000 3.1 350 22:28 10.08.2020
4708 Clear 17 1021 77 10000 2.1 360 20:57 10.08.2020
4709 Clouds 18 1021 77 10000 2.1 360 20:38 10.08.2020
4710 Clouds 20 1021 49 10000 4.1 360 19:38 10.08.2020
4711 Clouds 21 1021 49 10000 4.1 360 19:18 10.08.2020
4712 Clear 22 1021 49 10000 6.2 360 16:56 10.08.2020
4713 Clear 22 1021 43 10000 6.7 340 15:44 10.08.2020
4714 Clear 22 1021 43 10000 5.1 350 13:39 10.08.2020
4715 Clouds 21 1021 49 10000 5.7 360 11:53 10.08.2020
4716 Clouds 20 1021 55 10000 5.1 10 10:54 10.08.2020
4717 Clouds 18 1021 63 10000 5.1 360 09:51 10.08.2020
4718 Clear 17 1020 67 10000 4.1 340 08:46 10.08.2020
4719 Clear 19 1018 88 10000 3.1 300 23:21 09.08.2020
4720 Clouds 19 1018 100 10000 2.6 330 21:49 09.08.2020
4721 Clouds 24 1017 73 10000 2.6 280 19:50 09.08.2020
4722 Clouds 25 1017 69 10000 2.6 270 19:29 09.08.2020
4723 Clouds 26 1017 73 10000 3.1 290 18:23 09.08.2020
4724 Thunderstorm 26 1017 83 10000 2.6 310 17:41 09.08.2020
4725 Rain 26 1017 61 10000 5.7 320 17:21 09.08.2020
4726 Clouds 27 1018 51 10000 4.1 260 15:24 09.08.2020
4727 Clouds 27 1018 47 10000 4.1 250 14:37 09.08.2020
4728 Clouds 27 1019 51 10000 4.6 270 13:36 09.08.2020
4729 Clouds 26 1019 54 10000 4.6 230 12:55 09.08.2020
4730 Clouds 26 1019 50 10000 5.7 240 11:51 09.08.2020
4731 Clear 24 1019 53 10000 4.6 240 10:52 09.08.2020
4732 Clear 23 1019 53 10000 3.6 230 09:19 09.08.2020
4733 Clear 22 1020 64 10000 3.6 230 08:28 09.08.2020
4734 Clear 14 1021 100 10000 0.5 230 02:24 09.08.2020
4735 Clear 17 1021 87 10000 2.1 250 23:47 08.08.2020
4736 Clear 23 1021 50 10000 4.1 240 19:56 08.08.2020
4737 Clear 26 1022 50 10000 4.1 230 18:27 08.08.2020
4738 Clouds 26 1022 47 10000 4.6 230 17:47 08.08.2020
4739 Clouds 27 1022 48 10000 4.6 0 16:24 08.08.2020
4740 Clouds 27 1023 47 10000 5.1 210 15:41 08.08.2020
4741 Clouds 27 1023 47 10000 3.1 240 14:48 08.08.2020
4742 Clouds 26 1023 47 10000 3.6 240 14:23 08.08.2020
4743 Clear 25 1024 47 10000 3.1 250 12:24 08.08.2020
4744 Clear 24 1025 47 10000 2.6 220 10:47 08.08.2020
4745 Clear 18 1026 93 10000 1 240 07:41 08.08.2020
4746 Clear 17 1026 93 10000 1 0 06:57 08.08.2020
4747 Fog 15 1026 100 10000 1 260 02:24 08.08.2020
4748 Clear 18 1025 93 10000 2.1 190 22:21 07.08.2020
4749 Clear 20 1025 82 10000 2.1 210 21:21 07.08.2020
4750 Clear 20 1025 77 10000 3.1 220 20:42 07.08.2020
4751 Clouds 24 1026 73 10000 3.1 180 18:32 07.08.2020
4752 Clouds 23 1026 69 10000 5.1 210 16:54 07.08.2020
4753 Clouds 23 1027 73 10000 4.1 170 14:51 07.08.2020
4754 Clouds 23 1027 69 10000 4.6 190 13:19 07.08.2020
4755 Clouds 22 1027 68 10000 3.1 170 12:20 07.08.2020
4756 Clouds 19 1027 82 10000 2.6 200 10:18 07.08.2020
4757 Clouds 18 1027 93 10000 1 0 08:57 07.08.2020
4758 Fog 13 1025 100 1100 1 270 03:53 07.08.2020
4759 Fog 14 1025 100 10000 2.27 291 01:41 07.08.2020
4760 Clouds 15 1024 100 10000 1.5 250 00:33 07.08.2020
4761 Clouds 16 1024 100 10000 2.6 230 22:43 06.08.2020
4762 Clouds 18 1023 93 10000 1.5 230 20:50 06.08.2020
4763 Clouds 18 1023 93 10000 1 230 20:31 06.08.2020
4764 Clouds 18 1022 93 10000 1.5 240 19:35 06.08.2020
4765 Drizzle 18 1022 93 10000 2.1 210 18:51 06.08.2020
4766 Rain 19 1022 82 10000 1.5 210 17:44 06.08.2020
4767 Drizzle 19 1022 82 10000 2.1 220 17:23 06.08.2020
4768 Clouds 19 1022 77 10000 5.7 210 15:43 06.08.2020
4769 Clouds 20 1021 72 10000 6.2 210 14:44 06.08.2020
4770 Clouds 19 1021 77 10000 6.7 200 13:38 06.08.2020
4771 Clouds 19 1021 88 10000 5.7 180 12:51 06.08.2020
4772 Clouds 18 1021 88 10000 5.1 180 11:36 06.08.2020
4773 Rain 17 1020 93 10000 4.6 180 10:29 06.08.2020
4774 Clouds 17 1020 88 10000 4.1 200 08:55 06.08.2020
4775 Clouds 17 1020 88 10000 4.1 200 08:36 06.08.2020
4776 Clouds 16 1019 88 10000 4.6 190 07:39 06.08.2020
4777 Clouds 13 1018 82 10000 3.1 200 01:55 06.08.2020
4778 Clouds 14 1018 82 10000 3.1 220 23:42 05.08.2020
4779 Clouds 15 1018 67 10000 3.6 220 22:56 05.08.2020
4780 Clouds 16 1017 67 10000 4.1 220 22:23 05.08.2020
4781 Clouds 16 1017 67 10000 4.1 230 21:33 05.08.2020
4782 Clouds 17 1017 72 10000 4.1 210 20:44 05.08.2020
4783 Clouds 19 1016 63 10000 3.6 220 19:36 05.08.2020
4784 Clouds 20 1016 56 10000 5.7 190 18:34 05.08.2020
4785 Clouds 20 1015 49 10000 5.7 210 17:32 05.08.2020
4786 Clouds 21 1015 56 10000 6.2 210 15:48 05.08.2020
4787 Clouds 21 1015 46 10000 4.1 240 15:30 05.08.2020
4788 Clouds 21 1015 46 10000 4.6 240 14:48 05.08.2020
4789 Clouds 22 1015 52 10000 4.6 280 14:23 05.08.2020
4790 Clouds 20 1014 55 10000 5.1 270 13:19 05.08.2020
4791 Clouds 20 1014 60 10000 3.6 270 12:18 05.08.2020
4792 Clouds 18 1013 63 10000 3.6 290 10:55 05.08.2020
4793 Clouds 17 1013 72 10000 3.6 280 10:21 05.08.2020
4794 Clouds 17 1013 72 10000 3.6 280 10:21 05.08.2020
4795 Clouds 17 1013 72 10000 3.6 300 09:47 05.08.2020
4796 Clouds 14 1012 87 10000 2.6 290 07:54 05.08.2020
4797 Clouds 13 1011 100 10000 2.6 290 07:33 05.08.2020
4798 Clouds 15 1009 100 6000 2.1 270 01:27 05.08.2020
4799 Fog 15 1009 100 8000 1 240 23:56 04.08.2020
4800 Fog 15 1009 100 8000 1 240 23:38 04.08.2020
4801 Clouds 15 1009 100 10000 1.5 230 23:20 04.08.2020
4802 Fog 16 1009 100 10000 2.1 210 22:30 04.08.2020
4803 Fog 16 1009 100 10000 1.5 170 21:57 04.08.2020
4804 Clouds 16 1009 93 10000 1 0 20:33 04.08.2020
4805 Clouds 16 1009 93 10000 2.6 140 19:25 04.08.2020
4806 Rain 17 1009 93 10000 3.6 140 17:57 04.08.2020
4807 Rain 17 1009 100 10000 3.6 130 17:29 04.08.2020
4808 Rain 17 1009 93 10000 4.1 160 16:18 04.08.2020
4809 Clouds 18 1009 77 10000 3.1 160 15:30 04.08.2020
4810 Clouds 19 1009 68 10000 3.1 180 14:24 04.08.2020
4811 Clouds 18 1009 77 10000 2.6 170 13:20 04.08.2020
4812 Clouds 17 1009 77 10000 4.1 170 11:34 04.08.2020
4813 Clouds 18 1009 72 10000 3.6 190 10:54 04.08.2020
4814 Clouds 17 1009 72 10000 3.6 190 10:34 04.08.2020
4815 Clouds 16 1009 82 10000 3.6 190 09:21 04.08.2020
4816 Clouds 15 1008 100 10000 2.1 170 06:57 04.08.2020
4817 Clouds 13 1008 93 10000 2.1 220 00:24 04.08.2020
4818 Clouds 15 1007 87 10000 3.6 220 22:47 03.08.2020
4819 Clouds 15 1007 87 10000 4.6 210 21:55 03.08.2020
4820 Clear 16 1007 82 10000 4.6 220 21:27 03.08.2020
4821 Clear 16 1007 82 10000 4.6 220 20:52 03.08.2020
4822 Clear 17 1006 72 10000 7.2 210 19:46 03.08.2020
4823 Clear 20 1006 68 10000 6.2 220 18:56 03.08.2020
4824 Clouds 21 1006 68 10000 7.2 210 18:30 03.08.2020
4825 Clouds 21 1005 68 10000 6.7 210 17:46 03.08.2020
4826 Clouds 21 1005 68 10000 6.7 210 16:27 03.08.2020
4827 Clouds 20 1005 82 10000 3.6 200 14:57 03.08.2020
4828 Rain 20 1005 82 10000 3.1 230 14:27 03.08.2020
4829 Clouds 18 1005 93 10000 3.1 200 13:23 03.08.2020
4830 Drizzle 16 1005 100 4000 4.1 180 11:59 03.08.2020
4831 Rain 16 1005 93 10000 6.2 190 10:45 03.08.2020
4832 Rain 16 1005 93 10000 3.1 200 09:29 03.08.2020
4833 Rain 16 1005 82 10000 4.1 190 08:25 03.08.2020
4834 Clouds 15 1007 87 10000 2.6 210 02:24 03.08.2020
4835 Clouds 15 1007 93 10000 3.6 210 01:53 03.08.2020
4836 Clouds 16 1008 87 10000 3.1 220 00:52 03.08.2020
4837 Clouds 16 1008 82 10000 4.1 210 21:58 02.08.2020
4838 Clouds 17 1008 72 10000 4.6 210 21:23 02.08.2020
4839 Clouds 17 1008 77 10000 4.1 210 20:53 02.08.2020
4840 Clouds 17 1008 77 10000 4.6 210 20:33 02.08.2020
4841 Clouds 17 1009 72 10000 4.6 210 19:45 02.08.2020
4842 Clouds 17 1009 77 10000 5.1 210 19:21 02.08.2020
4843 Clouds 17 1009 82 10000 5.7 210 18:40 02.08.2020
4844 Clouds 17 1010 77 10000 5.1 200 17:22 02.08.2020
4845 Rain 17 1010 82 10000 3.6 210 15:38 02.08.2020
4846 Rain 18 1010 82 10000 3.6 210 14:46 02.08.2020
4847 Clouds 18 1010 71 10000 2.24 267 14:24 02.08.2020
4848 Rain 20 1010 56 10000 6.7 230 13:31 02.08.2020
4849 Clouds 21 1010 56 10000 6.7 210 12:48 02.08.2020
4850 Clouds 21 1010 49 10000 5.7 220 11:51 02.08.2020
4851 Clouds 20 1011 60 10000 4.6 230 10:51 02.08.2020
4852 Clouds 20 1011 60 10000 4.6 220 10:29 02.08.2020
4853 Clouds 20 1011 68 10000 2.6 240 09:26 02.08.2020
4854 Clouds 18 1012 77 10000 1.5 240 08:29 02.08.2020
4855 Clouds 16 1012 82 10000 2.1 280 07:52 02.08.2020
4856 Clouds 12 1012 87 10000 3.1 280 04:47 02.08.2020
4857 Clouds 13 1013 93 10000 1 0 01:36 02.08.2020
4858 Clouds 14 1013 87 10000 1 230 00:21 02.08.2020
4859 Clouds 16 1014 77 10000 2.6 250 22:49 01.08.2020
4860 Clouds 17 1014 67 10000 3.1 210 20:46 01.08.2020
4861 Clouds 18 1014 68 10000 3.1 220 20:25 01.08.2020
4862 Clouds 19 1014 49 10000 2.1 330 19:27 01.08.2020
4863 Clouds 20 1014 49 10000 2.1 330 19:27 01.08.2020
4864 Clouds 20 1014 49 10000 1 0 18:40 01.08.2020
4865 Clouds 21 1015 52 10000 2.1 10 17:43 01.08.2020
4866 Clear 21 1015 46 10000 2.6 20 16:31 01.08.2020
4867 Clouds 20 1016 52 10000 2.6 360 15:44 01.08.2020
4868 Clouds 20 1016 52 10000 3.1 320 15:21 01.08.2020
4869 Clouds 20 1016 52 10000 2.6 310 14:40 01.08.2020
4870 Clouds 20 1016 52 10000 3.6 350 13:19 01.08.2020
4871 Clouds 18 1016 48 10000 5.1 30 11:45 01.08.2020
4872 Clouds 18 1016 48 10000 5.7 30 10:55 01.08.2020
4873 Clear 13 1015 82 10000 3.1 340 07:27 01.08.2020
4874 Clear 10 1015 93 10000 3.1 330 03:19 01.08.2020
4875 Clear 11 1014 87 10000 3.1 10 01:52 01.08.2020
4876 Clear 12 1014 82 10000 3.6 10 01:31 01.08.2020
4877 Clear 13 1013 76 10000 3.1 350 23:34 31.07.2020
4878 Clear 14 1012 87 10000 1 10 21:50 31.07.2020
4879 Clear 17 1012 67 10000 3.1 30 20:43 31.07.2020
4880 Clouds 18 1011 55 10000 4.6 30 20:23 31.07.2020
4881 Clouds 19 1011 59 10000 3.6 40 19:46 31.07.2020
4882 Clouds 20 1010 49 10000 5.7 350 17:54 31.07.2020
4883 Clouds 21 1010 46 10000 5.7 350 16:42 31.07.2020
4884 Clouds 21 1009 49 10000 5.7 340 15:47 31.07.2020
4885 Clouds 21 1009 52 10000 5.7 360 14:43 31.07.2020
4886 Clouds 20 1008 56 10000 5.1 10 13:38 31.07.2020
4887 Clouds 19 1008 63 10000 6.2 340 12:40 31.07.2020
4888 Clouds 19 1008 63 10000 6.2 10 11:39 31.07.2020
4889 Clouds 19 1008 68 10000 5.7 350 11:18 31.07.2020
4890 Clouds 17 1007 68 10000 5.1 340 10:25 31.07.2020
4891 Clouds 16 1006 82 10000 5.7 340 09:35 31.07.2020
4892 Clouds 16 1006 82 10000 5.1 360 08:53 31.07.2020
4893 Clouds 15 1006 87 10000 5.1 360 07:35 31.07.2020
4894 Clear 11 1004 100 10000 2.6 320 04:35 31.07.2020
4895 Clear 12 1004 100 10000 1.5 320 02:24 31.07.2020
4896 Clear 14 1003 93 10000 2.6 300 00:39 31.07.2020
4897 Clear 14 1003 93 10000 2.1 290 00:19 31.07.2020
4898 Clouds 14 1003 93 10000 1.5 290 22:53 30.07.2020
4899 Rain 15 1003 87 10000 2.6 250 22:30 30.07.2020
4900 Clouds 15 1002 93 10000 1.5 320 21:19 30.07.2020
4901 Clouds 15 1002 87 10000 2.1 290 20:56 30.07.2020
4902 Rain 17 1002 68 10000 2.1 250 19:44 30.07.2020
4903 Rain 18 1002 63 10000 2.1 210 18:58 30.07.2020
4904 Clouds 18 1001 68 10000 3.1 140 17:51 30.07.2020
4905 Clouds 18 1002 77 10000 5.1 140 16:57 30.07.2020
4906 Clouds 18 1002 77 10000 5.1 140 16:35 30.07.2020
4907 Rain 18 1002 68 10000 5.7 180 15:56 30.07.2020
4908 Rain 19 1002 68 10000 5.7 180 15:38 30.07.2020
4909 Rain 19 1002 63 10000 7.2 190 14:56 30.07.2020
4910 Rain 18 1002 63 10000 7.2 190 14:38 30.07.2020
4911 Rain 18 1002 68 10000 6.7 190 14:20 30.07.2020
4912 Clouds 18 1002 77 10000 6.2 190 13:37 30.07.2020
4913 Clouds 18 1002 77 10000 6.2 190 13:18 30.07.2020
4914 Rain 18 1002 82 10000 6.7 180 12:31 30.07.2020
4915 Clouds 17 1002 87 10000 5.7 190 10:49 30.07.2020
4916 Clouds 17 1002 82 10000 6.2 190 10:25 30.07.2020
4917 Rain 16 1003 93 10000 4.1 220 09:22 30.07.2020
4918 Clouds 17 1002 77 10000 5.1 190 08:58 30.07.2020
4919 Clouds 17 1002 77 10000 5.1 190 08:36 30.07.2020
4920 Clouds 12 1003 87 10000 3.1 200 05:22 30.07.2020
4921 Clear 11 1004 93 10000 2.6 200 01:50 30.07.2020
4922 Clear 12 1005 93 10000 3.1 220 00:21 30.07.2020
4923 Clear 14 1005 82 10000 4.1 230 22:55 29.07.2020
4924 Clear 14 1005 82 10000 4.6 230 22:21 29.07.2020
4925 Clear 15 1005 77 10000 4.6 230 21:40 29.07.2020
4926 Clear 16 1005 72 10000 5.7 230 20:51 29.07.2020
4927 Clouds 17 1005 67 10000 5.7 230 20:31 29.07.2020
4928 Clouds 18 1004 63 10000 6.2 240 19:49 29.07.2020
4929 Clouds 18 1004 59 10000 5.7 250 19:26 29.07.2020
4930 Clouds 18 1004 59 10000 4.6 240 18:55 29.07.2020
4931 Clouds 19 1004 56 10000 6.7 240 18:31 29.07.2020
4932 Clouds 19 1004 68 10000 4.6 260 17:54 29.07.2020
4933 Clouds 19 1004 68 10000 6.2 280 16:50 29.07.2020
4934 Clouds 19 1004 68 10000 7.2 270 15:59 29.07.2020
4935 Clouds 19 1004 68 10000 7.2 270 15:41 29.07.2020
4936 Clouds 18 1004 77 10000 7.7 270 15:18 29.07.2020
4937 Clouds 18 1003 93 10000 3.6 200 14:21 29.07.2020
4938 Clouds 18 1003 100 10000 3.1 130 13:28 29.07.2020
4939 Clouds 17 1003 100 10000 2.6 140 12:52 29.07.2020
4940 Rain 17 1003 100 10000 3.6 140 12:22 29.07.2020
4941 Rain 17 1004 100 7000 3.6 150 11:46 29.07.2020
4942 Rain 17 1004 93 10000 2.6 140 11:20 29.07.2020
4943 Rain 17 1004 100 10000 1.5 90 10:35 29.07.2020
4944 Rain 17 1004 100 7000 2.6 80 09:35 29.07.2020
4945 Rain 16 1005 93 6000 4.6 160 08:24 29.07.2020
4946 Rain 16 1004 93 7000 3.1 100 07:47 29.07.2020
4947 Clouds 16 1005 100 7000 2.6 90 06:23 29.07.2020
4948 Fog 16 1007 100 300 2.1 90 02:38 29.07.2020
4949 Clouds 16 1008 100 6000 1.5 110 00:37 29.07.2020
4950 Mist 16 1008 100 2500 2.6 110 22:48 28.07.2020
4951 Clouds 16 1009 100 10000 2.1 100 22:20 28.07.2020
4952 Clouds 17 1009 93 10000 1.5 100 21:38 28.07.2020
4953 Clouds 17 1009 93 10000 2.1 110 20:58 28.07.2020
4954 Clouds 17 1009 93 10000 2.1 110 20:40 28.07.2020
4955 Clouds 18 1010 93 10000 3.6 140 19:57 28.07.2020
4956 Clouds 18 1010 88 10000 3.6 150 19:37 28.07.2020
4957 Clouds 18 1010 88 10000 3.6 150 19:18 28.07.2020
4958 Clouds 18 1010 88 10000 3.6 150 18:38 28.07.2020
4959 Clouds 18 1010 93 10000 4.6 150 17:55 28.07.2020
4960 Rain 18 1011 88 10000 5.1 130 17:21 28.07.2020
4961 Clouds 18 1011 93 10000 3.6 110 16:39 28.07.2020
4962 Rain 17 1011 93 6000 5.7 120 15:31 28.07.2020
4963 Rain 18 1011 82 10000 5.1 120 14:52 28.07.2020
4964 Rain 18 1011 82 10000 3.1 110 14:32 28.07.2020
4965 Rain 18 1011 82 10000 3.1 110 14:32 28.07.2020
4966 Rain 19 1012 88 10000 2.6 100 13:41 28.07.2020
4967 Clouds 18 1012 88 10000 3.6 130 12:42 28.07.2020
4968 Clouds 18 1012 88 10000 2.6 130 12:21 28.07.2020
4969 Clouds 18 1013 93 10000 3.1 160 11:55 28.07.2020
4970 Clouds 18 1013 93 10000 2.6 160 10:59 28.07.2020
4971 Clouds 18 1013 93 10000 2.6 160 10:40 28.07.2020
4972 Rain 18 1012 93 10000 1 0 10:19 28.07.2020
4973 Rain 18 1012 88 10000 1.5 120 09:37 28.07.2020
4974 Rain 17 1013 88 10000 4.1 120 09:18 28.07.2020
4975 Clouds 17 1013 100 10000 2.6 120 08:37 28.07.2020
4976 Clouds 17 1013 100 10000 2.1 100 07:50 28.07.2020
4977 Rain 17 1013 100 10000 3.1 40 06:53 28.07.2020
4978 Rain 17 1015 88 10000 1.5 40 02:20 28.07.2020
4979 Rain 17 1015 88 10000 1.5 40 02:20 28.07.2020
4980 Rain 17 1015 88 10000 1.5 40 02:20 28.07.2020
4981 Rain 18 1015 82 10000 1.5 110 01:50 28.07.2020
4982 Rain 18 1015 72 10000 3.1 120 00:52 28.07.2020
4983 Rain 18 1016 68 10000 3.1 100 23:45 27.07.2020
4984 Rain 19 1016 68 10000 4.1 100 23:24 27.07.2020
4985 Rain 19 1016 68 10000 3.6 100 22:34 27.07.2020
4986 Rain 19 1016 68 10000 3.6 90 21:55 27.07.2020
4987 Rain 19 1016 68 10000 3.6 90 21:36 27.07.2020
4988 Rain 20 1016 60 10000 4.6 90 20:49 27.07.2020
4989 Clouds 20 1017 64 10000 3.6 100 20:25 27.07.2020
4990 Clouds 20 1017 60 10000 3.6 90 19:52 27.07.2020
4991 Clouds 20 1017 60 10000 3.6 90 19:52 27.07.2020
4992 Clouds 20 1017 60 10000 4.1 100 19:33 27.07.2020
4993 Clouds 21 1017 56 10000 6.2 110 18:40 27.07.2020
4994 Clouds 22 1017 53 10000 5.1 120 17:47 27.07.2020
4995 Clouds 21 1017 53 10000 6.7 130 17:29 27.07.2020
4996 Clouds 22 1017 53 10000 6.7 120 16:40 27.07.2020
4997 Clouds 22 1017 53 10000 6.7 120 16:19 27.07.2020
4998 Clouds 22 1017 53 10000 6.7 130 15:48 27.07.2020
4999 Clouds 22 1017 53 10000 6.7 130 15:29 27.07.2020
5000 Clouds 22 1018 49 10000 6.2 110 14:43 27.07.2020
5001 Clouds 22 1018 49 10000 6.2 110 14:43 27.07.2020
5002 Clouds 22 1018 49 10000 6.7 110 14:24 27.07.2020
5003 Clouds 22 1018 49 10000 6.7 110 13:31 27.07.2020
5004 Clouds 21 1018 53 10000 5.7 130 12:57 27.07.2020
5005 Clouds 21 1018 53 10000 5.7 130 12:39 27.07.2020
5006 Clouds 21 1018 53 10000 6.2 120 12:18 27.07.2020
5007 Clouds 20 1018 56 10000 6.2 110 11:24 27.07.2020
5008 Clouds 20 1018 56 10000 5.1 120 10:58 27.07.2020
5009 Clouds 20 1018 60 10000 5.7 120 09:44 27.07.2020
5010 Clouds 19 1018 64 10000 4.1 110 09:21 27.07.2020
5011 Clouds 19 1018 60 10000 4.1 120 08:59 27.07.2020
5012 Clouds 19 1018 60 10000 4.1 120 08:41 27.07.2020
5013 Clouds 18 1018 68 10000 3.6 110 07:53 27.07.2020
5014 Clouds 17 1018 77 10000 3.1 110 06:57 27.07.2020
5015 Clouds 16 1018 82 10000 2.6 100 06:25 27.07.2020
5016 Clouds 14 1018 82 10000 2.6 100 02:20 27.07.2020
5017 Clouds 14 1018 77 10000 2.6 90 01:53 27.07.2020
5018 Clouds 16 1018 77 10000 2.6 100 23:47 26.07.2020
5019 Clouds 16 1018 77 10000 3.1 100 23:24 26.07.2020
5020 Clouds 16 1018 72 10000 2.6 100 22:41 26.07.2020
5021 Clouds 16 1018 67 10000 3.1 100 22:19 26.07.2020
5022 Clouds 16 1018 63 10000 2.6 100 21:44 26.07.2020
5023 Clear 17 1017 59 10000 2.6 110 21:21 26.07.2020
5024 Clear 17 1017 52 10000 3.6 130 20:49 26.07.2020
5025 Clear 18 1017 48 10000 3.6 120 20:24 26.07.2020
5026 Clear 19 1017 45 10000 4.1 110 19:45 26.07.2020
5027 Clear 20 1017 49 10000 4.1 140 19:23 26.07.2020
5028 Clear 21 1017 43 10000 3.6 180 18:49 26.07.2020
5029 Clear 21 1017 43 10000 3.6 160 18:28 26.07.2020
5030 Clear 21 1017 43 10000 3.6 190 17:50 26.07.2020
5031 Clear 21 1017 43 10000 4.1 170 17:27 26.07.2020
5032 Clear 21 1017 40 10000 5.7 180 16:53 26.07.2020
5033 Clear 22 1017 40 10000 5.7 180 16:27 26.07.2020
5034 Clear 21 1017 43 10000 4.1 170 15:45 26.07.2020
5035 Clear 22 1017 37 10000 4.6 210 15:25 26.07.2020
5036 Clear 22 1017 40 10000 5.1 190 14:59 26.07.2020
5037 Clouds 21 1017 40 10000 5.7 200 14:37 26.07.2020
5038 Clouds 22 1017 33 10000 6.2 190 13:54 26.07.2020
5039 Clouds 20 1017 40 10000 5.1 210 13:20 26.07.2020
5040 Clouds 21 1016 37 10000 5.1 210 12:44 26.07.2020
5041 Clouds 20 1016 43 10000 4.6 210 12:23 26.07.2020
5042 Clouds 19 1016 56 10000 4.6 190 11:50 26.07.2020
5043 Clouds 19 1016 52 10000 4.1 230 11:31 26.07.2020
5044 Clouds 20 1016 52 10000 2.6 220 10:47 26.07.2020
5045 Clouds 19 1016 68 10000 2.1 180 10:23 26.07.2020
5046 Clouds 18 1015 72 10000 2.6 170 09:39 26.07.2020
5047 Clouds 17 1015 72 10000 2.1 190 08:56 26.07.2020
5048 Clouds 16 1015 82 10000 3.1 210 08:18 26.07.2020
5049 Clouds 15 1014 93 10000 3.6 140 06:40 26.07.2020
5050 Fog 9 1014 100 10000 1 0 03:52 26.07.2020
5051 Fog 10 1012 93 10000 0.5 0 01:44 26.07.2020
5052 Fog 12 1012 93 10000 2.1 240 00:21 26.07.2020
5053 Fog 12 1011 93 10000 2.1 230 23:32 25.07.2020
5054 Clouds 12 1011 93 10000 1 240 22:49 25.07.2020
5055 Clouds 14 1010 87 10000 1 240 22:19 25.07.2020
5056 Rain 15 1010 82 10000 3.6 310 21:28 25.07.2020
5057 Rain 16 1009 72 10000 4.1 230 20:55 25.07.2020
5058 Rain 16 1009 72 10000 4.1 230 20:33 25.07.2020
5059 Clouds 17 1009 67 10000 2.6 220 19:45 25.07.2020
5060 Clouds 17 1008 72 10000 1.5 330 19:22 25.07.2020
5061 Rain 17 1008 72 10000 2.6 320 18:40 25.07.2020
5062 Rain 18 1008 72 10000 2.6 320 18:21 25.07.2020
5063 Rain 18 1008 72 10000 4.1 300 17:42 25.07.2020
5064 Rain 19 1007 55 10000 4.1 250 17:22 25.07.2020
5065 Rain 19 1007 55 10000 4.6 220 16:57 25.07.2020
5066 Rain 18 1007 55 10000 5.1 230 16:35 25.07.2020
5067 Clouds 18 1007 63 10000 5.1 220 15:52 25.07.2020
5068 Clouds 18 1006 59 10000 4.1 220 15:32 25.07.2020
5069 Clouds 18 1006 63 10000 4.1 240 14:57 25.07.2020
5070 Rain 18 1006 63 10000 4.1 240 14:35 25.07.2020
5071 Rain 17 1006 72 10000 4.1 270 13:44 25.07.2020
5072 Rain 17 1005 67 10000 2.1 270 13:22 25.07.2020
5073 Rain 17 1005 72 10000 2.6 260 12:59 25.07.2020
5074 Clouds 17 1005 77 10000 3.1 330 12:22 25.07.2020
5075 Clouds 17 1004 87 10000 4.6 300 11:59 25.07.2020
5076 Clouds 17 1004 87 10000 4.6 300 11:39 25.07.2020
5077 Drizzle 15 1003 93 10000 1 0 10:48 25.07.2020
5078 Drizzle 15 1003 93 10000 1 0 10:30 25.07.2020
5079 Rain 15 1003 93 10000 1.5 60 09:59 25.07.2020
5080 Rain 15 1003 93 10000 2.1 80 09:37 25.07.2020
5081 Rain 14 1002 100 10000 1.5 90 09:18 25.07.2020
5082 Rain 15 1002 100 10000 2.1 120 08:38 25.07.2020
5083 Rain 15 1002 100 10000 2.6 130 08:19 25.07.2020
5084 Rain 14 1002 100 10000 2.6 130 07:39 25.07.2020
5085 Rain 14 1003 92 10000 1.79 131 06:56 25.07.2020
5086 Rain 13 1003 100 10000 1.5 100 03:33 25.07.2020
5087 Rain 13 1003 100 10000 2.6 130 02:36 25.07.2020
5088 Rain 13 1003 100 10000 2.6 140 01:46 25.07.2020
5089 Rain 13 1003 100 10000 3.6 130 01:20 25.07.2020
5090 Rain 13 1003 100 10000 3.6 130 01:20 25.07.2020
5091 Rain 13 1003 100 10000 3.1 130 00:45 25.07.2020
5092 Rain 13 1003 100 10000 3.6 140 00:23 25.07.2020
5093 Rain 13 1003 100 10000 4.1 150 23:57 24.07.2020
5094 Rain 14 1003 100 10000 4.1 150 23:37 24.07.2020
5095 Rain 14 1003 87 10000 3.6 180 23:19 24.07.2020
5096 Rain 14 1003 93 10000 4.6 170 22:41 24.07.2020
5097 Rain 14 1003 100 10000 2.6 170 22:22 24.07.2020
5098 Clouds 14 1003 87 10000 4.1 170 21:47 24.07.2020
5099 Clouds 14 1003 82 10000 4.6 170 21:26 24.07.2020
5100 Clouds 15 1003 77 10000 5.7 180 20:48 24.07.2020
5101 Clouds 15 1003 72 10000 5.1 180 20:29 24.07.2020
5102 Clouds 16 1003 59 10000 5.7 180 19:47 24.07.2020
5103 Clouds 16 1003 51 10000 6.2 200 19:25 24.07.2020
5104 Clouds 17 1003 72 10000 2.1 70 18:42 24.07.2020
5105 Clouds 16 1003 76 10000 1.5 60 18:18 24.07.2020
5106 Clouds 16 1003 76 10000 1 0 17:44 24.07.2020
5107 Rain 16 1003 76 10000 3.1 270 17:18 24.07.2020
5108 Rain 16 1003 71 10000 3.1 240 16:38 24.07.2020
5109 Rain 15 1003 72 10000 8.2 210 16:18 24.07.2020
5110 Rain 16 1003 72 10000 6.2 210 15:43 24.07.2020
5111 Rain 16 1003 72 10000 7.2 210 15:19 24.07.2020
5112 Rain 16 1003 72 10000 8.2 200 14:42 24.07.2020
5113 Rain 16 1002 72 10000 7.2 190 14:19 24.07.2020
5114 Rain 15 1002 72 10000 6.2 200 13:41 24.07.2020
5115 Clouds 15 1002 72 10000 6.7 190 13:20 24.07.2020
5116 Clouds 15 1002 72 10000 6.7 210 12:38 24.07.2020
5117 Clouds 15 1002 72 10000 6.7 210 12:19 24.07.2020
5118 Thunderstorm 15 1002 72 10000 4.6 180 11:23 24.07.2020
5119 Thunderstorm 15 1002 77 10000 5.1 150 10:58 24.07.2020
5120 Thunderstorm 15 1002 77 10000 5.1 150 10:40 24.07.2020
5121 Thunderstorm 15 1002 76 10000 4.1 150 10:18 24.07.2020
5122 Clouds 14 1002 82 10000 4.6 200 09:41 24.07.2020
5123 Clouds 14 1002 54 10000 7.7 210 09:22 24.07.2020
5124 Rain 14 1002 93 10000 5.1 200 08:54 24.07.2020
5125 Rain 14 1002 93 10000 5.1 200 08:36 24.07.2020
5126 Clouds 14 1001 87 10000 4.6 150 07:48 24.07.2020
5127 Clouds 13 1002 81 10000 2.6 130 07:23 24.07.2020
5128 Rain 12 1002 87 10000 3.6 130 06:56 24.07.2020
5129 Rain 12 1002 82 10000 5.1 180 05:55 24.07.2020
5130 Rain 13 1002 82 10000 5.1 180 05:31 24.07.2020
5131 Rain 13 1002 71 10000 3.6 170 04:37 24.07.2020
5132 Rain 12 1003 81 10000 2.6 190 01:47 24.07.2020
5133 Clouds 12 1003 76 10000 3.6 210 00:46 24.07.2020
5134 Clouds 12 1003 76 10000 3.6 210 00:25 24.07.2020
5135 Clouds 12 1003 81 10000 3.6 210 23:43 23.07.2020
5136 Clouds 12 1003 81 10000 4.1 210 23:22 23.07.2020
5137 Clouds 12 1003 76 10000 4.1 210 22:43 23.07.2020
5138 Clouds 12 1003 76 10000 4.1 210 22:22 23.07.2020
5139 Clouds 13 1003 71 10000 4.6 230 21:55 23.07.2020
5140 Clouds 13 1003 71 10000 4.1 230 21:37 23.07.2020
5141 Clouds 13 1003 71 10000 4.1 230 21:18 23.07.2020
5142 Clouds 13 1003 71 10000 5.7 230 20:42 23.07.2020
5143 Clouds 14 1003 67 10000 3.6 230 20:20 23.07.2020
5144 Clouds 14 1003 67 10000 4.6 250 19:59 23.07.2020
5145 Clouds 14 1003 67 10000 4.6 250 19:37 23.07.2020
5146 Clouds 14 1003 62 10000 4.6 260 19:19 23.07.2020
5147 Clouds 15 1003 67 10000 5.7 270 18:42 23.07.2020
5148 Clouds 15 1003 62 10000 6.2 260 18:22 23.07.2020
5149 Clouds 16 1003 58 10000 6.2 250 17:54 23.07.2020
5150 Clouds 16 1003 58 10000 5.7 260 17:26 23.07.2020
5151 Clouds 16 1003 58 10000 7.2 260 16:55 23.07.2020
5152 Rain 16 1003 62 10000 5.1 230 16:37 23.07.2020
5153 Rain 16 1003 62 10000 5.1 230 16:18 23.07.2020
5154 Rain 16 1002 55 10000 7.2 270 15:26 23.07.2020
5155 Clouds 16 1002 62 10000 5.7 260 14:59 23.07.2020
5156 Clouds 16 1002 62 10000 5.7 260 14:39 23.07.2020
5157 Clouds 16 1002 58 10000 7.2 270 14:19 23.07.2020
5158 Clouds 16 1002 58 10000 6.7 280 13:58 23.07.2020
5159 Clouds 16 1002 58 10000 6.7 280 13:39 23.07.2020
5160 Rain 15 1002 62 10000 7.7 270 13:20 23.07.2020
5161 Clouds 16 1002 59 10000 7.2 280 12:42 23.07.2020
5162 Rain 16 1002 62 10000 6.2 260 12:20 23.07.2020
5163 Rain 16 1002 67 10000 6.7 270 11:42 23.07.2020
5164 Rain 16 1002 67 10000 7.2 270 11:23 23.07.2020
5165 Rain 16 1001 58 10000 6.7 300 10:56 23.07.2020
5166 Rain 16 1001 58 10000 6.7 300 10:37 23.07.2020
5167 Clouds 16 1001 62 10000 8.2 270 10:18 23.07.2020
5168 Clouds 15 1001 55 10000 7.2 270 09:42 23.07.2020
5169 Clouds 15 1001 67 10000 7.7 270 09:24 23.07.2020
5170 Clouds 15 1001 67 10000 7.2 260 08:51 23.07.2020
5171 Clouds 15 1001 67 10000 7.2 260 08:51 23.07.2020
5172 Clouds 14 1001 71 10000 6.2 260 08:31 23.07.2020
5173 Clouds 14 1001 71 10000 7.7 260 07:51 23.07.2020
5174 Rain 14 1001 76 10000 6.2 260 07:21 23.07.2020
5175 Clouds 13 1002 76 10000 5.1 250 06:36 23.07.2020
5176 Clouds 12 1002 76 10000 5.1 250 05:54 23.07.2020
5177 Clouds 12 1002 76 10000 4.6 250 05:34 23.07.2020
5178 Clouds 12 1002 76 10000 4.1 240 04:37 23.07.2020
5179 Clouds 12 1002 76 10000 5.1 260 03:29 23.07.2020
5180 Clouds 13 1003 76 10000 4.6 260 00:56 23.07.2020
5181 Clouds 13 1003 76 10000 4.6 260 00:25 23.07.2020
5182 Clouds 13 1003 71 10000 5.1 250 23:44 22.07.2020
5183 Clouds 13 1003 71 10000 5.1 250 23:44 22.07.2020
5184 Clouds 13 1004 71 10000 6.2 260 23:24 22.07.2020
5185 Clouds 13 1004 71 10000 4.6 260 22:58 22.07.2020
5186 Clouds 13 1004 71 10000 4.6 260 22:39 22.07.2020
5187 Clouds 13 1004 71 10000 5.7 260 22:18 22.07.2020
5188 Clouds 14 1004 66 10000 7.2 260 21:42 22.07.2020
5189 Clouds 14 1004 62 10000 7.7 270 21:20 22.07.2020
5190 Clouds 15 1004 67 10000 6.7 280 20:58 22.07.2020
5191 Clouds 15 1004 67 10000 6.7 280 20:38 22.07.2020
5192 Clouds 15 1004 62 10000 6.7 270 20:20 22.07.2020
5193 Clouds 15 1004 58 10000 7.2 270 19:56 22.07.2020
5194 Clouds 16 1004 58 10000 7.2 270 19:38 22.07.2020
5195 Clouds 16 1004 59 10000 7.7 280 19:19 22.07.2020
5196 Clouds 16 1004 58 10000 9.3 300 18:44 22.07.2020
5197 Clouds 17 1004 48 10000 8.7 290 18:22 22.07.2020
5198 Clouds 18 1004 51 10000 7.2 290 17:43 22.07.2020
5199 Clouds 18 1004 48 10000 9.3 300 17:24 22.07.2020
5200 Clouds 18 1003 55 10000 8.2 310 16:56 22.07.2020
5201 Clouds 18 1004 48 10000 9.8 290 16:37 22.07.2020
5202 Clouds 18 1004 48 10000 9.8 290 16:19 22.07.2020
5203 Clouds 18 1003 45 10000 9.8 300 15:47 22.07.2020
5204 Clouds 19 1003 52 10000 7.2 300 15:27 22.07.2020
5205 Clouds 19 1003 55 10000 8.2 290 14:58 22.07.2020
5206 Clouds 18 1003 55 10000 8.2 290 14:40 22.07.2020
5207 Rain 18 1003 67 10000 7.7 300 14:19 22.07.2020
5208 Rain 19 1003 55 10000 8.2 270 13:42 22.07.2020
5209 Rain 18 1003 52 10000 8.2 290 13:23 22.07.2020
5210 Rain 19 1003 55 10000 7.7 290 12:49 22.07.2020
5211 Rain 19 1003 55 10000 7.7 290 12:49 22.07.2020
5212 Rain 19 1003 55 10000 8.2 290 12:30 22.07.2020
5213 Rain 18 1003 67 10000 5.7 290 11:58 22.07.2020
5214 Rain 18 1003 67 10000 5.7 290 11:39 22.07.2020
5215 Rain 18 1003 63 10000 7.2 290 11:19 22.07.2020
5216 Clouds 18 1003 67 10000 7.2 290 10:58 22.07.2020
5217 Clouds 17 1003 67 10000 7.2 290 10:39 22.07.2020
5218 Clouds 17 1003 67 10000 6.2 290 10:21 22.07.2020
5219 Clouds 17 1003 72 10000 5.1 310 09:42 22.07.2020
5220 Clouds 16 1003 77 10000 5.1 300 09:20 22.07.2020
5221 Clouds 16 1003 82 10000 5.1 310 08:41 22.07.2020
5222 Clouds 15 1003 87 10000 4.6 290 08:23 22.07.2020
5223 Clouds 14 1004 87 10000 4.1 280 07:37 22.07.2020
5224 Clouds 14 1004 93 10000 4.1 290 07:18 22.07.2020
5225 Clouds 13 1004 100 10000 5.7 280 06:19 22.07.2020
5226 Clouds 13 1004 93 10000 4.6 270 05:54 22.07.2020
5227 Clouds 12 1004 93 10000 4.1 280 05:26 22.07.2020
5228 Clouds 12 1005 100 10000 3.1 280 04:24 22.07.2020
5229 Clouds 13 1005 93 10000 3.1 290 02:53 22.07.2020
5230 Clouds 13 1005 93 10000 4.6 290 01:45 22.07.2020
5231 Clouds 14 1005 82 10000 2.6 250 00:33 22.07.2020
5232 Clouds 15 1005 82 10000 2.6 240 23:56 21.07.2020
5233 Clouds 15 1005 82 10000 2.6 240 23:38 21.07.2020
5234 Clouds 15 1006 77 10000 3.1 230 23:18 21.07.2020
5235 Clouds 15 1006 77 10000 3.6 240 22:56 21.07.2020
5236 Clouds 16 1006 77 10000 3.6 240 22:37 21.07.2020
5237 Clouds 16 1006 72 10000 4.1 240 22:19 21.07.2020
5238 Clouds 17 1006 67 10000 4.1 240 21:55 21.07.2020
5239 Clouds 17 1006 67 10000 4.1 240 21:36 21.07.2020
5240 Clouds 18 1006 63 10000 3.6 240 21:18 21.07.2020
5241 Clouds 18 1006 63 10000 5.7 240 20:43 21.07.2020
5242 Clouds 19 1006 59 10000 5.1 240 20:23 21.07.2020
5243 Clouds 20 1006 56 10000 6.2 240 19:46 21.07.2020
5244 Clouds 20 1006 56 10000 6.2 240 19:22 21.07.2020
5245 Clouds 20 1006 52 10000 6.2 240 18:45 21.07.2020
5246 Clouds 21 1006 46 10000 6.2 240 18:26 21.07.2020
5247 Clouds 21 1006 46 10000 6.2 240 17:59 21.07.2020
5248 Clouds 21 1006 46 10000 6.2 240 17:39 21.07.2020
5249 Clouds 22 1006 46 10000 6.2 240 17:20 21.07.2020
5250 Clouds 22 1006 53 10000 6.7 230 16:41 21.07.2020
5251 Clouds 22 1006 53 10000 6.2 230 16:21 21.07.2020
5252 Clouds 23 1006 53 10000 6.2 230 15:46 21.07.2020
5253 Clouds 23 1006 60 10000 5.1 230 15:27 21.07.2020
5254 Clouds 22 1006 60 10000 5.1 230 14:58 21.07.2020
5255 Clouds 23 1006 56 10000 5.1 240 14:37 21.07.2020
5256 Clouds 23 1006 56 10000 5.1 240 14:18 21.07.2020
5257 Clouds 22 1006 56 10000 5.7 240 13:42 21.07.2020
5258 Clouds 22 1006 53 10000 4.6 220 13:22 21.07.2020
5259 Clouds 22 1007 64 10000 4.6 230 12:56 21.07.2020
5260 Clouds 22 1007 68 10000 4.1 230 12:38 21.07.2020
5261 Clouds 21 1007 68 10000 4.1 230 12:19 21.07.2020
5262 Clouds 21 1007 68 10000 4.1 230 12:19 21.07.2020
5263 Clouds 21 1007 68 10000 3.1 260 11:54 21.07.2020
5264 Clouds 21 1007 68 10000 3.1 260 11:36 21.07.2020
5265 Thunderstorm 20 1007 72 10000 4.1 290 11:18 21.07.2020
5266 Thunderstorm 20 1007 88 10000 5.1 290 10:41 21.07.2020
5267 Thunderstorm 20 1007 73 10000 4.1 190 10:21 21.07.2020
5268 Rain 20 1007 73 10000 3.6 160 09:43 21.07.2020
5269 Rain 19 1007 77 10000 3.1 170 09:23 21.07.2020
5270 Clouds 19 1007 77 10000 2.1 170 08:46 21.07.2020
5271 Rain 19 1007 77 10000 1.5 140 08:25 21.07.2020
5272 Clouds 19 1007 82 10000 2.1 220 07:53 21.07.2020
5273 Clouds 19 1007 82 10000 2.1 220 07:53 21.07.2020
5274 Clouds 20 1007 82 10000 2.1 220 07:34 21.07.2020
5275 Clouds 18 1007 88 10000 1.5 140 06:59 21.07.2020
5276 Rain 17 1007 93 10000 1.5 90 06:29 21.07.2020
5277 Clouds 15 1008 93 10000 1.5 80 04:29 21.07.2020
5278 Clouds 15 1009 93 10000 1 120 03:31 21.07.2020
5279 Clouds 15 1009 93 10000 1 70 01:58 21.07.2020
5280 Clouds 16 1010 93 10000 1 70 00:53 21.07.2020
5281 Clouds 16 1010 87 10000 0.5 0 00:30 21.07.2020
5282 Clouds 17 1010 88 10000 2.6 200 23:59 20.07.2020
5283 Clouds 17 1010 88 10000 2.6 200 23:39 20.07.2020
5284 Clouds 18 1010 88 10000 2.1 180 23:21 20.07.2020
5285 Clouds 19 1010 72 10000 3.1 190 22:56 20.07.2020
5286 Clouds 19 1010 72 10000 3.1 190 22:37 20.07.2020
5287 Clouds 19 1010 77 10000 1.5 180 22:18 20.07.2020
5288 Clouds 20 1010 68 10000 2.6 170 21:44 20.07.2020
5289 Clouds 20 1010 64 10000 3.1 180 21:24 20.07.2020
5290 Clouds 20 1011 64 10000 3.6 190 20:55 20.07.2020
5291 Clouds 20 1011 64 10000 3.6 190 20:37 20.07.2020
5292 Clouds 21 1011 64 10000 4.6 200 20:19 20.07.2020
5293 Clouds 22 1011 60 10000 3.1 190 19:38 20.07.2020
5294 Rain 22 1011 56 10000 4.1 190 19:18 20.07.2020
5295 Clouds 23 1011 57 10000 4.6 190 18:43 20.07.2020
5296 Clouds 24 1011 53 10000 4.1 210 18:25 20.07.2020
5297 Clouds 23 1011 53 10000 2.1 240 17:57 20.07.2020
5298 Clouds 24 1011 53 10000 2.1 240 17:38 20.07.2020
5299 Clouds 24 1011 53 10000 3.1 220 17:19 20.07.2020
5300 Clouds 24 1011 53 10000 3.1 220 17:19 20.07.2020
5301 Clouds 24 1011 50 10000 1.5 240 16:45 20.07.2020
5302 Clouds 24 1012 50 10000 1.5 290 16:19 20.07.2020
5303 Clouds 25 1012 50 10000 1 0 15:44 20.07.2020
5304 Clouds 25 1012 50 10000 2.6 190 15:19 20.07.2020
5305 Clouds 24 1012 50 10000 3.6 230 14:46 20.07.2020
5306 Clouds 24 1012 50 10000 3.1 220 14:20 20.07.2020
5307 Clouds 24 1013 60 10000 2.6 250 13:59 20.07.2020
5308 Clouds 23 1013 60 10000 2.6 250 13:40 20.07.2020
5309 Clouds 23 1013 53 10000 3.1 260 13:21 20.07.2020
5310 Clouds 23 1013 60 10000 2.6 220 12:57 20.07.2020
5311 Clouds 22 1014 64 10000 1.5 250 12:38 20.07.2020
5312 Clouds 22 1014 64 10000 1.5 250 12:19 20.07.2020
5313 Clouds 22 1014 60 10000 1.5 220 11:57 20.07.2020
5314 Clouds 21 1014 68 10000 2.6 230 11:39 20.07.2020
5315 Clouds 21 1014 68 10000 2.6 230 11:20 20.07.2020
5316 Clouds 21 1014 68 10000 1 0 10:42 20.07.2020
5317 Clouds 20 1014 72 10000 1.5 230 10:24 20.07.2020
5318 Clouds 20 1014 72 10000 1 0 09:47 20.07.2020
5319 Clouds 20 1014 72 10000 1.5 230 09:28 20.07.2020
5320 Clouds 20 1014 72 10000 2.1 230 08:59 20.07.2020
5321 Clouds 20 1014 72 10000 2.1 230 08:41 20.07.2020
5322 Clouds 20 1014 72 10000 0.5 0 08:21 20.07.2020
5323 Clouds 19 1014 68 10000 1 0 07:42 20.07.2020
5324 Clouds 20 1015 72 10000 1 0 07:20 20.07.2020
5325 Clouds 19 1015 77 10000 2.1 350 06:41 20.07.2020
5326 Clouds 18 1015 88 10000 2.1 270 04:30 20.07.2020
5327 Clouds 18 1016 88 10000 1.5 250 02:34 20.07.2020
5328 Clouds 18 1016 77 10000 2.6 240 00:49 20.07.2020
5329 Clouds 19 1016 77 10000 3.1 230 23:58 19.07.2020
5330 Clouds 19 1016 77 10000 3.1 230 23:38 19.07.2020
5331 Clouds 19 1016 77 10000 3.1 240 23:19 19.07.2020
5332 Clouds 20 1016 72 10000 2.1 250 22:44 19.07.2020
5333 Clouds 20 1016 64 10000 2.1 230 22:20 19.07.2020
5334 Clouds 21 1016 68 10000 2.6 230 21:58 19.07.2020
5335 Clouds 21 1016 68 10000 2.6 230 21:40 19.07.2020
5336 Clouds 21 1016 64 10000 3.1 210 21:22 19.07.2020
5337 Clouds 21 1016 64 10000 3.6 230 20:56 19.07.2020
5338 Clouds 22 1016 64 10000 3.6 230 20:37 19.07.2020
5339 Clouds 22 1016 60 10000 3.6 190 20:18 19.07.2020
5340 Clouds 23 1016 56 10000 3.6 170 19:40 19.07.2020
5341 Clouds 23 1016 56 10000 3.6 170 19:21 19.07.2020
5342 Clouds 23 1016 53 10000 3.6 200 18:59 19.07.2020
5343 Clouds 24 1017 47 10000 4.1 180 18:40 19.07.2020
5344 Clouds 24 1017 47 10000 4.1 180 18:22 19.07.2020
5345 Clouds 24 1017 47 10000 4.1 200 17:43 19.07.2020
5346 Clouds 24 1017 47 10000 4.6 190 17:24 19.07.2020
5347 Clouds 24 1017 47 10000 4.6 190 16:55 19.07.2020
5348 Clouds 24 1017 47 10000 4.6 190 16:37 19.07.2020
5349 Clouds 25 1018 50 10000 5.1 190 16:18 19.07.2020
5350 Clouds 25 1018 50 10000 4.6 190 15:43 19.07.2020
5351 Clouds 26 1018 50 10000 4.6 170 15:23 19.07.2020
5352 Clouds 24 1018 50 10000 5.1 190 14:46 19.07.2020
5353 Clouds 24 1018 53 10000 4.6 180 14:26 19.07.2020
5354 Clouds 24 1018 53 10000 4.6 180 13:54 19.07.2020
5355 Clouds 23 1019 57 10000 5.1 190 13:36 19.07.2020
5356 Clouds 23 1019 57 10000 5.1 190 13:18 19.07.2020
5357 Clouds 22 1019 53 10000 2.1 0 12:40 19.07.2020
5358 Clouds 22 1019 53 10000 2.1 0 12:22 19.07.2020
5359 Clouds 22 1019 57 10000 3.1 240 11:42 19.07.2020
5360 Clouds 22 1019 60 10000 3.1 220 11:23 19.07.2020
5361 Clouds 21 1019 56 10000 3.6 260 10:56 19.07.2020
5362 Clouds 21 1019 56 10000 3.6 260 10:37 19.07.2020
5363 Clouds 22 1019 56 10000 2.6 210 10:19 19.07.2020
5364 Clouds 21 1019 64 10000 2.1 170 09:41 19.07.2020
5365 Clouds 21 1019 68 10000 2.6 230 09:20 19.07.2020
5366 Clouds 20 1019 72 10000 1.5 220 08:42 19.07.2020
5367 Clouds 19 1019 72 10000 1.5 230 08:23 19.07.2020
5368 Clouds 19 1019 77 10000 2.1 230 07:40 19.07.2020
5369 Clouds 18 1020 72 10000 2.1 210 07:22 19.07.2020
5370 Clouds 17 1020 77 10000 2.1 230 06:42 19.07.2020
5371 Clouds 16 1020 87 10000 0.5 0 06:18 19.07.2020
5372 Clouds 15 1020 93 10000 1.69 243 05:50 19.07.2020
5373 Clouds 14 1020 93 10000 2.1 240 03:36 19.07.2020
5374 Clouds 15 1020 100 10000 2.6 240 02:40 19.07.2020
5375 Clouds 15 1020 87 10000 2.1 240 02:21 19.07.2020
5376 Clouds 16 1020 87 10000 2.6 250 01:43 19.07.2020
5377 Clouds 17 1020 93 10000 2.1 240 00:48 19.07.2020
5378 Clouds 17 1020 93 10000 2.6 240 00:21 19.07.2020
5379 Clouds 18 1019 82 10000 2.1 230 23:45 18.07.2020
5380 Clouds 18 1019 82 10000 3.1 220 23:25 18.07.2020
5381 Clouds 19 1019 77 10000 3.1 220 22:46 18.07.2020
5382 Clouds 19 1019 77 10000 3.1 220 22:46 18.07.2020
5383 Clouds 19 1019 72 10000 3.6 210 22:22 18.07.2020
5384 Clouds 19 1019 72 10000 3.6 220 21:56 18.07.2020
5385 Clouds 19 1019 72 10000 3.6 220 21:38 18.07.2020
5386 Clouds 20 1019 68 10000 3.1 220 21:20 18.07.2020
5387 Clouds 21 1018 64 10000 3.6 220 20:42 18.07.2020
5388 Clouds 22 1018 60 10000 4.6 220 20:22 18.07.2020
5389 Clouds 22 1018 60 10000 4.6 220 19:54 18.07.2020
5390 Clouds 23 1018 53 10000 4.6 210 19:36 18.07.2020
5391 Clouds 23 1018 53 10000 4.6 210 19:18 18.07.2020
5392 Clouds 24 1018 50 10000 5.1 220 18:42 18.07.2020
5393 Clouds 24 1018 50 10000 5.1 220 18:19 18.07.2020
5394 Clouds 24 1018 53 10000 6.2 230 17:43 18.07.2020
5395 Clouds 24 1019 50 10000 6.7 220 17:21 18.07.2020
5396 Clouds 24 1019 50 10000 6.7 210 16:57 18.07.2020
5397 Clouds 25 1019 53 10000 6.7 220 16:36 18.07.2020
5398 Clouds 25 1019 53 10000 6.7 220 16:18 18.07.2020
5399 Clouds 24 1019 50 10000 6.2 220 15:44 18.07.2020
5400 Clouds 24 1019 47 10000 6.2 210 15:23 18.07.2020
5401 Clouds 24 1019 47 10000 6.7 200 14:55 18.07.2020
5402 Clouds 24 1019 41 10000 6.7 220 14:37 18.07.2020
5403 Clear 24 1019 41 10000 6.7 220 14:18 18.07.2020
5404 Clear 24 1019 41 10000 6.7 220 14:18 18.07.2020
5405 Clear 24 1019 41 10000 6.7 220 14:18 18.07.2020
5406 Clear 24 1019 44 10000 7.7 200 13:41 18.07.2020
5407 Clouds 24 1019 50 10000 6.2 210 13:22 18.07.2020
5408 Clouds 24 1019 53 10000 5.7 210 12:55 18.07.2020
5409 Clouds 23 1019 50 10000 4.6 220 12:37 18.07.2020
5410 Clouds 23 1019 50 10000 4.6 220 12:18 18.07.2020
5411 Clear 23 1019 53 10000 5.1 210 11:42 18.07.2020
5412 Clear 22 1019 49 10000 5.1 240 11:19 18.07.2020
5413 Clear 23 1019 49 10000 5.7 220 10:48 18.07.2020
5414 Clear 23 1019 49 10000 5.1 230 10:29 18.07.2020
5415 Clear 23 1019 49 10000 5.1 230 10:29 18.07.2020
5416 Clear 22 1019 49 10000 5.7 230 09:59 18.07.2020
5417 Clouds 22 1019 49 10000 5.7 230 09:41 18.07.2020
5418 Clouds 22 1019 53 10000 4.1 240 09:21 18.07.2020
5419 Clouds 21 1019 60 10000 4.6 250 08:49 18.07.2020
5420 Clouds 21 1019 60 10000 4.6 250 08:30 18.07.2020
5421 Clouds 19 1019 68 10000 3.1 230 07:48 18.07.2020
5422 Clouds 19 1019 68 10000 3.1 230 07:25 18.07.2020
5423 Clouds 18 1019 72 10000 2.1 230 06:56 18.07.2020
5424 Clouds 17 1019 77 10000 1.5 230 06:37 18.07.2020
5425 Clouds 14 1018 100 10000 0.5 0 04:29 18.07.2020
5426 Clouds 14 1018 93 10000 1 0 03:32 18.07.2020
5427 Clouds 16 1018 93 10000 2.1 260 01:28 18.07.2020
5428 Clouds 16 1018 87 10000 2.1 260 00:55 18.07.2020
5429 Clouds 17 1018 87 10000 2.1 260 00:34 18.07.2020
5430 Clouds 18 1017 82 10000 2.1 240 23:55 17.07.2020
5431 Clouds 18 1017 72 10000 3.1 260 23:36 17.07.2020
5432 Clouds 19 1017 72 10000 3.1 260 23:18 17.07.2020
5433 Clouds 20 1017 68 10000 3.1 250 22:40 17.07.2020
5434 Clouds 20 1017 82 10000 2.1 270 22:19 17.07.2020
5435 Clouds 20 1017 82 10000 2.6 240 21:57 17.07.2020
5436 Clear 20 1017 82 10000 2.6 240 21:39 17.07.2020
5437 Clear 21 1016 77 10000 2.1 230 21:19 17.07.2020
5438 Clear 22 1016 64 10000 2.1 250 20:43 17.07.2020
5439 Clouds 23 1016 53 10000 1.5 290 20:25 17.07.2020
5440 Clouds 23 1016 53 10000 2.1 310 19:54 17.07.2020
5441 Clouds 24 1016 53 10000 2.1 310 19:36 17.07.2020
5442 Clouds 24 1016 53 10000 2.1 310 19:18 17.07.2020
5443 Clouds 24 1016 48 10000 0.45 155 18:42 17.07.2020
5444 Clouds 23 1016 60 10000 2.6 330 18:24 17.07.2020
5445 Rain 23 1016 60 10000 5.1 340 17:43 17.07.2020
5446 Rain 24 1016 44 10000 3.6 330 17:25 17.07.2020
5447 Rain 25 1015 44 10000 3.1 280 16:44 17.07.2020
5448 Clouds 25 1015 44 10000 3.1 300 16:23 17.07.2020
5449 Clouds 24 1015 39 10000 4.1 300 15:56 17.07.2020
5450 Clouds 25 1016 44 10000 3.1 0 15:37 17.07.2020
5451 Clouds 24 1016 44 10000 3.1 0 15:18 17.07.2020
5452 Clouds 24 1016 47 10000 4.1 290 14:39 17.07.2020
5453 Clouds 25 1016 47 10000 3.6 270 14:20 17.07.2020
5454 Clouds 24 1016 47 10000 2.6 320 13:41 17.07.2020
5455 Clouds 25 1016 47 10000 3.1 280 13:21 17.07.2020
5456 Clouds 26 1015 44 10000 3.1 280 12:57 17.07.2020
5457 Clouds 25 1015 47 10000 3.1 270 12:38 17.07.2020
5458 Clear 25 1015 47 10000 3.1 270 12:20 17.07.2020
5459 Clear 23 1015 47 10000 3.1 320 11:45 17.07.2020
5460 Clear 23 1016 46 10000 3.1 350 11:23 17.07.2020
5461 Clouds 24 1016 46 10000 3.6 350 10:59 17.07.2020
5462 Clouds 24 1016 46 10000 3.6 350 10:41 17.07.2020
5463 Clouds 23 1015 49 10000 3.1 310 10:22 17.07.2020
5464 Clear 22 1015 49 10000 2.6 310 09:57 17.07.2020
5465 Clear 22 1015 53 10000 2.6 300 09:38 17.07.2020
5466 Clear 21 1015 53 10000 2.6 300 09:19 17.07.2020
5467 Clear 21 1015 60 10000 2.1 280 08:46 17.07.2020
5468 Clear 21 1015 64 10000 1.5 310 08:28 17.07.2020
5469 Clear 20 1015 68 10000 2.1 350 07:50 17.07.2020
5470 Clear 18 1015 72 10000 2.1 330 07:26 17.07.2020
5471 Clear 16 1015 77 10000 1.5 330 06:54 17.07.2020
5472 Clear 15 1014 82 10000 1.5 330 06:20 17.07.2020
5473 Clear 13 1014 93 10000 1.5 310 04:59 17.07.2020
5474 Clear 14 1014 82 10000 1 300 02:49 17.07.2020
5475 Clear 13 1014 93 10000 2.1 330 01:46 17.07.2020
5476 Clear 14 1013 87 10000 2.6 310 00:46 17.07.2020
5477 Clear 15 1013 87 10000 2.6 320 00:22 17.07.2020
5478 Clear 15 1013 87 10000 3.1 330 23:45 16.07.2020
5479 Clear 15 1013 93 10000 2.6 330 23:22 16.07.2020
5480 Clear 16 1013 87 10000 2.1 340 22:59 16.07.2020
5481 Clear 16 1013 87 10000 2.1 340 22:40 16.07.2020
5482 Clouds 17 1013 87 10000 2.6 320 22:22 16.07.2020
5483 Clouds 18 1013 82 10000 2.6 300 21:56 16.07.2020
5484 Clouds 20 1013 77 10000 2.1 320 21:37 16.07.2020
5485 Clouds 20 1013 77 10000 2.1 320 21:19 16.07.2020
5486 Clouds 20 1013 77 10000 2.1 320 21:19 16.07.2020
5487 Clouds 20 1013 64 10000 2.1 320 20:56 16.07.2020
5488 Clouds 20 1013 64 10000 2.1 320 20:38 16.07.2020
5489 Clouds 21 1013 49 10000 2.6 350 20:20 16.07.2020
5490 Clouds 22 1012 46 10000 3.1 360 19:47 16.07.2020
5491 Clouds 23 1012 49 10000 3.1 10 19:27 16.07.2020
5492 Clouds 23 1012 46 10000 2.1 350 18:48 16.07.2020
5493 Clouds 23 1012 49 10000 4.1 360 18:26 16.07.2020
5494 Clouds 23 1012 43 10000 3.6 330 17:59 16.07.2020
5495 Clouds 23 1012 43 10000 3.6 330 17:38 16.07.2020
5496 Clouds 23 1013 46 10000 3.1 350 17:19 16.07.2020
5497 Clouds 23 1012 38 10000 4.02 3 16:57 16.07.2020
5498 Clouds 23 1012 46 10000 5.7 360 16:39 16.07.2020
5499 Clouds 23 1012 38 10000 4.02 342 16:20 16.07.2020
5500 Clouds 23 1012 46 10000 4.6 330 15:45 16.07.2020
5501 Clouds 23 1012 46 10000 4.1 350 15:27 16.07.2020
5502 Clouds 23 1012 49 10000 3.6 360 14:57 16.07.2020
5503 Clouds 23 1012 49 10000 3.6 360 14:37 16.07.2020
5504 Clouds 23 1012 49 10000 4.1 340 14:19 16.07.2020
5505 Clouds 23 1012 49 10000 4.1 340 14:19 16.07.2020
5506 Clouds 22 1013 52 10000 4.1 340 13:42 16.07.2020
5507 Clouds 23 1012 49 10000 4.1 360 13:23 16.07.2020
5508 Clouds 22 1012 43 10000 4.1 330 12:59 16.07.2020
5509 Clear 22 1012 46 10000 4.6 330 12:41 16.07.2020
5510 Clear 22 1012 46 10000 4.6 330 12:19 16.07.2020
5511 Clear 22 1012 46 10000 4.6 330 12:19 16.07.2020
5512 Clear 22 1013 46 10000 5.7 310 11:39 16.07.2020
5513 Clear 22 1013 46 10000 5.1 350 11:19 16.07.2020
5514 Clear 22 1013 49 10000 5.1 330 10:59 16.07.2020
5515 Clear 22 1013 49 10000 5.1 330 10:39 16.07.2020
5516 Clouds 21 1013 49 10000 4.6 350 10:20 16.07.2020
5517 Clouds 21 1013 49 10000 4.6 350 10:20 16.07.2020
5518 Clouds 21 1013 46 10000 2.6 350 09:49 16.07.2020
5519 Clouds 20 1013 56 10000 3.1 330 09:30 16.07.2020
5520 Clouds 20 1013 56 10000 2.6 330 08:58 16.07.2020
5521 Clouds 20 1013 56 10000 2.6 330 08:39 16.07.2020
5522 Clouds 20 1013 56 10000 2.6 330 08:39 16.07.2020
5523 Clouds 19 1013 59 10000 2.6 340 08:20 16.07.2020
5524 Clouds 18 1013 63 10000 1.5 360 07:42 16.07.2020
5525 Clouds 16 1013 72 10000 1.5 360 07:23 16.07.2020
5526 Clouds 15 1013 87 10000 1.5 340 06:46 16.07.2020
5527 Clouds 14 1013 87 10000 1.5 340 06:20 16.07.2020
5528 Clouds 13 1013 87 10000 1.5 330 05:54 16.07.2020
5529 Fog 11 1013 93 10000 1.5 340 05:21 16.07.2020
5530 Clouds 12 1013 93 10000 2.1 310 03:57 16.07.2020
5531 Clouds 12 1013 93 10000 2.1 310 03:35 16.07.2020
5532 Clouds 12 1013 87 10000 1.5 320 02:36 16.07.2020
5533 Clouds 13 1013 81 10000 1 330 01:59 16.07.2020
5534 Clouds 13 1013 76 10000 2.1 310 01:39 16.07.2020
5535 Clouds 12 1013 81 10000 1.5 320 00:50 16.07.2020
5536 Clouds 14 1013 81 10000 1.5 310 00:29 16.07.2020
5537 Clouds 14 1013 87 10000 1.5 310 23:57 15.07.2020
5538 Clouds 14 1013 87 10000 1.5 310 23:38 15.07.2020
5539 Clouds 14 1013 82 10000 1 0 23:19 15.07.2020
5540 Clouds 15 1013 76 10000 1.5 280 22:41 15.07.2020
5541 Clouds 16 1013 77 10000 2.1 260 22:20 15.07.2020
5542 Clouds 17 1013 67 10000 2.6 250 21:59 15.07.2020
5543 Clouds 17 1013 67 10000 2.6 250 21:41 15.07.2020
5544 Clouds 18 1013 52 10000 2.6 240 21:23 15.07.2020
5545 Clouds 19 1013 48 10000 3.6 240 20:59 15.07.2020
5546 Clouds 20 1013 45 10000 2.6 240 20:39 15.07.2020
5547 Clouds 20 1013 45 10000 2.6 240 20:21 15.07.2020
5548 Clouds 20 1013 40 10000 2.1 210 19:58 15.07.2020
5549 Clouds 20 1013 45 10000 3.1 220 19:39 15.07.2020
5550 Clouds 21 1013 45 10000 3.1 220 19:20 15.07.2020
5551 Clouds 21 1013 43 10000 4.1 220 18:58 15.07.2020
5552 Clouds 21 1014 43 10000 4.1 210 18:38 15.07.2020
5553 Clouds 21 1014 43 10000 4.1 210 18:19 15.07.2020
5554 Clouds 21 1014 40 10000 4.1 200 17:54 15.07.2020
5555 Clouds 21 1014 40 10000 4.1 200 17:36 15.07.2020
5556 Clouds 21 1014 43 10000 4.1 200 17:18 15.07.2020
5557 Clouds 21 1014 43 10000 3.6 190 16:41 15.07.2020
5558 Clouds 21 1014 43 10000 3.6 190 16:22 15.07.2020
5559 Clouds 21 1015 46 10000 3.1 200 15:57 15.07.2020
5560 Clouds 21 1015 46 10000 3.1 200 15:39 15.07.2020
5561 Clouds 21 1015 46 10000 4.1 170 15:21 15.07.2020
5562 Clouds 21 1015 56 10000 3.6 100 14:43 15.07.2020
5563 Clouds 21 1015 46 10000 0.5 0 14:21 15.07.2020
5564 Clouds 21 1015 40 10000 1.5 140 13:59 15.07.2020
5565 Clouds 21 1015 40 10000 1.5 140 13:41 15.07.2020
5566 Clouds 20 1015 45 10000 1.5 140 13:21 15.07.2020
5567 Clouds 20 1015 43 10000 1.5 0 12:42 15.07.2020
5568 Clouds 20 1015 45 10000 1.5 290 12:22 15.07.2020
5569 Clouds 19 1015 49 10000 1 0 11:58 15.07.2020
5570 Clouds 20 1015 49 10000 2.1 220 11:39 15.07.2020
5571 Clouds 20 1015 49 10000 2.1 220 11:20 15.07.2020
5572 Clouds 20 1015 52 10000 2.1 0 10:56 15.07.2020
5573 Clouds 19 1015 52 10000 2.6 250 10:38 15.07.2020
5574 Clouds 19 1015 52 10000 2.6 250 10:20 15.07.2020
5575 Clouds 18 1015 55 10000 2.1 260 09:43 15.07.2020
5576 Clouds 18 1015 63 10000 1.5 280 09:25 15.07.2020
5577 Clouds 17 1015 59 10000 1 0 08:48 15.07.2020
5578 Clear 18 1015 63 10000 1.5 320 08:28 15.07.2020
5579 Clear 17 1015 63 10000 1 0 07:52 15.07.2020
5580 Clear 16 1015 72 10000 1 0 07:28 15.07.2020
5581 Clear 14 1016 82 10000 1 0 06:47 15.07.2020
5582 Clear 12 1015 87 10000 0.8 13 06:26 15.07.2020
5583 Clear 10 1015 93 10000 0.5 0 05:51 15.07.2020
5584 Clear 10 1015 93 10000 1.75 357 04:29 15.07.2020
5585 Clear 9 1015 93 10000 1.5 290 03:42 15.07.2020
5586 Clouds 10 1015 93 10000 0.5 340 01:57 15.07.2020
5587 Clouds 10 1015 93 10000 0.5 340 01:39 15.07.2020
5588 Clouds 11 1015 93 10000 1 320 00:58 15.07.2020
5589 Clouds 12 1015 87 10000 0.5 0 00:36 15.07.2020
5590 Clouds 12 1015 87 10000 0.5 0 00:18 15.07.2020
5591 Clouds 12 1015 93 10000 1 0 23:38 14.07.2020
5592 Clouds 12 1015 93 10000 1 0 23:20 14.07.2020
5593 Clouds 14 1015 76 10000 2.1 240 22:39 14.07.2020
5594 Clouds 15 1015 77 10000 2.6 230 22:19 14.07.2020
5595 Clouds 16 1015 72 10000 2.6 230 21:55 14.07.2020
5596 Clouds 16 1015 72 10000 2.6 230 21:37 14.07.2020
5597 Clouds 17 1015 67 10000 2.6 230 21:19 14.07.2020
5598 Clouds 17 1015 63 10000 3.1 230 20:42 14.07.2020
5599 Clouds 18 1015 55 10000 4.1 230 20:22 14.07.2020
5600 Clouds 18 1015 52 10000 4.1 240 19:56 14.07.2020
5601 Clouds 18 1015 52 10000 4.1 240 19:38 14.07.2020
5602 Clouds 19 1015 55 10000 5.1 210 19:20 14.07.2020
5603 Clouds 19 1014 55 10000 4.6 210 18:44 14.07.2020
5604 Clouds 19 1014 55 10000 5.7 230 18:20 14.07.2020
5605 Clouds 19 1014 52 10000 5.1 230 17:58 14.07.2020
5606 Clouds 19 1014 52 10000 5.1 230 17:40 14.07.2020
5607 Clouds 19 1014 55 10000 4.6 230 17:21 14.07.2020
5608 Clouds 19 1014 52 10000 5.1 220 16:55 14.07.2020
5609 Clouds 19 1014 52 10000 5.1 220 16:37 14.07.2020
5610 Clouds 19 1015 59 10000 5.1 220 16:18 14.07.2020
5611 Clouds 19 1015 59 10000 6.2 210 15:42 14.07.2020
5612 Clouds 19 1014 63 10000 5.7 210 15:22 14.07.2020
5613 Clouds 19 1015 55 10000 5.1 210 14:57 14.07.2020
5614 Clouds 19 1015 55 10000 5.1 210 14:39 14.07.2020
5615 Clouds 18 1015 52 10000 4.1 220 14:18 14.07.2020
5616 Clouds 19 1015 55 10000 4.1 230 13:41 14.07.2020
5617 Clouds 18 1015 48 10000 2.6 240 13:22 14.07.2020
5618 Clouds 18 1015 52 10000 4.6 260 12:55 14.07.2020
5619 Clouds 18 1015 52 10000 4.6 260 12:36 14.07.2020
5620 Clouds 18 1015 52 10000 4.6 260 12:18 14.07.2020
5621 Clouds 18 1015 55 10000 5.1 250 11:41 14.07.2020
5622 Clouds 17 1015 52 10000 4.6 240 11:19 14.07.2020
5623 Clouds 16 1015 59 10000 4.6 260 10:43 14.07.2020
5624 Clouds 16 1015 59 10000 5.1 260 10:25 14.07.2020
5625 Clouds 16 1014 67 10000 4.1 240 09:58 14.07.2020
5626 Clouds 16 1015 67 10000 3.1 230 09:37 14.07.2020
5627 Clouds 15 1015 67 10000 3.1 230 09:19 14.07.2020
5628 Clouds 14 1015 72 10000 3.6 250 08:43 14.07.2020
5629 Clear 14 1015 71 10000 3.6 250 08:23 14.07.2020
5630 Clear 13 1015 76 10000 2.6 250 07:56 14.07.2020
5631 Clear 13 1014 81 10000 2.6 260 07:37 14.07.2020
5632 Clear 12 1014 81 10000 2.6 260 07:18 14.07.2020
5633 Clear 10 1014 87 10000 2.6 280 06:36 14.07.2020
5634 Clear 10 1014 87 10000 2.6 280 06:18 14.07.2020
5635 Clear 9 1014 100 10000 3.1 280 05:22 14.07.2020
5636 Clear 9 1014 93 10000 2.6 290 04:35 14.07.2020
5637 Clear 9 1014 93 10000 3.1 290 03:34 14.07.2020
5638 Fog 10 1014 100 10000 3.1 270 02:41 14.07.2020
5639 Fog 10 1014 100 10000 1.5 260 01:58 14.07.2020
5640 Clouds 10 1013 93 10000 1.5 250 01:24 14.07.2020
5641 Rain 10 1013 93 10000 1.5 240 00:48 14.07.2020
5642 Rain 11 1013 100 10000 4.1 150 00:28 14.07.2020
5643 Rain 12 1013 93 10000 2.1 160 23:57 13.07.2020
5644 Rain 11 1014 100 5000 1.5 200 23:36 13.07.2020
5645 Rain 11 1014 100 5000 1.5 200 23:18 13.07.2020
5646 Rain 13 1013 93 10000 2.1 150 22:40 13.07.2020
5647 Rain 13 1014 93 10000 1.5 20 22:21 13.07.2020
5648 Thunderstorm 13 1013 100 10000 0.5 0 21:56 13.07.2020
5649 Thunderstorm 13 1013 100 10000 0.5 0 21:38 13.07.2020
5650 Rain 14 1013 93 10000 1 40 21:19 13.07.2020
5651 Rain 14 1013 93 10000 1 0 20:57 13.07.2020
5652 Rain 14 1013 93 10000 1 0 20:38 13.07.2020
5653 Clouds 14 1014 87 10000 1 0 20:19 13.07.2020
5654 Clouds 14 1014 87 10000 1 0 20:19 13.07.2020
5655 Clouds 15 1014 76 10000 2.6 350 19:43 13.07.2020
5656 Clouds 16 1014 77 10000 2.6 350 19:25 13.07.2020
5657 Rain 16 1014 82 10000 3.6 340 18:59 13.07.2020
5658 Rain 16 1014 82 10000 3.6 340 18:40 13.07.2020
5659 Rain 16 1014 87 10000 2.6 330 18:21 13.07.2020
5660 Rain 16 1014 82 10000 4.1 240 17:56 13.07.2020
5661 Rain 16 1014 82 10000 4.1 240 17:56 13.07.2020
5662 Rain 16 1014 76 10000 5.7 220 17:37 13.07.2020
5663 Rain 16 1014 76 10000 5.7 220 17:19 13.07.2020
5664 Rain 16 1013 77 10000 4.6 210 16:55 13.07.2020
5665 Rain 15 1013 77 10000 4.6 210 16:36 13.07.2020
5666 Rain 16 1014 67 10000 3.6 180 16:18 13.07.2020
5667 Rain 17 1014 67 10000 5.1 210 15:41 13.07.2020
5668 Rain 18 1014 59 10000 4.1 220 15:21 13.07.2020
5669 Rain 18 1014 59 10000 3.1 200 14:59 13.07.2020
5670 Rain 18 1014 59 10000 3.1 200 14:39 13.07.2020
5671 Rain 18 1014 63 10000 3.1 180 14:21 13.07.2020
5672 Rain 17 1014 67 10000 3.6 180 13:56 13.07.2020
5673 Rain 16 1014 72 10000 2.6 160 13:38 13.07.2020
5674 Rain 16 1014 72 10000 2.6 160 13:20 13.07.2020
5675 Rain 15 1015 82 10000 2.1 240 12:43 13.07.2020
5676 Rain 15 1015 82 10000 2.1 240 12:23 13.07.2020
5677 Rain 15 1014 75 0 1.34 278 11:58 13.07.2020
5678 Rain 14 1015 81 10000 3.6 260 11:38 13.07.2020
5679 Rain 15 1014 72 10000 5.7 310 11:19 13.07.2020
5680 Rain 16 1015 63 10000 3.6 270 10:38 13.07.2020
5681 Rain 16 1015 67 10000 2.1 220 10:20 13.07.2020
5682 Thunderstorm 16 1015 72 10000 1 0 09:43 13.07.2020
5683 Clouds 15 1015 87 10000 1.5 220 09:25 13.07.2020
5684 Clouds 14 1015 87 10000 1 0 08:53 13.07.2020
5685 Clouds 14 1015 87 10000 1 0 08:34 13.07.2020
5686 Mist 13 1015 93 5000 0.5 0 07:44 13.07.2020
5687 Fog 13 1015 100 1200 1.5 350 07:20 13.07.2020
5688 Mist 12 1015 100 1000 1 0 06:44 13.07.2020
5689 Fog 12 1015 100 500 2.1 300 06:22 13.07.2020
5690 Clouds 11 1015 93 10000 1 250 04:43 13.07.2020
5691 Clouds 11 1015 100 10000 1.5 220 01:57 13.07.2020
5692 Clear 11 1015 93 10000 1.5 230 01:29 13.07.2020
5693 Clear 12 1015 93 10000 1.5 220 00:59 13.07.2020
5694 Clear 13 1015 87 10000 2.1 220 00:27 13.07.2020
5695 Clouds 13 1015 93 10000 3.1 210 23:58 12.07.2020
5696 Clouds 13 1015 93 10000 3.1 210 23:40 12.07.2020
5697 Clouds 13 1015 87 10000 3.1 200 23:21 12.07.2020
5698 Clouds 14 1015 82 10000 4.1 210 22:54 12.07.2020
5699 Clouds 14 1015 82 10000 3.1 220 22:36 12.07.2020
5700 Clouds 15 1015 82 10000 3.1 220 22:18 12.07.2020
5701 Clouds 15 1015 82 10000 3.1 220 21:41 12.07.2020
5702 Clouds 16 1015 72 10000 4.1 230 21:20 12.07.2020
5703 Clouds 16 1015 55 10000 4.1 240 20:58 12.07.2020
5704 Clouds 16 1015 55 10000 4.1 240 20:40 12.07.2020
5705 Clouds 17 1015 59 10000 4.6 230 20:20 12.07.2020
5706 Clouds 17 1015 63 10000 5.1 210 19:55 12.07.2020
5707 Clouds 18 1014 59 10000 5.1 220 19:37 12.07.2020
5708 Clouds 18 1014 59 10000 5.1 220 19:18 12.07.2020
5709 Clouds 17 1014 55 10000 4.6 210 18:42 12.07.2020
5710 Clouds 19 1015 52 10000 5.1 220 18:20 12.07.2020
5711 Clouds 18 1014 48 10000 6.7 200 17:58 12.07.2020
5712 Clouds 18 1014 48 10000 6.7 200 17:37 12.07.2020
5713 Clouds 18 1015 48 10000 6.2 200 17:19 12.07.2020
5714 Clouds 19 1015 42 10000 6.2 210 16:44 12.07.2020
5715 Clouds 19 1015 49 10000 6.7 220 16:20 12.07.2020
5716 Clouds 19 1015 55 10000 6.7 230 15:43 12.07.2020
5717 Clouds 19 1015 55 10000 6.7 230 15:25 12.07.2020
5718 Clouds 19 1015 49 10000 7.2 200 14:46 12.07.2020
5719 Clouds 19 1015 49 10000 6.7 200 14:27 12.07.2020
5720 Clouds 19 1015 45 10000 7.2 200 13:57 12.07.2020
5721 Clouds 19 1015 45 10000 7.2 200 13:39 12.07.2020
5722 Rain 19 1015 60 10000 6.7 180 13:20 12.07.2020
5723 Rain 18 1015 59 10000 6.7 180 12:54 12.07.2020
5724 Rain 18 1015 59 10000 6.7 180 12:54 12.07.2020
5725 Rain 18 1015 68 10000 4.6 200 12:36 12.07.2020
5726 Rain 18 1015 68 10000 4.6 200 12:18 12.07.2020
5727 Rain 18 1015 59 10000 3.6 180 11:42 12.07.2020
5728 Clouds 17 1015 55 10000 4.1 180 11:19 12.07.2020
5729 Clouds 16 1015 52 10000 2.6 200 10:42 12.07.2020
5730 Clouds 16 1015 52 10000 2.6 200 10:42 12.07.2020
5731 Clouds 17 1015 48 10000 2.6 220 10:22 12.07.2020
5732 Clouds 16 1015 55 10000 3.1 210 09:54 12.07.2020
5733 Clouds 16 1015 63 10000 2.6 220 09:36 12.07.2020
5734 Clouds 16 1015 63 10000 2.6 220 09:18 12.07.2020
5735 Clouds 16 1015 63 10000 2.1 210 08:41 12.07.2020
5736 Clear 15 1015 72 10000 2.6 230 08:22 12.07.2020
5737 Clear 15 1015 72 10000 1.5 0 07:56 12.07.2020
5738 Clear 14 1015 87 10000 1.5 230 07:36 12.07.2020
5739 Clear 13 1015 87 10000 1.5 230 07:18 12.07.2020
5740 Clear 12 1015 93 10000 1 0 06:48 12.07.2020
5741 Clear 11 1014 93 10000 1.5 220 06:19 12.07.2020
5742 Fog 9 1014 93 7000 2.32 284 05:22 12.07.2020
5743 Fog 9 1014 100 10000 1 0 04:29 12.07.2020
5744 Fog 9 1014 100 10000 1.5 240 03:53 12.07.2020
5745 Fog 9 1014 100 10000 1.5 240 03:31 12.07.2020
5746 Fog 9 1014 100 10000 0.5 0 03:31 12.07.2020
5747 Clouds 9 1014 100 10000 1.5 220 02:45 12.07.2020
5748 Fog 10 1013 100 10000 1.5 230 01:36 12.07.2020
5749 Clouds 11 1013 100 10000 2.1 240 00:41 12.07.2020
5750 Clouds 12 1013 93 10000 2.1 240 00:22 12.07.2020
5751 Clouds 12 1012 93 10000 2.1 250 23:55 11.07.2020
5752 Clouds 12 1012 93 10000 2.6 230 23:37 11.07.2020
5753 Clouds 12 1012 93 10000 2.6 230 23:18 11.07.2020
5754 Clouds 13 1012 87 10000 2.6 240 22:44 11.07.2020
5755 Clouds 13 1012 87 10000 3.1 250 22:25 11.07.2020
5756 Clouds 13 1012 82 10000 4.1 240 21:57 11.07.2020
5757 Clouds 13 1012 82 10000 4.1 240 21:38 11.07.2020
5758 Clouds 13 1011 82 10000 4.1 260 21:20 11.07.2020
5759 Clouds 14 1011 76 10000 4.6 260 20:55 11.07.2020
5760 Clouds 14 1011 76 10000 4.6 260 20:37 11.07.2020
5761 Clouds 14 1010 76 10000 6.2 270 20:18 11.07.2020
5762 Clouds 15 1010 77 10000 5.7 260 19:48 11.07.2020
5763 Clouds 15 1009 77 10000 5.7 270 19:30 11.07.2020
5764 Clouds 15 1008 82 10000 6.2 280 18:58 11.07.2020
5765 Clouds 15 1008 82 10000 5.7 290 18:39 11.07.2020
5766 Clouds 15 1008 82 10000 5.7 290 18:21 11.07.2020
5767 Clouds 15 1007 82 10000 5.7 270 17:57 11.07.2020
5768 Clouds 15 1007 82 10000 5.7 270 17:38 11.07.2020
5769 Clouds 15 1006 82 10000 6.2 290 17:19 11.07.2020
5770 Clouds 15 1005 82 10000 6.7 310 16:56 11.07.2020
5771 Clouds 15 1004 87 10000 5.7 310 16:36 11.07.2020
5772 Clouds 15 1004 87 10000 5.7 310 16:36 11.07.2020
5773 Clouds 15 1004 87 10000 5.7 310 16:18 11.07.2020
5774 Clouds 14 1003 93 10000 7.2 320 15:41 11.07.2020
5775 Clouds 14 1002 87 10000 7.2 340 15:21 11.07.2020
5776 Clouds 14 1002 87 10000 7.2 340 15:21 11.07.2020
5777 Clouds 14 1001 93 10000 8.7 340 14:58 11.07.2020
5778 Rain 14 1000 100 7000 7.7 330 14:39 11.07.2020
5779 Rain 14 1000 100 7000 7.7 330 14:20 11.07.2020
5780 Rain 14 1000 100 3000 4.1 350 13:43 11.07.2020
5781 Rain 15 999 93 10000 1.5 0 13:22 11.07.2020
5782 Rain 15 999 93 2000 2.6 40 12:58 11.07.2020
5783 Rain 15 999 93 2000 2.6 40 12:40 11.07.2020
5784 Rain 14 999 100 8000 3.1 20 12:21 11.07.2020
5785 Rain 14 999 93 7000 4.1 30 11:56 11.07.2020
5786 Rain 14 999 93 7000 4.1 30 11:38 11.07.2020
5787 Rain 14 999 93 7000 3.6 50 11:18 11.07.2020
5788 Rain 14 999 100 4500 3.6 100 10:41 11.07.2020
5789 Rain 14 999 93 4000 6.2 60 10:23 11.07.2020
5790 Rain 13 1000 100 7000 5.7 50 09:45 11.07.2020
5791 Rain 13 1000 93 10000 4.6 50 09:21 11.07.2020
5792 Rain 13 1001 93 7000 5.7 40 08:55 11.07.2020
5793 Rain 13 1001 93 4500 5.7 30 08:36 11.07.2020
5794 Rain 13 1001 93 4500 5.7 30 08:18 11.07.2020
5795 Rain 13 1002 93 10000 5.1 40 07:40 11.07.2020
5796 Rain 13 1002 93 10000 5.1 40 07:20 11.07.2020
5797 Rain 13 1003 93 8000 3.6 40 06:53 11.07.2020
5798 Rain 13 1004 93 10000 3.6 40 06:20 11.07.2020
5799 Rain 13 1005 93 10000 3.1 40 05:21 11.07.2020
5800 Rain 13 1005 93 10000 3.1 40 04:55 11.07.2020
5801 Clouds 13 1006 87 10000 2.6 60 04:31 11.07.2020
5802 Clouds 13 1007 93 10000 2.1 50 02:59 11.07.2020
5803 Clouds 13 1007 93 10000 2.1 50 02:36 11.07.2020
5804 Clouds 11 1008 93 10000 1.5 60 01:32 11.07.2020
5805 Clouds 12 1008 93 10000 2.1 50 00:59 11.07.2020
5806 Clouds 12 1008 93 10000 2.1 50 00:40 11.07.2020
5807 Clouds 12 1008 100 10000 1 0 00:21 11.07.2020
5808 Clouds 13 1008 93 10000 1 80 23:57 10.07.2020
5809 Clouds 13 1008 93 10000 1 80 23:38 10.07.2020
5810 Clouds 13 1008 93 10000 1 80 23:38 10.07.2020
5811 Clouds 13 1009 93 10000 2.1 70 23:18 10.07.2020
5812 Clouds 14 1009 82 10000 2.1 110 22:43 10.07.2020
5813 Clouds 14 1009 82 10000 2.1 110 22:19 10.07.2020
5814 Clouds 15 1009 67 10000 3.1 120 21:41 10.07.2020
5815 Clouds 15 1009 67 10000 3.1 120 21:21 10.07.2020
5816 Clouds 15 1009 67 10000 3.1 120 20:59 10.07.2020
5817 Clouds 16 1009 67 10000 3.1 150 20:41 10.07.2020
5818 Clouds 16 1009 63 10000 3.1 120 20:21 10.07.2020
5819 Clouds 17 1009 59 10000 4.1 150 19:57 10.07.2020
5820 Clouds 17 1009 59 10000 4.1 150 19:39 10.07.2020
5821 Clouds 17 1010 59 10000 4.1 160 19:20 10.07.2020
5822 Clouds 17 1009 55 10000 4.1 170 18:41 10.07.2020
5823 Clouds 17 1009 55 10000 4.6 160 18:20 10.07.2020
5824 Clouds 17 1009 55 10000 4.1 180 17:57 10.07.2020
5825 Clouds 18 1009 55 10000 4.1 180 17:38 10.07.2020
5826 Clouds 18 1010 52 10000 4.1 170 17:20 10.07.2020
5827 Clouds 18 1010 59 10000 4.6 160 16:42 10.07.2020
5828 Clouds 18 1010 55 10000 5.1 160 16:20 10.07.2020
5829 Clouds 19 1010 45 10000 4.6 160 15:47 10.07.2020
5830 Clouds 19 1010 48 10000 5.7 170 15:25 10.07.2020
5831 Clouds 18 1010 52 10000 6.2 190 14:55 10.07.2020
5832 Clouds 18 1010 52 10000 6.2 190 14:37 10.07.2020
5833 Clouds 19 1010 48 10000 6.2 180 14:19 10.07.2020
5834 Clouds 18 1010 45 10000 6.2 190 13:57 10.07.2020
5835 Clouds 18 1010 45 10000 6.2 190 13:38 10.07.2020
5836 Clear 18 1010 45 10000 6.2 170 13:20 10.07.2020
5837 Clear 18 1010 39 10000 6.7 170 12:44 10.07.2020
5838 Clouds 18 1010 52 10000 6.7 180 12:25 10.07.2020
5839 Clouds 17 1010 45 10000 6.7 170 11:59 10.07.2020
5840 Clouds 17 1010 52 10000 6.2 180 11:38 10.07.2020
5841 Clouds 17 1010 52 10000 6.2 180 11:38 10.07.2020
5842 Clouds 17 1010 63 10000 5.1 180 11:19 10.07.2020
5843 Clouds 17 1010 63 10000 5.1 180 10:55 10.07.2020
5844 Clouds 16 1011 67 10000 4.6 180 10:36 10.07.2020
5845 Clouds 16 1011 67 10000 4.6 180 10:18 10.07.2020
5846 Clouds 15 1011 67 10000 4.6 180 09:38 10.07.2020
5847 Clouds 15 1011 67 10000 4.6 180 09:20 10.07.2020
5848 Clouds 15 1011 67 10000 5.1 200 08:58 10.07.2020
5849 Clouds 15 1011 67 10000 5.1 200 08:39 10.07.2020
5850 Clouds 15 1011 72 10000 4.6 210 08:21 10.07.2020
5851 Clouds 14 1011 72 10000 6.2 210 07:42 10.07.2020
5852 Clouds 14 1011 82 10000 5.7 210 07:22 10.07.2020
5853 Clouds 14 1011 87 10000 4.6 200 06:51 10.07.2020
5854 Clouds 13 1010 87 10000 3.6 190 06:24 10.07.2020
5855 Fog 11 1011 100 10000 1.5 200 04:43 10.07.2020
5856 Rain 11 1011 93 10000 2.6 190 03:38 10.07.2020
5857 Clouds 12 1010 93 10000 2.6 210 02:52 10.07.2020
5858 Rain 11 1010 93 10000 2.6 210 01:50 10.07.2020
5859 Clear 11 1010 87 10000 3.6 210 00:48 10.07.2020
5860 Clear 11 1010 87 10000 3.6 210 00:20 10.07.2020
5861 Clear 11 1010 81 10000 4.1 210 23:46 09.07.2020
5862 Clouds 12 1010 81 10000 3.1 220 23:23 09.07.2020
5863 Clouds 12 1010 76 10000 3.1 230 22:59 09.07.2020
5864 Clouds 12 1010 76 10000 3.1 230 22:41 09.07.2020
5865 Clouds 13 1009 76 10000 3.6 240 22:21 09.07.2020
5866 Clouds 13 1009 71 10000 4.1 230 21:56 09.07.2020
5867 Clouds 14 1009 67 10000 4.6 240 21:38 09.07.2020
5868 Clouds 14 1009 67 10000 4.6 240 21:19 09.07.2020
5869 Clouds 14 1009 67 10000 5.1 250 20:45 09.07.2020
5870 Clouds 15 1009 71 10000 5.1 250 20:25 09.07.2020
5871 Clouds 15 1008 72 10000 4.6 250 19:58 09.07.2020
5872 Clouds 15 1008 72 10000 4.6 250 19:40 09.07.2020
5873 Rain 15 1008 76 10000 5.1 280 19:21 09.07.2020
5874 Rain 15 1008 67 10000 8.2 240 18:42 09.07.2020
5875 Rain 15 1008 72 10000 6.2 230 18:22 09.07.2020
5876 Rain 15 1008 72 10000 6.2 230 18:22 09.07.2020
5877 Rain 15 1008 67 10000 5.7 250 17:56 09.07.2020
5878 Rain 15 1008 67 10000 5.7 250 17:37 09.07.2020
5879 Rain 15 1008 67 10000 5.1 230 17:19 09.07.2020
5880 Rain 15 1008 72 10000 4.1 220 16:55 09.07.2020
5881 Rain 15 1008 72 10000 4.1 220 16:37 09.07.2020
5882 Rain 15 1008 71 10000 1 0 16:18 09.07.2020
5883 Rain 15 1008 82 10000 2.6 290 15:46 09.07.2020
5884 Rain 16 1008 72 10000 6.2 230 15:28 09.07.2020
5885 Rain 16 1007 59 10000 5.7 210 14:59 09.07.2020
5886 Rain 16 1007 59 10000 5.7 210 14:41 09.07.2020
5887 Rain 17 1007 55 10000 5.7 220 14:23 09.07.2020
5888 Rain 17 1007 51 10000 5.7 220 13:59 09.07.2020
5889 Rain 17 1007 51 10000 5.7 220 13:41 09.07.2020
5890 Rain 16 1007 55 10000 5.7 220 13:20 09.07.2020
5891 Rain 16 1007 63 10000 5.1 240 12:57 09.07.2020
5892 Clouds 17 1007 63 10000 4.1 250 12:39 09.07.2020
5893 Clouds 17 1007 63 10000 4.1 250 12:20 09.07.2020
5894 Rain 15 1007 76 10000 6.7 280 11:44 09.07.2020
5895 Rain 15 1007 58 10000 5.1 200 11:26 09.07.2020
5896 Clouds 15 1007 67 10000 4.1 210 10:59 09.07.2020
5897 Clouds 15 1007 67 10000 4.1 210 10:41 09.07.2020
5898 Clouds 15 1007 72 10000 3.6 230 10:23 09.07.2020
5899 Rain 13 1007 81 10000 0.5 0 09:58 09.07.2020
5900 Rain 13 1007 81 10000 0.5 0 09:39 09.07.2020
5901 Rain 13 1007 93 8000 1.5 170 09:21 09.07.2020
5902 Rain 14 1007 87 7000 4.6 280 08:43 09.07.2020
5903 Rain 13 1007 71 10000 3.6 190 08:24 09.07.2020
5904 Rain 14 1007 76 10000 4.6 170 07:47 09.07.2020
5905 Rain 13 1007 71 10000 4.6 190 07:22 09.07.2020
5906 Clouds 13 1007 67 10000 3.6 180 06:50 09.07.2020
5907 Rain 12 1007 71 10000 4.1 180 06:19 09.07.2020
5908 Rain 10 1006 81 10000 3.1 190 04:29 09.07.2020
5909 Rain 10 1006 76 10000 3.6 190 03:32 09.07.2020
5910 Clouds 11 1006 81 10000 3.6 180 02:19 09.07.2020
5911 Clouds 11 1006 81 10000 3.6 180 01:32 09.07.2020
5912 Clouds 11 1006 81 10000 3.6 180 01:32 09.07.2020
5913 Clouds 11 1006 81 10000 3.1 170 00:47 09.07.2020
5914 Clear 12 1006 76 10000 3.6 180 00:23 09.07.2020
5915 Clouds 11 1006 81 10000 3.6 150 23:46 08.07.2020
5916 Clouds 11 1006 87 10000 3.6 140 23:27 08.07.2020
5917 Clear 12 1006 81 10000 4.1 150 22:58 08.07.2020
5918 Clear 12 1006 81 10000 4.1 150 22:39 08.07.2020
5919 Clear 13 1006 76 10000 4.1 160 22:21 08.07.2020
5920 Clear 13 1006 76 10000 4.1 150 21:58 08.07.2020
5921 Clear 13 1006 76 10000 4.1 150 21:38 08.07.2020
5922 Clouds 13 1006 76 10000 3.6 170 21:20 08.07.2020
5923 Clear 14 1006 71 10000 4.1 170 20:45 08.07.2020
5924 Clouds 14 1006 71 10000 4.6 170 20:26 08.07.2020
5925 Clouds 14 1006 71 10000 4.6 190 19:58 08.07.2020
5926 Clouds 15 1006 71 10000 4.6 190 19:40 08.07.2020
5927 Clouds 15 1006 62 10000 4.6 180 19:21 08.07.2020
5928 Clouds 14 1006 67 10000 5.1 180 18:55 08.07.2020
5929 Clouds 14 1006 67 10000 5.1 180 18:55 08.07.2020
5930 Clouds 15 1006 67 10000 4.1 190 18:36 08.07.2020
5931 Clouds 15 1006 67 10000 4.1 190 18:18 08.07.2020
5932 Clouds 15 1006 67 10000 4.1 190 18:18 08.07.2020
5933 Clouds 15 1006 62 10000 4.1 210 17:54 08.07.2020
5934 Clouds 15 1006 62 10000 4.1 210 17:54 08.07.2020
5935 Clouds 14 1006 67 10000 4.6 240 17:36 08.07.2020
5936 Clouds 14 1006 67 10000 4.6 240 17:18 08.07.2020
5937 Rain 15 1006 58 10000 4.6 200 16:38 08.07.2020
5938 Rain 15 1006 62 10000 5.7 200 16:20 08.07.2020
5939 Clouds 15 1006 63 10000 6.2 210 15:58 08.07.2020
5940 Clouds 15 1006 63 10000 6.2 210 15:39 08.07.2020
5941 Thunderstorm 16 1005 59 10000 5.7 190 15:19 08.07.2020
5942 Rain 16 1005 72 10000 4.6 240 14:44 08.07.2020
5943 Rain 16 1005 63 10000 7.7 210 14:25 08.07.2020
5944 Rain 16 1005 59 10000 7.2 190 13:58 08.07.2020
5945 Rain 16 1005 59 10000 7.2 190 13:40 08.07.2020
5946 Rain 16 1005 55 10000 5.7 190 13:19 08.07.2020
5947 Clouds 18 1005 63 10000 5.7 190 12:42 08.07.2020
5948 Clouds 17 1005 63 10000 7.7 190 12:20 08.07.2020
5949 Clouds 17 1005 63 10000 6.2 170 11:56 08.07.2020
5950 Clouds 17 1005 63 10000 6.2 170 11:38 08.07.2020
5951 Clouds 17 1005 63 10000 6.7 170 11:20 08.07.2020
5952 Clouds 16 1005 59 10000 6.2 170 10:43 08.07.2020
5953 Clouds 16 1005 72 10000 6.2 170 10:24 08.07.2020
5954 Clouds 15 1005 77 10000 6.2 180 09:46 08.07.2020
5955 Clouds 16 1005 67 10000 4.6 160 09:25 08.07.2020
5956 Clouds 16 1005 82 10000 4.6 170 08:57 08.07.2020
5957 Clouds 15 1005 82 10000 4.6 170 08:38 08.07.2020
5958 Clouds 15 1005 82 10000 5.1 170 08:19 08.07.2020
5959 Clouds 15 1005 82 10000 4.1 180 07:43 08.07.2020
5960 Clouds 14 1005 87 10000 4.6 160 07:22 08.07.2020
5961 Clouds 14 1005 93 10000 3.6 170 06:46 08.07.2020
5962 Clouds 14 1005 93 10000 2.1 170 06:27 08.07.2020
5963 Clouds 12 1005 93 10000 1.5 150 05:48 08.07.2020
5964 Fog 10 1005 100 10000 1.5 150 04:50 08.07.2020
5965 Fog 10 1005 93 10000 1 0 04:19 08.07.2020
5966 Clouds 10 1006 100 10000 2.1 200 02:19 08.07.2020
5967 Clouds 12 1006 93 10000 2.6 200 01:38 08.07.2020
5968 Clouds 11 1005 100 10000 3.1 210 00:51 08.07.2020
5969 Clouds 11 1005 93 10000 2.6 210 00:20 08.07.2020
5970 Clouds 12 1005 87 10000 3.1 210 23:44 07.07.2020
5971 Clouds 12 1006 93 10000 3.1 210 23:22 07.07.2020
5972 Clouds 12 1006 93 10000 3.1 220 22:57 07.07.2020
5973 Clouds 12 1006 93 10000 3.1 220 22:57 07.07.2020
5974 Clouds 13 1006 93 10000 3.1 220 22:38 07.07.2020
5975 Clouds 13 1005 87 10000 3.6 210 22:20 07.07.2020
5976 Clouds 14 1005 87 10000 3.6 210 21:56 07.07.2020
5977 Clouds 14 1005 87 10000 3.6 210 21:38 07.07.2020
5978 Clouds 14 1005 87 10000 3.6 210 21:38 07.07.2020
5979 Clouds 14 1005 87 10000 2.6 240 21:18 07.07.2020
5980 Clouds 15 1005 87 10000 2.6 240 20:42 07.07.2020
5981 Rain 15 1005 87 10000 3.1 240 20:23 07.07.2020
5982 Rain 15 1005 87 10000 4.1 260 19:58 07.07.2020
5983 Rain 15 1005 87 10000 4.1 260 19:39 07.07.2020
5984 Rain 15 1005 87 10000 4.1 260 19:39 07.07.2020
5985 Rain 15 1004 93 10000 3.6 230 19:20 07.07.2020
5986 Rain 15 1004 93 10000 3.6 230 19:20 07.07.2020
5987 Rain 15 1004 77 10000 4.1 230 18:55 07.07.2020
5988 Rain 16 1004 77 10000 6.2 230 18:37 07.07.2020
5989 Rain 16 1004 77 10000 6.2 230 18:18 07.07.2020
5990 Clouds 16 1004 67 10000 6.7 220 17:44 07.07.2020
5991 Clouds 16 1004 72 10000 7.2 210 17:23 07.07.2020
5992 Clouds 15 1003 72 10000 7.7 210 16:59 07.07.2020
5993 Clouds 16 1003 72 10000 7.7 210 16:40 07.07.2020
5994 Clouds 15 1003 72 10000 7.7 210 16:22 07.07.2020
5995 Clouds 16 1003 67 10000 8.2 210 15:55 07.07.2020
5996 Clouds 16 1003 67 10000 8.2 210 15:37 07.07.2020
5997 Clouds 16 1003 63 10000 8.2 210 15:18 07.07.2020
5998 Clouds 16 1003 63 10000 8.2 210 14:42 07.07.2020
5999 Clouds 16 1003 63 10000 8.2 210 14:42 07.07.2020
6000 Clouds 16 1002 63 10000 8.7 210 14:24 07.07.2020
6001 Clouds 17 1002 59 10000 10.3 210 13:43 07.07.2020
6002 Rain 17 1002 55 10000 9.8 190 13:20 07.07.2020
6003 Rain 17 1001 59 10000 9.3 200 12:56 07.07.2020
6004 Rain 17 1001 72 10000 8.7 200 12:37 07.07.2020
6005 Rain 16 1001 72 10000 8.7 200 12:18 07.07.2020
6006 Rain 16 1001 77 10000 9.3 200 11:43 07.07.2020
6007 Rain 16 1001 82 10000 7.2 180 11:22 07.07.2020
6008 Rain 15 1000 87 10000 6.2 180 10:58 07.07.2020
6009 Rain 15 1000 87 10000 6.2 180 10:39 07.07.2020
6010 Rain 14 1000 93 10000 6.7 180 10:20 07.07.2020
6011 Rain 14 1000 100 8000 6.2 190 09:42 07.07.2020
6012 Rain 14 999 93 7000 5.7 170 09:21 07.07.2020
6013 Rain 14 999 82 10000 7.7 180 08:54 07.07.2020
6014 Rain 14 999 87 10000 6.2 180 08:36 07.07.2020
6015 Rain 14 999 87 10000 6.2 180 08:18 07.07.2020
6016 Rain 14 999 87 8000 7.2 170 07:38 07.07.2020
6017 Rain 14 999 87 8000 7.2 170 07:19 07.07.2020
6018 Clouds 14 999 82 10000 7.7 180 06:41 07.07.2020
6019 Clouds 14 999 82 10000 7.7 180 06:22 07.07.2020
6020 Clouds 14 999 82 10000 6.7 180 05:28 07.07.2020
6021 Clouds 14 999 82 10000 7.2 180 04:44 07.07.2020
6022 Clouds 13 999 82 10000 6.7 180 03:42 07.07.2020
6023 Clouds 13 999 82 10000 6.7 180 03:23 07.07.2020
6024 Clouds 14 999 82 10000 7.2 180 01:41 07.07.2020
6025 Clouds 14 999 76 10000 7.2 180 00:59 07.07.2020
6026 Clouds 14 999 76 10000 6.7 190 00:40 07.07.2020
6027 Clouds 14 999 76 10000 6.7 190 00:20 07.07.2020
6028 Clouds 14 999 77 10000 5.7 180 23:43 06.07.2020
6029 Clouds 15 999 77 10000 6.7 190 23:25 06.07.2020
6030 Clouds 15 999 72 10000 6.7 190 22:57 06.07.2020
6031 Clouds 15 999 72 10000 6.7 190 22:38 06.07.2020
6032 Clouds 15 998 67 10000 6.7 190 22:18 06.07.2020
6033 Rain 15 998 67 10000 6.7 210 21:56 06.07.2020
6034 Rain 15 998 63 10000 7.2 210 21:36 06.07.2020
6035 Rain 15 998 63 10000 7.2 210 21:18 06.07.2020
6036 Clouds 16 998 67 10000 8.2 210 20:40 06.07.2020
6037 Clouds 16 998 63 10000 10.3 210 20:20 06.07.2020
6038 Clouds 16 998 59 10000 9.8 210 19:58 06.07.2020
6039 Clouds 17 998 63 10000 9.3 210 19:40 06.07.2020
6040 Clouds 17 998 63 10000 9.3 210 19:22 06.07.2020
6041 Clouds 17 998 67 10000 10.8 220 18:58 06.07.2020
6042 Clouds 17 998 59 10000 12.3 210 18:39 06.07.2020
6043 Clouds 17 998 59 10000 12.3 210 18:21 06.07.2020
6044 Clouds 17 998 59 10000 10.8 210 17:54 06.07.2020
6045 Clouds 18 998 59 10000 10.8 210 17:36 06.07.2020
6046 Clouds 18 998 59 10000 10.8 210 17:36 06.07.2020
6047 Clouds 18 998 59 10000 11.8 200 17:18 06.07.2020
6048 Clouds 17 997 52 10000 11.8 210 16:42 06.07.2020
6049 Rain 17 998 55 10000 10.8 210 16:22 06.07.2020
6050 Rain 17 997 55 10000 12.3 210 15:44 06.07.2020
6051 Clouds 17 997 52 10000 12.9 210 15:26 06.07.2020
6052 Rain 17 997 59 10000 11.8 210 14:57 06.07.2020
6053 Rain 17 997 59 10000 11.8 210 14:57 06.07.2020
6054 Rain 17 997 59 10000 11.8 210 14:38 06.07.2020
6055 Rain 17 997 55 10000 13.9 210 14:20 06.07.2020
6056 Rain 17 996 55 10000 12.3 210 13:58 06.07.2020
6057 Rain 17 996 55 10000 12.3 210 13:39 06.07.2020
6058 Rain 17 996 67 10000 9.8 220 13:20 06.07.2020
6059 Rain 17 996 67 10000 11.8 220 12:43 06.07.2020
6060 Rain 17 995 59 10000 12.3 220 12:20 06.07.2020
6061 Rain 17 995 59 10000 11.8 220 11:58 06.07.2020
6062 Rain 17 995 59 10000 11.8 220 11:39 06.07.2020
6063 Rain 17 995 59 10000 10.8 210 11:21 06.07.2020
6064 Clouds 17 995 59 10000 11.3 210 10:57 06.07.2020
6065 Clouds 16 995 59 10000 11.3 210 10:39 06.07.2020
6066 Clouds 17 994 59 10000 11.8 210 10:18 06.07.2020
6067 Clouds 17 994 63 10000 11.8 210 09:42 06.07.2020
6068 Clouds 17 994 59 10000 9.8 220 09:22 06.07.2020
6069 Clouds 16 993 72 10000 9.8 210 08:58 06.07.2020
6070 Clouds 16 993 77 10000 10.8 210 08:38 06.07.2020
6071 Clouds 16 993 77 10000 10.8 210 08:20 06.07.2020
6072 Clouds 16 993 77 10000 8.7 210 07:47 06.07.2020
6073 Clouds 16 993 77 10000 8.2 210 07:28 06.07.2020
6074 Clouds 15 993 87 10000 9.3 210 06:42 06.07.2020
6075 Clouds 16 993 82 10000 8.2 210 06:24 06.07.2020
6076 Clouds 15 993 87 10000 8.7 210 05:42 06.07.2020
6077 Clouds 15 993 87 10000 8.2 210 05:19 06.07.2020
6078 Clouds 16 992 87 10000 6.7 210 03:44 06.07.2020
6079 Rain 16 992 93 10000 8.7 220 02:24 06.07.2020
6080 Rain 16 992 93 10000 8.2 220 01:39 06.07.2020
6081 Clouds 16 992 93 10000 10.8 210 00:39 06.07.2020
6082 Clouds 16 992 93 10000 10.8 210 00:20 06.07.2020
6083 Rain 16 993 93 10000 8.7 210 23:44 05.07.2020
6084 Rain 16 993 93 10000 9.3 200 23:25 05.07.2020
6085 Rain 17 993 93 8000 10.8 190 22:59 05.07.2020
6086 Rain 17 993 93 8000 10.8 190 22:40 05.07.2020
6087 Rain 17 993 93 5000 10.3 190 22:20 05.07.2020
6088 Rain 16 993 93 4000 10.8 170 21:57 05.07.2020
6089 Rain 16 993 93 4000 10.8 170 21:39 05.07.2020
6090 Rain 16 993 100 4000 9.8 160 21:18 05.07.2020
6091 Rain 16 994 100 4000 8.7 160 20:57 05.07.2020
6092 Rain 15 995 100 4000 6.7 140 20:39 05.07.2020
6093 Rain 16 995 100 4000 6.7 140 20:20 05.07.2020
6094 Rain 15 996 93 2500 6.7 130 19:43 05.07.2020
6095 Rain 15 997 93 4000 6.2 140 19:21 05.07.2020
6096 Rain 15 998 93 8000 4.6 140 18:56 05.07.2020
6097 Rain 15 998 93 8000 4.6 140 18:38 05.07.2020
6098 Rain 16 999 87 7000 5.7 150 18:20 05.07.2020
6099 Rain 16 999 82 10000 3.6 140 17:43 05.07.2020
6100 Rain 17 1000 77 10000 3.6 170 17:20 05.07.2020
6101 Clouds 17 1000 77 10000 3.6 190 16:59 05.07.2020
6102 Clouds 17 1000 77 10000 3.6 190 16:41 05.07.2020
6103 Clouds 17 1001 77 10000 3.6 190 16:22 05.07.2020
6104 Clouds 17 1001 77 10000 4.1 190 15:41 05.07.2020
6105 Clouds 17 1001 77 10000 4.6 170 15:20 05.07.2020
6106 Clouds 17 1001 77 10000 4.6 160 14:59 05.07.2020
6107 Clouds 17 1001 77 10000 4.6 160 14:40 05.07.2020
6108 Clouds 16 1001 77 10000 3.6 170 14:20 05.07.2020
6109 Clouds 16 1001 77 10000 3.6 180 13:41 05.07.2020
6110 Clouds 16 1001 77 10000 3.6 180 13:41 05.07.2020
6111 Clouds 17 1001 77 10000 3.1 170 13:23 05.07.2020
6112 Clouds 17 1001 77 10000 3.1 160 12:46 05.07.2020
6113 Clouds 16 1002 72 10000 2.1 160 12:23 05.07.2020
6114 Clouds 16 1002 77 10000 1.5 100 11:57 05.07.2020
6115 Clouds 16 1002 77 10000 1.5 100 11:38 05.07.2020
6116 Clouds 15 1002 77 10000 1 0 11:38 05.07.2020
6117 Clouds 15 1002 77 10000 1 0 11:20 05.07.2020
6118 Clouds 15 1002 77 10000 1.5 0 10:56 05.07.2020
6119 Clouds 15 1002 82 10000 2.1 10 10:37 05.07.2020
6120 Clouds 15 1002 82 10000 2.1 10 10:18 05.07.2020
6121 Clouds 14 1002 87 10000 2.6 350 09:42 05.07.2020
6122 Clouds 14 1002 93 10000 2.6 340 09:20 05.07.2020
6123 Clouds 13 1002 93 10000 2.1 20 08:57 05.07.2020
6124 Clouds 13 1002 93 10000 2.1 20 08:38 05.07.2020
6125 Rain 13 1002 100 10000 3.1 360 08:18 05.07.2020
6126 Rain 13 1001 100 10000 3.1 330 07:40 05.07.2020
6127 Rain 13 1001 100 4000 3.1 340 07:22 05.07.2020
6128 Rain 13 1001 100 7000 2.6 340 06:45 05.07.2020
6129 Rain 14 1001 100 10000 1.5 340 04:27 05.07.2020
6130 Rain 15 1001 100 6000 6.7 230 03:18 05.07.2020
6131 Rain 15 1001 100 7000 4.6 200 02:40 05.07.2020
6132 Rain 15 1002 100 4500 5.1 200 01:59 05.07.2020
6133 Rain 15 1002 100 7000 5.7 200 01:28 05.07.2020
6134 Rain 15 1002 93 7000 5.7 200 00:52 05.07.2020
6135 Rain 15 1002 87 7000 6.2 210 00:31 05.07.2020
6136 Clouds 16 1003 87 10000 7.2 210 23:57 04.07.2020
6137 Clouds 16 1003 87 10000 7.7 210 23:33 04.07.2020
6138 Clouds 16 1003 87 10000 7.7 210 22:59 04.07.2020
6139 Clouds 16 1003 87 10000 7.7 210 22:41 04.07.2020
6140 Clouds 16 1003 87 10000 7.2 210 22:23 04.07.2020
6141 Clouds 16 1003 87 10000 7.7 210 21:58 04.07.2020
6142 Clouds 16 1003 87 10000 8.2 210 21:40 04.07.2020
6143 Clouds 16 1003 87 10000 8.2 210 21:22 04.07.2020
6144 Clouds 16 1003 87 10000 8.7 210 20:43 04.07.2020
6145 Rain 16 1003 87 10000 8.7 210 20:21 04.07.2020
6146 Rain 16 1003 87 10000 8.7 210 19:58 04.07.2020
6147 Rain 15 1003 87 10000 8.7 210 19:39 04.07.2020
6148 Rain 15 1003 87 10000 7.2 200 19:20 04.07.2020
6149 Rain 15 1003 87 10000 6.7 200 18:44 04.07.2020
6150 Rain 15 1004 93 10000 6.7 200 18:23 04.07.2020
6151 Rain 15 1004 93 7000 7.2 200 17:55 04.07.2020
6152 Rain 15 1004 93 7000 7.2 200 17:37 04.07.2020
6153 Rain 16 1004 87 10000 7.7 200 17:18 04.07.2020
6154 Clouds 16 1004 87 10000 6.2 220 16:55 04.07.2020
6155 Rain 15 1004 100 10000 4.6 190 16:36 04.07.2020
6156 Rain 15 1004 100 10000 4.6 190 16:18 04.07.2020
6157 Rain 14 1005 93 6000 6.2 180 15:41 04.07.2020
6158 Rain 14 1005 93 6000 8.2 170 15:21 04.07.2020
6159 Rain 14 1005 93 3000 6.2 160 14:57 04.07.2020
6160 Rain 14 1005 93 3000 6.2 160 14:37 04.07.2020
6161 Rain 14 1005 93 7000 7.7 170 14:18 04.07.2020
6162 Rain 15 1006 82 10000 5.1 170 13:42 04.07.2020
6163 Rain 15 1006 82 10000 4.6 180 13:20 04.07.2020
6164 Rain 16 1006 72 10000 5.1 200 12:56 04.07.2020
6165 Rain 16 1007 67 10000 7.7 200 12:38 04.07.2020
6166 Rain 16 1007 67 10000 7.7 200 12:19 04.07.2020
6167 Rain 17 1007 67 10000 7.2 190 11:44 04.07.2020
6168 Clouds 16 1007 77 10000 7.7 190 11:23 04.07.2020
6169 Clouds 16 1007 72 10000 8.2 180 10:56 04.07.2020
6170 Clouds 17 1007 72 10000 8.2 180 10:38 04.07.2020
6171 Clouds 16 1007 77 10000 6.2 180 10:19 04.07.2020
6172 Clouds 16 1007 72 10000 8.2 180 09:41 04.07.2020
6173 Clouds 17 1007 68 10000 7.2 180 09:22 04.07.2020
6174 Clouds 16 1007 77 10000 6.2 190 08:58 04.07.2020
6175 Clouds 16 1007 77 10000 6.2 190 08:39 04.07.2020
6176 Clouds 16 1007 82 10000 4.6 180 08:21 04.07.2020
6177 Clouds 16 1007 77 10000 6.2 180 07:41 04.07.2020
6178 Clouds 15 1008 77 10000 5.7 190 07:18 04.07.2020
6179 Clouds 15 1008 77 10000 5.7 190 06:38 04.07.2020
6180 Clouds 15 1008 77 10000 5.7 190 06:19 04.07.2020
6181 Clouds 14 1008 82 10000 3.6 190 05:29 04.07.2020
6182 Clouds 13 1008 76 10000 3.6 180 04:21 04.07.2020
6183 Clouds 13 1008 81 10000 3.1 180 02:41 04.07.2020
6184 Clouds 14 1009 76 10000 3.1 220 01:40 04.07.2020
6185 Clouds 14 1009 82 10000 3.1 210 00:54 04.07.2020
6186 Clouds 14 1009 82 10000 3.1 220 00:36 04.07.2020
6187 Clouds 14 1009 82 10000 3.1 220 00:18 04.07.2020
6188 Clouds 15 1009 76 10000 3.6 210 23:39 03.07.2020
6189 Clouds 15 1009 76 10000 3.6 210 23:18 03.07.2020
6190 Clouds 15 1009 71 10000 4.6 220 22:42 03.07.2020
6191 Clouds 15 1009 71 10000 4.1 220 22:24 03.07.2020
6192 Clouds 15 1008 67 10000 5.1 210 21:59 03.07.2020
6193 Clouds 15 1008 67 10000 5.1 210 21:38 03.07.2020
6194 Clouds 15 1008 67 10000 5.1 210 21:19 03.07.2020
6195 Clouds 16 1008 67 10000 5.7 200 20:43 03.07.2020
6196 Clouds 16 1008 59 10000 5.1 220 20:25 03.07.2020
6197 Clouds 17 1008 51 10000 5.7 220 19:56 03.07.2020
6198 Clouds 17 1008 48 10000 6.2 220 19:38 03.07.2020
6199 Clouds 18 1008 48 10000 6.2 220 19:18 03.07.2020
6200 Clouds 17 1008 52 10000 7.2 210 18:42 03.07.2020
6201 Clouds 18 1008 52 10000 6.7 220 18:23 03.07.2020
6202 Clouds 18 1008 52 10000 7.2 210 17:56 03.07.2020
6203 Clouds 18 1008 52 10000 7.2 210 17:37 03.07.2020
6204 Clouds 18 1008 52 10000 7.2 220 17:19 03.07.2020
6205 Clouds 18 1008 52 10000 7.2 220 17:19 03.07.2020
6206 Clouds 18 1008 48 10000 7.7 220 16:40 03.07.2020
6207 Clouds 19 1008 52 10000 8.2 210 16:20 03.07.2020
6208 Clouds 18 1008 55 10000 8.7 200 15:44 03.07.2020
6209 Clouds 19 1008 55 10000 8.7 210 15:23 03.07.2020
6210 Clouds 19 1007 56 10000 7.7 220 14:55 03.07.2020
6211 Clouds 19 1007 55 10000 7.7 210 14:37 03.07.2020
6212 Clouds 19 1007 55 10000 7.7 210 14:19 03.07.2020
6213 Clouds 19 1007 52 10000 7.7 220 13:41 03.07.2020
6214 Clouds 19 1007 52 10000 7.7 220 13:23 03.07.2020
6215 Clouds 18 1007 59 10000 8.2 210 12:45 03.07.2020
6216 Clouds 18 1007 59 10000 7.2 220 12:23 03.07.2020
6217 Clouds 18 1006 59 10000 7.2 210 11:57 03.07.2020
6218 Clouds 18 1006 59 10000 7.2 210 11:39 03.07.2020
6219 Clouds 18 1006 52 10000 7.2 220 11:19 03.07.2020
6220 Clouds 18 1006 52 10000 6.2 240 10:54 03.07.2020
6221 Clouds 18 1006 52 10000 6.2 240 10:36 03.07.2020
6222 Clouds 18 1006 55 10000 7.7 230 10:18 03.07.2020
6223 Clouds 18 1006 59 10000 6.7 220 09:40 03.07.2020
6224 Clouds 18 1005 59 10000 6.2 230 09:22 03.07.2020
6225 Clouds 18 1005 67 10000 6.2 240 08:58 03.07.2020
6226 Clouds 17 1005 77 10000 5.1 230 08:38 03.07.2020
6227 Clouds 16 1005 77 10000 5.1 230 08:18 03.07.2020
6228 Clouds 16 1005 77 10000 5.1 230 08:18 03.07.2020
6229 Clouds 16 1004 82 10000 4.6 250 07:47 03.07.2020
6230 Clouds 15 1004 87 10000 4.1 250 07:22 03.07.2020
6231 Clouds 15 1004 93 10000 3.6 250 06:38 03.07.2020
6232 Clouds 15 1003 93 10000 3.1 210 05:55 03.07.2020
6233 Clouds 15 1003 93 10000 3.1 210 05:55 03.07.2020
6234 Clouds 14 1003 93 10000 5.1 200 04:26 03.07.2020
6235 Clouds 14 1002 100 10000 2.6 210 02:57 03.07.2020
6236 Clouds 14 1002 100 10000 2.6 210 02:32 03.07.2020
6237 Clouds 15 1002 93 10000 3.6 230 01:43 03.07.2020
6238 Clouds 14 1002 100 10000 3.6 230 01:20 03.07.2020
6239 Clouds 14 1002 100 10000 3.6 230 01:20 03.07.2020
6240 Rain 15 1002 93 10000 5.1 250 00:42 03.07.2020
6241 Rain 15 1002 93 6000 3.6 140 23:59 02.07.2020
6242 Rain 15 1002 93 6000 3.6 140 23:39 02.07.2020
6243 Rain 16 1002 87 10000 3.6 150 23:19 02.07.2020
6244 Clouds 16 1002 93 10000 4.6 150 22:56 02.07.2020
6245 Clouds 16 1002 93 10000 4.6 150 22:38 02.07.2020
6246 Clouds 16 1002 93 10000 3.1 120 22:19 02.07.2020
6247 Clouds 16 1002 93 10000 3.6 120 21:42 02.07.2020
6248 Clouds 16 1003 93 10000 3.1 110 21:20 02.07.2020
6249 Clouds 16 1003 93 10000 3.6 120 20:59 02.07.2020
6250 Clouds 16 1003 93 10000 3.6 120 20:41 02.07.2020
6251 Rain 16 1003 93 10000 4.6 150 20:20 02.07.2020
6252 Rain 16 1003 93 7000 4.6 140 19:56 02.07.2020
6253 Rain 16 1003 82 10000 2.6 110 19:38 02.07.2020
6254 Rain 16 1003 82 10000 2.6 110 19:19 02.07.2020
6255 Rain 17 1003 82 10000 2.1 160 18:42 02.07.2020
6256 Rain 17 1003 72 7000 5.1 150 18:22 02.07.2020
6257 Rain 18 1003 68 10000 4.1 160 17:58 02.07.2020
6258 Rain 18 1003 68 10000 4.1 160 17:39 02.07.2020
6259 Clouds 18 1003 68 10000 4.1 160 17:19 02.07.2020
6260 Clouds 19 1003 55 10000 3.6 160 16:44 02.07.2020
6261 Clouds 19 1003 59 10000 3.1 0 16:22 02.07.2020
6262 Clouds 19 1003 55 10000 3.6 190 15:59 02.07.2020
6263 Clouds 19 1003 55 10000 3.6 190 15:38 02.07.2020
6264 Clouds 19 1003 55 10000 3.6 160 15:20 02.07.2020
6265 Clouds 19 1004 55 10000 4.1 180 14:46 02.07.2020
6266 Clouds 19 1004 55 10000 4.1 190 14:23 02.07.2020
6267 Clouds 18 1004 52 10000 3.1 0 13:57 02.07.2020
6268 Clouds 18 1004 52 10000 3.1 0 13:39 02.07.2020
6269 Clouds 19 1004 59 10000 2.6 150 13:19 02.07.2020
6270 Clouds 19 1004 52 10000 3.1 0 12:57 02.07.2020
6271 Clouds 18 1004 48 10000 2.1 0 12:38 02.07.2020
6272 Clouds 18 1004 48 10000 2.1 0 12:19 02.07.2020
6273 Clouds 17 1003 42 10000 1.5 0 11:42 02.07.2020
6274 Clouds 17 1003 48 10000 1.5 110 11:24 02.07.2020
6275 Clouds 17 1003 51 10000 1.5 0 10:47 02.07.2020
6276 Clouds 16 1003 55 10000 1 0 10:27 02.07.2020
6277 Clouds 16 1003 51 10000 0.5 0 09:57 02.07.2020
6278 Clouds 16 1003 51 10000 0.5 0 09:37 02.07.2020
6279 Clouds 16 1003 54 10000 2.1 80 09:19 02.07.2020
6280 Clouds 15 1003 58 10000 1 0 08:43 02.07.2020
6281 Rain 15 1003 62 10000 1.5 60 08:24 02.07.2020
6282 Rain 14 1002 67 10000 1 0 07:55 02.07.2020
6283 Rain 14 1002 67 10000 1 0 07:37 02.07.2020
6284 Clouds 14 1002 71 10000 0.5 0 07:18 02.07.2020
6285 Clouds 13 1002 76 10000 1 0 06:39 02.07.2020
6286 Clouds 13 1002 76 10000 1 0 06:19 02.07.2020
6287 Clouds 13 1002 87 10000 0.5 0 05:43 02.07.2020
6288 Clouds 13 1001 87 10000 1 320 03:36 02.07.2020
6289 Clouds 13 1000 87 10000 2.1 330 02:59 02.07.2020
6290 Clouds 13 1000 100 10000 1.5 270 00:47 02.07.2020
6291 Clouds 14 999 100 10000 1 270 00:23 02.07.2020
6292 Clouds 13 999 93 10000 2.1 240 23:46 01.07.2020
6293 Clouds 14 999 87 10000 3.1 230 23:27 01.07.2020
6294 Clouds 14 999 82 10000 3.6 250 22:56 01.07.2020
6295 Clouds 15 999 82 10000 3.6 250 22:38 01.07.2020
6296 Clouds 15 998 82 10000 3.1 250 22:19 01.07.2020
6297 Clouds 15 998 77 10000 3.1 260 21:58 01.07.2020
6298 Clouds 16 998 77 10000 3.1 260 21:39 01.07.2020
6299 Clouds 16 998 77 10000 4.6 260 21:20 01.07.2020
6300 Clouds 16 997 72 10000 5.7 260 20:47 01.07.2020
6301 Clouds 16 997 82 10000 5.1 250 20:29 01.07.2020
6302 Clouds 17 997 77 10000 4.6 240 19:58 01.07.2020
6303 Clouds 17 997 77 10000 4.6 240 19:40 01.07.2020
6304 Clouds 17 996 77 10000 5.7 230 19:21 01.07.2020
6305 Clouds 17 996 77 10000 5.1 240 18:58 01.07.2020
6306 Clouds 17 996 77 10000 5.1 240 18:40 01.07.2020
6307 Clouds 17 996 77 10000 6.2 240 18:21 01.07.2020
6308 Clouds 17 995 88 10000 4.1 230 17:55 01.07.2020
6309 Clouds 17 995 88 10000 4.1 230 17:55 01.07.2020
6310 Clouds 17 995 88 10000 4.1 230 17:55 01.07.2020
6311 Clouds 16 995 88 10000 4.1 230 17:37 01.07.2020
6312 Rain 17 995 93 8000 4.1 230 17:18 01.07.2020
6313 Rain 17 995 72 10000 4.6 230 16:42 01.07.2020
6314 Rain 17 995 72 10000 4.6 230 16:42 01.07.2020
6315 Clouds 18 994 72 10000 5.7 220 16:23 01.07.2020
6316 Thunderstorm 17 994 68 10000 7.2 220 15:43 01.07.2020
6317 Thunderstorm 17 994 68 10000 7.7 210 15:23 01.07.2020
6318 Thunderstorm 18 993 72 10000 7.7 210 14:58 01.07.2020
6319 Thunderstorm 17 993 72 10000 7.7 210 14:38 01.07.2020
6320 Clouds 17 993 82 10000 7.7 210 14:20 01.07.2020
6321 Clouds 17 993 77 10000 7.7 210 13:54 01.07.2020
6322 Clouds 17 993 77 10000 7.7 210 13:36 01.07.2020
6323 Thunderstorm 16 993 77 10000 7.2 210 13:18 01.07.2020
6324 Thunderstorm 16 993 87 10000 6.2 220 12:41 01.07.2020
6325 Thunderstorm 16 993 87 10000 5.7 220 12:22 01.07.2020
6326 Rain 17 992 77 7000 6.7 210 11:58 01.07.2020
6327 Rain 17 992 77 7000 6.7 210 11:40 01.07.2020
6328 Rain 16 992 82 10000 8.7 210 11:21 01.07.2020
6329 Thunderstorm 16 992 87 10000 7.2 180 10:43 01.07.2020
6330 Rain 16 992 93 10000 5.1 220 10:24 01.07.2020
6331 Rain 15 992 93 10000 5.1 230 09:59 01.07.2020
6332 Rain 15 992 93 10000 5.1 230 09:59 01.07.2020
6333 Rain 15 992 93 10000 5.1 230 09:38 01.07.2020
6334 Rain 15 992 93 10000 6.7 230 09:20 01.07.2020
6335 Rain 16 992 87 3000 9.3 210 08:57 01.07.2020
6336 Rain 16 992 87 3000 9.3 210 08:38 01.07.2020
6337 Rain 16 991 77 10000 9.3 210 08:19 01.07.2020
6338 Rain 16 991 77 10000 9.3 210 08:19 01.07.2020
6339 Rain 16 992 82 10000 8.2 200 07:40 01.07.2020
6340 Rain 16 992 82 10000 8.2 200 07:21 01.07.2020
6341 Rain 15 992 87 10000 6.7 210 06:51 01.07.2020
6342 Rain 15 992 87 10000 6.7 200 06:30 01.07.2020
6343 Rain 15 992 93 10000 6.7 200 05:30 01.07.2020
6344 Clouds 15 992 87 10000 6.2 200 03:55 01.07.2020
6345 Clouds 15 992 93 10000 5.7 200 03:36 01.07.2020
6346 Clouds 15 992 93 10000 5.7 200 03:18 01.07.2020
6347 Clouds 15 992 93 10000 6.2 210 01:53 01.07.2020
6348 Clouds 15 992 93 10000 5.1 220 00:48 01.07.2020
6349 Clouds 15 992 93 10000 6.7 200 00:26 01.07.2020
6350 Rain 15 993 100 9000 6.2 200 23:42 30.06.2020
6351 Rain 15 993 93 7000 4.6 200 23:23 30.06.2020
6352 Rain 14 993 93 8000 7.2 200 22:59 30.06.2020
6353 Rain 15 993 93 8000 7.2 200 22:40 30.06.2020
6354 Rain 15 993 82 10000 7.2 190 22:18 30.06.2020
6355 Clouds 15 993 82 10000 8.2 200 21:41 30.06.2020
6356 Clouds 15 993 82 10000 8.2 200 21:41 30.06.2020
6357 Clouds 16 993 72 10000 6.7 210 21:19 30.06.2020
6358 Clouds 16 993 72 10000 6.7 210 21:19 30.06.2020
6359 Clouds 16 993 77 10000 6.2 220 20:55 30.06.2020
6360 Rain 16 993 77 10000 5.7 230 20:37 30.06.2020
6361 Rain 16 993 77 10000 5.7 230 20:19 30.06.2020
6362 Rain 17 993 82 10000 6.7 230 19:42 30.06.2020
6363 Clouds 17 993 77 10000 6.2 220 19:19 30.06.2020
6364 Clouds 17 993 77 10000 5.7 220 18:46 30.06.2020
6365 Rain 16 993 87 10000 4.6 200 18:21 30.06.2020
6366 Rain 16 993 87 10000 3.6 200 17:59 30.06.2020
6367 Rain 16 993 87 10000 3.6 200 17:38 30.06.2020
6368 Rain 15 993 87 10000 5.1 240 17:19 30.06.2020
6369 Rain 14 993 93 10000 5.7 230 16:43 30.06.2020
6370 Rain 14 993 93 10000 5.7 220 16:24 30.06.2020
6371 Rain 14 993 93 10000 3.6 220 15:59 30.06.2020
6372 Rain 14 993 93 10000 3.6 220 15:40 30.06.2020
6373 Rain 14 993 100 8000 4.6 230 15:22 30.06.2020
6374 Rain 14 993 93 7000 4.6 240 14:56 30.06.2020
6375 Rain 14 993 93 10000 5.7 270 14:38 30.06.2020
6376 Rain 13 993 93 10000 5.7 270 14:18 30.06.2020
6377 Rain 13 992 93 10000 6.2 270 13:40 30.06.2020
6378 Rain 13 992 93 8000 6.7 270 13:20 30.06.2020
6379 Rain 13 992 93 8000 7.2 290 12:58 30.06.2020
6380 Rain 13 992 93 8000 7.2 290 12:58 30.06.2020
6381 Rain 13 992 93 8000 7.2 290 12:39 30.06.2020
6382 Rain 14 991 87 9000 8.2 300 12:20 30.06.2020
6383 Rain 14 992 93 7000 8.7 290 11:58 30.06.2020
6384 Rain 14 992 93 7000 8.7 290 11:38 30.06.2020
6385 Rain 15 992 93 4000 6.2 310 11:19 30.06.2020
6386 Rain 15 992 87 10000 6.2 330 10:56 30.06.2020
6387 Clouds 22 1011 64 10000 6.2 140 16:38 28.06.2020
6388 Clouds 22 1011 60 10000 5.7 130 16:20 28.06.2020
6389 Clouds 22 1011 60 10000 5.1 120 15:56 28.06.2020
6390 Clouds 22 1011 60 10000 5.1 120 15:56 28.06.2020
6391 Clouds 22 1011 60 10000 5.1 120 15:37 28.06.2020
6392 Clouds 23 1011 60 10000 5.1 130 15:18 28.06.2020
6393 Clouds 22 1011 64 10000 5.7 130 14:44 28.06.2020
6394 Clouds 22 1011 64 10000 6.2 140 14:25 28.06.2020
6395 Clouds 23 1011 57 10000 6.2 150 13:55 28.06.2020
6396 Clouds 23 1011 61 10000 6.7 150 13:37 28.06.2020
6397 Clouds 23 1011 61 10000 6.7 150 13:18 28.06.2020
6398 Clouds 23 1011 57 10000 4.6 140 12:55 28.06.2020
6399 Clouds 24 1011 57 10000 4.6 140 12:36 28.06.2020
6400 Clouds 24 1011 50 10000 2.6 0 12:18 28.06.2020
6401 Clouds 25 1011 47 10000 2.6 50 11:44 28.06.2020
6402 Clouds 24 1011 50 10000 3.6 70 11:21 28.06.2020
6403 Clouds 24 1011 50 10000 4.1 70 10:59 28.06.2020
6404 Clouds 24 1011 50 10000 4.1 70 10:41 28.06.2020
6405 Clear 24 1011 50 10000 4.1 60 10:23 28.06.2020
6406 Clear 24 1011 50 10000 3.1 60 09:43 28.06.2020
6407 Clouds 23 1011 53 10000 3.6 80 09:24 28.06.2020
6408 Clouds 23 1011 56 10000 4.1 90 08:58 28.06.2020
6409 Clouds 23 1011 56 10000 4.1 90 08:40 28.06.2020
6410 Clear 23 1011 56 10000 4.6 70 08:21 28.06.2020
6411 Clear 22 1011 60 10000 4.6 80 07:39 28.06.2020
6412 Clear 20 1011 68 10000 3.6 60 06:58 28.06.2020
6413 Clear 19 1011 72 10000 4.1 70 06:32 28.06.2020
6414 Clear 20 1011 72 10000 4.6 60 05:54 28.06.2020
6415 Clear 18 1010 77 10000 4.6 50 04:36 28.06.2020
6416 Clear 17 1010 87 10000 2.1 20 03:18 28.06.2020
6417 Clear 18 1010 87 10000 1 0 02:22 28.06.2020
6418 Clear 19 1011 77 10000 2.1 70 01:45 28.06.2020
6419 Clear 20 1010 87 10000 1 0 00:57 28.06.2020
6420 Clouds 20 1010 82 10000 2.09 329 00:31 28.06.2020
6421 Clouds 20 1011 82 10000 1 230 23:58 27.06.2020
6422 Clouds 20 1011 82 10000 1 230 23:40 27.06.2020
6423 Clouds 20 1011 77 10000 2.05 315 23:21 27.06.2020
6424 Clouds 21 1011 68 10000 1.5 210 22:43 27.06.2020
6425 Clear 22 1011 68 10000 2.1 180 22:23 27.06.2020
6426 Clear 22 1011 47 10000 2.6 190 21:59 27.06.2020
6427 Clear 25 1011 47 10000 2.6 190 21:41 27.06.2020
6428 Clear 25 1011 36 10000 2.6 200 21:20 27.06.2020
6429 Clear 26 1011 36 10000 3.1 210 20:55 27.06.2020
6430 Clear 26 1011 36 10000 3.1 210 20:37 27.06.2020
6431 Clear 26 1011 34 10000 2.6 220 20:18 27.06.2020
6432 Clear 27 1011 34 10000 3.6 220 19:38 27.06.2020
6433 Clear 27 1011 34 10000 3.6 220 19:19 27.06.2020
6434 Clear 28 1011 32 10000 4.6 210 18:57 27.06.2020
6435 Clouds 28 1011 35 10000 5.7 190 18:37 27.06.2020
6436 Clouds 28 1011 35 10000 5.7 190 18:19 27.06.2020
6437 Clouds 28 1012 35 10000 5.1 220 17:40 27.06.2020
6438 Clouds 28 1012 35 10000 6.2 180 17:20 27.06.2020
6439 Clouds 28 1012 35 10000 6.2 180 17:20 27.06.2020
6440 Clouds 28 1012 37 10000 5.7 180 16:57 27.06.2020
6441 Clouds 28 1012 37 10000 5.7 180 16:38 27.06.2020
6442 Clear 29 1012 37 10000 5.7 200 16:19 27.06.2020
6443 Clear 29 1013 37 10000 6.2 190 15:42 27.06.2020
6444 Clear 29 1013 37 10000 5.7 180 15:24 27.06.2020
6445 Clear 29 1013 37 10000 5.7 180 15:24 27.06.2020
6446 Clear 28 1013 39 10000 5.7 200 14:56 27.06.2020
6447 Clear 28 1013 39 10000 5.7 200 14:37 27.06.2020
6448 Clear 29 1013 35 10000 3.1 250 14:19 27.06.2020
6449 Clear 28 1014 36 10000 2.6 290 13:41 27.06.2020
6450 Clear 28 1014 39 10000 2.6 260 13:20 27.06.2020
6451 Clear 28 1014 37 10000 2.6 260 12:58 27.06.2020
6452 Clear 28 1014 37 10000 2.6 260 12:40 27.06.2020
6453 Clear 27 1014 36 10000 3.6 260 12:21 27.06.2020
6454 Clear 27 1014 39 10000 4.6 230 11:55 27.06.2020
6455 Clear 27 1014 39 10000 4.6 230 11:37 27.06.2020
6456 Clear 27 1015 37 10000 4.1 250 11:18 27.06.2020
6457 Clear 27 1015 39 10000 4.6 240 10:39 27.06.2020
6458 Clear 27 1015 44 10000 4.1 230 10:19 27.06.2020
6459 Clear 26 1015 47 10000 4.1 230 09:54 27.06.2020
6460 Clear 25 1015 47 10000 4.1 230 09:36 27.06.2020
6461 Clear 24 1015 47 10000 3.6 230 09:18 27.06.2020
6462 Clear 23 1015 50 10000 3.6 220 08:41 27.06.2020
6463 Clouds 22 1016 53 10000 3.6 230 08:22 27.06.2020
6464 Clouds 22 1016 53 10000 4.1 230 07:46 27.06.2020
6465 Clouds 22 1016 53 10000 3.1 230 07:24 27.06.2020
6466 Clouds 21 1016 52 10000 2.1 230 06:50 27.06.2020
6467 Clouds 19 1016 63 10000 2.1 230 06:29 27.06.2020
6468 Clear 15 1017 87 10000 2.35 269 04:24 27.06.2020
6469 Clear 15 1017 93 10000 1 0 03:53 27.06.2020
6470 Clear 16 1017 82 10000 2.6 240 03:23 27.06.2020
6471 Clear 16 1017 87 10000 3.6 230 02:36 27.06.2020
6472 Clear 17 1018 72 10000 3.1 250 01:49 27.06.2020
6473 Clear 18 1018 77 10000 2.6 280 01:24 27.06.2020
6474 Clear 19 1018 63 10000 2.1 250 00:38 27.06.2020
6475 Clear 20 1018 59 10000 3.1 240 23:46 26.06.2020
6476 Clear 20 1018 60 10000 3.6 230 23:26 26.06.2020
6477 Clear 19 1018 56 10000 4.1 230 22:57 26.06.2020
6478 Clear 21 1018 53 10000 4.1 230 22:38 26.06.2020
6479 Clear 22 1018 53 10000 4.1 230 22:19 26.06.2020
6480 Clear 22 1018 49 10000 4.1 230 21:57 26.06.2020
6481 Clear 23 1018 47 10000 4.6 220 21:37 26.06.2020
6482 Clear 23 1018 47 10000 4.6 220 21:19 26.06.2020
6483 Clear 24 1018 47 10000 4.6 230 20:43 26.06.2020
6484 Clear 25 1018 41 10000 4.6 220 20:21 26.06.2020
6485 Clear 25 1018 36 10000 5.1 230 19:47 26.06.2020
6486 Clear 25 1019 31 10000 5.7 220 19:23 26.06.2020
6487 Clear 26 1019 30 10000 6.7 220 18:57 26.06.2020
6488 Clear 26 1019 34 10000 6.7 230 18:37 26.06.2020
6489 Clear 27 1019 34 10000 6.7 230 18:19 26.06.2020
6490 Clear 27 1020 34 10000 6.7 220 17:44 26.06.2020
6491 Clear 27 1020 34 10000 7.2 220 17:24 26.06.2020
6492 Clear 27 1020 34 10000 6.7 220 16:49 26.06.2020
6493 Clear 27 1021 37 10000 6.2 230 16:27 26.06.2020
6494 Clear 27 1021 37 10000 6.2 220 15:55 26.06.2020
6495 Clear 27 1021 37 10000 6.2 220 15:37 26.06.2020
6496 Clear 27 1021 39 10000 7.7 200 15:19 26.06.2020
6497 Clear 28 1021 37 10000 6.2 220 14:56 26.06.2020
6498 Clear 28 1022 37 10000 6.7 210 14:38 26.06.2020
6499 Clear 27 1022 37 10000 6.7 210 14:19 26.06.2020
6500 Clear 27 1022 37 10000 6.2 220 13:44 26.06.2020
6501 Clear 27 1022 37 10000 5.1 220 13:22 26.06.2020
6502 Clear 25 1022 36 10000 5.1 230 12:43 26.06.2020
6503 Clear 26 1022 34 10000 6.2 230 12:24 26.06.2020
6504 Clear 26 1023 36 10000 5.1 230 11:59 26.06.2020
6505 Clear 25 1023 36 10000 5.1 230 11:41 26.06.2020
6506 Clear 25 1023 39 10000 4.6 230 11:22 26.06.2020
6507 Clear 25 1023 38 10000 5.1 230 10:59 26.06.2020
6508 Clear 25 1023 38 10000 5.1 230 10:40 26.06.2020
6509 Clear 23 1023 38 10000 4.6 230 10:19 26.06.2020
6510 Clear 23 1024 41 10000 4.6 230 09:45 26.06.2020
6511 Clear 22 1024 46 10000 5.1 220 09:26 26.06.2020
6512 Clear 22 1024 49 10000 5.1 210 08:59 26.06.2020
6513 Clear 22 1024 49 10000 5.1 210 08:41 26.06.2020
6514 Clear 22 1024 46 10000 3.1 230 08:23 26.06.2020
6515 Clear 21 1024 56 10000 1 0 07:44 26.06.2020
6516 Clear 20 1024 64 10000 1.5 260 07:22 26.06.2020
6517 Clear 20 1024 63 10000 2.1 280 06:47 26.06.2020
6518 Clear 19 1024 68 10000 1.5 240 06:28 26.06.2020
6519 Clear 17 1025 77 10000 1.5 270 05:51 26.06.2020
6520 Clear 16 1024 87 10000 0.5 260 04:44 26.06.2020
6521 Clear 16 1025 82 10000 2.46 267 02:27 26.06.2020
6522 Clear 18 1025 72 10000 1.5 270 01:25 26.06.2020
6523 Clear 17 1025 77 10000 2.1 270 00:42 26.06.2020
6524 Clear 19 1025 72 10000 2.6 240 00:20 26.06.2020
6525 Clear 19 1025 67 10000 2.1 240 23:46 25.06.2020
6526 Clear 18 1025 68 10000 1.5 260 23:21 25.06.2020
6527 Clear 17 1025 59 10000 2.6 240 22:57 25.06.2020
6528 Clear 18 1025 59 10000 2.6 240 22:38 25.06.2020
6529 Clear 20 1025 40 10000 3.1 240 22:19 25.06.2020
6530 Clear 21 1025 38 10000 2.6 240 21:56 25.06.2020
6531 Clear 23 1025 38 10000 2.6 240 21:38 25.06.2020
6532 Clear 25 1025 36 10000 3.1 240 21:20 25.06.2020
6533 Clear 25 1025 36 10000 4.1 230 20:45 25.06.2020
6534 Clear 26 1025 31 10000 5.1 230 20:24 25.06.2020
6535 Clear 26 1025 32 10000 4.6 220 19:59 25.06.2020
6536 Clear 27 1025 32 10000 4.6 220 19:40 25.06.2020
6537 Clear 27 1025 32 10000 5.1 220 19:19 25.06.2020
6538 Clear 27 1025 32 10000 5.1 220 19:19 25.06.2020
6539 Clear 27 1025 32 10000 5.1 220 18:58 25.06.2020
6540 Clear 28 1025 32 10000 5.1 210 18:38 25.06.2020
6541 Clear 28 1025 32 10000 5.1 210 18:19 25.06.2020
6542 Clear 28 1025 32 10000 4.6 230 17:42 25.06.2020
6543 Clear 28 1025 32 10000 5.1 220 17:20 25.06.2020
6544 Clear 28 1025 32 10000 5.1 220 17:20 25.06.2020
6545 Clear 29 1025 33 10000 4.6 220 16:57 25.06.2020
6546 Clear 28 1025 33 10000 4.6 220 16:37 25.06.2020
6547 Clear 28 1025 32 10000 4.1 240 16:18 25.06.2020
6548 Clear 28 1026 32 10000 4.1 230 15:41 25.06.2020
6549 Clear 29 1026 27 10000 4.1 210 15:22 25.06.2020
6550 Clear 29 1026 30 10000 3.6 220 14:44 25.06.2020
6551 Clear 29 1026 28 10000 3.6 240 14:25 25.06.2020
6552 Clear 29 1026 28 10000 3.1 230 13:59 25.06.2020
6553 Clear 29 1026 28 10000 3.1 230 13:41 25.06.2020
6554 Clear 28 1026 28 10000 2.6 0 13:19 25.06.2020
6555 Clear 28 1026 30 10000 3.6 220 12:46 25.06.2020
6556 Clear 27 1026 30 10000 4.1 230 12:21 25.06.2020
6557 Clear 27 1026 34 10000 3.1 300 11:59 25.06.2020
6558 Clear 27 1026 34 10000 3.1 290 11:40 25.06.2020
6559 Clear 27 1026 34 10000 3.1 290 11:21 25.06.2020
6560 Clear 27 1026 36 10000 3.1 280 10:42 25.06.2020
6561 Clear 26 1027 36 10000 3.1 280 10:24 25.06.2020
6562 Clear 25 1026 38 10000 4.1 280 09:42 25.06.2020
6563 Clear 24 1027 44 10000 3.6 280 09:23 25.06.2020
6564 Clear 24 1026 50 10000 2.6 280 08:59 25.06.2020
6565 Clear 24 1026 50 10000 2.6 280 08:40 25.06.2020
6566 Clear 23 1026 56 10000 2.6 270 08:18 25.06.2020
6567 Clear 23 1026 56 10000 3.6 280 07:42 25.06.2020
6568 Clear 22 1026 56 10000 3.6 280 07:24 25.06.2020
6569 Clear 21 1026 60 10000 3.6 280 06:37 25.06.2020
6570 Clear 18 1026 68 10000 2.6 280 06:18 25.06.2020
6571 Clear 18 1026 68 10000 2.6 280 05:31 25.06.2020
6572 Clear 17 1026 63 10000 3.6 290 03:39 25.06.2020
6573 Clear 17 1026 72 10000 3.6 290 02:46 25.06.2020
6574 Clear 17 1026 82 10000 3.6 290 02:25 25.06.2020
6575 Clear 18 1026 82 10000 2.6 280 01:41 25.06.2020
6576 Clear 18 1026 87 10000 1 280 00:50 25.06.2020
6577 Clear 19 1025 87 10000 3.06 305 00:22 25.06.2020
6578 Clear 20 1025 82 10000 0.5 0 23:58 24.06.2020
6579 Clear 20 1025 82 10000 0.5 0 23:38 24.06.2020
6580 Clear 20 1025 82 10000 1.5 230 23:19 24.06.2020
6581 Clear 20 1025 68 10000 2.6 210 22:42 24.06.2020
6582 Clear 21 1025 68 10000 2.1 180 22:21 24.06.2020
6583 Clear 22 1025 53 10000 2.1 130 21:57 24.06.2020
6584 Clear 22 1025 53 10000 2.1 130 21:37 24.06.2020
6585 Clouds 23 1025 44 10000 2.6 150 21:19 24.06.2020
6586 Clouds 24 1025 41 10000 3.1 180 20:58 24.06.2020
6587 Clouds 24 1025 41 10000 3.1 180 20:39 24.06.2020
6588 Clouds 25 1025 38 10000 3.6 180 20:21 24.06.2020
6589 Clouds 25 1025 39 10000 3.6 190 19:58 24.06.2020
6590 Clouds 25 1025 39 10000 3.6 190 19:38 24.06.2020
6591 Clouds 25 1025 31 10000 4.1 190 19:20 24.06.2020
6592 Clouds 25 1025 34 10000 4.1 180 18:58 24.06.2020
6593 Clouds 26 1025 34 10000 4.1 190 18:39 24.06.2020
6594 Clouds 26 1025 34 10000 4.1 190 18:20 24.06.2020
6595 Clouds 26 1025 36 10000 4.1 180 17:55 24.06.2020
6596 Clouds 26 1025 36 10000 4.1 180 17:37 24.06.2020
6597 Clouds 26 1025 28 10000 4.1 160 17:18 24.06.2020
6598 Clouds 26 1025 30 10000 4.1 160 16:55 24.06.2020
6599 Clouds 26 1025 32 10000 4.1 160 16:37 24.06.2020
6600 Clouds 26 1025 32 10000 4.1 160 16:19 24.06.2020
6601 Clouds 26 1025 36 10000 5.1 170 15:54 24.06.2020
6602 Clouds 25 1025 39 10000 5.1 180 15:36 24.06.2020
6603 Clouds 25 1025 39 10000 5.1 180 15:18 24.06.2020
6604 Clouds 24 1025 39 10000 5.1 160 14:40 24.06.2020
6605 Clouds 26 1024 42 10000 5.7 160 14:22 24.06.2020
6606 Clouds 26 1024 39 10000 4.1 170 13:42 24.06.2020
6607 Clouds 27 1024 39 10000 4.6 160 13:21 24.06.2020
6608 Clouds 26 1024 42 10000 1 0 12:45 24.06.2020
6609 Clouds 26 1024 34 10000 2.1 340 12:22 24.06.2020
6610 Clouds 26 1024 39 10000 1.5 0 11:58 24.06.2020
6611 Clouds 27 1024 39 10000 1.5 0 11:40 24.06.2020
6612 Clouds 26 1024 39 10000 2.1 110 11:22 24.06.2020
6613 Clouds 25 1024 44 10000 1.5 310 10:48 24.06.2020
6614 Clear 25 1024 41 10000 1.5 0 10:20 24.06.2020
6615 Clouds 26 1024 47 10000 0.5 0 09:56 24.06.2020
6616 Clear 24 1024 47 10000 1 0 09:38 24.06.2020
6617 Clear 24 1024 47 10000 1 0 09:19 24.06.2020
6618 Clear 23 1024 50 10000 0.5 0 08:40 24.06.2020
6619 Clear 22 1024 53 10000 0.5 0 08:19 24.06.2020
6620 Clear 21 1024 60 10000 1 0 07:48 24.06.2020
6621 Clear 21 1024 64 10000 1 0 07:25 24.06.2020
6622 Clear 19 1023 68 10000 1 0 06:46 24.06.2020
6623 Clear 18 1023 72 10000 0.5 0 06:24 24.06.2020
6624 Clear 18 1023 72 10000 0.5 0 06:24 24.06.2020
6625 Clear 17 1023 72 10000 1 0 05:45 24.06.2020
6626 Clear 16 1023 82 10000 1.5 320 04:39 24.06.2020
6627 Clear 15 1023 77 10000 1.5 300 03:39 24.06.2020
6628 Clear 16 1022 77 10000 2.1 300 02:55 24.06.2020
6629 Clear 16 1022 72 10000 1.5 300 02:36 24.06.2020
6630 Clear 17 1022 77 10000 3.6 310 00:53 24.06.2020
6631 Clear 17 1022 77 10000 3.6 310 00:53 24.06.2020
6632 Clear 18 1022 72 10000 2.6 310 00:34 24.06.2020
6633 Clear 18 1021 72 10000 2.1 270 23:49 23.06.2020
6634 Clear 19 1021 77 10000 2.1 250 23:23 23.06.2020
6635 Clear 19 1021 67 10000 1.5 240 22:59 23.06.2020
6636 Clear 19 1021 67 10000 1.5 240 22:59 23.06.2020
6637 Clear 16 1021 67 10000 1.5 240 22:41 23.06.2020
6638 Clear 20 1021 49 10000 2.6 230 22:19 23.06.2020
6639 Clear 21 1021 49 10000 3.1 220 21:56 23.06.2020
6640 Clear 21 1021 43 10000 3.1 220 21:37 23.06.2020
6641 Clear 22 1021 43 10000 3.1 220 21:18 23.06.2020
6642 Clear 22 1021 40 10000 3.1 240 20:55 23.06.2020
6643 Clear 23 1020 40 10000 3.6 230 20:36 23.06.2020
6644 Clear 23 1020 40 10000 3.6 230 20:36 23.06.2020
6645 Clear 23 1020 40 10000 3.6 230 20:18 23.06.2020
6646 Clear 23 1020 38 10000 4.1 180 19:41 23.06.2020
6647 Clear 24 1020 38 10000 4.1 180 19:23 23.06.2020
6648 Clear 24 1020 36 10000 5.1 180 18:39 23.06.2020
6649 Clear 24 1020 36 10000 5.1 180 18:19 23.06.2020
6650 Clear 24 1020 33 10000 5.1 180 17:43 23.06.2020
6651 Clear 24 1020 36 10000 5.1 180 17:25 23.06.2020
6652 Clear 24 1020 38 10000 5.1 180 16:57 23.06.2020
6653 Clear 24 1020 38 10000 5.1 180 16:38 23.06.2020
6654 Clear 24 1020 36 10000 5.1 170 16:20 23.06.2020
6655 Clear 24 1020 36 10000 5.7 160 15:57 23.06.2020
6656 Clear 23 1020 36 10000 5.7 160 15:57 23.06.2020
6657 Clear 25 1020 38 10000 5.7 180 15:39 23.06.2020
6658 Clear 25 1020 38 10000 5.7 180 15:18 23.06.2020
6659 Clear 24 1020 38 10000 5.7 180 14:43 23.06.2020
6660 Clear 24 1020 38 10000 5.7 190 14:20 23.06.2020
6661 Clear 24 1020 41 10000 6.2 200 13:57 23.06.2020
6662 Clear 24 1020 41 10000 6.2 200 13:39 23.06.2020
6663 Clear 23 1019 41 10000 5.1 180 13:20 23.06.2020
6664 Clear 23 1019 41 10000 5.1 170 12:45 23.06.2020
6665 Clear 23 1019 44 10000 3.6 0 12:23 23.06.2020
6666 Clear 23 1019 33 10000 1.5 0 11:58 23.06.2020
6667 Clear 23 1019 33 10000 1.5 0 11:40 23.06.2020
6668 Clear 24 1019 33 10000 2.1 80 11:19 23.06.2020
6669 Clear 23 1019 33 10000 1.5 0 10:57 23.06.2020
6670 Clear 23 1019 33 10000 1.5 0 10:39 23.06.2020
6671 Clear 22 1019 40 10000 2.6 320 10:21 23.06.2020
6672 Clear 23 1019 43 10000 1.5 310 09:42 23.06.2020
6673 Clear 21 1019 46 10000 0.5 0 09:21 23.06.2020
6674 Clear 21 1019 52 10000 1 0 08:58 23.06.2020
6675 Clear 20 1019 52 10000 1 0 08:39 23.06.2020
6676 Clear 20 1019 56 10000 2.1 320 08:20 23.06.2020
6677 Clear 19 1019 55 10000 1.5 350 07:40 23.06.2020
6678 Clear 19 1018 63 10000 2.1 350 07:22 23.06.2020
6679 Clear 17 1019 63 10000 1.5 340 06:49 23.06.2020
6680 Clear 16 1018 77 10000 1.5 310 06:31 23.06.2020
6681 Clear 14 1018 82 10000 1.88 33 05:42 23.06.2020
6682 Clear 11 1018 93 10000 1.58 25 03:39 23.06.2020
6683 Clear 11 1018 93 10000 1 30 02:56 23.06.2020
6684 Clear 12 1018 93 10000 1.69 5 02:37 23.06.2020
6685 Clear 12 1018 93 10000 1.72 8 02:19 23.06.2020